<?xml version="1.0" encoding="UTF-8" standalone="no" ?>
<gpx xmlns="http://www.topografix.com/GPX/1/1" xmlns:xsi="http://www.w3.org/2001/XMLSchema-instance" xsi:schemaLocation="http://www.topografix.com/GPX/1/1 http://www.topografix.com/GPX/1/1/gpx.xsd" version="1.1" creator="VisuGPX - https://www.visugpx.com">
  <metadata>
    <name>Villard de Lans</name>
    <desc><![CDATA[Villard de LAns-Bois Barbu]]></desc>
  </metadata>
  <trk>
    <name><![CDATA[Villard de Lans Bois Barbu]]></name>
    <trkseg>
      <trkpt lat="45.11565" lon="4.96304">
        <ele>206.90203857422</ele>
        <time>2011-08-10T11:32:11Z</time>
      </trkpt>
      <trkpt lat="45.1156" lon="4.96312">
        <ele>205.79565429688</ele>
        <time>2011-08-10T11:32:20Z</time>
      </trkpt>
      <trkpt lat="45.11545" lon="4.96366">
        <ele>200.32754516602</ele>
        <time>2011-08-10T11:32:30Z</time>
      </trkpt>
      <trkpt lat="45.11544" lon="4.96392">
        <ele>198.38510131836</ele>
        <time>2011-08-10T11:32:36Z</time>
      </trkpt>
      <trkpt lat="45.11544" lon="4.96407">
        <ele>197.2890625</ele>
        <time>2011-08-10T11:32:39Z</time>
      </trkpt>
      <trkpt lat="45.1155" lon="4.96428">
        <ele>196.31631469727</ele>
        <time>2011-08-10T11:32:43Z</time>
      </trkpt>
      <trkpt lat="45.11559" lon="4.9645">
        <ele>195.80342102051</ele>
        <time>2011-08-10T11:32:47Z</time>
      </trkpt>
      <trkpt lat="45.11567" lon="4.9646">
        <ele>195.72828674316</ele>
        <time>2011-08-10T11:32:51Z</time>
      </trkpt>
      <trkpt lat="45.11566" lon="4.96454">
        <ele>195.93449401856</ele>
        <time>2011-08-10T11:32:53Z</time>
      </trkpt>
      <trkpt lat="45.11552" lon="4.96422">
        <ele>196.67924499512</ele>
        <time>2011-08-10T11:32:59Z</time>
      </trkpt>
      <trkpt lat="45.11547" lon="4.96409">
        <ele>197.2746887207</ele>
        <time>2011-08-10T11:33:01Z</time>
      </trkpt>
      <trkpt lat="45.11544" lon="4.96383">
        <ele>199.03927612305</ele>
        <time>2011-08-10T11:33:05Z</time>
      </trkpt>
      <trkpt lat="45.11544" lon="4.96357">
        <ele>200.94148254394</ele>
        <time>2011-08-10T11:33:10Z</time>
      </trkpt>
      <trkpt lat="45.11541" lon="4.96351">
        <ele>201.15568542481</ele>
        <time>2011-08-10T11:33:13Z</time>
      </trkpt>
      <trkpt lat="45.11538" lon="4.96358">
        <ele>200.51866149902</ele>
        <time>2011-08-10T11:33:17Z</time>
      </trkpt>
      <trkpt lat="45.11535" lon="4.96375">
        <ele>199.16844177246</ele>
        <time>2011-08-10T11:33:22Z</time>
      </trkpt>
      <trkpt lat="45.11535" lon="4.96369">
        <ele>199.61599731445</ele>
        <time>2011-08-10T11:33:25Z</time>
      </trkpt>
      <trkpt lat="45.1154" lon="4.96369">
        <ele>199.83767700195</ele>
        <time>2011-08-10T11:33:28Z</time>
      </trkpt>
      <trkpt lat="45.11551" lon="4.96395">
        <ele>198.42762756348</ele>
        <time>2011-08-10T11:33:32Z</time>
      </trkpt>
      <trkpt lat="45.11555" lon="4.96406">
        <ele>197.81584167481</ele>
        <time>2011-08-10T11:33:34Z</time>
      </trkpt>
      <trkpt lat="45.1156" lon="4.96421">
        <ele>197.01666259766</ele>
        <time>2011-08-10T11:33:38Z</time>
      </trkpt>
      <trkpt lat="45.1156" lon="4.96425">
        <ele>196.85551452637</ele>
        <time>2011-08-10T11:33:47Z</time>
      </trkpt>
      <trkpt lat="45.11561" lon="4.96428">
        <ele>196.7624206543</ele>
        <time>2011-08-10T11:34:01Z</time>
      </trkpt>
      <trkpt lat="45.11561" lon="4.96428">
        <ele>196.75494384766</ele>
        <time>2011-08-10T11:34:02Z</time>
      </trkpt>
      <trkpt lat="45.11557" lon="4.96432">
        <ele>196.4483795166</ele>
        <time>2011-08-10T11:34:06Z</time>
      </trkpt>
      <trkpt lat="45.11558" lon="4.96447">
        <ele>195.88803100586</ele>
        <time>2011-08-10T11:34:10Z</time>
      </trkpt>
      <trkpt lat="45.11568" lon="4.96455">
        <ele>195.97525024414</ele>
        <time>2011-08-10T11:34:14Z</time>
      </trkpt>
      <trkpt lat="45.11572" lon="4.96451">
        <ele>196.28817749023</ele>
        <time>2011-08-10T11:34:18Z</time>
      </trkpt>
      <trkpt lat="45.11575" lon="4.96452">
        <ele>196.38305664062</ele>
        <time>2011-08-10T11:34:24Z</time>
      </trkpt>
      <trkpt lat="45.11576" lon="4.96452">
        <ele>196.42300415039</ele>
        <time>2011-08-10T11:34:55Z</time>
      </trkpt>
      <trkpt lat="45.11577" lon="4.96453">
        <ele>196.45071411133</ele>
        <time>2011-08-10T11:35:00Z</time>
      </trkpt>
      <trkpt lat="45.11577" lon="4.96453">
        <ele>196.43852233887</ele>
        <time>2011-08-10T11:35:01Z</time>
      </trkpt>
      <trkpt lat="45.11579" lon="4.96458">
        <ele>196.3215637207</ele>
        <time>2011-08-10T11:35:05Z</time>
      </trkpt>
      <trkpt lat="45.1158" lon="4.96479">
        <ele>195.60881042481</ele>
        <time>2011-08-10T11:35:11Z</time>
      </trkpt>
      <trkpt lat="45.1158" lon="4.96493">
        <ele>195.06880187988</ele>
        <time>2011-08-10T11:35:15Z</time>
      </trkpt>
      <trkpt lat="45.11579" lon="4.96504">
        <ele>194.80331420898</ele>
        <time>2011-08-10T11:35:21Z</time>
      </trkpt>
      <trkpt lat="45.11588" lon="4.96535">
        <ele>195.13795471191</ele>
        <time>2011-08-10T11:35:26Z</time>
      </trkpt>
      <trkpt lat="45.11612" lon="4.96596">
        <ele>195.14057922363</ele>
        <time>2011-08-10T11:35:35Z</time>
      </trkpt>
      <trkpt lat="45.11638" lon="4.96662">
        <ele>194.0908203125</ele>
        <time>2011-08-10T11:35:44Z</time>
      </trkpt>
      <trkpt lat="45.11662" lon="4.9672">
        <ele>195.21621704102</ele>
        <time>2011-08-10T11:35:52Z</time>
      </trkpt>
      <trkpt lat="45.11691" lon="4.96773">
        <ele>195.92097473144</ele>
        <time>2011-08-10T11:36:00Z</time>
      </trkpt>
      <trkpt lat="45.11726" lon="4.9683">
        <ele>195.31817626953</ele>
        <time>2011-08-10T11:36:09Z</time>
      </trkpt>
      <trkpt lat="45.11738" lon="4.96868">
        <ele>195.79557800293</ele>
        <time>2011-08-10T11:36:14Z</time>
      </trkpt>
      <trkpt lat="45.11747" lon="4.96878">
        <ele>196.05500793457</ele>
        <time>2011-08-10T11:36:16Z</time>
      </trkpt>
      <trkpt lat="45.11775" lon="4.96909">
        <ele>196.89947509766</ele>
        <time>2011-08-10T11:36:22Z</time>
      </trkpt>
      <trkpt lat="45.11823" lon="4.96984">
        <ele>198.42301940918</ele>
        <time>2011-08-10T11:36:34Z</time>
      </trkpt>
      <trkpt lat="45.11866" lon="4.97042">
        <ele>197.8864440918</ele>
        <time>2011-08-10T11:36:44Z</time>
      </trkpt>
      <trkpt lat="45.11874" lon="4.97053">
        <ele>197.7197265625</ele>
        <time>2011-08-10T11:36:46Z</time>
      </trkpt>
      <trkpt lat="45.1188" lon="4.97084">
        <ele>197.12168884277</ele>
        <time>2011-08-10T11:36:50Z</time>
      </trkpt>
      <trkpt lat="45.1188" lon="4.97092">
        <ele>197.07501220703</ele>
        <time>2011-08-10T11:36:51Z</time>
      </trkpt>
      <trkpt lat="45.11875" lon="4.97129">
        <ele>196.71951293945</ele>
        <time>2011-08-10T11:36:55Z</time>
      </trkpt>
      <trkpt lat="45.11877" lon="4.97178">
        <ele>196.50410461426</ele>
        <time>2011-08-10T11:37:00Z</time>
      </trkpt>
      <trkpt lat="45.11893" lon="4.97275">
        <ele>196.22401428223</ele>
        <time>2011-08-10T11:37:10Z</time>
      </trkpt>
      <trkpt lat="45.11908" lon="4.97361">
        <ele>195.9298248291</ele>
        <time>2011-08-10T11:37:19Z</time>
      </trkpt>
      <trkpt lat="45.11921" lon="4.97433">
        <ele>196.10215759277</ele>
        <time>2011-08-10T11:37:27Z</time>
      </trkpt>
      <trkpt lat="45.11936" lon="4.9752">
        <ele>196.57205200195</ele>
        <time>2011-08-10T11:37:37Z</time>
      </trkpt>
      <trkpt lat="45.11949" lon="4.97603">
        <ele>196.62007141113</ele>
        <time>2011-08-10T11:37:47Z</time>
      </trkpt>
      <trkpt lat="45.11962" lon="4.97669">
        <ele>196.20364379883</ele>
        <time>2011-08-10T11:37:55Z</time>
      </trkpt>
      <trkpt lat="45.11978" lon="4.97762">
        <ele>197.77136230469</ele>
        <time>2011-08-10T11:38:06Z</time>
      </trkpt>
      <trkpt lat="45.11994" lon="4.97853">
        <ele>198.23934936523</ele>
        <time>2011-08-10T11:38:17Z</time>
      </trkpt>
      <trkpt lat="45.12009" lon="4.97938">
        <ele>199.80267333984</ele>
        <time>2011-08-10T11:38:27Z</time>
      </trkpt>
      <trkpt lat="45.12029" lon="4.98013">
        <ele>201.94682312012</ele>
        <time>2011-08-10T11:38:36Z</time>
      </trkpt>
      <trkpt lat="45.12048" lon="4.98081">
        <ele>203.52546691894</ele>
        <time>2011-08-10T11:38:44Z</time>
      </trkpt>
      <trkpt lat="45.12061" lon="4.9815">
        <ele>205.74600219727</ele>
        <time>2011-08-10T11:38:52Z</time>
      </trkpt>
      <trkpt lat="45.12067" lon="4.98221">
        <ele>205.41331481934</ele>
        <time>2011-08-10T11:39:00Z</time>
      </trkpt>
      <trkpt lat="45.12061" lon="4.98296">
        <ele>204.3053894043</ele>
        <time>2011-08-10T11:39:08Z</time>
      </trkpt>
      <trkpt lat="45.1205" lon="4.98359">
        <ele>204.21697998047</ele>
        <time>2011-08-10T11:39:15Z</time>
      </trkpt>
      <trkpt lat="45.12044" lon="4.98382">
        <ele>204.6999206543</ele>
        <time>2011-08-10T11:39:18Z</time>
      </trkpt>
      <trkpt lat="45.12039" lon="4.98395">
        <ele>204.94253540039</ele>
        <time>2011-08-10T11:39:20Z</time>
      </trkpt>
      <trkpt lat="45.12023" lon="4.98406">
        <ele>205.01234436035</ele>
        <time>2011-08-10T11:39:24Z</time>
      </trkpt>
      <trkpt lat="45.12012" lon="4.98402">
        <ele>204.78804016113</ele>
        <time>2011-08-10T11:39:26Z</time>
      </trkpt>
      <trkpt lat="45.11993" lon="4.98397">
        <ele>204.32629394531</ele>
        <time>2011-08-10T11:39:29Z</time>
      </trkpt>
      <trkpt lat="45.11982" lon="4.98399">
        <ele>204.00881958008</ele>
        <time>2011-08-10T11:39:32Z</time>
      </trkpt>
      <trkpt lat="45.11981" lon="4.984">
        <ele>204.00724792481</ele>
        <time>2011-08-10T11:39:36Z</time>
      </trkpt>
      <trkpt lat="45.11982" lon="4.98397">
        <ele>203.98823547363</ele>
        <time>2011-08-10T11:43:08Z</time>
      </trkpt>
      <trkpt lat="45.11981" lon="4.98391">
        <ele>203.83897399902</ele>
        <time>2011-08-10T11:45:20Z</time>
      </trkpt>
      <trkpt lat="45.11975" lon="4.98381">
        <ele>203.49978637695</ele>
        <time>2011-08-10T11:45:26Z</time>
      </trkpt>
      <trkpt lat="45.11981" lon="4.98382">
        <ele>203.67707824707</ele>
        <time>2011-08-10T11:45:29Z</time>
      </trkpt>
      <trkpt lat="45.11988" lon="4.98389">
        <ele>204.02020263672</ele>
        <time>2011-08-10T11:45:32Z</time>
      </trkpt>
      <trkpt lat="45.12009" lon="4.98399">
        <ele>204.67474365234</ele>
        <time>2011-08-10T11:45:39Z</time>
      </trkpt>
      <trkpt lat="45.12028" lon="4.98417">
        <ele>205.33288574219</ele>
        <time>2011-08-10T11:45:46Z</time>
      </trkpt>
      <trkpt lat="45.12027" lon="4.98437">
        <ele>205.32830810547</ele>
        <time>2011-08-10T11:45:50Z</time>
      </trkpt>
      <trkpt lat="45.1202" lon="4.98476">
        <ele>205.24133300781</ele>
        <time>2011-08-10T11:45:57Z</time>
      </trkpt>
      <trkpt lat="45.12017" lon="4.98522">
        <ele>204.88473510742</ele>
        <time>2011-08-10T11:46:04Z</time>
      </trkpt>
      <trkpt lat="45.12016" lon="4.98578">
        <ele>204.08065795898</ele>
        <time>2011-08-10T11:46:12Z</time>
      </trkpt>
      <trkpt lat="45.12019" lon="4.98637">
        <ele>203.65254211426</ele>
        <time>2011-08-10T11:46:20Z</time>
      </trkpt>
      <trkpt lat="45.12025" lon="4.98683">
        <ele>203.46725463867</ele>
        <time>2011-08-10T11:46:26Z</time>
      </trkpt>
      <trkpt lat="45.12037" lon="4.98744">
        <ele>203.36892700195</ele>
        <time>2011-08-10T11:46:34Z</time>
      </trkpt>
      <trkpt lat="45.12053" lon="4.98804">
        <ele>203.73690795898</ele>
        <time>2011-08-10T11:46:42Z</time>
      </trkpt>
      <trkpt lat="45.12076" lon="4.98863">
        <ele>203.61723327637</ele>
        <time>2011-08-10T11:46:50Z</time>
      </trkpt>
      <trkpt lat="45.12104" lon="4.98919">
        <ele>203.99746704102</ele>
        <time>2011-08-10T11:46:58Z</time>
      </trkpt>
      <trkpt lat="45.12138" lon="4.98976">
        <ele>205.88375854492</ele>
        <time>2011-08-10T11:47:07Z</time>
      </trkpt>
      <trkpt lat="45.12167" lon="4.99012">
        <ele>206.90287780762</ele>
        <time>2011-08-10T11:47:14Z</time>
      </trkpt>
      <trkpt lat="45.12203" lon="4.99051">
        <ele>211.27395629883</ele>
        <time>2011-08-10T11:47:23Z</time>
      </trkpt>
      <trkpt lat="45.12207" lon="4.99056">
        <ele>211.58955383301</ele>
        <time>2011-08-10T11:47:24Z</time>
      </trkpt>
      <trkpt lat="45.12215" lon="4.9909">
        <ele>211.82359313965</ele>
        <time>2011-08-10T11:47:29Z</time>
      </trkpt>
      <trkpt lat="45.12213" lon="4.99106">
        <ele>211.47274780273</ele>
        <time>2011-08-10T11:47:31Z</time>
      </trkpt>
      <trkpt lat="45.12193" lon="4.99182">
        <ele>209.74841308594</ele>
        <time>2011-08-10T11:47:40Z</time>
      </trkpt>
      <trkpt lat="45.12172" lon="4.99261">
        <ele>208.34619140625</ele>
        <time>2011-08-10T11:47:49Z</time>
      </trkpt>
      <trkpt lat="45.12144" lon="4.99361">
        <ele>208.53509521484</ele>
        <time>2011-08-10T11:48:00Z</time>
      </trkpt>
      <trkpt lat="45.12119" lon="4.99444">
        <ele>208.00067138672</ele>
        <time>2011-08-10T11:48:10Z</time>
      </trkpt>
      <trkpt lat="45.12086" lon="4.99508">
        <ele>207.03425598144</ele>
        <time>2011-08-10T11:48:19Z</time>
      </trkpt>
      <trkpt lat="45.1205" lon="4.99575">
        <ele>207.31665039062</ele>
        <time>2011-08-10T11:48:29Z</time>
      </trkpt>
      <trkpt lat="45.12017" lon="4.99634">
        <ele>208.04176330566</ele>
        <time>2011-08-10T11:48:37Z</time>
      </trkpt>
      <trkpt lat="45.11959" lon="4.99737">
        <ele>208.18016052246</ele>
        <time>2011-08-10T11:48:50Z</time>
      </trkpt>
      <trkpt lat="45.11917" lon="4.998">
        <ele>211.39846801758</ele>
        <time>2011-08-10T11:48:59Z</time>
      </trkpt>
      <trkpt lat="45.11883" lon="4.99834">
        <ele>217.92211914062</ele>
        <time>2011-08-10T11:49:06Z</time>
      </trkpt>
      <trkpt lat="45.11848" lon="4.99857">
        <ele>224.13694763184</ele>
        <time>2011-08-10T11:49:13Z</time>
      </trkpt>
      <trkpt lat="45.11796" lon="4.99879">
        <ele>230.87254333496</ele>
        <time>2011-08-10T11:49:23Z</time>
      </trkpt>
      <trkpt lat="45.11755" lon="4.99897">
        <ele>234.31256103516</ele>
        <time>2011-08-10T11:49:31Z</time>
      </trkpt>
      <trkpt lat="45.11718" lon="4.99912">
        <ele>235.18768310547</ele>
        <time>2011-08-10T11:49:38Z</time>
      </trkpt>
      <trkpt lat="45.11677" lon="4.99933">
        <ele>235.46022033691</ele>
        <time>2011-08-10T11:49:46Z</time>
      </trkpt>
      <trkpt lat="45.11641" lon="4.99965">
        <ele>235.71110534668</ele>
        <time>2011-08-10T11:49:54Z</time>
      </trkpt>
      <trkpt lat="45.1161" lon="5.00006">
        <ele>244.41514587402</ele>
        <time>2011-08-10T11:50:02Z</time>
      </trkpt>
      <trkpt lat="45.11574" lon="5.00056">
        <ele>242.98460388184</ele>
        <time>2011-08-10T11:50:11Z</time>
      </trkpt>
      <trkpt lat="45.11527" lon="5.00105">
        <ele>241.38677978516</ele>
        <time>2011-08-10T11:50:21Z</time>
      </trkpt>
      <trkpt lat="45.11487" lon="5.00144">
        <ele>237.37757873535</ele>
        <time>2011-08-10T11:50:29Z</time>
      </trkpt>
      <trkpt lat="45.11433" lon="5.00194">
        <ele>237</ele>
        <time>2011-08-10T11:50:40Z</time>
      </trkpt>
      <trkpt lat="45.11395" lon="5.00231">
        <ele>237</ele>
        <time>2011-08-10T11:50:48Z</time>
      </trkpt>
      <trkpt lat="45.11348" lon="5.00273">
        <ele>237</ele>
        <time>2011-08-10T11:50:57Z</time>
      </trkpt>
      <trkpt lat="45.11288" lon="5.0032">
        <ele>237.50988769531</ele>
        <time>2011-08-10T11:51:08Z</time>
      </trkpt>
      <trkpt lat="45.11234" lon="5.00349">
        <ele>238</ele>
        <time>2011-08-10T11:51:18Z</time>
      </trkpt>
      <trkpt lat="45.11194" lon="5.00369">
        <ele>238.00601196289</ele>
        <time>2011-08-10T11:51:26Z</time>
      </trkpt>
      <trkpt lat="45.11146" lon="5.00394">
        <ele>240.23065185547</ele>
        <time>2011-08-10T11:51:36Z</time>
      </trkpt>
      <trkpt lat="45.11089" lon="5.00426">
        <ele>246.28912353516</ele>
        <time>2011-08-10T11:51:48Z</time>
      </trkpt>
      <trkpt lat="45.11037" lon="5.00459">
        <ele>252.35220336914</ele>
        <time>2011-08-10T11:51:59Z</time>
      </trkpt>
      <trkpt lat="45.10992" lon="5.00493">
        <ele>259.28607177734</ele>
        <time>2011-08-10T11:52:09Z</time>
      </trkpt>
      <trkpt lat="45.10953" lon="5.00523">
        <ele>264.4680480957</ele>
        <time>2011-08-10T11:52:18Z</time>
      </trkpt>
      <trkpt lat="45.10918" lon="5.00545">
        <ele>267.84893798828</ele>
        <time>2011-08-10T11:52:25Z</time>
      </trkpt>
      <trkpt lat="45.10881" lon="5.00561">
        <ele>270.16983032227</ele>
        <time>2011-08-10T11:52:31Z</time>
      </trkpt>
      <trkpt lat="45.10835" lon="5.00571">
        <ele>268.82299804688</ele>
        <time>2011-08-10T11:52:37Z</time>
      </trkpt>
      <trkpt lat="45.10778" lon="5.00579">
        <ele>264.92279052734</ele>
        <time>2011-08-10T11:52:43Z</time>
      </trkpt>
      <trkpt lat="45.10711" lon="5.0059">
        <ele>258.15798950195</ele>
        <time>2011-08-10T11:52:49Z</time>
      </trkpt>
      <trkpt lat="45.10652" lon="5.00613">
        <ele>252.49090576172</ele>
        <time>2011-08-10T11:52:54Z</time>
      </trkpt>
      <trkpt lat="45.10596" lon="5.00649">
        <ele>240.85400390625</ele>
        <time>2011-08-10T11:52:59Z</time>
      </trkpt>
      <trkpt lat="45.10498" lon="5.00729">
        <ele>225.63610839844</ele>
        <time>2011-08-10T11:53:08Z</time>
      </trkpt>
      <trkpt lat="45.10437" lon="5.00778">
        <ele>225.02354431152</ele>
        <time>2011-08-10T11:53:14Z</time>
      </trkpt>
      <trkpt lat="45.10384" lon="5.00821">
        <ele>228.08241271973</ele>
        <time>2011-08-10T11:53:20Z</time>
      </trkpt>
      <trkpt lat="45.10314" lon="5.00876">
        <ele>231.40084838867</ele>
        <time>2011-08-10T11:53:29Z</time>
      </trkpt>
      <trkpt lat="45.10246" lon="5.00935">
        <ele>234.07710266113</ele>
        <time>2011-08-10T11:53:39Z</time>
      </trkpt>
      <trkpt lat="45.10205" lon="5.0098">
        <ele>234.19598388672</ele>
        <time>2011-08-10T11:53:46Z</time>
      </trkpt>
      <trkpt lat="45.10199" lon="5.00986">
        <ele>234.27696228027</ele>
        <time>2011-08-10T11:53:47Z</time>
      </trkpt>
      <trkpt lat="45.10179" lon="5.01015">
        <ele>234.19488525391</ele>
        <time>2011-08-10T11:53:51Z</time>
      </trkpt>
      <trkpt lat="45.1015" lon="5.01059">
        <ele>233.3469543457</ele>
        <time>2011-08-10T11:53:57Z</time>
      </trkpt>
      <trkpt lat="45.10118" lon="5.01111">
        <ele>228.86206054688</ele>
        <time>2011-08-10T11:54:04Z</time>
      </trkpt>
      <trkpt lat="45.10107" lon="5.01135">
        <ele>227.89443969727</ele>
        <time>2011-08-10T11:54:07Z</time>
      </trkpt>
      <trkpt lat="45.10088" lon="5.01202">
        <ele>229.25695800781</ele>
        <time>2011-08-10T11:54:14Z</time>
      </trkpt>
      <trkpt lat="45.10079" lon="5.01273">
        <ele>230.70788574219</ele>
        <time>2011-08-10T11:54:21Z</time>
      </trkpt>
      <trkpt lat="45.10069" lon="5.01388">
        <ele>231.99098205566</ele>
        <time>2011-08-10T11:54:32Z</time>
      </trkpt>
      <trkpt lat="45.10059" lon="5.01518">
        <ele>234.08966064453</ele>
        <time>2011-08-10T11:54:44Z</time>
      </trkpt>
      <trkpt lat="45.10051" lon="5.01609">
        <ele>234.98573303223</ele>
        <time>2011-08-10T11:54:52Z</time>
      </trkpt>
      <trkpt lat="45.10035" lon="5.01687">
        <ele>236.19148254394</ele>
        <time>2011-08-10T11:54:59Z</time>
      </trkpt>
      <trkpt lat="45.10012" lon="5.01759">
        <ele>236.73065185547</ele>
        <time>2011-08-10T11:55:06Z</time>
      </trkpt>
      <trkpt lat="45.09977" lon="5.01855">
        <ele>236.96397399902</ele>
        <time>2011-08-10T11:55:16Z</time>
      </trkpt>
      <trkpt lat="45.09971" lon="5.01873">
        <ele>236.97918701172</ele>
        <time>2011-08-10T11:55:18Z</time>
      </trkpt>
      <trkpt lat="45.09946" lon="5.01945">
        <ele>238</ele>
        <time>2011-08-10T11:55:26Z</time>
      </trkpt>
      <trkpt lat="45.09911" lon="5.02047">
        <ele>239</ele>
        <time>2011-08-10T11:55:37Z</time>
      </trkpt>
      <trkpt lat="45.09884" lon="5.02125">
        <ele>241.78372192383</ele>
        <time>2011-08-10T11:55:46Z</time>
      </trkpt>
      <trkpt lat="45.09858" lon="5.02199">
        <ele>246.30612182617</ele>
        <time>2011-08-10T11:55:55Z</time>
      </trkpt>
      <trkpt lat="45.09845" lon="5.02239">
        <ele>249.2003326416</ele>
        <time>2011-08-10T11:56:00Z</time>
      </trkpt>
      <trkpt lat="45.09841" lon="5.02271">
        <ele>251.54179382324</ele>
        <time>2011-08-10T11:56:04Z</time>
      </trkpt>
      <trkpt lat="45.09844" lon="5.02294">
        <ele>252.80065917969</ele>
        <time>2011-08-10T11:56:07Z</time>
      </trkpt>
      <trkpt lat="45.09865" lon="5.02374">
        <ele>258.48529052734</ele>
        <time>2011-08-10T11:56:18Z</time>
      </trkpt>
      <trkpt lat="45.09877" lon="5.02409">
        <ele>261.59915161133</ele>
        <time>2011-08-10T11:56:23Z</time>
      </trkpt>
      <trkpt lat="45.09901" lon="5.02465">
        <ele>262</ele>
        <time>2011-08-10T11:56:30Z</time>
      </trkpt>
      <trkpt lat="45.09905" lon="5.02474">
        <ele>262</ele>
        <time>2011-08-10T11:56:31Z</time>
      </trkpt>
      <trkpt lat="45.09921" lon="5.02515">
        <ele>261.44519042969</ele>
        <time>2011-08-10T11:56:35Z</time>
      </trkpt>
      <trkpt lat="45.09961" lon="5.02562">
        <ele>260.04205322266</ele>
        <time>2011-08-10T11:56:40Z</time>
      </trkpt>
      <trkpt lat="45.09988" lon="5.02631">
        <ele>254.01278686523</ele>
        <time>2011-08-10T11:56:45Z</time>
      </trkpt>
      <trkpt lat="45.10002" lon="5.02668">
        <ele>249.66688537598</ele>
        <time>2011-08-10T11:56:48Z</time>
      </trkpt>
      <trkpt lat="45.1004" lon="5.02717">
        <ele>239.76805114746</ele>
        <time>2011-08-10T11:56:53Z</time>
      </trkpt>
      <trkpt lat="45.10048" lon="5.02728">
        <ele>238.8518371582</ele>
        <time>2011-08-10T11:56:54Z</time>
      </trkpt>
      <trkpt lat="45.10063" lon="5.02773">
        <ele>237.5108795166</ele>
        <time>2011-08-10T11:56:57Z</time>
      </trkpt>
      <trkpt lat="45.10061" lon="5.02803">
        <ele>236.30810546875</ele>
        <time>2011-08-10T11:56:59Z</time>
      </trkpt>
      <trkpt lat="45.10051" lon="5.02825">
        <ele>235.23210144043</ele>
        <time>2011-08-10T11:57:01Z</time>
      </trkpt>
      <trkpt lat="45.10043" lon="5.02871">
        <ele>233.82164001465</ele>
        <time>2011-08-10T11:57:06Z</time>
      </trkpt>
      <trkpt lat="45.1004" lon="5.02905">
        <ele>232.23704528809</ele>
        <time>2011-08-10T11:57:09Z</time>
      </trkpt>
      <trkpt lat="45.10011" lon="5.03003">
        <ele>224.36791992188</ele>
        <time>2011-08-10T11:57:17Z</time>
      </trkpt>
      <trkpt lat="45.09992" lon="5.03071">
        <ele>221.78880310059</ele>
        <time>2011-08-10T11:57:22Z</time>
      </trkpt>
      <trkpt lat="45.09955" lon="5.03202">
        <ele>225.58427429199</ele>
        <time>2011-08-10T11:57:32Z</time>
      </trkpt>
      <trkpt lat="45.09925" lon="5.03307">
        <ele>220</ele>
        <time>2011-08-10T11:57:40Z</time>
      </trkpt>
      <trkpt lat="45.09889" lon="5.03431">
        <ele>218.99645996094</ele>
        <time>2011-08-10T11:57:49Z</time>
      </trkpt>
      <trkpt lat="45.09864" lon="5.03474">
        <ele>217.23864746094</ele>
        <time>2011-08-10T11:57:53Z</time>
      </trkpt>
      <trkpt lat="45.09822" lon="5.03536">
        <ele>215.47041320801</ele>
        <time>2011-08-10T11:58:00Z</time>
      </trkpt>
      <trkpt lat="45.09799" lon="5.03575">
        <ele>214.2451171875</ele>
        <time>2011-08-10T11:58:05Z</time>
      </trkpt>
      <trkpt lat="45.0979" lon="5.03602">
        <ele>214.53692626953</ele>
        <time>2011-08-10T11:58:08Z</time>
      </trkpt>
      <trkpt lat="45.09786" lon="5.03648">
        <ele>215.90850830078</ele>
        <time>2011-08-10T11:58:13Z</time>
      </trkpt>
      <trkpt lat="45.09797" lon="5.03722">
        <ele>218.69808959961</ele>
        <time>2011-08-10T11:58:20Z</time>
      </trkpt>
      <trkpt lat="45.0981" lon="5.03789">
        <ele>216.94152832031</ele>
        <time>2011-08-10T11:58:26Z</time>
      </trkpt>
      <trkpt lat="45.09832" lon="5.03854">
        <ele>216.17565917969</ele>
        <time>2011-08-10T11:58:32Z</time>
      </trkpt>
      <trkpt lat="45.09863" lon="5.03933">
        <ele>215.46606445312</ele>
        <time>2011-08-10T11:58:40Z</time>
      </trkpt>
      <trkpt lat="45.09881" lon="5.03983">
        <ele>214.33309936523</ele>
        <time>2011-08-10T11:58:45Z</time>
      </trkpt>
      <trkpt lat="45.09885" lon="5.04027">
        <ele>213.99470520019</ele>
        <time>2011-08-10T11:58:49Z</time>
      </trkpt>
      <trkpt lat="45.09882" lon="5.04048">
        <ele>214.7353515625</ele>
        <time>2011-08-10T11:58:51Z</time>
      </trkpt>
      <trkpt lat="45.09862" lon="5.0413">
        <ele>217.69158935547</ele>
        <time>2011-08-10T11:58:59Z</time>
      </trkpt>
      <trkpt lat="45.09837" lon="5.0417">
        <ele>218.37258911133</ele>
        <time>2011-08-10T11:59:04Z</time>
      </trkpt>
      <trkpt lat="45.09777" lon="5.04231">
        <ele>219.99208068848</ele>
        <time>2011-08-10T11:59:14Z</time>
      </trkpt>
      <trkpt lat="45.09705" lon="5.04302">
        <ele>220</ele>
        <time>2011-08-10T11:59:26Z</time>
      </trkpt>
      <trkpt lat="45.09669" lon="5.04346">
        <ele>220</ele>
        <time>2011-08-10T11:59:33Z</time>
      </trkpt>
      <trkpt lat="45.09647" lon="5.04392">
        <ele>220</ele>
        <time>2011-08-10T11:59:39Z</time>
      </trkpt>
      <trkpt lat="45.09628" lon="5.04457">
        <ele>220</ele>
        <time>2011-08-10T11:59:46Z</time>
      </trkpt>
      <trkpt lat="45.09618" lon="5.04486">
        <ele>220</ele>
        <time>2011-08-10T11:59:49Z</time>
      </trkpt>
      <trkpt lat="45.09615" lon="5.04506">
        <ele>220</ele>
        <time>2011-08-10T11:59:51Z</time>
      </trkpt>
      <trkpt lat="45.096" lon="5.04543">
        <ele>220</ele>
        <time>2011-08-10T11:59:55Z</time>
      </trkpt>
      <trkpt lat="45.09577" lon="5.04587">
        <ele>220</ele>
        <time>2011-08-10T12:00:00Z</time>
      </trkpt>
      <trkpt lat="45.09545" lon="5.04618">
        <ele>220</ele>
        <time>2011-08-10T12:00:05Z</time>
      </trkpt>
      <trkpt lat="45.09515" lon="5.04635">
        <ele>220.06913757324</ele>
        <time>2011-08-10T12:00:09Z</time>
      </trkpt>
      <trkpt lat="45.09451" lon="5.0466">
        <ele>220.38824462891</ele>
        <time>2011-08-10T12:00:17Z</time>
      </trkpt>
      <trkpt lat="45.09404" lon="5.04681">
        <ele>220.95318603516</ele>
        <time>2011-08-10T12:00:23Z</time>
      </trkpt>
      <trkpt lat="45.09357" lon="5.0471">
        <ele>219.79403686523</ele>
        <time>2011-08-10T12:00:29Z</time>
      </trkpt>
      <trkpt lat="45.09314" lon="5.0475">
        <ele>214.96882629394</ele>
        <time>2011-08-10T12:00:35Z</time>
      </trkpt>
      <trkpt lat="45.09303" lon="5.04783">
        <ele>211.19309997559</ele>
        <time>2011-08-10T12:00:39Z</time>
      </trkpt>
      <trkpt lat="45.09299" lon="5.04867">
        <ele>205.14392089844</ele>
        <time>2011-08-10T12:00:47Z</time>
      </trkpt>
      <trkpt lat="45.09297" lon="5.04886">
        <ele>203.00923156738</ele>
        <time>2011-08-10T12:00:49Z</time>
      </trkpt>
      <trkpt lat="45.09285" lon="5.04917">
        <ele>201.04151916504</ele>
        <time>2011-08-10T12:00:53Z</time>
      </trkpt>
      <trkpt lat="45.09248" lon="5.04972">
        <ele>200</ele>
        <time>2011-08-10T12:01:02Z</time>
      </trkpt>
      <trkpt lat="45.09238" lon="5.05017">
        <ele>200.69197082519</ele>
        <time>2011-08-10T12:01:08Z</time>
      </trkpt>
      <trkpt lat="45.09239" lon="5.05033">
        <ele>201.40974426269</ele>
        <time>2011-08-10T12:01:10Z</time>
      </trkpt>
      <trkpt lat="45.09258" lon="5.05092">
        <ele>207.95478820801</ele>
        <time>2011-08-10T12:01:18Z</time>
      </trkpt>
      <trkpt lat="45.09283" lon="5.05146">
        <ele>216.87222290039</ele>
        <time>2011-08-10T12:01:26Z</time>
      </trkpt>
      <trkpt lat="45.09318" lon="5.05207">
        <ele>224.52786254883</ele>
        <time>2011-08-10T12:01:35Z</time>
      </trkpt>
      <trkpt lat="45.09362" lon="5.05281">
        <ele>223.84803771973</ele>
        <time>2011-08-10T12:01:45Z</time>
      </trkpt>
      <trkpt lat="45.09388" lon="5.05327">
        <ele>220.8752746582</ele>
        <time>2011-08-10T12:01:51Z</time>
      </trkpt>
      <trkpt lat="45.09413" lon="5.0539">
        <ele>219</ele>
        <time>2011-08-10T12:01:59Z</time>
      </trkpt>
      <trkpt lat="45.09425" lon="5.0545">
        <ele>219.28527832031</ele>
        <time>2011-08-10T12:02:06Z</time>
      </trkpt>
      <trkpt lat="45.09433" lon="5.05552">
        <ele>219.60113525391</ele>
        <time>2011-08-10T12:02:17Z</time>
      </trkpt>
      <trkpt lat="45.09435" lon="5.05628">
        <ele>219.65606689453</ele>
        <time>2011-08-10T12:02:25Z</time>
      </trkpt>
      <trkpt lat="45.09425" lon="5.05708">
        <ele>219.31274414062</ele>
        <time>2011-08-10T12:02:33Z</time>
      </trkpt>
      <trkpt lat="45.09409" lon="5.05792">
        <ele>219</ele>
        <time>2011-08-10T12:02:41Z</time>
      </trkpt>
      <trkpt lat="45.09384" lon="5.05895">
        <ele>218.81585693359</ele>
        <time>2011-08-10T12:02:51Z</time>
      </trkpt>
      <trkpt lat="45.09375" lon="5.05969">
        <ele>219.5</ele>
        <time>2011-08-10T12:02:58Z</time>
      </trkpt>
      <trkpt lat="45.09366" lon="5.06094">
        <ele>219.17041015625</ele>
        <time>2011-08-10T12:03:10Z</time>
      </trkpt>
      <trkpt lat="45.09367" lon="5.06185">
        <ele>219.22534179688</ele>
        <time>2011-08-10T12:03:19Z</time>
      </trkpt>
      <trkpt lat="45.0937" lon="5.0627">
        <ele>219.33520507812</ele>
        <time>2011-08-10T12:03:28Z</time>
      </trkpt>
      <trkpt lat="45.09373" lon="5.06363">
        <ele>219.41760253906</ele>
        <time>2011-08-10T12:03:38Z</time>
      </trkpt>
      <trkpt lat="45.09377" lon="5.06467">
        <ele>219.55493164062</ele>
        <time>2011-08-10T12:03:49Z</time>
      </trkpt>
      <trkpt lat="45.09381" lon="5.06541">
        <ele>219.73345947266</ele>
        <time>2011-08-10T12:03:57Z</time>
      </trkpt>
      <trkpt lat="45.0938" lon="5.06615">
        <ele>219.67852783203</ele>
        <time>2011-08-10T12:04:05Z</time>
      </trkpt>
      <trkpt lat="45.09372" lon="5.0669">
        <ele>219.37640380859</ele>
        <time>2011-08-10T12:04:13Z</time>
      </trkpt>
      <trkpt lat="45.09368" lon="5.06766">
        <ele>219.23907470703</ele>
        <time>2011-08-10T12:04:21Z</time>
      </trkpt>
      <trkpt lat="45.09373" lon="5.06862">
        <ele>219.41760253906</ele>
        <time>2011-08-10T12:04:31Z</time>
      </trkpt>
      <trkpt lat="45.09378" lon="5.06969">
        <ele>219.62359619141</ele>
        <time>2011-08-10T12:04:42Z</time>
      </trkpt>
      <trkpt lat="45.09384" lon="5.07068">
        <ele>219.82958984375</ele>
        <time>2011-08-10T12:04:53Z</time>
      </trkpt>
      <trkpt lat="45.09387" lon="5.07135">
        <ele>219.99092102051</ele>
        <time>2011-08-10T12:05:01Z</time>
      </trkpt>
      <trkpt lat="45.09387" lon="5.07151">
        <ele>220</ele>
        <time>2011-08-10T12:05:03Z</time>
      </trkpt>
      <trkpt lat="45.09377" lon="5.0719">
        <ele>220</ele>
        <time>2011-08-10T12:05:08Z</time>
      </trkpt>
      <trkpt lat="45.09358" lon="5.07208">
        <ele>219.88201904297</ele>
        <time>2011-08-10T12:05:12Z</time>
      </trkpt>
      <trkpt lat="45.09346" lon="5.07214">
        <ele>219.47003173828</ele>
        <time>2011-08-10T12:05:14Z</time>
      </trkpt>
      <trkpt lat="45.09324" lon="5.07246">
        <ele>218.64605712891</ele>
        <time>2011-08-10T12:05:19Z</time>
      </trkpt>
      <trkpt lat="45.09296" lon="5.07304">
        <ele>217.67102050781</ele>
        <time>2011-08-10T12:05:26Z</time>
      </trkpt>
      <trkpt lat="45.09261" lon="5.07379">
        <ele>218</ele>
        <time>2011-08-10T12:05:35Z</time>
      </trkpt>
      <trkpt lat="45.09214" lon="5.07477">
        <ele>218</ele>
        <time>2011-08-10T12:05:47Z</time>
      </trkpt>
      <trkpt lat="45.09173" lon="5.07563">
        <ele>219</ele>
        <time>2011-08-10T12:05:58Z</time>
      </trkpt>
      <trkpt lat="45.09137" lon="5.0764">
        <ele>219.13095092773</ele>
        <time>2011-08-10T12:06:08Z</time>
      </trkpt>
      <trkpt lat="45.09109" lon="5.0768">
        <ele>222.06840515137</ele>
        <time>2011-08-10T12:06:14Z</time>
      </trkpt>
      <trkpt lat="45.09063" lon="5.07726">
        <ele>227.03997802734</ele>
        <time>2011-08-10T12:06:23Z</time>
      </trkpt>
      <trkpt lat="45.09002" lon="5.07781">
        <ele>233.07185363769</ele>
        <time>2011-08-10T12:06:34Z</time>
      </trkpt>
      <trkpt lat="45.08947" lon="5.07816">
        <ele>236.28707885742</ele>
        <time>2011-08-10T12:06:42Z</time>
      </trkpt>
      <trkpt lat="45.08895" lon="5.07848">
        <ele>239.52453613281</ele>
        <time>2011-08-10T12:06:49Z</time>
      </trkpt>
      <trkpt lat="45.08881" lon="5.07861">
        <ele>240</ele>
        <time>2011-08-10T12:06:51Z</time>
      </trkpt>
      <trkpt lat="45.08849" lon="5.07909">
        <ele>241.81771850586</ele>
        <time>2011-08-10T12:06:56Z</time>
      </trkpt>
      <trkpt lat="45.08841" lon="5.07933">
        <ele>242.46748352051</ele>
        <time>2011-08-10T12:06:58Z</time>
      </trkpt>
      <trkpt lat="45.08818" lon="5.08052">
        <ele>237.91351318359</ele>
        <time>2011-08-10T12:07:07Z</time>
      </trkpt>
      <trkpt lat="45.08792" lon="5.08188">
        <ele>229.85693359375</ele>
        <time>2011-08-10T12:07:17Z</time>
      </trkpt>
      <trkpt lat="45.08772" lon="5.08326">
        <ele>223.28837585449</ele>
        <time>2011-08-10T12:07:27Z</time>
      </trkpt>
      <trkpt lat="45.08756" lon="5.0845">
        <ele>217.03955078125</ele>
        <time>2011-08-10T12:07:36Z</time>
      </trkpt>
      <trkpt lat="45.08754" lon="5.08464">
        <ele>216.46276855469</ele>
        <time>2011-08-10T12:07:37Z</time>
      </trkpt>
      <trkpt lat="45.08739" lon="5.08574">
        <ele>209.80276489258</ele>
        <time>2011-08-10T12:07:45Z</time>
      </trkpt>
      <trkpt lat="45.08737" lon="5.08587">
        <ele>208.88140869141</ele>
        <time>2011-08-10T12:07:46Z</time>
      </trkpt>
      <trkpt lat="45.08731" lon="5.0865">
        <ele>205.25253295898</ele>
        <time>2011-08-10T12:07:51Z</time>
      </trkpt>
      <trkpt lat="45.08729" lon="5.08661">
        <ele>204.66546630859</ele>
        <time>2011-08-10T12:07:52Z</time>
      </trkpt>
      <trkpt lat="45.08703" lon="5.08765">
        <ele>199.15007019043</ele>
        <time>2011-08-10T12:08:01Z</time>
      </trkpt>
      <trkpt lat="45.08667" lon="5.08894">
        <ele>194.04594421387</ele>
        <time>2011-08-10T12:08:12Z</time>
      </trkpt>
      <trkpt lat="45.08643" lon="5.08946">
        <ele>192.1328125</ele>
        <time>2011-08-10T12:08:17Z</time>
      </trkpt>
      <trkpt lat="45.08598" lon="5.09036">
        <ele>191.07958984375</ele>
        <time>2011-08-10T12:08:26Z</time>
      </trkpt>
      <trkpt lat="45.0858" lon="5.091">
        <ele>191.48089599609</ele>
        <time>2011-08-10T12:08:32Z</time>
      </trkpt>
      <trkpt lat="45.08556" lon="5.092">
        <ele>193.19486999512</ele>
        <time>2011-08-10T12:08:41Z</time>
      </trkpt>
      <trkpt lat="45.08527" lon="5.09255">
        <ele>194.10731506348</ele>
        <time>2011-08-10T12:08:47Z</time>
      </trkpt>
      <trkpt lat="45.08487" lon="5.09315">
        <ele>193.42753601074</ele>
        <time>2011-08-10T12:08:54Z</time>
      </trkpt>
      <trkpt lat="45.08473" lon="5.09358">
        <ele>193.04333496094</ele>
        <time>2011-08-10T12:08:58Z</time>
      </trkpt>
      <trkpt lat="45.08464" lon="5.09416">
        <ele>194.38761901856</ele>
        <time>2011-08-10T12:09:03Z</time>
      </trkpt>
      <trkpt lat="45.08453" lon="5.09515">
        <ele>195.61511230469</ele>
        <time>2011-08-10T12:09:12Z</time>
      </trkpt>
      <trkpt lat="45.08455" lon="5.09566">
        <ele>195.72497558594</ele>
        <time>2011-08-10T12:09:17Z</time>
      </trkpt>
      <trkpt lat="45.08469" lon="5.0961">
        <ele>197.7487487793</ele>
        <time>2011-08-10T12:09:22Z</time>
      </trkpt>
      <trkpt lat="45.08505" lon="5.09694">
        <ele>198.39079284668</ele>
        <time>2011-08-10T12:09:32Z</time>
      </trkpt>
      <trkpt lat="45.08521" lon="5.09735">
        <ele>198.30531311035</ele>
        <time>2011-08-10T12:09:37Z</time>
      </trkpt>
      <trkpt lat="45.08548" lon="5.09812">
        <ele>197.49084472656</ele>
        <time>2011-08-10T12:09:47Z</time>
      </trkpt>
      <trkpt lat="45.0857" lon="5.09891">
        <ele>196.47114562988</ele>
        <time>2011-08-10T12:09:56Z</time>
      </trkpt>
      <trkpt lat="45.08593" lon="5.09978">
        <ele>195.62805175781</ele>
        <time>2011-08-10T12:10:06Z</time>
      </trkpt>
      <trkpt lat="45.08622" lon="5.10086">
        <ele>193.94338989258</ele>
        <time>2011-08-10T12:10:19Z</time>
      </trkpt>
      <trkpt lat="45.08643" lon="5.10182">
        <ele>192.72395324707</ele>
        <time>2011-08-10T12:10:30Z</time>
      </trkpt>
      <trkpt lat="45.08663" lon="5.10278">
        <ele>192.87438964844</ele>
        <time>2011-08-10T12:10:40Z</time>
      </trkpt>
      <trkpt lat="45.08687" lon="5.10359">
        <ele>193.73956298828</ele>
        <time>2011-08-10T12:10:48Z</time>
      </trkpt>
      <trkpt lat="45.0871" lon="5.1044">
        <ele>195.12707519531</ele>
        <time>2011-08-10T12:10:56Z</time>
      </trkpt>
      <trkpt lat="45.08733" lon="5.10529">
        <ele>196.38751220703</ele>
        <time>2011-08-10T12:11:05Z</time>
      </trkpt>
      <trkpt lat="45.08756" lon="5.10619">
        <ele>196.38398742676</ele>
        <time>2011-08-10T12:11:14Z</time>
      </trkpt>
      <trkpt lat="45.08775" lon="5.10713">
        <ele>196.89813232422</ele>
        <time>2011-08-10T12:11:23Z</time>
      </trkpt>
      <trkpt lat="45.0878" lon="5.10787">
        <ele>197</ele>
        <time>2011-08-10T12:11:30Z</time>
      </trkpt>
      <trkpt lat="45.08783" lon="5.10902">
        <ele>196.20025634766</ele>
        <time>2011-08-10T12:11:41Z</time>
      </trkpt>
      <trkpt lat="45.08792" lon="5.10998">
        <ele>196</ele>
        <time>2011-08-10T12:11:50Z</time>
      </trkpt>
      <trkpt lat="45.08811" lon="5.11097">
        <ele>195.70037841797</ele>
        <time>2011-08-10T12:12:00Z</time>
      </trkpt>
      <trkpt lat="45.08826" lon="5.11186">
        <ele>195.75207519531</ele>
        <time>2011-08-10T12:12:09Z</time>
      </trkpt>
      <trkpt lat="45.08834" lon="5.11269">
        <ele>195</ele>
        <time>2011-08-10T12:12:17Z</time>
      </trkpt>
      <trkpt lat="45.08844" lon="5.11374">
        <ele>195</ele>
        <time>2011-08-10T12:12:27Z</time>
      </trkpt>
      <trkpt lat="45.08852" lon="5.11476">
        <ele>195</ele>
        <time>2011-08-10T12:12:37Z</time>
      </trkpt>
      <trkpt lat="45.0886" lon="5.11569">
        <ele>195</ele>
        <time>2011-08-10T12:12:46Z</time>
      </trkpt>
      <trkpt lat="45.08867" lon="5.11662">
        <ele>195</ele>
        <time>2011-08-10T12:12:55Z</time>
      </trkpt>
      <trkpt lat="45.08875" lon="5.11769">
        <ele>196</ele>
        <time>2011-08-10T12:13:05Z</time>
      </trkpt>
      <trkpt lat="45.08884" lon="5.1191">
        <ele>197</ele>
        <time>2011-08-10T12:13:18Z</time>
      </trkpt>
      <trkpt lat="45.08894" lon="5.12047">
        <ele>197.74282836914</ele>
        <time>2011-08-10T12:13:31Z</time>
      </trkpt>
      <trkpt lat="45.089" lon="5.1215">
        <ele>198</ele>
        <time>2011-08-10T12:13:41Z</time>
      </trkpt>
      <trkpt lat="45.08905" lon="5.12242">
        <ele>199</ele>
        <time>2011-08-10T12:13:50Z</time>
      </trkpt>
      <trkpt lat="45.08909" lon="5.1233">
        <ele>199</ele>
        <time>2011-08-10T12:13:59Z</time>
      </trkpt>
      <trkpt lat="45.08914" lon="5.12434">
        <ele>200</ele>
        <time>2011-08-10T12:14:10Z</time>
      </trkpt>
      <trkpt lat="45.08911" lon="5.125">
        <ele>200.80078125</ele>
        <time>2011-08-10T12:14:17Z</time>
      </trkpt>
      <trkpt lat="45.08895" lon="5.12562">
        <ele>203.54350280762</ele>
        <time>2011-08-10T12:14:24Z</time>
      </trkpt>
      <trkpt lat="45.08871" lon="5.12638">
        <ele>207.28085327148</ele>
        <time>2011-08-10T12:14:32Z</time>
      </trkpt>
      <trkpt lat="45.08842" lon="5.12728">
        <ele>209.83395385742</ele>
        <time>2011-08-10T12:14:41Z</time>
      </trkpt>
      <trkpt lat="45.08817" lon="5.12825">
        <ele>208.22625732422</ele>
        <time>2011-08-10T12:14:50Z</time>
      </trkpt>
      <trkpt lat="45.08804" lon="5.12901">
        <ele>206.91622924805</ele>
        <time>2011-08-10T12:14:57Z</time>
      </trkpt>
      <trkpt lat="45.08795" lon="5.12973">
        <ele>206.251953125</ele>
        <time>2011-08-10T12:15:05Z</time>
      </trkpt>
      <trkpt lat="45.08795" lon="5.12999">
        <ele>206.251953125</ele>
        <time>2011-08-10T12:15:08Z</time>
      </trkpt>
      <trkpt lat="45.08798" lon="5.13016">
        <ele>206.44421386719</ele>
        <time>2011-08-10T12:15:10Z</time>
      </trkpt>
      <trkpt lat="45.088" lon="5.1305">
        <ele>206.58154296875</ele>
        <time>2011-08-10T12:15:14Z</time>
      </trkpt>
      <trkpt lat="45.08784" lon="5.13115">
        <ele>204.47718811035</ele>
        <time>2011-08-10T12:15:22Z</time>
      </trkpt>
      <trkpt lat="45.0878" lon="5.13152">
        <ele>203.09684753418</ele>
        <time>2011-08-10T12:15:26Z</time>
      </trkpt>
      <trkpt lat="45.08754" lon="5.13195">
        <ele>200.28381347656</ele>
        <time>2011-08-10T12:15:32Z</time>
      </trkpt>
      <trkpt lat="45.08745" lon="5.13209">
        <ele>199.82696533203</ele>
        <time>2011-08-10T12:15:34Z</time>
      </trkpt>
      <trkpt lat="45.08717" lon="5.13271">
        <ele>199</ele>
        <time>2011-08-10T12:15:42Z</time>
      </trkpt>
      <trkpt lat="45.08685" lon="5.13342">
        <ele>199</ele>
        <time>2011-08-10T12:15:51Z</time>
      </trkpt>
      <trkpt lat="45.08661" lon="5.13397">
        <ele>199</ele>
        <time>2011-08-10T12:15:58Z</time>
      </trkpt>
      <trkpt lat="45.08639" lon="5.13453">
        <ele>199</ele>
        <time>2011-08-10T12:16:05Z</time>
      </trkpt>
      <trkpt lat="45.08627" lon="5.13475">
        <ele>199</ele>
        <time>2011-08-10T12:16:08Z</time>
      </trkpt>
      <trkpt lat="45.08607" lon="5.13526">
        <ele>199</ele>
        <time>2011-08-10T12:16:14Z</time>
      </trkpt>
      <trkpt lat="45.08575" lon="5.13593">
        <ele>199</ele>
        <time>2011-08-10T12:16:22Z</time>
      </trkpt>
      <trkpt lat="45.08543" lon="5.13637">
        <ele>199</ele>
        <time>2011-08-10T12:16:28Z</time>
      </trkpt>
      <trkpt lat="45.08487" lon="5.13711">
        <ele>199</ele>
        <time>2011-08-10T12:16:38Z</time>
      </trkpt>
      <trkpt lat="45.08423" lon="5.13794">
        <ele>198.22265625</ele>
        <time>2011-08-10T12:16:49Z</time>
      </trkpt>
      <trkpt lat="45.08362" lon="5.13881">
        <ele>198.01811218262</ele>
        <time>2011-08-10T12:17:00Z</time>
      </trkpt>
      <trkpt lat="45.08342" lon="5.13932">
        <ele>197.31127929688</ele>
        <time>2011-08-10T12:17:05Z</time>
      </trkpt>
      <trkpt lat="45.08317" lon="5.14018">
        <ele>198</ele>
        <time>2011-08-10T12:17:13Z</time>
      </trkpt>
      <trkpt lat="45.0829" lon="5.14108">
        <ele>198.42987060547</ele>
        <time>2011-08-10T12:17:22Z</time>
      </trkpt>
      <trkpt lat="45.08265" lon="5.14195">
        <ele>199</ele>
        <time>2011-08-10T12:17:31Z</time>
      </trkpt>
      <trkpt lat="45.08244" lon="5.14267">
        <ele>199.4846496582</ele>
        <time>2011-08-10T12:17:39Z</time>
      </trkpt>
      <trkpt lat="45.08223" lon="5.1433">
        <ele>200.92655944824</ele>
        <time>2011-08-10T12:17:46Z</time>
      </trkpt>
      <trkpt lat="45.08197" lon="5.14404">
        <ele>201.23712158203</ele>
        <time>2011-08-10T12:17:54Z</time>
      </trkpt>
      <trkpt lat="45.08175" lon="5.14477">
        <ele>200.80282592773</ele>
        <time>2011-08-10T12:18:02Z</time>
      </trkpt>
      <trkpt lat="45.08161" lon="5.14532">
        <ele>200.95365905762</ele>
        <time>2011-08-10T12:18:08Z</time>
      </trkpt>
      <trkpt lat="45.08139" lon="5.14605">
        <ele>201.0094909668</ele>
        <time>2011-08-10T12:18:15Z</time>
      </trkpt>
      <trkpt lat="45.08111" lon="5.14679">
        <ele>199.00987243652</ele>
        <time>2011-08-10T12:18:22Z</time>
      </trkpt>
      <trkpt lat="45.08075" lon="5.14775">
        <ele>198.71197509766</ele>
        <time>2011-08-10T12:18:31Z</time>
      </trkpt>
      <trkpt lat="45.08048" lon="5.14859">
        <ele>198.40849304199</ele>
        <time>2011-08-10T12:18:39Z</time>
      </trkpt>
      <trkpt lat="45.08025" lon="5.14952">
        <ele>197.24179077148</ele>
        <time>2011-08-10T12:18:48Z</time>
      </trkpt>
      <trkpt lat="45.08009" lon="5.15018">
        <ele>197.32244873047</ele>
        <time>2011-08-10T12:18:55Z</time>
      </trkpt>
      <trkpt lat="45.07995" lon="5.15071">
        <ele>196.82806396484</ele>
        <time>2011-08-10T12:19:01Z</time>
      </trkpt>
      <trkpt lat="45.07986" lon="5.15118">
        <ele>198.08979797363</ele>
        <time>2011-08-10T12:19:06Z</time>
      </trkpt>
      <trkpt lat="45.07978" lon="5.15183">
        <ele>197.19635009766</ele>
        <time>2011-08-10T12:19:12Z</time>
      </trkpt>
      <trkpt lat="45.07965" lon="5.1528">
        <ele>197.57006835938</ele>
        <time>2011-08-10T12:19:21Z</time>
      </trkpt>
      <trkpt lat="45.07941" lon="5.15372">
        <ele>197.8642578125</ele>
        <time>2011-08-10T12:19:30Z</time>
      </trkpt>
      <trkpt lat="45.07917" lon="5.15468">
        <ele>197.83520507812</ele>
        <time>2011-08-10T12:19:40Z</time>
      </trkpt>
      <trkpt lat="45.07898" lon="5.15554">
        <ele>197.26210021973</ele>
        <time>2011-08-10T12:19:48Z</time>
      </trkpt>
      <trkpt lat="45.07878" lon="5.15659">
        <ele>196.19665527344</ele>
        <time>2011-08-10T12:19:57Z</time>
      </trkpt>
      <trkpt lat="45.07856" lon="5.15768">
        <ele>196.82928466797</ele>
        <time>2011-08-10T12:20:06Z</time>
      </trkpt>
      <trkpt lat="45.07834" lon="5.1586">
        <ele>197.06376647949</ele>
        <time>2011-08-10T12:20:14Z</time>
      </trkpt>
      <trkpt lat="45.07806" lon="5.15964">
        <ele>196.0908203125</ele>
        <time>2011-08-10T12:20:23Z</time>
      </trkpt>
      <trkpt lat="45.07787" lon="5.16036">
        <ele>195.22933959961</ele>
        <time>2011-08-10T12:20:29Z</time>
      </trkpt>
      <trkpt lat="45.07776" lon="5.16074">
        <ele>194.89074707031</ele>
        <time>2011-08-10T12:20:32Z</time>
      </trkpt>
      <trkpt lat="45.07739" lon="5.16144">
        <ele>192.79864501953</ele>
        <time>2011-08-10T12:20:38Z</time>
      </trkpt>
      <trkpt lat="45.07714" lon="5.16185">
        <ele>191.13871765137</ele>
        <time>2011-08-10T12:20:42Z</time>
      </trkpt>
      <trkpt lat="45.07686" lon="5.1623">
        <ele>190</ele>
        <time>2011-08-10T12:20:48Z</time>
      </trkpt>
      <trkpt lat="45.07677" lon="5.16244">
        <ele>190</ele>
        <time>2011-08-10T12:20:50Z</time>
      </trkpt>
      <trkpt lat="45.07666" lon="5.16257">
        <ele>190</ele>
        <time>2011-08-10T12:20:54Z</time>
      </trkpt>
      <trkpt lat="45.07664" lon="5.1626">
        <ele>190</ele>
        <time>2011-08-10T12:20:55Z</time>
      </trkpt>
      <trkpt lat="45.07665" lon="5.16286">
        <ele>189.98512268066</ele>
        <time>2011-08-10T12:21:00Z</time>
      </trkpt>
      <trkpt lat="45.07674" lon="5.16326">
        <ele>189.46173095703</ele>
        <time>2011-08-10T12:21:05Z</time>
      </trkpt>
      <trkpt lat="45.07689" lon="5.16393">
        <ele>189</ele>
        <time>2011-08-10T12:21:13Z</time>
      </trkpt>
      <trkpt lat="45.07711" lon="5.16489">
        <ele>189.58331298828</ele>
        <time>2011-08-10T12:21:23Z</time>
      </trkpt>
      <trkpt lat="45.07737" lon="5.1661">
        <ele>189.56904602051</ele>
        <time>2011-08-10T12:21:35Z</time>
      </trkpt>
      <trkpt lat="45.07759" lon="5.16705">
        <ele>189.31365966797</ele>
        <time>2011-08-10T12:21:44Z</time>
      </trkpt>
      <trkpt lat="45.07774" lon="5.1677">
        <ele>189.87670898438</ele>
        <time>2011-08-10T12:21:50Z</time>
      </trkpt>
      <trkpt lat="45.07796" lon="5.1687">
        <ele>189.21566772461</ele>
        <time>2011-08-10T12:21:59Z</time>
      </trkpt>
      <trkpt lat="45.07819" lon="5.16947">
        <ele>186.86521911621</ele>
        <time>2011-08-10T12:22:06Z</time>
      </trkpt>
      <trkpt lat="45.07852" lon="5.17038">
        <ele>187.2703704834</ele>
        <time>2011-08-10T12:22:15Z</time>
      </trkpt>
      <trkpt lat="45.07892" lon="5.17121">
        <ele>186.98976135254</ele>
        <time>2011-08-10T12:22:24Z</time>
      </trkpt>
      <trkpt lat="45.07933" lon="5.17195">
        <ele>187.15391540527</ele>
        <time>2011-08-10T12:22:32Z</time>
      </trkpt>
      <trkpt lat="45.07984" lon="5.17276">
        <ele>187.7548828125</ele>
        <time>2011-08-10T12:22:40Z</time>
      </trkpt>
      <trkpt lat="45.07998" lon="5.17296">
        <ele>188.43081665039</ele>
        <time>2011-08-10T12:22:42Z</time>
      </trkpt>
      <trkpt lat="45.08046" lon="5.17361">
        <ele>189.91290283203</ele>
        <time>2011-08-10T12:22:48Z</time>
      </trkpt>
      <trkpt lat="45.08089" lon="5.17435">
        <ele>190.33493041992</ele>
        <time>2011-08-10T12:22:54Z</time>
      </trkpt>
      <trkpt lat="45.08147" lon="5.17528">
        <ele>185.79591369629</ele>
        <time>2011-08-10T12:23:02Z</time>
      </trkpt>
      <trkpt lat="45.08221" lon="5.17635">
        <ele>179.27984619141</ele>
        <time>2011-08-10T12:23:12Z</time>
      </trkpt>
      <trkpt lat="45.08281" lon="5.17717">
        <ele>178.18664550781</ele>
        <time>2011-08-10T12:23:20Z</time>
      </trkpt>
      <trkpt lat="45.08361" lon="5.17816">
        <ele>199.30053710938</ele>
        <time>2011-08-10T12:23:30Z</time>
      </trkpt>
      <trkpt lat="45.08404" lon="5.17882">
        <ele>193.17150878906</ele>
        <time>2011-08-10T12:23:36Z</time>
      </trkpt>
      <trkpt lat="45.08476" lon="5.18021">
        <ele>182.50816345215</ele>
        <time>2011-08-10T12:23:47Z</time>
      </trkpt>
      <trkpt lat="45.08501" lon="5.1809">
        <ele>177.14910888672</ele>
        <time>2011-08-10T12:23:52Z</time>
      </trkpt>
      <trkpt lat="45.08537" lon="5.182">
        <ele>174.21133422852</ele>
        <time>2011-08-10T12:24:00Z</time>
      </trkpt>
      <trkpt lat="45.0856" lon="5.18278">
        <ele>169.60377502441</ele>
        <time>2011-08-10T12:24:06Z</time>
      </trkpt>
      <trkpt lat="45.08563" lon="5.18292">
        <ele>168.54512023926</ele>
        <time>2011-08-10T12:24:07Z</time>
      </trkpt>
      <trkpt lat="45.08569" lon="5.18361">
        <ele>163.73553466797</ele>
        <time>2011-08-10T12:24:12Z</time>
      </trkpt>
      <trkpt lat="45.08572" lon="5.18462">
        <ele>159.60595703125</ele>
        <time>2011-08-10T12:24:19Z</time>
      </trkpt>
      <trkpt lat="45.08573" lon="5.18535">
        <ele>158.61968994141</ele>
        <time>2011-08-10T12:24:24Z</time>
      </trkpt>
      <trkpt lat="45.08576" lon="5.18589">
        <ele>157.74328613281</ele>
        <time>2011-08-10T12:24:28Z</time>
      </trkpt>
      <trkpt lat="45.08572" lon="5.18711">
        <ele>156.60595703125</ele>
        <time>2011-08-10T12:24:37Z</time>
      </trkpt>
      <trkpt lat="45.08571" lon="5.18737">
        <ele>156.83815002441</ele>
        <time>2011-08-10T12:24:39Z</time>
      </trkpt>
      <trkpt lat="45.08559" lon="5.18782">
        <ele>156.41471862793</ele>
        <time>2011-08-10T12:24:43Z</time>
      </trkpt>
      <trkpt lat="45.08549" lon="5.18825">
        <ele>156.53649902344</ele>
        <time>2011-08-10T12:24:47Z</time>
      </trkpt>
      <trkpt lat="45.08552" lon="5.18836">
        <ele>156.76927185059</ele>
        <time>2011-08-10T12:24:48Z</time>
      </trkpt>
      <trkpt lat="45.08559" lon="5.18894">
        <ele>157.27807617188</ele>
        <time>2011-08-10T12:24:53Z</time>
      </trkpt>
      <trkpt lat="45.08549" lon="5.19014">
        <ele>157.56396484375</ele>
        <time>2011-08-10T12:25:03Z</time>
      </trkpt>
      <trkpt lat="45.0854" lon="5.19135">
        <ele>157.83831787109</ele>
        <time>2011-08-10T12:25:13Z</time>
      </trkpt>
      <trkpt lat="45.08532" lon="5.19239">
        <ele>157.84431457519</ele>
        <time>2011-08-10T12:25:22Z</time>
      </trkpt>
      <trkpt lat="45.08524" lon="5.19353">
        <ele>157.75122070312</ele>
        <time>2011-08-10T12:25:32Z</time>
      </trkpt>
      <trkpt lat="45.08519" lon="5.19429">
        <ele>157.66961669922</ele>
        <time>2011-08-10T12:25:39Z</time>
      </trkpt>
      <trkpt lat="45.08512" lon="5.19524">
        <ele>157.84484863281</ele>
        <time>2011-08-10T12:25:48Z</time>
      </trkpt>
      <trkpt lat="45.08508" lon="5.19623">
        <ele>158.298828125</ele>
        <time>2011-08-10T12:25:58Z</time>
      </trkpt>
      <trkpt lat="45.08508" lon="5.19696">
        <ele>158.59765625</ele>
        <time>2011-08-10T12:26:05Z</time>
      </trkpt>
      <trkpt lat="45.08506" lon="5.19786">
        <ele>159.29650878906</ele>
        <time>2011-08-10T12:26:13Z</time>
      </trkpt>
      <trkpt lat="45.08504" lon="5.19906">
        <ele>159.85092163086</ele>
        <time>2011-08-10T12:26:24Z</time>
      </trkpt>
      <trkpt lat="45.08505" lon="5.19991">
        <ele>160.17523193359</ele>
        <time>2011-08-10T12:26:32Z</time>
      </trkpt>
      <trkpt lat="45.08506" lon="5.2006">
        <ele>160.43286132812</ele>
        <time>2011-08-10T12:26:38Z</time>
      </trkpt>
      <trkpt lat="45.08507" lon="5.20163">
        <ele>160.73168945312</ele>
        <time>2011-08-10T12:26:47Z</time>
      </trkpt>
      <trkpt lat="45.08509" lon="5.20288">
        <ele>160.36010742188</ele>
        <time>2011-08-10T12:26:58Z</time>
      </trkpt>
      <trkpt lat="45.08511" lon="5.20416">
        <ele>159.8173828125</ele>
        <time>2011-08-10T12:27:09Z</time>
      </trkpt>
      <trkpt lat="45.08514" lon="5.20534">
        <ele>159.49108886719</ele>
        <time>2011-08-10T12:27:19Z</time>
      </trkpt>
      <trkpt lat="45.08515" lon="5.20648">
        <ele>158.54602050781</ele>
        <time>2011-08-10T12:27:29Z</time>
      </trkpt>
      <trkpt lat="45.08518" lon="5.2079">
        <ele>158.64215087891</ele>
        <time>2011-08-10T12:27:41Z</time>
      </trkpt>
      <trkpt lat="45.0852" lon="5.20884">
        <ele>157</ele>
        <time>2011-08-10T12:27:49Z</time>
      </trkpt>
      <trkpt lat="45.08521" lon="5.20974">
        <ele>158</ele>
        <time>2011-08-10T12:27:57Z</time>
      </trkpt>
      <trkpt lat="45.08517" lon="5.21024">
        <ele>158</ele>
        <time>2011-08-10T12:28:02Z</time>
      </trkpt>
      <trkpt lat="45.08503" lon="5.21077">
        <ele>159</ele>
        <time>2011-08-10T12:28:08Z</time>
      </trkpt>
      <trkpt lat="45.08481" lon="5.21142">
        <ele>159.07933044434</ele>
        <time>2011-08-10T12:28:16Z</time>
      </trkpt>
      <trkpt lat="45.08475" lon="5.21177">
        <ele>159.55630493164</ele>
        <time>2011-08-10T12:28:20Z</time>
      </trkpt>
      <trkpt lat="45.08466" lon="5.2122">
        <ele>161.26109313965</ele>
        <time>2011-08-10T12:28:25Z</time>
      </trkpt>
      <trkpt lat="45.08439" lon="5.21282">
        <ele>160.72877502441</ele>
        <time>2011-08-10T12:28:33Z</time>
      </trkpt>
      <trkpt lat="45.08425" lon="5.21348">
        <ele>161.75506591797</ele>
        <time>2011-08-10T12:28:41Z</time>
      </trkpt>
      <trkpt lat="45.08421" lon="5.21365">
        <ele>161.68640136719</ele>
        <time>2011-08-10T12:28:43Z</time>
      </trkpt>
      <trkpt lat="45.08393" lon="5.2143">
        <ele>161.92645263672</ele>
        <time>2011-08-10T12:28:51Z</time>
      </trkpt>
      <trkpt lat="45.08386" lon="5.21446">
        <ele>161.78300476074</ele>
        <time>2011-08-10T12:28:53Z</time>
      </trkpt>
      <trkpt lat="45.08383" lon="5.2148">
        <ele>163.25517272949</ele>
        <time>2011-08-10T12:28:57Z</time>
      </trkpt>
      <trkpt lat="45.08385" lon="5.21518">
        <ele>164.89111328125</ele>
        <time>2011-08-10T12:29:02Z</time>
      </trkpt>
      <trkpt lat="45.08382" lon="5.21525">
        <ele>164.59069824219</ele>
        <time>2011-08-10T12:29:03Z</time>
      </trkpt>
      <trkpt lat="45.08366" lon="5.21551">
        <ele>163.60841369629</ele>
        <time>2011-08-10T12:29:07Z</time>
      </trkpt>
      <trkpt lat="45.08359" lon="5.21584">
        <ele>164.67324829102</ele>
        <time>2011-08-10T12:29:11Z</time>
      </trkpt>
      <trkpt lat="45.08368" lon="5.21608">
        <ele>167.17140197754</ele>
        <time>2011-08-10T12:29:14Z</time>
      </trkpt>
      <trkpt lat="45.0838" lon="5.21617">
        <ele>169.65115356445</ele>
        <time>2011-08-10T12:29:16Z</time>
      </trkpt>
      <trkpt lat="45.08392" lon="5.21624">
        <ele>171.74998474121</ele>
        <time>2011-08-10T12:29:18Z</time>
      </trkpt>
      <trkpt lat="45.08409" lon="5.21645">
        <ele>174.60232543945</ele>
        <time>2011-08-10T12:29:22Z</time>
      </trkpt>
      <trkpt lat="45.08412" lon="5.21652">
        <ele>175.42286682129</ele>
        <time>2011-08-10T12:29:23Z</time>
      </trkpt>
      <trkpt lat="45.08427" lon="5.21697">
        <ele>179.2580871582</ele>
        <time>2011-08-10T12:29:29Z</time>
      </trkpt>
      <trkpt lat="45.0843" lon="5.21705">
        <ele>179.83995056152</ele>
        <time>2011-08-10T12:29:30Z</time>
      </trkpt>
      <trkpt lat="45.08435" lon="5.2175">
        <ele>181.29675292969</ele>
        <time>2011-08-10T12:29:35Z</time>
      </trkpt>
      <trkpt lat="45.08442" lon="5.21785">
        <ele>182.09823608398</ele>
        <time>2011-08-10T12:29:39Z</time>
      </trkpt>
      <trkpt lat="45.08447" lon="5.21791">
        <ele>182.54942321777</ele>
        <time>2011-08-10T12:29:40Z</time>
      </trkpt>
      <trkpt lat="45.08456" lon="5.21802">
        <ele>183.28927612305</ele>
        <time>2011-08-10T12:29:42Z</time>
      </trkpt>
      <trkpt lat="45.08496" lon="5.21836">
        <ele>184.87333679199</ele>
        <time>2011-08-10T12:29:50Z</time>
      </trkpt>
      <trkpt lat="45.08518" lon="5.21848">
        <ele>185.34431457519</ele>
        <time>2011-08-10T12:29:55Z</time>
      </trkpt>
      <trkpt lat="45.08522" lon="5.21865">
        <ele>185.8318939209</ele>
        <time>2011-08-10T12:29:59Z</time>
      </trkpt>
      <trkpt lat="45.08521" lon="5.21869">
        <ele>185.81657409668</ele>
        <time>2011-08-10T12:30:00Z</time>
      </trkpt>
      <trkpt lat="45.08506" lon="5.21902">
        <ele>186.0983581543</ele>
        <time>2011-08-10T12:30:06Z</time>
      </trkpt>
      <trkpt lat="45.08487" lon="5.21953">
        <ele>186.67027282715</ele>
        <time>2011-08-10T12:30:14Z</time>
      </trkpt>
      <trkpt lat="45.08472" lon="5.21994">
        <ele>186.99606323242</ele>
        <time>2011-08-10T12:30:21Z</time>
      </trkpt>
      <trkpt lat="45.08448" lon="5.22046">
        <ele>187.77450561523</ele>
        <time>2011-08-10T12:30:29Z</time>
      </trkpt>
      <trkpt lat="45.08415" lon="5.22099">
        <ele>187.52981567383</ele>
        <time>2011-08-10T12:30:37Z</time>
      </trkpt>
      <trkpt lat="45.08377" lon="5.22164">
        <ele>187.57470703125</ele>
        <time>2011-08-10T12:30:46Z</time>
      </trkpt>
      <trkpt lat="45.08353" lon="5.22228">
        <ele>188.48449707031</ele>
        <time>2011-08-10T12:30:53Z</time>
      </trkpt>
      <trkpt lat="45.08334" lon="5.22299">
        <ele>188.80938720703</ele>
        <time>2011-08-10T12:31:00Z</time>
      </trkpt>
      <trkpt lat="45.08326" lon="5.22373">
        <ele>190.74822998047</ele>
        <time>2011-08-10T12:31:07Z</time>
      </trkpt>
      <trkpt lat="45.08311" lon="5.22449">
        <ele>192.34118652344</ele>
        <time>2011-08-10T12:31:14Z</time>
      </trkpt>
      <trkpt lat="45.0829" lon="5.22501">
        <ele>192.48960876465</ele>
        <time>2011-08-10T12:31:19Z</time>
      </trkpt>
      <trkpt lat="45.08261" lon="5.22543">
        <ele>192.60310363769</ele>
        <time>2011-08-10T12:31:24Z</time>
      </trkpt>
      <trkpt lat="45.08216" lon="5.22605">
        <ele>192.5573425293</ele>
        <time>2011-08-10T12:31:32Z</time>
      </trkpt>
      <trkpt lat="45.08164" lon="5.22678">
        <ele>191.62033081055</ele>
        <time>2011-08-10T12:31:42Z</time>
      </trkpt>
      <trkpt lat="45.08131" lon="5.22725">
        <ele>185.01315307617</ele>
        <time>2011-08-10T12:31:49Z</time>
      </trkpt>
      <trkpt lat="45.08102" lon="5.22777">
        <ele>184.32656860352</ele>
        <time>2011-08-10T12:31:56Z</time>
      </trkpt>
      <trkpt lat="45.08069" lon="5.22858">
        <ele>185.25273132324</ele>
        <time>2011-08-10T12:32:06Z</time>
      </trkpt>
      <trkpt lat="45.08041" lon="5.22938">
        <ele>186.51948547363</ele>
        <time>2011-08-10T12:32:15Z</time>
      </trkpt>
      <trkpt lat="45.08031" lon="5.23006">
        <ele>189.06184387207</ele>
        <time>2011-08-10T12:32:22Z</time>
      </trkpt>
      <trkpt lat="45.08017" lon="5.23064">
        <ele>191.39198303223</ele>
        <time>2011-08-10T12:32:28Z</time>
      </trkpt>
      <trkpt lat="45.07985" lon="5.23153">
        <ele>193.26254272461</ele>
        <time>2011-08-10T12:32:38Z</time>
      </trkpt>
      <trkpt lat="45.07949" lon="5.23256">
        <ele>194.91511535644</ele>
        <time>2011-08-10T12:32:49Z</time>
      </trkpt>
      <trkpt lat="45.07921" lon="5.23321">
        <ele>198.26277160644</ele>
        <time>2011-08-10T12:32:56Z</time>
      </trkpt>
      <trkpt lat="45.07892" lon="5.2338">
        <ele>199.80166625977</ele>
        <time>2011-08-10T12:33:03Z</time>
      </trkpt>
      <trkpt lat="45.07867" lon="5.23444">
        <ele>200.98429870606</ele>
        <time>2011-08-10T12:33:10Z</time>
      </trkpt>
      <trkpt lat="45.07843" lon="5.23534">
        <ele>203.08183288574</ele>
        <time>2011-08-10T12:33:19Z</time>
      </trkpt>
      <trkpt lat="45.07819" lon="5.23625">
        <ele>204.72743225098</ele>
        <time>2011-08-10T12:33:28Z</time>
      </trkpt>
      <trkpt lat="45.07787" lon="5.23729">
        <ele>207.32989501953</ele>
        <time>2011-08-10T12:33:38Z</time>
      </trkpt>
      <trkpt lat="45.07761" lon="5.2382">
        <ele>206.38232421875</ele>
        <time>2011-08-10T12:33:47Z</time>
      </trkpt>
      <trkpt lat="45.07732" lon="5.23919">
        <ele>206.33862304688</ele>
        <time>2011-08-10T12:33:57Z</time>
      </trkpt>
      <trkpt lat="45.07706" lon="5.23998">
        <ele>206</ele>
        <time>2011-08-10T12:34:05Z</time>
      </trkpt>
      <trkpt lat="45.07682" lon="5.24027">
        <ele>205.56707763672</ele>
        <time>2011-08-10T12:34:09Z</time>
      </trkpt>
      <trkpt lat="45.07658" lon="5.24034">
        <ele>205</ele>
        <time>2011-08-10T12:34:12Z</time>
      </trkpt>
      <trkpt lat="45.07571" lon="5.24041">
        <ele>204</ele>
        <time>2011-08-10T12:34:22Z</time>
      </trkpt>
      <trkpt lat="45.07505" lon="5.24047">
        <ele>202.19500732422</ele>
        <time>2011-08-10T12:34:30Z</time>
      </trkpt>
      <trkpt lat="45.07407" lon="5.24057">
        <ele>201.03405761719</ele>
        <time>2011-08-10T12:34:42Z</time>
      </trkpt>
      <trkpt lat="45.07343" lon="5.24062">
        <ele>200.49711608887</ele>
        <time>2011-08-10T12:34:50Z</time>
      </trkpt>
      <trkpt lat="45.07335" lon="5.24063">
        <ele>200.32940673828</ele>
        <time>2011-08-10T12:34:51Z</time>
      </trkpt>
      <trkpt lat="45.07275" lon="5.24069">
        <ele>198.7073059082</ele>
        <time>2011-08-10T12:34:59Z</time>
      </trkpt>
      <trkpt lat="45.07233" lon="5.24073">
        <ele>195.75399780273</ele>
        <time>2011-08-10T12:35:04Z</time>
      </trkpt>
      <trkpt lat="45.07186" lon="5.24069">
        <ele>192.86878967285</ele>
        <time>2011-08-10T12:35:09Z</time>
      </trkpt>
      <trkpt lat="45.07138" lon="5.24051">
        <ele>189.77294921875</ele>
        <time>2011-08-10T12:35:14Z</time>
      </trkpt>
      <trkpt lat="45.07111" lon="5.24055">
        <ele>188.00827026367</ele>
        <time>2011-08-10T12:35:17Z</time>
      </trkpt>
      <trkpt lat="45.07101" lon="5.24075">
        <ele>187.93444824219</ele>
        <time>2011-08-10T12:35:19Z</time>
      </trkpt>
      <trkpt lat="45.07094" lon="5.24096">
        <ele>187.96701049805</ele>
        <time>2011-08-10T12:35:21Z</time>
      </trkpt>
      <trkpt lat="45.07069" lon="5.24214">
        <ele>189.31408691406</ele>
        <time>2011-08-10T12:35:32Z</time>
      </trkpt>
      <trkpt lat="45.07057" lon="5.24265">
        <ele>189.65435791016</ele>
        <time>2011-08-10T12:35:37Z</time>
      </trkpt>
      <trkpt lat="45.07035" lon="5.24318">
        <ele>188.67987060547</ele>
        <time>2011-08-10T12:35:43Z</time>
      </trkpt>
      <trkpt lat="45.07003" lon="5.2437">
        <ele>186.6051940918</ele>
        <time>2011-08-10T12:35:50Z</time>
      </trkpt>
      <trkpt lat="45.06992" lon="5.24384">
        <ele>186.00094604492</ele>
        <time>2011-08-10T12:35:52Z</time>
      </trkpt>
      <trkpt lat="45.06966" lon="5.244">
        <ele>183.81784057617</ele>
        <time>2011-08-10T12:35:56Z</time>
      </trkpt>
      <trkpt lat="45.06951" lon="5.24394">
        <ele>182.49566650391</ele>
        <time>2011-08-10T12:35:58Z</time>
      </trkpt>
      <trkpt lat="45.06893" lon="5.24368">
        <ele>174.70562744141</ele>
        <time>2011-08-10T12:36:05Z</time>
      </trkpt>
      <trkpt lat="45.06838" lon="5.24346">
        <ele>164.25326538086</ele>
        <time>2011-08-10T12:36:11Z</time>
      </trkpt>
      <trkpt lat="45.06778" lon="5.24323">
        <ele>160</ele>
        <time>2011-08-10T12:36:17Z</time>
      </trkpt>
      <trkpt lat="45.06693" lon="5.24291">
        <ele>160</ele>
        <time>2011-08-10T12:36:26Z</time>
      </trkpt>
      <trkpt lat="45.06621" lon="5.24265">
        <ele>162.91282653809</ele>
        <time>2011-08-10T12:36:34Z</time>
      </trkpt>
      <trkpt lat="45.06566" lon="5.24239">
        <ele>170.07827758789</ele>
        <time>2011-08-10T12:36:41Z</time>
      </trkpt>
      <trkpt lat="45.06532" lon="5.24211">
        <ele>175.88638305664</ele>
        <time>2011-08-10T12:36:47Z</time>
      </trkpt>
      <trkpt lat="45.06517" lon="5.24196">
        <ele>178.21844482422</ele>
        <time>2011-08-10T12:36:50Z</time>
      </trkpt>
      <trkpt lat="45.06499" lon="5.24159">
        <ele>183.25740051269</ele>
        <time>2011-08-10T12:36:56Z</time>
      </trkpt>
      <trkpt lat="45.06495" lon="5.24134">
        <ele>187.57621765137</ele>
        <time>2011-08-10T12:37:01Z</time>
      </trkpt>
      <trkpt lat="45.06493" lon="5.24131">
        <ele>188.04978942871</ele>
        <time>2011-08-10T12:37:05Z</time>
      </trkpt>
      <trkpt lat="45.06488" lon="5.24125">
        <ele>189.73461914062</ele>
        <time>2011-08-10T12:37:12Z</time>
      </trkpt>
      <trkpt lat="45.06476" lon="5.24127">
        <ele>192.37977600098</ele>
        <time>2011-08-10T12:37:16Z</time>
      </trkpt>
      <trkpt lat="45.06453" lon="5.24143">
        <ele>198.10958862305</ele>
        <time>2011-08-10T12:37:23Z</time>
      </trkpt>
      <trkpt lat="45.0642" lon="5.24165">
        <ele>199.80630493164</ele>
        <time>2011-08-10T12:37:31Z</time>
      </trkpt>
      <trkpt lat="45.06401" lon="5.24177">
        <ele>201.47891235352</ele>
        <time>2011-08-10T12:37:35Z</time>
      </trkpt>
      <trkpt lat="45.06388" lon="5.24187">
        <ele>202.05296325684</ele>
        <time>2011-08-10T12:37:38Z</time>
      </trkpt>
      <trkpt lat="45.06376" lon="5.24192">
        <ele>202.96516418457</ele>
        <time>2011-08-10T12:37:41Z</time>
      </trkpt>
      <trkpt lat="45.0636" lon="5.24202">
        <ele>202.21997070312</ele>
        <time>2011-08-10T12:37:45Z</time>
      </trkpt>
      <trkpt lat="45.06352" lon="5.24208">
        <ele>202.1749420166</ele>
        <time>2011-08-10T12:37:47Z</time>
      </trkpt>
      <trkpt lat="45.06323" lon="5.24226">
        <ele>202.41088867188</ele>
        <time>2011-08-10T12:37:53Z</time>
      </trkpt>
      <trkpt lat="45.06312" lon="5.24233">
        <ele>203.80134582519</ele>
        <time>2011-08-10T12:37:55Z</time>
      </trkpt>
      <trkpt lat="45.06289" lon="5.24243">
        <ele>205.62881469727</ele>
        <time>2011-08-10T12:37:59Z</time>
      </trkpt>
      <trkpt lat="45.06241" lon="5.24246">
        <ele>214.93783569336</ele>
        <time>2011-08-10T12:38:06Z</time>
      </trkpt>
      <trkpt lat="45.06195" lon="5.24258">
        <ele>214.48658752441</ele>
        <time>2011-08-10T12:38:12Z</time>
      </trkpt>
      <trkpt lat="45.06142" lon="5.24268">
        <ele>221.26553344727</ele>
        <time>2011-08-10T12:38:19Z</time>
      </trkpt>
      <trkpt lat="45.06087" lon="5.24272">
        <ele>237.74465942383</ele>
        <time>2011-08-10T12:38:26Z</time>
      </trkpt>
      <trkpt lat="45.06044" lon="5.24296">
        <ele>233.60809326172</ele>
        <time>2011-08-10T12:38:32Z</time>
      </trkpt>
      <trkpt lat="45.06002" lon="5.24355">
        <ele>202.59190368652</ele>
        <time>2011-08-10T12:38:39Z</time>
      </trkpt>
      <trkpt lat="45.05986" lon="5.24385">
        <ele>197.03556823731</ele>
        <time>2011-08-10T12:38:42Z</time>
      </trkpt>
      <trkpt lat="45.05976" lon="5.24429">
        <ele>185.56901550293</ele>
        <time>2011-08-10T12:38:46Z</time>
      </trkpt>
      <trkpt lat="45.05974" lon="5.2453">
        <ele>172.50225830078</ele>
        <time>2011-08-10T12:38:54Z</time>
      </trkpt>
      <trkpt lat="45.05975" lon="5.24554">
        <ele>172.2138671875</ele>
        <time>2011-08-10T12:38:56Z</time>
      </trkpt>
      <trkpt lat="45.05987" lon="5.24643">
        <ele>168.70361328125</ele>
        <time>2011-08-10T12:39:03Z</time>
      </trkpt>
      <trkpt lat="45.06003" lon="5.24687">
        <ele>165.54077148438</ele>
        <time>2011-08-10T12:39:07Z</time>
      </trkpt>
      <trkpt lat="45.06026" lon="5.24703">
        <ele>162.54777526856</ele>
        <time>2011-08-10T12:39:10Z</time>
      </trkpt>
      <trkpt lat="45.06046" lon="5.24708">
        <ele>161.51034545898</ele>
        <time>2011-08-10T12:39:12Z</time>
      </trkpt>
      <trkpt lat="45.06112" lon="5.2473">
        <ele>160</ele>
        <time>2011-08-10T12:39:19Z</time>
      </trkpt>
      <trkpt lat="45.06155" lon="5.24746">
        <ele>161.74151611328</ele>
        <time>2011-08-10T12:39:24Z</time>
      </trkpt>
      <trkpt lat="45.06176" lon="5.24763">
        <ele>165.18994140625</ele>
        <time>2011-08-10T12:39:27Z</time>
      </trkpt>
      <trkpt lat="45.06182" lon="5.24784">
        <ele>166.25085449219</ele>
        <time>2011-08-10T12:39:29Z</time>
      </trkpt>
      <trkpt lat="45.06191" lon="5.24846">
        <ele>167.94355773926</ele>
        <time>2011-08-10T12:39:35Z</time>
      </trkpt>
      <trkpt lat="45.06195" lon="5.24943">
        <ele>172.14678955078</ele>
        <time>2011-08-10T12:39:45Z</time>
      </trkpt>
      <trkpt lat="45.06195" lon="5.25015">
        <ele>175.68035888672</ele>
        <time>2011-08-10T12:39:52Z</time>
      </trkpt>
      <trkpt lat="45.06186" lon="5.25099">
        <ele>176.16954040527</ele>
        <time>2011-08-10T12:40:00Z</time>
      </trkpt>
      <trkpt lat="45.06171" lon="5.25212">
        <ele>172.01806640625</ele>
        <time>2011-08-10T12:40:11Z</time>
      </trkpt>
      <trkpt lat="45.06157" lon="5.25292">
        <ele>167.47360229492</ele>
        <time>2011-08-10T12:40:19Z</time>
      </trkpt>
      <trkpt lat="45.06145" lon="5.25373">
        <ele>165.53311157227</ele>
        <time>2011-08-10T12:40:27Z</time>
      </trkpt>
      <trkpt lat="45.06133" lon="5.25463">
        <ele>167.74935913086</ele>
        <time>2011-08-10T12:40:36Z</time>
      </trkpt>
      <trkpt lat="45.06131" lon="5.25522">
        <ele>171.49980163574</ele>
        <time>2011-08-10T12:40:42Z</time>
      </trkpt>
      <trkpt lat="45.06143" lon="5.2559">
        <ele>173.77392578125</ele>
        <time>2011-08-10T12:40:49Z</time>
      </trkpt>
      <trkpt lat="45.06161" lon="5.25656">
        <ele>177.00115966797</ele>
        <time>2011-08-10T12:40:56Z</time>
      </trkpt>
      <trkpt lat="45.0617" lon="5.25726">
        <ele>177.38946533203</ele>
        <time>2011-08-10T12:41:03Z</time>
      </trkpt>
      <trkpt lat="45.0618" lon="5.25815">
        <ele>178.46063232422</ele>
        <time>2011-08-10T12:41:12Z</time>
      </trkpt>
      <trkpt lat="45.06182" lon="5.25825">
        <ele>178.62542724609</ele>
        <time>2011-08-10T12:41:13Z</time>
      </trkpt>
      <trkpt lat="45.06201" lon="5.25911">
        <ele>180.7265625</ele>
        <time>2011-08-10T12:41:22Z</time>
      </trkpt>
      <trkpt lat="45.06211" lon="5.25981">
        <ele>181.17102050781</ele>
        <time>2011-08-10T12:41:29Z</time>
      </trkpt>
      <trkpt lat="45.06221" lon="5.26093">
        <ele>180.56015014648</ele>
        <time>2011-08-10T12:41:40Z</time>
      </trkpt>
      <trkpt lat="45.06227" lon="5.26173">
        <ele>180.84138488769</ele>
        <time>2011-08-10T12:41:48Z</time>
      </trkpt>
      <trkpt lat="45.06234" lon="5.26265">
        <ele>182.01257324219</ele>
        <time>2011-08-10T12:41:57Z</time>
      </trkpt>
      <trkpt lat="45.06245" lon="5.26371">
        <ele>182.42321777344</ele>
        <time>2011-08-10T12:42:07Z</time>
      </trkpt>
      <trkpt lat="45.06254" lon="5.2641">
        <ele>182.6247253418</ele>
        <time>2011-08-10T12:42:11Z</time>
      </trkpt>
      <trkpt lat="45.0627" lon="5.26444">
        <ele>184.18353271484</ele>
        <time>2011-08-10T12:42:15Z</time>
      </trkpt>
      <trkpt lat="45.06313" lon="5.26504">
        <ele>186.79447937012</ele>
        <time>2011-08-10T12:42:23Z</time>
      </trkpt>
      <trkpt lat="45.06338" lon="5.2656">
        <ele>188.31838989258</ele>
        <time>2011-08-10T12:42:29Z</time>
      </trkpt>
      <trkpt lat="45.06372" lon="5.26653">
        <ele>188.76159667969</ele>
        <time>2011-08-10T12:42:39Z</time>
      </trkpt>
      <trkpt lat="45.06404" lon="5.26746">
        <ele>189.62916564941</ele>
        <time>2011-08-10T12:42:49Z</time>
      </trkpt>
      <trkpt lat="45.06415" lon="5.26782">
        <ele>189.76550292969</ele>
        <time>2011-08-10T12:42:53Z</time>
      </trkpt>
      <trkpt lat="45.06411" lon="5.26812">
        <ele>188.76319885254</ele>
        <time>2011-08-10T12:42:57Z</time>
      </trkpt>
      <trkpt lat="45.06393" lon="5.26821">
        <ele>187.68579101562</ele>
        <time>2011-08-10T12:43:00Z</time>
      </trkpt>
      <trkpt lat="45.0635" lon="5.26829">
        <ele>185.28668212891</ele>
        <time>2011-08-10T12:43:07Z</time>
      </trkpt>
      <trkpt lat="45.06327" lon="5.26841">
        <ele>183.77404785156</ele>
        <time>2011-08-10T12:43:11Z</time>
      </trkpt>
      <trkpt lat="45.06317" lon="5.26849">
        <ele>183.40325927734</ele>
        <time>2011-08-10T12:43:13Z</time>
      </trkpt>
      <trkpt lat="45.0629" lon="5.26888">
        <ele>182.01431274414</ele>
        <time>2011-08-10T12:43:20Z</time>
      </trkpt>
      <trkpt lat="45.06278" lon="5.26924">
        <ele>184.26774597168</ele>
        <time>2011-08-10T12:43:26Z</time>
      </trkpt>
      <trkpt lat="45.06274" lon="5.26943">
        <ele>184.94554138184</ele>
        <time>2011-08-10T12:43:31Z</time>
      </trkpt>
      <trkpt lat="45.0627" lon="5.26959">
        <ele>185.90476989746</ele>
        <time>2011-08-10T12:43:38Z</time>
      </trkpt>
      <trkpt lat="45.06269" lon="5.26968">
        <ele>186.41304016113</ele>
        <time>2011-08-10T12:43:41Z</time>
      </trkpt>
      <trkpt lat="45.06274" lon="5.26966">
        <ele>186.43220520019</ele>
        <time>2011-08-10T12:43:45Z</time>
      </trkpt>
      <trkpt lat="45.06278" lon="5.26949">
        <ele>185.35284423828</ele>
        <time>2011-08-10T12:43:48Z</time>
      </trkpt>
      <trkpt lat="45.06289" lon="5.26905">
        <ele>183.16773986816</ele>
        <time>2011-08-10T12:43:54Z</time>
      </trkpt>
      <trkpt lat="45.06294" lon="5.2689">
        <ele>182.06567382812</ele>
        <time>2011-08-10T12:43:56Z</time>
      </trkpt>
      <trkpt lat="45.063" lon="5.26877">
        <ele>182.33860778809</ele>
        <time>2011-08-10T12:43:58Z</time>
      </trkpt>
      <trkpt lat="45.06305" lon="5.26857">
        <ele>182.9775390625</ele>
        <time>2011-08-10T12:44:02Z</time>
      </trkpt>
      <trkpt lat="45.06303" lon="5.26855">
        <ele>182.90887451172</ele>
        <time>2011-08-10T12:44:06Z</time>
      </trkpt>
      <trkpt lat="45.06301" lon="5.26855">
        <ele>182.82647705078</ele>
        <time>2011-08-10T12:48:02Z</time>
      </trkpt>
      <trkpt lat="45.063" lon="5.2686">
        <ele>182.81274414062</ele>
        <time>2011-08-10T12:48:05Z</time>
      </trkpt>
      <trkpt lat="45.06292" lon="5.26879">
        <ele>182.18220520019</ele>
        <time>2011-08-10T12:48:12Z</time>
      </trkpt>
      <trkpt lat="45.06281" lon="5.26909">
        <ele>183.44239807129</ele>
        <time>2011-08-10T12:48:19Z</time>
      </trkpt>
      <trkpt lat="45.06271" lon="5.26952">
        <ele>185.49342346191</ele>
        <time>2011-08-10T12:48:27Z</time>
      </trkpt>
      <trkpt lat="45.06266" lon="5.2697">
        <ele>186.44172668457</ele>
        <time>2011-08-10T12:48:30Z</time>
      </trkpt>
      <trkpt lat="45.06255" lon="5.27011">
        <ele>187.98519897461</ele>
        <time>2011-08-10T12:48:37Z</time>
      </trkpt>
      <trkpt lat="45.06246" lon="5.27035">
        <ele>189.11572265625</ele>
        <time>2011-08-10T12:48:41Z</time>
      </trkpt>
      <trkpt lat="45.06237" lon="5.27052">
        <ele>189.39553833008</ele>
        <time>2011-08-10T12:48:44Z</time>
      </trkpt>
      <trkpt lat="45.06208" lon="5.27099">
        <ele>190.55331420898</ele>
        <time>2011-08-10T12:48:51Z</time>
      </trkpt>
      <trkpt lat="45.06173" lon="5.27154">
        <ele>190.34550476074</ele>
        <time>2011-08-10T12:48:58Z</time>
      </trkpt>
      <trkpt lat="45.06131" lon="5.27227">
        <ele>186.96585083008</ele>
        <time>2011-08-10T12:49:06Z</time>
      </trkpt>
      <trkpt lat="45.06112" lon="5.27285">
        <ele>186.33245849609</ele>
        <time>2011-08-10T12:49:11Z</time>
      </trkpt>
      <trkpt lat="45.06098" lon="5.27351">
        <ele>185.20581054688</ele>
        <time>2011-08-10T12:49:16Z</time>
      </trkpt>
      <trkpt lat="45.06081" lon="5.27459">
        <ele>184.51037597656</ele>
        <time>2011-08-10T12:49:24Z</time>
      </trkpt>
      <trkpt lat="45.06078" lon="5.27502">
        <ele>183.00245666504</ele>
        <time>2011-08-10T12:49:27Z</time>
      </trkpt>
      <trkpt lat="45.06079" lon="5.2753">
        <ele>181.95416259766</ele>
        <time>2011-08-10T12:49:29Z</time>
      </trkpt>
      <trkpt lat="45.06092" lon="5.27597">
        <ele>181.83160400391</ele>
        <time>2011-08-10T12:49:34Z</time>
      </trkpt>
      <trkpt lat="45.06101" lon="5.27638">
        <ele>179.54382324219</ele>
        <time>2011-08-10T12:49:37Z</time>
      </trkpt>
      <trkpt lat="45.06102" lon="5.27707">
        <ele>174.95176696777</ele>
        <time>2011-08-10T12:49:42Z</time>
      </trkpt>
      <trkpt lat="45.06104" lon="5.2775">
        <ele>173.50798034668</ele>
        <time>2011-08-10T12:49:45Z</time>
      </trkpt>
      <trkpt lat="45.06121" lon="5.27834">
        <ele>170.07861328125</ele>
        <time>2011-08-10T12:49:51Z</time>
      </trkpt>
      <trkpt lat="45.06147" lon="5.27898">
        <ele>174.63864135742</ele>
        <time>2011-08-10T12:49:56Z</time>
      </trkpt>
      <trkpt lat="45.06155" lon="5.27951">
        <ele>177.07563781738</ele>
        <time>2011-08-10T12:50:00Z</time>
      </trkpt>
      <trkpt lat="45.06154" lon="5.27964">
        <ele>177.10455322266</ele>
        <time>2011-08-10T12:50:01Z</time>
      </trkpt>
      <trkpt lat="45.06139" lon="5.28058">
        <ele>176.09991455078</ele>
        <time>2011-08-10T12:50:09Z</time>
      </trkpt>
      <trkpt lat="45.06128" lon="5.28116">
        <ele>175.41040039062</ele>
        <time>2011-08-10T12:50:15Z</time>
      </trkpt>
      <trkpt lat="45.06121" lon="5.28149">
        <ele>174.63877868652</ele>
        <time>2011-08-10T12:50:19Z</time>
      </trkpt>
      <trkpt lat="45.06113" lon="5.28189">
        <ele>174.3157043457</ele>
        <time>2011-08-10T12:50:25Z</time>
      </trkpt>
      <trkpt lat="45.06109" lon="5.28229">
        <ele>174.89942932129</ele>
        <time>2011-08-10T12:50:31Z</time>
      </trkpt>
      <trkpt lat="45.06103" lon="5.28269">
        <ele>175.1865234375</ele>
        <time>2011-08-10T12:50:37Z</time>
      </trkpt>
      <trkpt lat="45.06088" lon="5.28323">
        <ele>174.35180664062</ele>
        <time>2011-08-10T12:50:45Z</time>
      </trkpt>
      <trkpt lat="45.06084" lon="5.28337">
        <ele>174.23336791992</ele>
        <time>2011-08-10T12:50:47Z</time>
      </trkpt>
      <trkpt lat="45.06075" lon="5.28401">
        <ele>173.7314453125</ele>
        <time>2011-08-10T12:50:55Z</time>
      </trkpt>
      <trkpt lat="45.0607" lon="5.2849">
        <ele>172.12719726562</ele>
        <time>2011-08-10T12:51:05Z</time>
      </trkpt>
      <trkpt lat="45.06081" lon="5.28552">
        <ele>172.81994628906</ele>
        <time>2011-08-10T12:51:12Z</time>
      </trkpt>
      <trkpt lat="45.061" lon="5.28633">
        <ele>173.92578125</ele>
        <time>2011-08-10T12:51:21Z</time>
      </trkpt>
      <trkpt lat="45.06132" lon="5.28746">
        <ele>173.87886047363</ele>
        <time>2011-08-10T12:51:33Z</time>
      </trkpt>
      <trkpt lat="45.0616" lon="5.28807">
        <ele>175.88317871094</ele>
        <time>2011-08-10T12:51:40Z</time>
      </trkpt>
      <trkpt lat="45.0621" lon="5.28896">
        <ele>177.1554107666</ele>
        <time>2011-08-10T12:51:51Z</time>
      </trkpt>
      <trkpt lat="45.06248" lon="5.28955">
        <ele>175.94920349121</ele>
        <time>2011-08-10T12:51:59Z</time>
      </trkpt>
      <trkpt lat="45.06254" lon="5.28961">
        <ele>175.64305114746</ele>
        <time>2011-08-10T12:52:00Z</time>
      </trkpt>
      <trkpt lat="45.06295" lon="5.28985">
        <ele>178.40255737305</ele>
        <time>2011-08-10T12:52:06Z</time>
      </trkpt>
      <trkpt lat="45.06337" lon="5.29011">
        <ele>182.67568969727</ele>
        <time>2011-08-10T12:52:12Z</time>
      </trkpt>
      <trkpt lat="45.06365" lon="5.29047">
        <ele>182.10052490234</ele>
        <time>2011-08-10T12:52:17Z</time>
      </trkpt>
      <trkpt lat="45.06385" lon="5.29092">
        <ele>179.21734619141</ele>
        <time>2011-08-10T12:52:22Z</time>
      </trkpt>
      <trkpt lat="45.06403" lon="5.29163">
        <ele>176.75186157227</ele>
        <time>2011-08-10T12:52:29Z</time>
      </trkpt>
      <trkpt lat="45.06411" lon="5.29235">
        <ele>172.86447143555</ele>
        <time>2011-08-10T12:52:36Z</time>
      </trkpt>
      <trkpt lat="45.06408" lon="5.29297">
        <ele>172.05627441406</ele>
        <time>2011-08-10T12:52:42Z</time>
      </trkpt>
      <trkpt lat="45.06404" lon="5.29359">
        <ele>172.06872558594</ele>
        <time>2011-08-10T12:52:48Z</time>
      </trkpt>
      <trkpt lat="45.06397" lon="5.29486">
        <ele>173.76902770996</ele>
        <time>2011-08-10T12:53:00Z</time>
      </trkpt>
      <trkpt lat="45.06392" lon="5.29606">
        <ele>175.27172851562</ele>
        <time>2011-08-10T12:53:12Z</time>
      </trkpt>
      <trkpt lat="45.06388" lon="5.29697">
        <ele>174.95758056641</ele>
        <time>2011-08-10T12:53:21Z</time>
      </trkpt>
      <trkpt lat="45.06384" lon="5.29797">
        <ele>174.45129394531</ele>
        <time>2011-08-10T12:53:31Z</time>
      </trkpt>
      <trkpt lat="45.06379" lon="5.2989">
        <ele>174.65545654297</ele>
        <time>2011-08-10T12:53:41Z</time>
      </trkpt>
      <trkpt lat="45.06377" lon="5.29956">
        <ele>175.55932617188</ele>
        <time>2011-08-10T12:53:49Z</time>
      </trkpt>
      <trkpt lat="45.06374" lon="5.30003">
        <ele>176.04643249512</ele>
        <time>2011-08-10T12:53:55Z</time>
      </trkpt>
      <trkpt lat="45.06365" lon="5.30055">
        <ele>176.13360595703</ele>
        <time>2011-08-10T12:54:02Z</time>
      </trkpt>
      <trkpt lat="45.06342" lon="5.30109">
        <ele>176.32336425781</ele>
        <time>2011-08-10T12:54:10Z</time>
      </trkpt>
      <trkpt lat="45.06328" lon="5.30141">
        <ele>176.44573974609</ele>
        <time>2011-08-10T12:54:15Z</time>
      </trkpt>
      <trkpt lat="45.06308" lon="5.30188">
        <ele>174.99201965332</ele>
        <time>2011-08-10T12:54:22Z</time>
      </trkpt>
      <trkpt lat="45.06292" lon="5.30224">
        <ele>175.10202026367</ele>
        <time>2011-08-10T12:54:27Z</time>
      </trkpt>
      <trkpt lat="45.06284" lon="5.30245">
        <ele>175.3028717041</ele>
        <time>2011-08-10T12:54:30Z</time>
      </trkpt>
      <trkpt lat="45.06269" lon="5.30302">
        <ele>175.70037841797</ele>
        <time>2011-08-10T12:54:37Z</time>
      </trkpt>
      <trkpt lat="45.0626" lon="5.30343">
        <ele>176.49420166016</ele>
        <time>2011-08-10T12:54:42Z</time>
      </trkpt>
      <trkpt lat="45.06255" lon="5.30355">
        <ele>176.31977844238</ele>
        <time>2011-08-10T12:54:44Z</time>
      </trkpt>
      <trkpt lat="45.06234" lon="5.30393">
        <ele>176.49444580078</ele>
        <time>2011-08-10T12:54:51Z</time>
      </trkpt>
      <trkpt lat="45.06224" lon="5.30407">
        <ele>176.68611145019</ele>
        <time>2011-08-10T12:54:54Z</time>
      </trkpt>
      <trkpt lat="45.06211" lon="5.30432">
        <ele>176.4354095459</ele>
        <time>2011-08-10T12:54:59Z</time>
      </trkpt>
      <trkpt lat="45.0619" lon="5.30471">
        <ele>175.57299804688</ele>
        <time>2011-08-10T12:55:05Z</time>
      </trkpt>
      <trkpt lat="45.06187" lon="5.30478">
        <ele>175.48239135742</ele>
        <time>2011-08-10T12:55:06Z</time>
      </trkpt>
      <trkpt lat="45.06173" lon="5.30503">
        <ele>175.53883361816</ele>
        <time>2011-08-10T12:55:10Z</time>
      </trkpt>
      <trkpt lat="45.06164" lon="5.30525">
        <ele>175.64920043945</ele>
        <time>2011-08-10T12:55:13Z</time>
      </trkpt>
      <trkpt lat="45.06145" lon="5.30589">
        <ele>176.6408996582</ele>
        <time>2011-08-10T12:55:21Z</time>
      </trkpt>
      <trkpt lat="45.06121" lon="5.30639">
        <ele>177.36845397949</ele>
        <time>2011-08-10T12:55:28Z</time>
      </trkpt>
      <trkpt lat="45.06086" lon="5.30705">
        <ele>180.37509155273</ele>
        <time>2011-08-10T12:55:37Z</time>
      </trkpt>
      <trkpt lat="45.06052" lon="5.30752">
        <ele>187.32885742188</ele>
        <time>2011-08-10T12:55:44Z</time>
      </trkpt>
      <trkpt lat="45.06023" lon="5.30779">
        <ele>192.45745849609</ele>
        <time>2011-08-10T12:55:49Z</time>
      </trkpt>
      <trkpt lat="45.05968" lon="5.3082">
        <ele>189.07453918457</ele>
        <time>2011-08-10T12:55:58Z</time>
      </trkpt>
      <trkpt lat="45.05928" lon="5.30832">
        <ele>184.21072387695</ele>
        <time>2011-08-10T12:56:04Z</time>
      </trkpt>
      <trkpt lat="45.05922" lon="5.30833">
        <ele>183.01420593262</ele>
        <time>2011-08-10T12:56:05Z</time>
      </trkpt>
      <trkpt lat="45.05896" lon="5.30846">
        <ele>182.31164550781</ele>
        <time>2011-08-10T12:56:09Z</time>
      </trkpt>
      <trkpt lat="45.0587" lon="5.30866">
        <ele>183.72816467285</ele>
        <time>2011-08-10T12:56:13Z</time>
      </trkpt>
      <trkpt lat="45.05836" lon="5.30876">
        <ele>185.16809082031</ele>
        <time>2011-08-10T12:56:18Z</time>
      </trkpt>
      <trkpt lat="45.05815" lon="5.3087">
        <ele>183.82913208008</ele>
        <time>2011-08-10T12:56:21Z</time>
      </trkpt>
      <trkpt lat="45.05788" lon="5.30856">
        <ele>183.01173400879</ele>
        <time>2011-08-10T12:56:25Z</time>
      </trkpt>
      <trkpt lat="45.0574" lon="5.30837">
        <ele>185.21769714356</ele>
        <time>2011-08-10T12:56:32Z</time>
      </trkpt>
      <trkpt lat="45.05697" lon="5.30821">
        <ele>186.12341308594</ele>
        <time>2011-08-10T12:56:38Z</time>
      </trkpt>
      <trkpt lat="45.05659" lon="5.30823">
        <ele>188.46356201172</ele>
        <time>2011-08-10T12:56:43Z</time>
      </trkpt>
      <trkpt lat="45.05614" lon="5.30841">
        <ele>190.61581420898</ele>
        <time>2011-08-10T12:56:49Z</time>
      </trkpt>
      <trkpt lat="45.05578" lon="5.3086">
        <ele>189.71537780762</ele>
        <time>2011-08-10T12:56:54Z</time>
      </trkpt>
      <trkpt lat="45.05555" lon="5.30888">
        <ele>191.85624694824</ele>
        <time>2011-08-10T12:56:58Z</time>
      </trkpt>
      <trkpt lat="45.05551" lon="5.30896">
        <ele>191.95220947266</ele>
        <time>2011-08-10T12:56:59Z</time>
      </trkpt>
      <trkpt lat="45.05515" lon="5.30985">
        <ele>195.03356933594</ele>
        <time>2011-08-10T12:57:09Z</time>
      </trkpt>
      <trkpt lat="45.05487" lon="5.31064">
        <ele>196.76368713379</ele>
        <time>2011-08-10T12:57:18Z</time>
      </trkpt>
      <trkpt lat="45.05463" lon="5.31155">
        <ele>195.88676452637</ele>
        <time>2011-08-10T12:57:28Z</time>
      </trkpt>
      <trkpt lat="45.0546" lon="5.31213">
        <ele>197.93942260742</ele>
        <time>2011-08-10T12:57:34Z</time>
      </trkpt>
      <trkpt lat="45.05455" lon="5.31296">
        <ele>202.71257019043</ele>
        <time>2011-08-10T12:57:43Z</time>
      </trkpt>
      <trkpt lat="45.05458" lon="5.31341">
        <ele>206.48788452148</ele>
        <time>2011-08-10T12:57:48Z</time>
      </trkpt>
      <trkpt lat="45.05473" lon="5.31393">
        <ele>217.51625061035</ele>
        <time>2011-08-10T12:57:54Z</time>
      </trkpt>
      <trkpt lat="45.05495" lon="5.31455">
        <ele>223.70776367188</ele>
        <time>2011-08-10T12:58:01Z</time>
      </trkpt>
      <trkpt lat="45.05516" lon="5.31507">
        <ele>228.63342285156</ele>
        <time>2011-08-10T12:58:07Z</time>
      </trkpt>
      <trkpt lat="45.05524" lon="5.31535">
        <ele>229.11933898926</ele>
        <time>2011-08-10T12:58:10Z</time>
      </trkpt>
      <trkpt lat="45.05526" lon="5.31595">
        <ele>227.40954589844</ele>
        <time>2011-08-10T12:58:16Z</time>
      </trkpt>
      <trkpt lat="45.05525" lon="5.31696">
        <ele>223.73886108398</ele>
        <time>2011-08-10T12:58:26Z</time>
      </trkpt>
      <trkpt lat="45.0552" lon="5.31764">
        <ele>220.18696594238</ele>
        <time>2011-08-10T12:58:33Z</time>
      </trkpt>
      <trkpt lat="45.05522" lon="5.31803">
        <ele>215.72735595703</ele>
        <time>2011-08-10T12:58:37Z</time>
      </trkpt>
      <trkpt lat="45.05538" lon="5.31844">
        <ele>208.89279174805</ele>
        <time>2011-08-10T12:58:42Z</time>
      </trkpt>
      <trkpt lat="45.05561" lon="5.31861">
        <ele>206.5167388916</ele>
        <time>2011-08-10T12:58:46Z</time>
      </trkpt>
      <trkpt lat="45.05621" lon="5.31879">
        <ele>201.78158569336</ele>
        <time>2011-08-10T12:58:55Z</time>
      </trkpt>
      <trkpt lat="45.05667" lon="5.31893">
        <ele>199.04736328125</ele>
        <time>2011-08-10T12:59:02Z</time>
      </trkpt>
      <trkpt lat="45.05705" lon="5.31911">
        <ele>199.13302612305</ele>
        <time>2011-08-10T12:59:08Z</time>
      </trkpt>
      <trkpt lat="45.05735" lon="5.31939">
        <ele>199.96925354004</ele>
        <time>2011-08-10T12:59:13Z</time>
      </trkpt>
      <trkpt lat="45.05775" lon="5.31997">
        <ele>198.7921295166</ele>
        <time>2011-08-10T12:59:21Z</time>
      </trkpt>
      <trkpt lat="45.05812" lon="5.32056">
        <ele>197.39541625977</ele>
        <time>2011-08-10T12:59:29Z</time>
      </trkpt>
      <trkpt lat="45.05822" lon="5.32094">
        <ele>198.21127319336</ele>
        <time>2011-08-10T12:59:33Z</time>
      </trkpt>
      <trkpt lat="45.05822" lon="5.32114">
        <ele>197.75242614746</ele>
        <time>2011-08-10T12:59:35Z</time>
      </trkpt>
      <trkpt lat="45.05815" lon="5.32178">
        <ele>195.30363464356</ele>
        <time>2011-08-10T12:59:41Z</time>
      </trkpt>
      <trkpt lat="45.05823" lon="5.32221">
        <ele>196.82981872559</ele>
        <time>2011-08-10T12:59:45Z</time>
      </trkpt>
      <trkpt lat="45.05839" lon="5.32246">
        <ele>200.3024597168</ele>
        <time>2011-08-10T12:59:48Z</time>
      </trkpt>
      <trkpt lat="45.05846" lon="5.32253">
        <ele>202.31378173828</ele>
        <time>2011-08-10T12:59:49Z</time>
      </trkpt>
      <trkpt lat="45.0586" lon="5.32266">
        <ele>206.34094238281</ele>
        <time>2011-08-10T12:59:51Z</time>
      </trkpt>
      <trkpt lat="45.05888" lon="5.3231">
        <ele>215.80480957031</ele>
        <time>2011-08-10T12:59:56Z</time>
      </trkpt>
      <trkpt lat="45.05894" lon="5.32331">
        <ele>217.66098022461</ele>
        <time>2011-08-10T12:59:58Z</time>
      </trkpt>
      <trkpt lat="45.05903" lon="5.32399">
        <ele>219.73347473144</ele>
        <time>2011-08-10T13:00:04Z</time>
      </trkpt>
      <trkpt lat="45.05902" lon="5.32472">
        <ele>219.95977783203</ele>
        <time>2011-08-10T13:00:10Z</time>
      </trkpt>
      <trkpt lat="45.05901" lon="5.32521">
        <ele>216.41944885254</ele>
        <time>2011-08-10T13:00:14Z</time>
      </trkpt>
      <trkpt lat="45.05888" lon="5.3259">
        <ele>207.42004394531</ele>
        <time>2011-08-10T13:00:20Z</time>
      </trkpt>
      <trkpt lat="45.05886" lon="5.32601">
        <ele>206.49650573731</ele>
        <time>2011-08-10T13:00:21Z</time>
      </trkpt>
      <trkpt lat="45.0589" lon="5.32645">
        <ele>202.67306518555</ele>
        <time>2011-08-10T13:00:25Z</time>
      </trkpt>
      <trkpt lat="45.05908" lon="5.32665">
        <ele>203.17663574219</ele>
        <time>2011-08-10T13:00:28Z</time>
      </trkpt>
      <trkpt lat="45.05922" lon="5.3267">
        <ele>204.31695556641</ele>
        <time>2011-08-10T13:00:30Z</time>
      </trkpt>
      <trkpt lat="45.05965" lon="5.32688">
        <ele>208.07560729981</ele>
        <time>2011-08-10T13:00:36Z</time>
      </trkpt>
      <trkpt lat="45.06002" lon="5.32724">
        <ele>208.11582946777</ele>
        <time>2011-08-10T13:00:42Z</time>
      </trkpt>
      <trkpt lat="45.06028" lon="5.32758">
        <ele>208.37959289551</ele>
        <time>2011-08-10T13:00:47Z</time>
      </trkpt>
      <trkpt lat="45.06062" lon="5.32824">
        <ele>206.20967102051</ele>
        <time>2011-08-10T13:00:55Z</time>
      </trkpt>
      <trkpt lat="45.06065" lon="5.32833">
        <ele>206.00326538086</ele>
        <time>2011-08-10T13:00:56Z</time>
      </trkpt>
      <trkpt lat="45.06074" lon="5.3287">
        <ele>205.6083984375</ele>
        <time>2011-08-10T13:01:00Z</time>
      </trkpt>
      <trkpt lat="45.06075" lon="5.3294">
        <ele>199.89169311523</ele>
        <time>2011-08-10T13:01:07Z</time>
      </trkpt>
      <trkpt lat="45.06079" lon="5.32987">
        <ele>199.25199890137</ele>
        <time>2011-08-10T13:01:12Z</time>
      </trkpt>
      <trkpt lat="45.06103" lon="5.33045">
        <ele>199.51040649414</ele>
        <time>2011-08-10T13:01:19Z</time>
      </trkpt>
      <trkpt lat="45.06119" lon="5.33097">
        <ele>199.28961181641</ele>
        <time>2011-08-10T13:01:25Z</time>
      </trkpt>
      <trkpt lat="45.0614" lon="5.33173">
        <ele>199.32250976562</ele>
        <time>2011-08-10T13:01:34Z</time>
      </trkpt>
      <trkpt lat="45.06159" lon="5.33239">
        <ele>199.56637573242</ele>
        <time>2011-08-10T13:01:42Z</time>
      </trkpt>
      <trkpt lat="45.06181" lon="5.33303">
        <ele>199.28654479981</ele>
        <time>2011-08-10T13:01:50Z</time>
      </trkpt>
      <trkpt lat="45.06197" lon="5.33344">
        <ele>198.70947265625</ele>
        <time>2011-08-10T13:01:55Z</time>
      </trkpt>
      <trkpt lat="45.06234" lon="5.33404">
        <ele>197.90093994141</ele>
        <time>2011-08-10T13:02:03Z</time>
      </trkpt>
      <trkpt lat="45.06253" lon="5.33428">
        <ele>197.77713012695</ele>
        <time>2011-08-10T13:02:07Z</time>
      </trkpt>
      <trkpt lat="45.06269" lon="5.33435">
        <ele>198.24786376953</ele>
        <time>2011-08-10T13:02:10Z</time>
      </trkpt>
      <trkpt lat="45.06307" lon="5.33447">
        <ele>198.96571350098</ele>
        <time>2011-08-10T13:02:16Z</time>
      </trkpt>
      <trkpt lat="45.06354" lon="5.33459">
        <ele>202.43328857422</ele>
        <time>2011-08-10T13:02:22Z</time>
      </trkpt>
      <trkpt lat="45.06389" lon="5.33482">
        <ele>205.2654876709</ele>
        <time>2011-08-10T13:02:27Z</time>
      </trkpt>
      <trkpt lat="45.06433" lon="5.3353">
        <ele>202.08444213867</ele>
        <time>2011-08-10T13:02:34Z</time>
      </trkpt>
      <trkpt lat="45.06438" lon="5.33538">
        <ele>201.91320800781</ele>
        <time>2011-08-10T13:02:35Z</time>
      </trkpt>
      <trkpt lat="45.06451" lon="5.33576">
        <ele>199.42817687988</ele>
        <time>2011-08-10T13:02:39Z</time>
      </trkpt>
      <trkpt lat="45.06448" lon="5.33597">
        <ele>199.12738037109</ele>
        <time>2011-08-10T13:02:41Z</time>
      </trkpt>
      <trkpt lat="45.0643" lon="5.33653">
        <ele>198.48193359375</ele>
        <time>2011-08-10T13:02:47Z</time>
      </trkpt>
      <trkpt lat="45.06407" lon="5.33704">
        <ele>198.330078125</ele>
        <time>2011-08-10T13:02:53Z</time>
      </trkpt>
      <trkpt lat="45.06383" lon="5.33748">
        <ele>198.79278564453</ele>
        <time>2011-08-10T13:02:59Z</time>
      </trkpt>
      <trkpt lat="45.06376" lon="5.33761">
        <ele>198.51812744141</ele>
        <time>2011-08-10T13:03:01Z</time>
      </trkpt>
      <trkpt lat="45.06353" lon="5.33802">
        <ele>198</ele>
        <time>2011-08-10T13:03:07Z</time>
      </trkpt>
      <trkpt lat="45.0633" lon="5.33841">
        <ele>197.89764404297</ele>
        <time>2011-08-10T13:03:13Z</time>
      </trkpt>
      <trkpt lat="45.06301" lon="5.33901">
        <ele>197.82647705078</ele>
        <time>2011-08-10T13:03:21Z</time>
      </trkpt>
      <trkpt lat="45.06276" lon="5.33969">
        <ele>197.92010498047</ele>
        <time>2011-08-10T13:03:29Z</time>
      </trkpt>
      <trkpt lat="45.06256" lon="5.34021">
        <ele>197.81811523438</ele>
        <time>2011-08-10T13:03:35Z</time>
      </trkpt>
      <trkpt lat="45.06232" lon="5.34092">
        <ele>198</ele>
        <time>2011-08-10T13:03:43Z</time>
      </trkpt>
      <trkpt lat="45.06222" lon="5.34143">
        <ele>198</ele>
        <time>2011-08-10T13:03:49Z</time>
      </trkpt>
      <trkpt lat="45.06211" lon="5.34193">
        <ele>198</ele>
        <time>2011-08-10T13:03:55Z</time>
      </trkpt>
      <trkpt lat="45.06208" lon="5.3421">
        <ele>198.2844543457</ele>
        <time>2011-08-10T13:03:57Z</time>
      </trkpt>
      <trkpt lat="45.06198" lon="5.34251">
        <ele>198</ele>
        <time>2011-08-10T13:04:02Z</time>
      </trkpt>
      <trkpt lat="45.06181" lon="5.34296">
        <ele>198</ele>
        <time>2011-08-10T13:04:08Z</time>
      </trkpt>
      <trkpt lat="45.06178" lon="5.34304">
        <ele>198</ele>
        <time>2011-08-10T13:04:09Z</time>
      </trkpt>
      <trkpt lat="45.06161" lon="5.34336">
        <ele>199</ele>
        <time>2011-08-10T13:04:14Z</time>
      </trkpt>
      <trkpt lat="45.06148" lon="5.34358">
        <ele>199</ele>
        <time>2011-08-10T13:04:18Z</time>
      </trkpt>
      <trkpt lat="45.06142" lon="5.34371">
        <ele>199</ele>
        <time>2011-08-10T13:04:20Z</time>
      </trkpt>
      <trkpt lat="45.06123" lon="5.34406">
        <ele>199</ele>
        <time>2011-08-10T13:04:25Z</time>
      </trkpt>
      <trkpt lat="45.06115" lon="5.34423">
        <ele>199</ele>
        <time>2011-08-10T13:04:27Z</time>
      </trkpt>
      <trkpt lat="45.06105" lon="5.34464">
        <ele>199.23223876953</ele>
        <time>2011-08-10T13:04:32Z</time>
      </trkpt>
      <trkpt lat="45.06102" lon="5.3448">
        <ele>199.32836914062</ele>
        <time>2011-08-10T13:04:34Z</time>
      </trkpt>
      <trkpt lat="45.06099" lon="5.3452">
        <ele>199.45196533203</ele>
        <time>2011-08-10T13:04:39Z</time>
      </trkpt>
      <trkpt lat="45.06092" lon="5.34539">
        <ele>199.67169189453</ele>
        <time>2011-08-10T13:04:41Z</time>
      </trkpt>
      <trkpt lat="45.0609" lon="5.3459">
        <ele>199.8165435791</ele>
        <time>2011-08-10T13:04:49Z</time>
      </trkpt>
      <trkpt lat="45.0609" lon="5.34603">
        <ele>199.9309387207</ele>
        <time>2011-08-10T13:04:51Z</time>
      </trkpt>
      <trkpt lat="45.06085" lon="5.34629">
        <ele>200</ele>
        <time>2011-08-10T13:04:55Z</time>
      </trkpt>
      <trkpt lat="45.06071" lon="5.34644">
        <ele>200.53048706055</ele>
        <time>2011-08-10T13:04:59Z</time>
      </trkpt>
      <trkpt lat="45.06066" lon="5.34652">
        <ele>201.61791992188</ele>
        <time>2011-08-10T13:05:01Z</time>
      </trkpt>
      <trkpt lat="45.06054" lon="5.34674">
        <ele>210.04920959473</ele>
        <time>2011-08-10T13:05:06Z</time>
      </trkpt>
      <trkpt lat="45.06039" lon="5.34682">
        <ele>224.88513183594</ele>
        <time>2011-08-10T13:05:11Z</time>
      </trkpt>
      <trkpt lat="45.06035" lon="5.34686">
        <ele>228.66957092285</ele>
        <time>2011-08-10T13:05:13Z</time>
      </trkpt>
      <trkpt lat="45.06034" lon="5.34689">
        <ele>230.29553222656</ele>
        <time>2011-08-10T13:05:19Z</time>
      </trkpt>
      <trkpt lat="45.06036" lon="5.3469">
        <ele>229.55160522461</ele>
        <time>2011-08-10T13:05:38Z</time>
      </trkpt>
      <trkpt lat="45.06036" lon="5.3469">
        <ele>229.59338378906</ele>
        <time>2011-08-10T13:07:01Z</time>
      </trkpt>
      <trkpt lat="45.06039" lon="5.34702">
        <ele>232.73225402832</ele>
        <time>2011-08-10T13:07:07Z</time>
      </trkpt>
      <trkpt lat="45.06039" lon="5.34719">
        <ele>238.97206115723</ele>
        <time>2011-08-10T13:07:11Z</time>
      </trkpt>
      <trkpt lat="45.0604" lon="5.34729">
        <ele>242.28060913086</ele>
        <time>2011-08-10T13:07:13Z</time>
      </trkpt>
      <trkpt lat="45.06053" lon="5.34748">
        <ele>244.31791687012</ele>
        <time>2011-08-10T13:07:18Z</time>
      </trkpt>
      <trkpt lat="45.06064" lon="5.3477">
        <ele>245.78485107422</ele>
        <time>2011-08-10T13:07:23Z</time>
      </trkpt>
      <trkpt lat="45.06092" lon="5.34811">
        <ele>250.83563232422</ele>
        <time>2011-08-10T13:07:32Z</time>
      </trkpt>
      <trkpt lat="45.06109" lon="5.34836">
        <ele>254.66275024414</ele>
        <time>2011-08-10T13:07:37Z</time>
      </trkpt>
      <trkpt lat="45.06118" lon="5.34844">
        <ele>253.53092956543</ele>
        <time>2011-08-10T13:07:39Z</time>
      </trkpt>
      <trkpt lat="45.06142" lon="5.34859">
        <ele>246.09092712402</ele>
        <time>2011-08-10T13:07:44Z</time>
      </trkpt>
      <trkpt lat="45.06177" lon="5.34884">
        <ele>239.15055847168</ele>
        <time>2011-08-10T13:07:51Z</time>
      </trkpt>
      <trkpt lat="45.06192" lon="5.34899">
        <ele>237.15138244629</ele>
        <time>2011-08-10T13:07:54Z</time>
      </trkpt>
      <trkpt lat="45.06215" lon="5.34909">
        <ele>226.61296081543</ele>
        <time>2011-08-10T13:07:58Z</time>
      </trkpt>
      <trkpt lat="45.06234" lon="5.34911">
        <ele>214.50607299805</ele>
        <time>2011-08-10T13:08:01Z</time>
      </trkpt>
      <trkpt lat="45.06246" lon="5.34915">
        <ele>207.42138671875</ele>
        <time>2011-08-10T13:08:03Z</time>
      </trkpt>
      <trkpt lat="45.06257" lon="5.3492">
        <ele>208.00355529785</ele>
        <time>2011-08-10T13:08:05Z</time>
      </trkpt>
      <trkpt lat="45.06264" lon="5.34921">
        <ele>207.95353698731</ele>
        <time>2011-08-10T13:08:06Z</time>
      </trkpt>
      <trkpt lat="45.06299" lon="5.34914">
        <ele>204</ele>
        <time>2011-08-10T13:08:11Z</time>
      </trkpt>
      <trkpt lat="45.06306" lon="5.34914">
        <ele>204.01873779297</ele>
        <time>2011-08-10T13:08:12Z</time>
      </trkpt>
      <trkpt lat="45.0633" lon="5.34925">
        <ele>204.87017822266</ele>
        <time>2011-08-10T13:08:16Z</time>
      </trkpt>
      <trkpt lat="45.06335" lon="5.34931">
        <ele>205</ele>
        <time>2011-08-10T13:08:17Z</time>
      </trkpt>
      <trkpt lat="45.06355" lon="5.34953">
        <ele>205</ele>
        <time>2011-08-10T13:08:21Z</time>
      </trkpt>
      <trkpt lat="45.06366" lon="5.34999">
        <ele>212.33296203613</ele>
        <time>2011-08-10T13:08:25Z</time>
      </trkpt>
      <trkpt lat="45.06372" lon="5.35022">
        <ele>218.95031738281</ele>
        <time>2011-08-10T13:08:27Z</time>
      </trkpt>
      <trkpt lat="45.06395" lon="5.35083">
        <ele>242.40090942383</ele>
        <time>2011-08-10T13:08:34Z</time>
      </trkpt>
      <trkpt lat="45.06417" lon="5.35137">
        <ele>244.7353515625</ele>
        <time>2011-08-10T13:08:41Z</time>
      </trkpt>
      <trkpt lat="45.06437" lon="5.35189">
        <ele>243.87257385254</ele>
        <time>2011-08-10T13:08:48Z</time>
      </trkpt>
      <trkpt lat="45.06456" lon="5.35253">
        <ele>244.10494995117</ele>
        <time>2011-08-10T13:08:56Z</time>
      </trkpt>
      <trkpt lat="45.06472" lon="5.35308">
        <ele>240.98503112793</ele>
        <time>2011-08-10T13:09:03Z</time>
      </trkpt>
      <trkpt lat="45.06479" lon="5.35332">
        <ele>237.43339538574</ele>
        <time>2011-08-10T13:09:06Z</time>
      </trkpt>
      <trkpt lat="45.06483" lon="5.35378">
        <ele>234.60356140137</ele>
        <time>2011-08-10T13:09:11Z</time>
      </trkpt>
      <trkpt lat="45.06493" lon="5.35412">
        <ele>224.98129272461</ele>
        <time>2011-08-10T13:09:15Z</time>
      </trkpt>
      <trkpt lat="45.06509" lon="5.35425">
        <ele>216.46549987793</ele>
        <time>2011-08-10T13:09:18Z</time>
      </trkpt>
      <trkpt lat="45.06532" lon="5.35441">
        <ele>213</ele>
        <time>2011-08-10T13:09:22Z</time>
      </trkpt>
      <trkpt lat="45.06536" lon="5.35467">
        <ele>213</ele>
        <time>2011-08-10T13:09:25Z</time>
      </trkpt>
      <trkpt lat="45.06534" lon="5.35485">
        <ele>213.45246887207</ele>
        <time>2011-08-10T13:09:27Z</time>
      </trkpt>
      <trkpt lat="45.06514" lon="5.35586">
        <ele>215</ele>
        <time>2011-08-10T13:09:38Z</time>
      </trkpt>
      <trkpt lat="45.06501" lon="5.35664">
        <ele>215</ele>
        <time>2011-08-10T13:09:46Z</time>
      </trkpt>
      <trkpt lat="45.06506" lon="5.35713">
        <ele>216</ele>
        <time>2011-08-10T13:09:51Z</time>
      </trkpt>
      <trkpt lat="45.06522" lon="5.35747">
        <ele>216.71842956543</ele>
        <time>2011-08-10T13:09:55Z</time>
      </trkpt>
      <trkpt lat="45.06548" lon="5.35767">
        <ele>217</ele>
        <time>2011-08-10T13:09:59Z</time>
      </trkpt>
      <trkpt lat="45.06607" lon="5.35794">
        <ele>230.63833618164</ele>
        <time>2011-08-10T13:10:07Z</time>
      </trkpt>
      <trkpt lat="45.06628" lon="5.35825">
        <ele>233.72048950195</ele>
        <time>2011-08-10T13:10:11Z</time>
      </trkpt>
      <trkpt lat="45.06632" lon="5.35835">
        <ele>234.16886901856</ele>
        <time>2011-08-10T13:10:12Z</time>
      </trkpt>
      <trkpt lat="45.06651" lon="5.35915">
        <ele>231.02252197266</ele>
        <time>2011-08-10T13:10:20Z</time>
      </trkpt>
      <trkpt lat="45.06657" lon="5.36006">
        <ele>227.89492797852</ele>
        <time>2011-08-10T13:10:29Z</time>
      </trkpt>
      <trkpt lat="45.06652" lon="5.36069">
        <ele>223.39862060547</ele>
        <time>2011-08-10T13:10:35Z</time>
      </trkpt>
      <trkpt lat="45.06639" lon="5.36141">
        <ele>222</ele>
        <time>2011-08-10T13:10:42Z</time>
      </trkpt>
      <trkpt lat="45.06623" lon="5.36227">
        <ele>222.52258300781</ele>
        <time>2011-08-10T13:10:50Z</time>
      </trkpt>
      <trkpt lat="45.06605" lon="5.36323">
        <ele>224</ele>
        <time>2011-08-10T13:10:59Z</time>
      </trkpt>
      <trkpt lat="45.06603" lon="5.36378">
        <ele>225</ele>
        <time>2011-08-10T13:11:04Z</time>
      </trkpt>
      <trkpt lat="45.06609" lon="5.36431">
        <ele>226.44305419922</ele>
        <time>2011-08-10T13:11:09Z</time>
      </trkpt>
      <trkpt lat="45.06623" lon="5.36514">
        <ele>228.50482177734</ele>
        <time>2011-08-10T13:11:17Z</time>
      </trkpt>
      <trkpt lat="45.06636" lon="5.36548">
        <ele>227.91328430176</ele>
        <time>2011-08-10T13:11:21Z</time>
      </trkpt>
      <trkpt lat="45.06643" lon="5.36554">
        <ele>228.1067199707</ele>
        <time>2011-08-10T13:11:22Z</time>
      </trkpt>
      <trkpt lat="45.06657" lon="5.36563">
        <ele>230.62866210938</ele>
        <time>2011-08-10T13:11:24Z</time>
      </trkpt>
      <trkpt lat="45.06683" lon="5.3659">
        <ele>234.44570922852</ele>
        <time>2011-08-10T13:11:28Z</time>
      </trkpt>
      <trkpt lat="45.06693" lon="5.36605">
        <ele>235.87364196777</ele>
        <time>2011-08-10T13:11:30Z</time>
      </trkpt>
      <trkpt lat="45.06711" lon="5.36665">
        <ele>236.75253295898</ele>
        <time>2011-08-10T13:11:36Z</time>
      </trkpt>
      <trkpt lat="45.06714" lon="5.36684">
        <ele>237.70361328125</ele>
        <time>2011-08-10T13:11:38Z</time>
      </trkpt>
      <trkpt lat="45.06717" lon="5.36744">
        <ele>242.44291687012</ele>
        <time>2011-08-10T13:11:44Z</time>
      </trkpt>
      <trkpt lat="45.06709" lon="5.36794">
        <ele>244.38439941406</ele>
        <time>2011-08-10T13:11:49Z</time>
      </trkpt>
      <trkpt lat="45.06685" lon="5.36843">
        <ele>239.57661437988</ele>
        <time>2011-08-10T13:11:55Z</time>
      </trkpt>
      <trkpt lat="45.06635" lon="5.36918">
        <ele>235.60174560547</ele>
        <time>2011-08-10T13:12:05Z</time>
      </trkpt>
      <trkpt lat="45.06598" lon="5.36984">
        <ele>235.65751647949</ele>
        <time>2011-08-10T13:12:13Z</time>
      </trkpt>
      <trkpt lat="45.06574" lon="5.37023">
        <ele>236.18838500977</ele>
        <time>2011-08-10T13:12:18Z</time>
      </trkpt>
      <trkpt lat="45.06527" lon="5.37087">
        <ele>235.13583374023</ele>
        <time>2011-08-10T13:12:27Z</time>
      </trkpt>
      <trkpt lat="45.06477" lon="5.37147">
        <ele>236.58697509766</ele>
        <time>2011-08-10T13:12:36Z</time>
      </trkpt>
      <trkpt lat="45.06467" lon="5.37184">
        <ele>236.65551757812</ele>
        <time>2011-08-10T13:12:40Z</time>
      </trkpt>
      <trkpt lat="45.06473" lon="5.37213">
        <ele>237.03375244141</ele>
        <time>2011-08-10T13:12:43Z</time>
      </trkpt>
      <trkpt lat="45.06489" lon="5.3725">
        <ele>237.1916809082</ele>
        <time>2011-08-10T13:12:47Z</time>
      </trkpt>
      <trkpt lat="45.06519" lon="5.37281">
        <ele>237.59471130371</ele>
        <time>2011-08-10T13:12:52Z</time>
      </trkpt>
      <trkpt lat="45.06527" lon="5.37285">
        <ele>237.70790100098</ele>
        <time>2011-08-10T13:12:53Z</time>
      </trkpt>
      <trkpt lat="45.06603" lon="5.37317">
        <ele>239.59809875488</ele>
        <time>2011-08-10T13:13:03Z</time>
      </trkpt>
      <trkpt lat="45.06654" lon="5.37337">
        <ele>240</ele>
        <time>2011-08-10T13:13:10Z</time>
      </trkpt>
      <trkpt lat="45.06681" lon="5.37361">
        <ele>240.00074768066</ele>
        <time>2011-08-10T13:13:14Z</time>
      </trkpt>
      <trkpt lat="45.06696" lon="5.374">
        <ele>240.19009399414</ele>
        <time>2011-08-10T13:13:18Z</time>
      </trkpt>
      <trkpt lat="45.06709" lon="5.37472">
        <ele>240.53442382812</ele>
        <time>2011-08-10T13:13:25Z</time>
      </trkpt>
      <trkpt lat="45.06709" lon="5.37538">
        <ele>240.68508911133</ele>
        <time>2011-08-10T13:13:31Z</time>
      </trkpt>
      <trkpt lat="45.06706" lon="5.37615">
        <ele>241.06475830078</ele>
        <time>2011-08-10T13:13:38Z</time>
      </trkpt>
      <trkpt lat="45.06713" lon="5.37682">
        <ele>242</ele>
        <time>2011-08-10T13:13:44Z</time>
      </trkpt>
      <trkpt lat="45.06718" lon="5.37713">
        <ele>242</ele>
        <time>2011-08-10T13:13:47Z</time>
      </trkpt>
      <trkpt lat="45.0672" lon="5.37755">
        <ele>242.19418334961</ele>
        <time>2011-08-10T13:13:51Z</time>
      </trkpt>
      <trkpt lat="45.06716" lon="5.3785">
        <ele>243</ele>
        <time>2011-08-10T13:14:00Z</time>
      </trkpt>
      <trkpt lat="45.06723" lon="5.37945">
        <ele>244.17016601562</ele>
        <time>2011-08-10T13:14:09Z</time>
      </trkpt>
      <trkpt lat="45.06731" lon="5.38029">
        <ele>245.63439941406</ele>
        <time>2011-08-10T13:14:17Z</time>
      </trkpt>
      <trkpt lat="45.06749" lon="5.38108">
        <ele>246.09358215332</ele>
        <time>2011-08-10T13:14:25Z</time>
      </trkpt>
      <trkpt lat="45.06771" lon="5.38195">
        <ele>246</ele>
        <time>2011-08-10T13:14:34Z</time>
      </trkpt>
      <trkpt lat="45.06772" lon="5.38276">
        <ele>247</ele>
        <time>2011-08-10T13:14:42Z</time>
      </trkpt>
      <trkpt lat="45.06778" lon="5.38326">
        <ele>247.74880981445</ele>
        <time>2011-08-10T13:14:47Z</time>
      </trkpt>
      <trkpt lat="45.06791" lon="5.38403">
        <ele>248.49722290039</ele>
        <time>2011-08-10T13:14:55Z</time>
      </trkpt>
      <trkpt lat="45.06804" lon="5.38467">
        <ele>249</ele>
        <time>2011-08-10T13:15:02Z</time>
      </trkpt>
      <trkpt lat="45.06802" lon="5.38514">
        <ele>249</ele>
        <time>2011-08-10T13:15:07Z</time>
      </trkpt>
      <trkpt lat="45.06799" lon="5.38533">
        <ele>249.15158081055</ele>
        <time>2011-08-10T13:15:09Z</time>
      </trkpt>
      <trkpt lat="45.06789" lon="5.3857">
        <ele>249.93228149414</ele>
        <time>2011-08-10T13:15:13Z</time>
      </trkpt>
      <trkpt lat="45.06765" lon="5.38639">
        <ele>250.00642395019</ele>
        <time>2011-08-10T13:15:21Z</time>
      </trkpt>
      <trkpt lat="45.06752" lon="5.38707">
        <ele>250.52172851562</ele>
        <time>2011-08-10T13:15:28Z</time>
      </trkpt>
      <trkpt lat="45.06743" lon="5.38734">
        <ele>251</ele>
        <time>2011-08-10T13:15:31Z</time>
      </trkpt>
      <trkpt lat="45.06738" lon="5.38773">
        <ele>251.45429992676</ele>
        <time>2011-08-10T13:15:35Z</time>
      </trkpt>
      <trkpt lat="45.06737" lon="5.38832">
        <ele>253.48194885254</ele>
        <time>2011-08-10T13:15:41Z</time>
      </trkpt>
      <trkpt lat="45.06721" lon="5.38875">
        <ele>254.38414001465</ele>
        <time>2011-08-10T13:15:46Z</time>
      </trkpt>
      <trkpt lat="45.06704" lon="5.38889">
        <ele>253.00894165039</ele>
        <time>2011-08-10T13:15:49Z</time>
      </trkpt>
      <trkpt lat="45.06697" lon="5.3889">
        <ele>252.32229614258</ele>
        <time>2011-08-10T13:15:50Z</time>
      </trkpt>
      <trkpt lat="45.06683" lon="5.38891">
        <ele>252.09245300293</ele>
        <time>2011-08-10T13:15:52Z</time>
      </trkpt>
      <trkpt lat="45.06654" lon="5.38913">
        <ele>252</ele>
        <time>2011-08-10T13:15:57Z</time>
      </trkpt>
      <trkpt lat="45.0664" lon="5.38946">
        <ele>252.03688049316</ele>
        <time>2011-08-10T13:16:01Z</time>
      </trkpt>
      <trkpt lat="45.06638" lon="5.38975">
        <ele>252.09736633301</ele>
        <time>2011-08-10T13:16:04Z</time>
      </trkpt>
      <trkpt lat="45.0665" lon="5.39044">
        <ele>254.21746826172</ele>
        <time>2011-08-10T13:16:11Z</time>
      </trkpt>
      <trkpt lat="45.0666" lon="5.39079">
        <ele>255.28863525391</ele>
        <time>2011-08-10T13:16:15Z</time>
      </trkpt>
      <trkpt lat="45.06679" lon="5.39112">
        <ele>257.79809570312</ele>
        <time>2011-08-10T13:16:20Z</time>
      </trkpt>
      <trkpt lat="45.06684" lon="5.39138">
        <ele>258.45727539062</ele>
        <time>2011-08-10T13:16:24Z</time>
      </trkpt>
      <trkpt lat="45.06688" lon="5.39144">
        <ele>259.04965209961</ele>
        <time>2011-08-10T13:16:27Z</time>
      </trkpt>
      <trkpt lat="45.06687" lon="5.39141">
        <ele>258.97235107422</ele>
        <time>2011-08-10T13:16:31Z</time>
      </trkpt>
      <trkpt lat="45.06687" lon="5.39134">
        <ele>258.89672851562</ele>
        <time>2011-08-10T13:17:40Z</time>
      </trkpt>
      <trkpt lat="45.06684" lon="5.39133">
        <ele>258.45727539062</ele>
        <time>2011-08-10T13:17:42Z</time>
      </trkpt>
      <trkpt lat="45.06682" lon="5.39122">
        <ele>258.1826171875</ele>
        <time>2011-08-10T13:17:46Z</time>
      </trkpt>
      <trkpt lat="45.06683" lon="5.39113">
        <ele>258.40234375</ele>
        <time>2011-08-10T13:17:51Z</time>
      </trkpt>
      <trkpt lat="45.06682" lon="5.39115">
        <ele>258.1826171875</ele>
        <time>2011-08-10T13:18:12Z</time>
      </trkpt>
      <trkpt lat="45.06683" lon="5.39114">
        <ele>258.29248046875</ele>
        <time>2011-08-10T13:18:15Z</time>
      </trkpt>
      <trkpt lat="45.06681" lon="5.39116">
        <ele>258.01782226562</ele>
        <time>2011-08-10T13:18:21Z</time>
      </trkpt>
      <trkpt lat="45.06682" lon="5.39119">
        <ele>258.1826171875</ele>
        <time>2011-08-10T13:19:22Z</time>
      </trkpt>
      <trkpt lat="45.06683" lon="5.39138">
        <ele>258.40234375</ele>
        <time>2011-08-10T13:19:29Z</time>
      </trkpt>
      <trkpt lat="45.06685" lon="5.39137">
        <ele>258.6220703125</ele>
        <time>2011-08-10T13:19:33Z</time>
      </trkpt>
      <trkpt lat="45.06691" lon="5.39142">
        <ele>259.56677246094</ele>
        <time>2011-08-10T13:19:52Z</time>
      </trkpt>
      <trkpt lat="45.06695" lon="5.39144">
        <ele>260.02630615234</ele>
        <time>2011-08-10T13:19:58Z</time>
      </trkpt>
      <trkpt lat="45.06697" lon="5.39137">
        <ele>260.07537841797</ele>
        <time>2011-08-10T13:20:24Z</time>
      </trkpt>
      <trkpt lat="45.06694" lon="5.39131">
        <ele>259.99536132812</ele>
        <time>2011-08-10T13:20:32Z</time>
      </trkpt>
      <trkpt lat="45.06693" lon="5.39135">
        <ele>259.720703125</ele>
        <time>2011-08-10T13:20:48Z</time>
      </trkpt>
      <trkpt lat="45.06684" lon="5.39138">
        <ele>258.51220703125</ele>
        <time>2011-08-10T13:20:59Z</time>
      </trkpt>
      <trkpt lat="45.0668" lon="5.3913">
        <ele>257.85302734375</ele>
        <time>2011-08-10T13:21:04Z</time>
      </trkpt>
      <trkpt lat="45.06681" lon="5.39143">
        <ele>258.08929443359</ele>
        <time>2011-08-10T13:21:09Z</time>
      </trkpt>
      <trkpt lat="45.06683" lon="5.39164">
        <ele>258.76504516602</ele>
        <time>2011-08-10T13:21:14Z</time>
      </trkpt>
      <trkpt lat="45.06685" lon="5.39194">
        <ele>258.96655273438</ele>
        <time>2011-08-10T13:21:19Z</time>
      </trkpt>
      <trkpt lat="45.06688" lon="5.39217">
        <ele>259.33734130859</ele>
        <time>2011-08-10T13:21:22Z</time>
      </trkpt>
      <trkpt lat="45.06696" lon="5.39238">
        <ele>260.05377197266</ele>
        <time>2011-08-10T13:21:25Z</time>
      </trkpt>
      <trkpt lat="45.06693" lon="5.39263">
        <ele>259.38757324219</ele>
        <time>2011-08-10T13:21:29Z</time>
      </trkpt>
      <trkpt lat="45.0668" lon="5.3927">
        <ele>258.46459960938</ele>
        <time>2011-08-10T13:21:32Z</time>
      </trkpt>
      <trkpt lat="45.0667" lon="5.39269">
        <ele>257.88021850586</ele>
        <time>2011-08-10T13:21:34Z</time>
      </trkpt>
      <trkpt lat="45.06639" lon="5.39276">
        <ele>256.91537475586</ele>
        <time>2011-08-10T13:21:40Z</time>
      </trkpt>
      <trkpt lat="45.06617" lon="5.39303">
        <ele>257.12310791016</ele>
        <time>2011-08-10T13:21:45Z</time>
      </trkpt>
      <trkpt lat="45.06593" lon="5.3935">
        <ele>256.93505859375</ele>
        <time>2011-08-10T13:21:52Z</time>
      </trkpt>
      <trkpt lat="45.06573" lon="5.39378">
        <ele>256.63177490234</ele>
        <time>2011-08-10T13:21:57Z</time>
      </trkpt>
      <trkpt lat="45.06554" lon="5.39414">
        <ele>256.89874267578</ele>
        <time>2011-08-10T13:22:03Z</time>
      </trkpt>
      <trkpt lat="45.06552" lon="5.3942">
        <ele>257.09121704102</ele>
        <time>2011-08-10T13:22:04Z</time>
      </trkpt>
      <trkpt lat="45.06541" lon="5.39463">
        <ele>257.15664672852</ele>
        <time>2011-08-10T13:22:11Z</time>
      </trkpt>
      <trkpt lat="45.06543" lon="5.39521">
        <ele>257.4072265625</ele>
        <time>2011-08-10T13:22:19Z</time>
      </trkpt>
      <trkpt lat="45.06545" lon="5.39581">
        <ele>258.20166015625</ele>
        <time>2011-08-10T13:22:27Z</time>
      </trkpt>
      <trkpt lat="45.06547" lon="5.39641">
        <ele>261.24661254883</ele>
        <time>2011-08-10T13:22:35Z</time>
      </trkpt>
      <trkpt lat="45.06534" lon="5.3968">
        <ele>262.5732421875</ele>
        <time>2011-08-10T13:22:41Z</time>
      </trkpt>
      <trkpt lat="45.06517" lon="5.39707">
        <ele>259.81838989258</ele>
        <time>2011-08-10T13:22:46Z</time>
      </trkpt>
      <trkpt lat="45.06494" lon="5.39751">
        <ele>259.90472412109</ele>
        <time>2011-08-10T13:22:54Z</time>
      </trkpt>
      <trkpt lat="45.06492" lon="5.39756">
        <ele>260.50778198242</ele>
        <time>2011-08-10T13:22:55Z</time>
      </trkpt>
      <trkpt lat="45.06467" lon="5.39805">
        <ele>259.79342651367</ele>
        <time>2011-08-10T13:23:04Z</time>
      </trkpt>
      <trkpt lat="45.06441" lon="5.39854">
        <ele>261.10131835938</ele>
        <time>2011-08-10T13:23:13Z</time>
      </trkpt>
      <trkpt lat="45.06423" lon="5.39887">
        <ele>264.5735168457</ele>
        <time>2011-08-10T13:23:19Z</time>
      </trkpt>
      <trkpt lat="45.06394" lon="5.39914">
        <ele>267.1559753418</ele>
        <time>2011-08-10T13:23:27Z</time>
      </trkpt>
      <trkpt lat="45.06366" lon="5.39943">
        <ele>271.0036315918</ele>
        <time>2011-08-10T13:23:35Z</time>
      </trkpt>
      <trkpt lat="45.0633" lon="5.39976">
        <ele>273.28256225586</ele>
        <time>2011-08-10T13:23:45Z</time>
      </trkpt>
      <trkpt lat="45.06309" lon="5.39995">
        <ele>274.59576416016</ele>
        <time>2011-08-10T13:23:52Z</time>
      </trkpt>
      <trkpt lat="45.06288" lon="5.40016">
        <ele>274.89398193359</ele>
        <time>2011-08-10T13:23:59Z</time>
      </trkpt>
      <trkpt lat="45.06274" lon="5.40035">
        <ele>275.41772460938</ele>
        <time>2011-08-10T13:24:04Z</time>
      </trkpt>
      <trkpt lat="45.06264" lon="5.40054">
        <ele>276.4013671875</ele>
        <time>2011-08-10T13:24:08Z</time>
      </trkpt>
      <trkpt lat="45.06246" lon="5.40108">
        <ele>279.06115722656</ele>
        <time>2011-08-10T13:24:18Z</time>
      </trkpt>
      <trkpt lat="45.06234" lon="5.40169">
        <ele>286.5068359375</ele>
        <time>2011-08-10T13:24:28Z</time>
      </trkpt>
      <trkpt lat="45.06232" lon="5.4022">
        <ele>296.77133178711</ele>
        <time>2011-08-10T13:24:36Z</time>
      </trkpt>
      <trkpt lat="45.06235" lon="5.40244">
        <ele>302.51263427734</ele>
        <time>2011-08-10T13:24:40Z</time>
      </trkpt>
      <trkpt lat="45.06235" lon="5.40262">
        <ele>305.26922607422</ele>
        <time>2011-08-10T13:24:43Z</time>
      </trkpt>
      <trkpt lat="45.06227" lon="5.40288">
        <ele>307.27734375</ele>
        <time>2011-08-10T13:24:48Z</time>
      </trkpt>
      <trkpt lat="45.06207" lon="5.40322">
        <ele>307.52365112305</ele>
        <time>2011-08-10T13:24:56Z</time>
      </trkpt>
      <trkpt lat="45.06194" lon="5.40348">
        <ele>307.80178833008</ele>
        <time>2011-08-10T13:25:02Z</time>
      </trkpt>
      <trkpt lat="45.06187" lon="5.40366">
        <ele>307.77319335938</ele>
        <time>2011-08-10T13:25:06Z</time>
      </trkpt>
      <trkpt lat="45.06179" lon="5.40397">
        <ele>307.73474121094</ele>
        <time>2011-08-10T13:25:12Z</time>
      </trkpt>
      <trkpt lat="45.06171" lon="5.40434">
        <ele>308.52752685547</ele>
        <time>2011-08-10T13:25:19Z</time>
      </trkpt>
      <trkpt lat="45.06164" lon="5.40465">
        <ele>308.15356445312</ele>
        <time>2011-08-10T13:25:25Z</time>
      </trkpt>
      <trkpt lat="45.0616" lon="5.40497">
        <ele>308.90881347656</ele>
        <time>2011-08-10T13:25:31Z</time>
      </trkpt>
      <trkpt lat="45.06162" lon="5.40519">
        <ele>311.78338623047</ele>
        <time>2011-08-10T13:25:35Z</time>
      </trkpt>
      <trkpt lat="45.06166" lon="5.40535">
        <ele>316.7705078125</ele>
        <time>2011-08-10T13:25:38Z</time>
      </trkpt>
      <trkpt lat="45.06167" lon="5.40568">
        <ele>324.37902832031</ele>
        <time>2011-08-10T13:25:43Z</time>
      </trkpt>
      <trkpt lat="45.06154" lon="5.4059">
        <ele>319.30819702148</ele>
        <time>2011-08-10T13:25:47Z</time>
      </trkpt>
      <trkpt lat="45.06141" lon="5.4062">
        <ele>318.52728271484</ele>
        <time>2011-08-10T13:25:52Z</time>
      </trkpt>
      <trkpt lat="45.06123" lon="5.4065">
        <ele>316.22860717773</ele>
        <time>2011-08-10T13:25:58Z</time>
      </trkpt>
      <trkpt lat="45.06113" lon="5.40651">
        <ele>311.64147949219</ele>
        <time>2011-08-10T13:26:00Z</time>
      </trkpt>
      <trkpt lat="45.06083" lon="5.40651">
        <ele>293.98254394531</ele>
        <time>2011-08-10T13:26:06Z</time>
      </trkpt>
      <trkpt lat="45.0606" lon="5.40666">
        <ele>292.63500976562</ele>
        <time>2011-08-10T13:26:11Z</time>
      </trkpt>
      <trkpt lat="45.06047" lon="5.4069">
        <ele>295.01187133789</ele>
        <time>2011-08-10T13:26:15Z</time>
      </trkpt>
      <trkpt lat="45.06037" lon="5.40715">
        <ele>297.82113647461</ele>
        <time>2011-08-10T13:26:19Z</time>
      </trkpt>
      <trkpt lat="45.06028" lon="5.40731">
        <ele>300.90002441406</ele>
        <time>2011-08-10T13:26:22Z</time>
      </trkpt>
      <trkpt lat="45.06009" lon="5.40755">
        <ele>301.77130126953</ele>
        <time>2011-08-10T13:26:28Z</time>
      </trkpt>
      <trkpt lat="45.05989" lon="5.40774">
        <ele>299.47277832031</ele>
        <time>2011-08-10T13:26:34Z</time>
      </trkpt>
      <trkpt lat="45.05964" lon="5.40795">
        <ele>298.27520751953</ele>
        <time>2011-08-10T13:26:41Z</time>
      </trkpt>
      <trkpt lat="45.05937" lon="5.40818">
        <ele>296.49389648438</ele>
        <time>2011-08-10T13:26:49Z</time>
      </trkpt>
      <trkpt lat="45.05918" lon="5.40836">
        <ele>293.81024169922</ele>
        <time>2011-08-10T13:26:55Z</time>
      </trkpt>
      <trkpt lat="45.05908" lon="5.40847">
        <ele>294.38250732422</ele>
        <time>2011-08-10T13:26:58Z</time>
      </trkpt>
      <trkpt lat="45.05898" lon="5.40877">
        <ele>296.9944152832</ele>
        <time>2011-08-10T13:27:04Z</time>
      </trkpt>
      <trkpt lat="45.05896" lon="5.40923">
        <ele>303.52886962891</ele>
        <time>2011-08-10T13:27:12Z</time>
      </trkpt>
      <trkpt lat="45.05888" lon="5.40948">
        <ele>305.30218505859</ele>
        <time>2011-08-10T13:27:17Z</time>
      </trkpt>
      <trkpt lat="45.05875" lon="5.40967">
        <ele>303.53317260742</ele>
        <time>2011-08-10T13:27:22Z</time>
      </trkpt>
      <trkpt lat="45.05864" lon="5.4099">
        <ele>301.80117797852</ele>
        <time>2011-08-10T13:27:27Z</time>
      </trkpt>
      <trkpt lat="45.05863" lon="5.41001">
        <ele>301.91815185547</ele>
        <time>2011-08-10T13:27:29Z</time>
      </trkpt>
      <trkpt lat="45.05871" lon="5.41037">
        <ele>307.92034912109</ele>
        <time>2011-08-10T13:27:35Z</time>
      </trkpt>
      <trkpt lat="45.05896" lon="5.41081">
        <ele>325.22579956055</ele>
        <time>2011-08-10T13:27:43Z</time>
      </trkpt>
      <trkpt lat="45.05914" lon="5.41099">
        <ele>333.7712097168</ele>
        <time>2011-08-10T13:27:47Z</time>
      </trkpt>
      <trkpt lat="45.05953" lon="5.41119">
        <ele>361.10681152344</ele>
        <time>2011-08-10T13:27:55Z</time>
      </trkpt>
      <trkpt lat="45.05972" lon="5.41137">
        <ele>372.97448730469</ele>
        <time>2011-08-10T13:28:00Z</time>
      </trkpt>
      <trkpt lat="45.05981" lon="5.41166">
        <ele>376.14819335938</ele>
        <time>2011-08-10T13:28:05Z</time>
      </trkpt>
      <trkpt lat="45.05981" lon="5.41172">
        <ele>375.96029663086</ele>
        <time>2011-08-10T13:28:06Z</time>
      </trkpt>
      <trkpt lat="45.05985" lon="5.41222">
        <ele>373.24438476562</ele>
        <time>2011-08-10T13:28:14Z</time>
      </trkpt>
      <trkpt lat="45.05988" lon="5.41267">
        <ele>371.28649902344</ele>
        <time>2011-08-10T13:28:21Z</time>
      </trkpt>
      <trkpt lat="45.05994" lon="5.41291">
        <ele>373.60995483398</ele>
        <time>2011-08-10T13:28:25Z</time>
      </trkpt>
      <trkpt lat="45.06018" lon="5.41344">
        <ele>384.54623413086</ele>
        <time>2011-08-10T13:28:34Z</time>
      </trkpt>
      <trkpt lat="45.06024" lon="5.41371">
        <ele>385.97329711914</ele>
        <time>2011-08-10T13:28:38Z</time>
      </trkpt>
      <trkpt lat="45.06024" lon="5.41432">
        <ele>379.06439208984</ele>
        <time>2011-08-10T13:28:47Z</time>
      </trkpt>
      <trkpt lat="45.06033" lon="5.41467">
        <ele>382.67803955078</ele>
        <time>2011-08-10T13:28:53Z</time>
      </trkpt>
      <trkpt lat="45.06042" lon="5.41481">
        <ele>389.17315673828</ele>
        <time>2011-08-10T13:28:56Z</time>
      </trkpt>
      <trkpt lat="45.06069" lon="5.41505">
        <ele>402.8923034668</ele>
        <time>2011-08-10T13:29:03Z</time>
      </trkpt>
      <trkpt lat="45.06084" lon="5.41531">
        <ele>405.08074951172</ele>
        <time>2011-08-10T13:29:09Z</time>
      </trkpt>
      <trkpt lat="45.06085" lon="5.41542">
        <ele>404.39282226562</ele>
        <time>2011-08-10T13:29:11Z</time>
      </trkpt>
      <trkpt lat="45.06081" lon="5.41581">
        <ele>399.48782348633</ele>
        <time>2011-08-10T13:29:19Z</time>
      </trkpt>
      <trkpt lat="45.06078" lon="5.41619">
        <ele>393.94750976562</ele>
        <time>2011-08-10T13:29:26Z</time>
      </trkpt>
      <trkpt lat="45.06083" lon="5.41659">
        <ele>390.71475219727</ele>
        <time>2011-08-10T13:29:33Z</time>
      </trkpt>
      <trkpt lat="45.06094" lon="5.41704">
        <ele>394.90148925781</ele>
        <time>2011-08-10T13:29:41Z</time>
      </trkpt>
      <trkpt lat="45.06106" lon="5.41747">
        <ele>401.52038574219</ele>
        <time>2011-08-10T13:29:49Z</time>
      </trkpt>
      <trkpt lat="45.0611" lon="5.41776">
        <ele>405.23873901367</ele>
        <time>2011-08-10T13:29:54Z</time>
      </trkpt>
      <trkpt lat="45.06117" lon="5.41826">
        <ele>403.70727539062</ele>
        <time>2011-08-10T13:30:03Z</time>
      </trkpt>
      <trkpt lat="45.06127" lon="5.41866">
        <ele>402.86248779297</ele>
        <time>2011-08-10T13:30:11Z</time>
      </trkpt>
      <trkpt lat="45.06145" lon="5.41902">
        <ele>404.84039306641</ele>
        <time>2011-08-10T13:30:19Z</time>
      </trkpt>
      <trkpt lat="45.06168" lon="5.41936">
        <ele>406.93194580078</ele>
        <time>2011-08-10T13:30:27Z</time>
      </trkpt>
      <trkpt lat="45.06195" lon="5.41971">
        <ele>409.23107910156</ele>
        <time>2011-08-10T13:30:36Z</time>
      </trkpt>
      <trkpt lat="45.0621" lon="5.41989">
        <ele>409.56954956055</ele>
        <time>2011-08-10T13:30:41Z</time>
      </trkpt>
      <trkpt lat="45.06236" lon="5.42023">
        <ele>411.49127197266</ele>
        <time>2011-08-10T13:30:50Z</time>
      </trkpt>
      <trkpt lat="45.06257" lon="5.42048">
        <ele>416.89004516602</ele>
        <time>2011-08-10T13:30:57Z</time>
      </trkpt>
      <trkpt lat="45.06282" lon="5.42073">
        <ele>431.5</ele>
        <time>2011-08-10T13:31:05Z</time>
      </trkpt>
      <trkpt lat="45.06299" lon="5.421">
        <ele>441.48202514648</ele>
        <time>2011-08-10T13:31:12Z</time>
      </trkpt>
      <trkpt lat="45.06307" lon="5.42133">
        <ele>443.54809570312</ele>
        <time>2011-08-10T13:31:19Z</time>
      </trkpt>
      <trkpt lat="45.06313" lon="5.42179">
        <ele>443.03384399414</ele>
        <time>2011-08-10T13:31:27Z</time>
      </trkpt>
      <trkpt lat="45.06322" lon="5.42239">
        <ele>444.98251342773</ele>
        <time>2011-08-10T13:31:37Z</time>
      </trkpt>
      <trkpt lat="45.06327" lon="5.42281">
        <ele>446.26849365234</ele>
        <time>2011-08-10T13:31:45Z</time>
      </trkpt>
      <trkpt lat="45.06331" lon="5.42326">
        <ele>445.42880249023</ele>
        <time>2011-08-10T13:31:54Z</time>
      </trkpt>
      <trkpt lat="45.06334" lon="5.42358">
        <ele>443.67492675781</ele>
        <time>2011-08-10T13:32:00Z</time>
      </trkpt>
      <trkpt lat="45.06338" lon="5.42417">
        <ele>436.51861572266</ele>
        <time>2011-08-10T13:32:11Z</time>
      </trkpt>
      <trkpt lat="45.06343" lon="5.42473">
        <ele>430.19122314453</ele>
        <time>2011-08-10T13:32:21Z</time>
      </trkpt>
      <trkpt lat="45.06353" lon="5.42526">
        <ele>426.23922729492</ele>
        <time>2011-08-10T13:32:31Z</time>
      </trkpt>
      <trkpt lat="45.06358" lon="5.42558">
        <ele>422.55780029297</ele>
        <time>2011-08-10T13:32:37Z</time>
      </trkpt>
      <trkpt lat="45.06364" lon="5.426">
        <ele>419.18258666992</ele>
        <time>2011-08-10T13:32:45Z</time>
      </trkpt>
      <trkpt lat="45.0637" lon="5.42644">
        <ele>415.55209350586</ele>
        <time>2011-08-10T13:32:54Z</time>
      </trkpt>
      <trkpt lat="45.06379" lon="5.42676">
        <ele>413.94412231445</ele>
        <time>2011-08-10T13:33:01Z</time>
      </trkpt>
      <trkpt lat="45.064" lon="5.42701">
        <ele>418.32357788086</ele>
        <time>2011-08-10T13:33:08Z</time>
      </trkpt>
      <trkpt lat="45.06432" lon="5.42727">
        <ele>428.47778320312</ele>
        <time>2011-08-10T13:33:17Z</time>
      </trkpt>
      <trkpt lat="45.06462" lon="5.42741">
        <ele>447.06823730469</ele>
        <time>2011-08-10T13:33:25Z</time>
      </trkpt>
      <trkpt lat="45.06488" lon="5.42752">
        <ele>470.82623291016</ele>
        <time>2011-08-10T13:33:32Z</time>
      </trkpt>
      <trkpt lat="45.06501" lon="5.42769">
        <ele>481.40072631836</ele>
        <time>2011-08-10T13:33:37Z</time>
      </trkpt>
      <trkpt lat="45.0652" lon="5.42808">
        <ele>474.89877319336</ele>
        <time>2011-08-10T13:33:46Z</time>
      </trkpt>
      <trkpt lat="45.0653" lon="5.42841">
        <ele>469.93286132812</ele>
        <time>2011-08-10T13:33:53Z</time>
      </trkpt>
      <trkpt lat="45.0654" lon="5.42867">
        <ele>468.0791015625</ele>
        <time>2011-08-10T13:33:59Z</time>
      </trkpt>
      <trkpt lat="45.06559" lon="5.42894">
        <ele>476.98818969727</ele>
        <time>2011-08-10T13:34:06Z</time>
      </trkpt>
      <trkpt lat="45.06581" lon="5.42922">
        <ele>479.77694702148</ele>
        <time>2011-08-10T13:34:14Z</time>
      </trkpt>
      <trkpt lat="45.06609" lon="5.42955">
        <ele>482.01571655273</ele>
        <time>2011-08-10T13:34:24Z</time>
      </trkpt>
      <trkpt lat="45.06639" lon="5.42982">
        <ele>493.84579467773</ele>
        <time>2011-08-10T13:34:33Z</time>
      </trkpt>
      <trkpt lat="45.06663" lon="5.43007">
        <ele>505.6789855957</ele>
        <time>2011-08-10T13:34:41Z</time>
      </trkpt>
      <trkpt lat="45.06683" lon="5.43039">
        <ele>508.21130371094</ele>
        <time>2011-08-10T13:34:49Z</time>
      </trkpt>
      <trkpt lat="45.06693" lon="5.43071">
        <ele>502.67825317383</ele>
        <time>2011-08-10T13:34:56Z</time>
      </trkpt>
      <trkpt lat="45.06706" lon="5.43094">
        <ele>503.96569824219</ele>
        <time>2011-08-10T13:35:02Z</time>
      </trkpt>
      <trkpt lat="45.06727" lon="5.43115">
        <ele>510.26480102539</ele>
        <time>2011-08-10T13:35:09Z</time>
      </trkpt>
      <trkpt lat="45.06746" lon="5.43145">
        <ele>513.38116455078</ele>
        <time>2011-08-10T13:35:16Z</time>
      </trkpt>
      <trkpt lat="45.06766" lon="5.43184">
        <ele>512.28863525391</ele>
        <time>2011-08-10T13:35:24Z</time>
      </trkpt>
      <trkpt lat="45.06772" lon="5.43198">
        <ele>510.86227416992</ele>
        <time>2011-08-10T13:35:27Z</time>
      </trkpt>
      <trkpt lat="45.06778" lon="5.43215">
        <ele>504.10296630859</ele>
        <time>2011-08-10T13:35:30Z</time>
      </trkpt>
      <trkpt lat="45.06802" lon="5.43274">
        <ele>506.58728027344</ele>
        <time>2011-08-10T13:35:40Z</time>
      </trkpt>
      <trkpt lat="45.06815" lon="5.43313">
        <ele>514.07653808594</ele>
        <time>2011-08-10T13:35:46Z</time>
      </trkpt>
      <trkpt lat="45.06826" lon="5.43363">
        <ele>517.68658447266</ele>
        <time>2011-08-10T13:35:54Z</time>
      </trkpt>
      <trkpt lat="45.06828" lon="5.43377">
        <ele>515.88134765625</ele>
        <time>2011-08-10T13:35:56Z</time>
      </trkpt>
      <trkpt lat="45.06826" lon="5.43429">
        <ele>496.43569946289</ele>
        <time>2011-08-10T13:36:04Z</time>
      </trkpt>
      <trkpt lat="45.06825" lon="5.43471">
        <ele>490.62176513672</ele>
        <time>2011-08-10T13:36:11Z</time>
      </trkpt>
      <trkpt lat="45.06829" lon="5.43505">
        <ele>488.78030395508</ele>
        <time>2011-08-10T13:36:17Z</time>
      </trkpt>
      <trkpt lat="45.0683" lon="5.43516">
        <ele>488.52291870117</ele>
        <time>2011-08-10T13:36:19Z</time>
      </trkpt>
      <trkpt lat="45.06842" lon="5.4357">
        <ele>492.27380371094</ele>
        <time>2011-08-10T13:36:28Z</time>
      </trkpt>
      <trkpt lat="45.06862" lon="5.43631">
        <ele>505.68548583984</ele>
        <time>2011-08-10T13:36:39Z</time>
      </trkpt>
      <trkpt lat="45.06866" lon="5.43641">
        <ele>508.84225463867</ele>
        <time>2011-08-10T13:36:41Z</time>
      </trkpt>
      <trkpt lat="45.06882" lon="5.43671">
        <ele>519.32073974609</ele>
        <time>2011-08-10T13:36:47Z</time>
      </trkpt>
      <trkpt lat="45.06896" lon="5.43713">
        <ele>520.45629882812</ele>
        <time>2011-08-10T13:36:55Z</time>
      </trkpt>
      <trkpt lat="45.06912" lon="5.43752">
        <ele>516.46374511719</ele>
        <time>2011-08-10T13:37:03Z</time>
      </trkpt>
      <trkpt lat="45.06932" lon="5.43791">
        <ele>520.95574951172</ele>
        <time>2011-08-10T13:37:12Z</time>
      </trkpt>
      <trkpt lat="45.06947" lon="5.43827">
        <ele>522.30010986328</ele>
        <time>2011-08-10T13:37:20Z</time>
      </trkpt>
      <trkpt lat="45.06955" lon="5.43867">
        <ele>515.64404296875</ele>
        <time>2011-08-10T13:37:28Z</time>
      </trkpt>
      <trkpt lat="45.06966" lon="5.43898">
        <ele>513.46893310547</ele>
        <time>2011-08-10T13:37:35Z</time>
      </trkpt>
      <trkpt lat="45.06985" lon="5.43937">
        <ele>511.54193115234</ele>
        <time>2011-08-10T13:37:44Z</time>
      </trkpt>
      <trkpt lat="45.07004" lon="5.43972">
        <ele>509.15374755859</ele>
        <time>2011-08-10T13:37:53Z</time>
      </trkpt>
      <trkpt lat="45.07022" lon="5.43996">
        <ele>508.89599609375</ele>
        <time>2011-08-10T13:38:00Z</time>
      </trkpt>
      <trkpt lat="45.07027" lon="5.44004">
        <ele>509.63748168945</ele>
        <time>2011-08-10T13:38:02Z</time>
      </trkpt>
      <trkpt lat="45.07049" lon="5.44028">
        <ele>516.09454345703</ele>
        <time>2011-08-10T13:38:09Z</time>
      </trkpt>
      <trkpt lat="45.07069" lon="5.44058">
        <ele>511.56402587891</ele>
        <time>2011-08-10T13:38:17Z</time>
      </trkpt>
      <trkpt lat="45.07084" lon="5.44086">
        <ele>507.80908203125</ele>
        <time>2011-08-10T13:38:25Z</time>
      </trkpt>
      <trkpt lat="45.07093" lon="5.4411">
        <ele>501.78137207031</ele>
        <time>2011-08-10T13:38:31Z</time>
      </trkpt>
      <trkpt lat="45.07105" lon="5.44149">
        <ele>492.69934082031</ele>
        <time>2011-08-10T13:38:39Z</time>
      </trkpt>
      <trkpt lat="45.07109" lon="5.4416">
        <ele>490.14398193359</ele>
        <time>2011-08-10T13:38:41Z</time>
      </trkpt>
      <trkpt lat="45.07119" lon="5.44205">
        <ele>476.55142211914</ele>
        <time>2011-08-10T13:38:49Z</time>
      </trkpt>
      <trkpt lat="45.07133" lon="5.44231">
        <ele>478.16616821289</ele>
        <time>2011-08-10T13:38:54Z</time>
      </trkpt>
      <trkpt lat="45.07138" lon="5.44235">
        <ele>481.42593383789</ele>
        <time>2011-08-10T13:38:55Z</time>
      </trkpt>
      <trkpt lat="45.07148" lon="5.44249">
        <ele>482.39477539062</ele>
        <time>2011-08-10T13:38:58Z</time>
      </trkpt>
      <trkpt lat="45.07146" lon="5.44277">
        <ele>471.60250854492</ele>
        <time>2011-08-10T13:39:02Z</time>
      </trkpt>
      <trkpt lat="45.07142" lon="5.44292">
        <ele>458.76699829102</ele>
        <time>2011-08-10T13:39:04Z</time>
      </trkpt>
      <trkpt lat="45.07142" lon="5.44317">
        <ele>447.52291870117</ele>
        <time>2011-08-10T13:39:08Z</time>
      </trkpt>
      <trkpt lat="45.07151" lon="5.44338">
        <ele>451.5901184082</ele>
        <time>2011-08-10T13:39:12Z</time>
      </trkpt>
      <trkpt lat="45.07161" lon="5.44364">
        <ele>455.23837280273</ele>
        <time>2011-08-10T13:39:17Z</time>
      </trkpt>
      <trkpt lat="45.07183" lon="5.44438">
        <ele>456.85101318359</ele>
        <time>2011-08-10T13:39:30Z</time>
      </trkpt>
      <trkpt lat="45.07186" lon="5.44442">
        <ele>458.42687988281</ele>
        <time>2011-08-10T13:39:31Z</time>
      </trkpt>
      <trkpt lat="45.07212" lon="5.44466">
        <ele>471.6266784668</ele>
        <time>2011-08-10T13:39:40Z</time>
      </trkpt>
      <trkpt lat="45.07228" lon="5.44488">
        <ele>480.37036132812</ele>
        <time>2011-08-10T13:39:48Z</time>
      </trkpt>
      <trkpt lat="45.0724" lon="5.44551">
        <ele>474.9114074707</ele>
        <time>2011-08-10T13:40:01Z</time>
      </trkpt>
      <trkpt lat="45.07243" lon="5.44571">
        <ele>475.37100219727</ele>
        <time>2011-08-10T13:40:06Z</time>
      </trkpt>
      <trkpt lat="45.07253" lon="5.44595">
        <ele>480.63714599609</ele>
        <time>2011-08-10T13:40:13Z</time>
      </trkpt>
      <trkpt lat="45.07261" lon="5.44621">
        <ele>482.51165771484</ele>
        <time>2011-08-10T13:40:19Z</time>
      </trkpt>
      <trkpt lat="45.07248" lon="5.4468">
        <ele>464.69296264648</ele>
        <time>2011-08-10T13:40:29Z</time>
      </trkpt>
      <trkpt lat="45.0727" lon="5.44689">
        <ele>478.75720214844</ele>
        <time>2011-08-10T13:40:32Z</time>
      </trkpt>
      <trkpt lat="45.07278" lon="5.44727">
        <ele>477.58346557617</ele>
        <time>2011-08-10T13:40:37Z</time>
      </trkpt>
      <trkpt lat="45.07288" lon="5.4473">
        <ele>480.00732421875</ele>
        <time>2011-08-10T13:40:45Z</time>
      </trkpt>
      <trkpt lat="45.07305" lon="5.44723">
        <ele>486.6471862793</ele>
        <time>2011-08-10T13:40:51Z</time>
      </trkpt>
      <trkpt lat="45.07333" lon="5.44718">
        <ele>496.51620483398</ele>
        <time>2011-08-10T13:40:59Z</time>
      </trkpt>
      <trkpt lat="45.07357" lon="5.44729">
        <ele>505.61325073242</ele>
        <time>2011-08-10T13:41:06Z</time>
      </trkpt>
      <trkpt lat="45.07381" lon="5.44742">
        <ele>519.12341308594</ele>
        <time>2011-08-10T13:41:14Z</time>
      </trkpt>
      <trkpt lat="45.07392" lon="5.44763">
        <ele>516.20831298828</ele>
        <time>2011-08-10T13:41:20Z</time>
      </trkpt>
      <trkpt lat="45.07406" lon="5.44793">
        <ele>513.89221191406</ele>
        <time>2011-08-10T13:41:28Z</time>
      </trkpt>
      <trkpt lat="45.07415" lon="5.44796">
        <ele>519.19476318359</ele>
        <time>2011-08-10T13:41:30Z</time>
      </trkpt>
      <trkpt lat="45.07425" lon="5.44798">
        <ele>530.49945068359</ele>
        <time>2011-08-10T13:41:32Z</time>
      </trkpt>
      <trkpt lat="45.07456" lon="5.44801">
        <ele>570.97705078125</ele>
        <time>2011-08-10T13:41:38Z</time>
      </trkpt>
      <trkpt lat="45.07471" lon="5.44816">
        <ele>575.99096679688</ele>
        <time>2011-08-10T13:41:43Z</time>
      </trkpt>
      <trkpt lat="45.07479" lon="5.44819">
        <ele>583.28698730469</ele>
        <time>2011-08-10T13:41:45Z</time>
      </trkpt>
      <trkpt lat="45.07501" lon="5.44839">
        <ele>597.59252929688</ele>
        <time>2011-08-10T13:41:52Z</time>
      </trkpt>
      <trkpt lat="45.07525" lon="5.44856">
        <ele>606.71118164062</ele>
        <time>2011-08-10T13:41:59Z</time>
      </trkpt>
      <trkpt lat="45.07544" lon="5.44878">
        <ele>605.30242919922</ele>
        <time>2011-08-10T13:42:06Z</time>
      </trkpt>
      <trkpt lat="45.07563" lon="5.44903">
        <ele>601.36669921875</ele>
        <time>2011-08-10T13:42:13Z</time>
      </trkpt>
      <trkpt lat="45.07591" lon="5.44933">
        <ele>603.15863037109</ele>
        <time>2011-08-10T13:42:22Z</time>
      </trkpt>
      <trkpt lat="45.0761" lon="5.4495">
        <ele>606.19946289062</ele>
        <time>2011-08-10T13:42:28Z</time>
      </trkpt>
      <trkpt lat="45.07644" lon="5.44977">
        <ele>606.23162841797</ele>
        <time>2011-08-10T13:42:38Z</time>
      </trkpt>
      <trkpt lat="45.07675" lon="5.45004">
        <ele>612.10876464844</ele>
        <time>2011-08-10T13:42:47Z</time>
      </trkpt>
      <trkpt lat="45.07682" lon="5.45012">
        <ele>611.89245605469</ele>
        <time>2011-08-10T13:42:49Z</time>
      </trkpt>
      <trkpt lat="45.07788" lon="5.4535">
        <ele>544.35821533203</ele>
        <time>2011-08-10T13:43:53Z</time>
      </trkpt>
      <trkpt lat="45.07792" lon="5.45367">
        <ele>543.74615478516</ele>
        <time>2011-08-10T13:43:56Z</time>
      </trkpt>
      <trkpt lat="45.07825" lon="5.45385">
        <ele>566.82244873047</ele>
        <time>2011-08-10T13:44:04Z</time>
      </trkpt>
      <trkpt lat="45.07836" lon="5.45399">
        <ele>569.01953125</ele>
        <time>2011-08-10T13:44:08Z</time>
      </trkpt>
      <trkpt lat="45.07857" lon="5.45425">
        <ele>568.78912353516</ele>
        <time>2011-08-10T13:44:15Z</time>
      </trkpt>
      <trkpt lat="45.0788" lon="5.45444">
        <ele>577.04937744141</ele>
        <time>2011-08-10T13:44:21Z</time>
      </trkpt>
      <trkpt lat="45.07899" lon="5.45472">
        <ele>575.08624267578</ele>
        <time>2011-08-10T13:44:29Z</time>
      </trkpt>
      <trkpt lat="45.07922" lon="5.45486">
        <ele>583.404296875</ele>
        <time>2011-08-10T13:44:35Z</time>
      </trkpt>
      <trkpt lat="45.07938" lon="5.45506">
        <ele>580.94354248047</ele>
        <time>2011-08-10T13:44:41Z</time>
      </trkpt>
      <trkpt lat="45.07955" lon="5.45522">
        <ele>578.58142089844</ele>
        <time>2011-08-10T13:44:47Z</time>
      </trkpt>
      <trkpt lat="45.07982" lon="5.45551">
        <ele>574.74230957031</ele>
        <time>2011-08-10T13:44:54Z</time>
      </trkpt>
      <trkpt lat="45.07984" lon="5.45556">
        <ele>573.71343994141</ele>
        <time>2011-08-10T13:44:55Z</time>
      </trkpt>
      <trkpt lat="45.08006" lon="5.45581">
        <ele>572.23455810547</ele>
        <time>2011-08-10T13:45:02Z</time>
      </trkpt>
      <trkpt lat="45.08028" lon="5.45596">
        <ele>570.38427734375</ele>
        <time>2011-08-10T13:45:08Z</time>
      </trkpt>
      <trkpt lat="45.08044" lon="5.45621">
        <ele>567.66680908203</ele>
        <time>2011-08-10T13:45:14Z</time>
      </trkpt>
      <trkpt lat="45.08067" lon="5.45635">
        <ele>571.16223144531</ele>
        <time>2011-08-10T13:45:20Z</time>
      </trkpt>
      <trkpt lat="45.08083" lon="5.45646">
        <ele>572.3837890625</ele>
        <time>2011-08-10T13:45:25Z</time>
      </trkpt>
      <trkpt lat="45.08109" lon="5.45661">
        <ele>575.44311523438</ele>
        <time>2011-08-10T13:45:31Z</time>
      </trkpt>
      <trkpt lat="45.08138" lon="5.45674">
        <ele>577.41448974609</ele>
        <time>2011-08-10T13:45:37Z</time>
      </trkpt>
      <trkpt lat="45.0816" lon="5.45684">
        <ele>580.37835693359</ele>
        <time>2011-08-10T13:45:42Z</time>
      </trkpt>
      <trkpt lat="45.08184" lon="5.4569">
        <ele>586.96490478516</ele>
        <time>2011-08-10T13:45:47Z</time>
      </trkpt>
      <trkpt lat="45.08209" lon="5.45702">
        <ele>592.50079345703</ele>
        <time>2011-08-10T13:45:53Z</time>
      </trkpt>
      <trkpt lat="45.08223" lon="5.45758">
        <ele>586.59014892578</ele>
        <time>2011-08-10T13:46:05Z</time>
      </trkpt>
      <trkpt lat="45.08228" lon="5.45777">
        <ele>584.17211914062</ele>
        <time>2011-08-10T13:47:02Z</time>
      </trkpt>
      <trkpt lat="45.08196" lon="5.45811">
        <ele>579.13061523438</ele>
        <time>2011-08-10T13:47:52Z</time>
      </trkpt>
      <trkpt lat="45.08202" lon="5.45809">
        <ele>579.57006835938</ele>
        <time>2011-08-10T13:47:59Z</time>
      </trkpt>
      <trkpt lat="45.08167" lon="5.45827">
        <ele>575.08642578125</ele>
        <time>2011-08-10T13:49:12Z</time>
      </trkpt>
      <trkpt lat="45.08166" lon="5.45832">
        <ele>574.97937011719</ele>
        <time>2011-08-10T13:49:17Z</time>
      </trkpt>
      <trkpt lat="45.08209" lon="5.45811">
        <ele>580.064453125</ele>
        <time>2011-08-10T13:53:41Z</time>
      </trkpt>
      <trkpt lat="45.08211" lon="5.45795">
        <ele>580.55047607422</ele>
        <time>2011-08-10T13:54:35Z</time>
      </trkpt>
      <trkpt lat="45.0823" lon="5.45795">
        <ele>583.77789306641</ele>
        <time>2011-08-10T13:54:42Z</time>
      </trkpt>
      <trkpt lat="45.08255" lon="5.45793">
        <ele>591.46862792969</ele>
        <time>2011-08-10T13:54:50Z</time>
      </trkpt>
      <trkpt lat="45.08265" lon="5.4579">
        <ele>594.55682373047</ele>
        <time>2011-08-10T13:54:52Z</time>
      </trkpt>
      <trkpt lat="45.08301" lon="5.45771">
        <ele>615.26806640625</ele>
        <time>2011-08-10T13:55:00Z</time>
      </trkpt>
      <trkpt lat="45.08312" lon="5.45761">
        <ele>623.44830322266</ele>
        <time>2011-08-10T13:55:03Z</time>
      </trkpt>
      <trkpt lat="45.08327" lon="5.45769">
        <ele>625.87945556641</ele>
        <time>2011-08-10T13:55:08Z</time>
      </trkpt>
      <trkpt lat="45.0833" lon="5.45773">
        <ele>625.57580566406</ele>
        <time>2011-08-10T13:55:09Z</time>
      </trkpt>
      <trkpt lat="45.08337" lon="5.45791">
        <ele>621.68695068359</ele>
        <time>2011-08-10T13:55:13Z</time>
      </trkpt>
      <trkpt lat="45.08352" lon="5.45806">
        <ele>620.71856689453</ele>
        <time>2011-08-10T13:55:17Z</time>
      </trkpt>
      <trkpt lat="45.08383" lon="5.45825">
        <ele>624.06768798828</ele>
        <time>2011-08-10T13:55:24Z</time>
      </trkpt>
      <trkpt lat="45.08393" lon="5.45831">
        <ele>624.94927978516</ele>
        <time>2011-08-10T13:55:26Z</time>
      </trkpt>
      <trkpt lat="45.08423" lon="5.45874">
        <ele>618.06860351562</ele>
        <time>2011-08-10T13:55:34Z</time>
      </trkpt>
      <trkpt lat="45.08426" lon="5.45881">
        <ele>617.36987304688</ele>
        <time>2011-08-10T13:55:35Z</time>
      </trkpt>
      <trkpt lat="45.08438" lon="5.45905">
        <ele>614.02893066406</ele>
        <time>2011-08-10T13:55:39Z</time>
      </trkpt>
      <trkpt lat="45.08446" lon="5.45915">
        <ele>612.69018554688</ele>
        <time>2011-08-10T13:55:41Z</time>
      </trkpt>
      <trkpt lat="45.08469" lon="5.45946">
        <ele>610.07916259766</ele>
        <time>2011-08-10T13:55:47Z</time>
      </trkpt>
      <trkpt lat="45.08481" lon="5.45961">
        <ele>609.48901367188</ele>
        <time>2011-08-10T13:55:50Z</time>
      </trkpt>
      <trkpt lat="45.08518" lon="5.45985">
        <ele>613.34466552734</ele>
        <time>2011-08-10T13:55:55Z</time>
      </trkpt>
      <trkpt lat="45.0853" lon="5.4599">
        <ele>616.23791503906</ele>
        <time>2011-08-10T13:55:56Z</time>
      </trkpt>
      <trkpt lat="45.08588" lon="5.46026">
        <ele>623.25476074219</ele>
        <time>2011-08-10T13:56:05Z</time>
      </trkpt>
      <trkpt lat="45.08625" lon="5.46044">
        <ele>630.51135253906</ele>
        <time>2011-08-10T13:56:11Z</time>
      </trkpt>
      <trkpt lat="45.08636" lon="5.46052">
        <ele>631.05212402344</ele>
        <time>2011-08-10T13:56:13Z</time>
      </trkpt>
      <trkpt lat="45.08655" lon="5.46084">
        <ele>632.35522460938</ele>
        <time>2011-08-10T13:56:18Z</time>
      </trkpt>
      <trkpt lat="45.08667" lon="5.46119">
        <ele>627.22552490234</ele>
        <time>2011-08-10T13:56:23Z</time>
      </trkpt>
      <trkpt lat="45.08673" lon="5.46133">
        <ele>626.91912841797</ele>
        <time>2011-08-10T13:56:25Z</time>
      </trkpt>
      <trkpt lat="45.08678" lon="5.46154">
        <ele>623.51513671875</ele>
        <time>2011-08-10T13:56:28Z</time>
      </trkpt>
      <trkpt lat="45.08683" lon="5.462">
        <ele>617.51824951172</ele>
        <time>2011-08-10T13:56:33Z</time>
      </trkpt>
      <trkpt lat="45.08685" lon="5.46246">
        <ele>615</ele>
        <time>2011-08-10T13:56:38Z</time>
      </trkpt>
      <trkpt lat="45.08686" lon="5.46264">
        <ele>615.51531982422</ele>
        <time>2011-08-10T13:56:40Z</time>
      </trkpt>
      <trkpt lat="45.08707" lon="5.46337">
        <ele>617.58337402344</ele>
        <time>2011-08-10T13:56:49Z</time>
      </trkpt>
      <trkpt lat="45.08722" lon="5.46396">
        <ele>619.30682373047</ele>
        <time>2011-08-10T13:56:56Z</time>
      </trkpt>
      <trkpt lat="45.08727" lon="5.46455">
        <ele>621.69543457031</ele>
        <time>2011-08-10T13:57:02Z</time>
      </trkpt>
      <trkpt lat="45.08722" lon="5.46514">
        <ele>622.51379394531</ele>
        <time>2011-08-10T13:57:08Z</time>
      </trkpt>
      <trkpt lat="45.0872" lon="5.46533">
        <ele>623.01306152344</ele>
        <time>2011-08-10T13:57:10Z</time>
      </trkpt>
      <trkpt lat="45.08733" lon="5.4658">
        <ele>624.26513671875</ele>
        <time>2011-08-10T13:57:15Z</time>
      </trkpt>
      <trkpt lat="45.08742" lon="5.46598">
        <ele>624.86267089844</ele>
        <time>2011-08-10T13:57:17Z</time>
      </trkpt>
      <trkpt lat="45.08765" lon="5.46642">
        <ele>628.57916259766</ele>
        <time>2011-08-10T13:57:23Z</time>
      </trkpt>
      <trkpt lat="45.08783" lon="5.4668">
        <ele>630.07537841797</ele>
        <time>2011-08-10T13:57:28Z</time>
      </trkpt>
      <trkpt lat="45.08804" lon="5.46747">
        <ele>630.01373291016</ele>
        <time>2011-08-10T13:57:36Z</time>
      </trkpt>
      <trkpt lat="45.08817" lon="5.46782">
        <ele>630.65002441406</ele>
        <time>2011-08-10T13:57:40Z</time>
      </trkpt>
      <trkpt lat="45.08839" lon="5.46829">
        <ele>631.73004150391</ele>
        <time>2011-08-10T13:57:45Z</time>
      </trkpt>
      <trkpt lat="45.08857" lon="5.46845">
        <ele>632.86041259766</ele>
        <time>2011-08-10T13:57:48Z</time>
      </trkpt>
      <trkpt lat="45.08905" lon="5.46866">
        <ele>639.12261962891</ele>
        <time>2011-08-10T13:57:55Z</time>
      </trkpt>
      <trkpt lat="45.08936" lon="5.46889">
        <ele>648.87982177734</ele>
        <time>2011-08-10T13:58:00Z</time>
      </trkpt>
      <trkpt lat="45.08962" lon="5.46929">
        <ele>664.458984375</ele>
        <time>2011-08-10T13:58:07Z</time>
      </trkpt>
      <trkpt lat="45.08975" lon="5.46973">
        <ele>669.15228271484</ele>
        <time>2011-08-10T13:58:12Z</time>
      </trkpt>
      <trkpt lat="45.08974" lon="5.47024">
        <ele>657.07897949219</ele>
        <time>2011-08-10T13:58:17Z</time>
      </trkpt>
      <trkpt lat="45.08963" lon="5.47071">
        <ele>643.86944580078</ele>
        <time>2011-08-10T13:58:22Z</time>
      </trkpt>
      <trkpt lat="45.08929" lon="5.47128">
        <ele>639.74768066406</ele>
        <time>2011-08-10T13:58:30Z</time>
      </trkpt>
      <trkpt lat="45.08885" lon="5.472">
        <ele>639.94213867188</ele>
        <time>2011-08-10T13:58:40Z</time>
      </trkpt>
      <trkpt lat="45.08846" lon="5.47264">
        <ele>648.34661865234</ele>
        <time>2011-08-10T13:58:49Z</time>
      </trkpt>
      <trkpt lat="45.08804" lon="5.4733">
        <ele>651.36248779297</ele>
        <time>2011-08-10T13:58:58Z</time>
      </trkpt>
      <trkpt lat="45.08773" lon="5.47384">
        <ele>651.755859375</ele>
        <time>2011-08-10T13:59:05Z</time>
      </trkpt>
      <trkpt lat="45.08752" lon="5.47446">
        <ele>652.59735107422</ele>
        <time>2011-08-10T13:59:12Z</time>
      </trkpt>
      <trkpt lat="45.08713" lon="5.47528">
        <ele>653.95928955078</ele>
        <time>2011-08-10T13:59:22Z</time>
      </trkpt>
      <trkpt lat="45.08676" lon="5.476">
        <ele>654.49536132812</ele>
        <time>2011-08-10T13:59:31Z</time>
      </trkpt>
      <trkpt lat="45.0863" lon="5.47689">
        <ele>654.18762207031</ele>
        <time>2011-08-10T13:59:42Z</time>
      </trkpt>
      <trkpt lat="45.08603" lon="5.47748">
        <ele>654.6220703125</ele>
        <time>2011-08-10T13:59:49Z</time>
      </trkpt>
      <trkpt lat="45.08577" lon="5.47802">
        <ele>655</ele>
        <time>2011-08-10T13:59:56Z</time>
      </trkpt>
      <trkpt lat="45.08567" lon="5.47853">
        <ele>656.72320556641</ele>
        <time>2011-08-10T14:00:01Z</time>
      </trkpt>
      <trkpt lat="45.08565" lon="5.47883">
        <ele>657</ele>
        <time>2011-08-10T14:00:04Z</time>
      </trkpt>
      <trkpt lat="45.08553" lon="5.47928">
        <ele>658.4462890625</ele>
        <time>2011-08-10T14:00:09Z</time>
      </trkpt>
      <trkpt lat="45.0852" lon="5.47999">
        <ele>660.28918457031</ele>
        <time>2011-08-10T14:00:17Z</time>
      </trkpt>
      <trkpt lat="45.08517" lon="5.48009">
        <ele>660.37158203125</ele>
        <time>2011-08-10T14:00:18Z</time>
      </trkpt>
      <trkpt lat="45.08506" lon="5.48075">
        <ele>661.46136474609</ele>
        <time>2011-08-10T14:00:25Z</time>
      </trkpt>
      <trkpt lat="45.08485" lon="5.48121">
        <ele>661.70977783203</ele>
        <time>2011-08-10T14:00:31Z</time>
      </trkpt>
      <trkpt lat="45.08467" lon="5.48177">
        <ele>662.50750732422</ele>
        <time>2011-08-10T14:00:38Z</time>
      </trkpt>
      <trkpt lat="45.08453" lon="5.48226">
        <ele>664.08020019531</ele>
        <time>2011-08-10T14:00:43Z</time>
      </trkpt>
      <trkpt lat="45.08419" lon="5.48264">
        <ele>664.96441650391</ele>
        <time>2011-08-10T14:00:47Z</time>
      </trkpt>
      <trkpt lat="45.08413" lon="5.48306">
        <ele>665.01904296875</ele>
        <time>2011-08-10T14:00:51Z</time>
      </trkpt>
      <trkpt lat="45.08403" lon="5.4835">
        <ele>666.61077880859</ele>
        <time>2011-08-10T14:00:55Z</time>
      </trkpt>
      <trkpt lat="45.084" lon="5.4836">
        <ele>666.77410888672</ele>
        <time>2011-08-10T14:00:56Z</time>
      </trkpt>
      <trkpt lat="45.08391" lon="5.4842">
        <ele>670.29937744141</ele>
        <time>2011-08-10T14:01:02Z</time>
      </trkpt>
      <trkpt lat="45.08375" lon="5.48455">
        <ele>670.71026611328</ele>
        <time>2011-08-10T14:01:06Z</time>
      </trkpt>
      <trkpt lat="45.08356" lon="5.48465">
        <ele>670.34155273438</ele>
        <time>2011-08-10T14:01:09Z</time>
      </trkpt>
      <trkpt lat="45.0835" lon="5.48467">
        <ele>670.21795654297</ele>
        <time>2011-08-10T14:01:10Z</time>
      </trkpt>
      <trkpt lat="45.08275" lon="5.48485">
        <ele>670.39886474609</ele>
        <time>2011-08-10T14:01:21Z</time>
      </trkpt>
      <trkpt lat="45.0823" lon="5.48503">
        <ele>670.84167480469</ele>
        <time>2011-08-10T14:01:27Z</time>
      </trkpt>
      <trkpt lat="45.08223" lon="5.48508">
        <ele>671.26910400391</ele>
        <time>2011-08-10T14:01:28Z</time>
      </trkpt>
      <trkpt lat="45.08187" lon="5.48557">
        <ele>672.32537841797</ele>
        <time>2011-08-10T14:01:35Z</time>
      </trkpt>
      <trkpt lat="45.08178" lon="5.48583">
        <ele>672.99975585938</ele>
        <time>2011-08-10T14:01:38Z</time>
      </trkpt>
      <trkpt lat="45.08173" lon="5.48639">
        <ele>673.23864746094</ele>
        <time>2011-08-10T14:01:44Z</time>
      </trkpt>
      <trkpt lat="45.08173" lon="5.48657">
        <ele>673.86541748047</ele>
        <time>2011-08-10T14:01:46Z</time>
      </trkpt>
      <trkpt lat="45.08168" lon="5.48698">
        <ele>675.16320800781</ele>
        <time>2011-08-10T14:01:51Z</time>
      </trkpt>
      <trkpt lat="45.08163" lon="5.48721">
        <ele>675.81848144531</ele>
        <time>2011-08-10T14:01:54Z</time>
      </trkpt>
      <trkpt lat="45.08162" lon="5.48737">
        <ele>676.36828613281</ele>
        <time>2011-08-10T14:01:56Z</time>
      </trkpt>
      <trkpt lat="45.08174" lon="5.48779">
        <ele>678.00872802734</ele>
        <time>2011-08-10T14:02:01Z</time>
      </trkpt>
      <trkpt lat="45.08154" lon="5.48818">
        <ele>678.45544433594</ele>
        <time>2011-08-10T14:02:07Z</time>
      </trkpt>
      <trkpt lat="45.08127" lon="5.48843">
        <ele>679.11322021484</ele>
        <time>2011-08-10T14:02:13Z</time>
      </trkpt>
      <trkpt lat="45.081" lon="5.48861">
        <ele>679.00073242188</ele>
        <time>2011-08-10T14:02:18Z</time>
      </trkpt>
      <trkpt lat="45.08066" lon="5.48881">
        <ele>678.81652832031</ele>
        <time>2011-08-10T14:02:25Z</time>
      </trkpt>
      <trkpt lat="45.08057" lon="5.48885">
        <ele>678.87609863281</ele>
        <time>2011-08-10T14:02:27Z</time>
      </trkpt>
      <trkpt lat="45.08027" lon="5.48898">
        <ele>678.34814453125</ele>
        <time>2011-08-10T14:02:33Z</time>
      </trkpt>
      <trkpt lat="45.07991" lon="5.48918">
        <ele>679.32208251953</ele>
        <time>2011-08-10T14:02:41Z</time>
      </trkpt>
      <trkpt lat="45.07965" lon="5.48939">
        <ele>680.81048583984</ele>
        <time>2011-08-10T14:02:49Z</time>
      </trkpt>
      <trkpt lat="45.07945" lon="5.48953">
        <ele>681.88757324219</ele>
        <time>2011-08-10T14:02:53Z</time>
      </trkpt>
      <trkpt lat="45.07917" lon="5.48975">
        <ele>684.17413330078</ele>
        <time>2011-08-10T14:02:59Z</time>
      </trkpt>
      <trkpt lat="45.07902" lon="5.48996">
        <ele>686.78637695312</ele>
        <time>2011-08-10T14:03:05Z</time>
      </trkpt>
      <trkpt lat="45.07896" lon="5.49003">
        <ele>687.80694580078</ele>
        <time>2011-08-10T14:03:08Z</time>
      </trkpt>
      <trkpt lat="45.07885" lon="5.49003">
        <ele>688.50219726562</ele>
        <time>2011-08-10T14:03:12Z</time>
      </trkpt>
      <trkpt lat="45.07664" lon="5.49086">
        <ele>698.39660644531</ele>
        <time>2011-08-10T14:03:56Z</time>
      </trkpt>
      <trkpt lat="45.07633" lon="5.49107">
        <ele>707.39971923828</ele>
        <time>2011-08-10T14:04:02Z</time>
      </trkpt>
      <trkpt lat="45.07603" lon="5.49121">
        <ele>712.89074707031</ele>
        <time>2011-08-10T14:04:06Z</time>
      </trkpt>
      <trkpt lat="45.07567" lon="5.49134">
        <ele>714.97595214844</ele>
        <time>2011-08-10T14:04:10Z</time>
      </trkpt>
      <trkpt lat="45.07545" lon="5.49145">
        <ele>718.18145751953</ele>
        <time>2011-08-10T14:04:15Z</time>
      </trkpt>
      <trkpt lat="45.0751" lon="5.49159">
        <ele>723.53515625</ele>
        <time>2011-08-10T14:04:22Z</time>
      </trkpt>
      <trkpt lat="45.07504" lon="5.49163">
        <ele>722.38195800781</ele>
        <time>2011-08-10T14:04:23Z</time>
      </trkpt>
      <trkpt lat="45.075" lon="5.49167">
        <ele>720.01922607422</ele>
        <time>2011-08-10T14:04:24Z</time>
      </trkpt>
      <trkpt lat="45.07471" lon="5.49199">
        <ele>727.41967773438</ele>
        <time>2011-08-10T14:04:31Z</time>
      </trkpt>
      <trkpt lat="45.07347" lon="5.49157">
        <ele>868.2822265625</ele>
        <time>2011-08-10T14:04:48Z</time>
      </trkpt>
      <trkpt lat="45.07341" lon="5.49155">
        <ele>879.18060302734</ele>
        <time>2011-08-10T14:04:49Z</time>
      </trkpt>
      <trkpt lat="45.07324" lon="5.49157">
        <ele>893.54052734375</ele>
        <time>2011-08-10T14:04:53Z</time>
      </trkpt>
      <trkpt lat="45.07299" lon="5.49172">
        <ele>897.84356689453</ele>
        <time>2011-08-10T14:04:58Z</time>
      </trkpt>
      <trkpt lat="45.0725" lon="5.49186">
        <ele>913.95941162109</ele>
        <time>2011-08-10T14:05:02Z</time>
      </trkpt>
      <trkpt lat="45.07215" lon="5.49202">
        <ele>921.80401611328</ele>
        <time>2011-08-10T14:05:05Z</time>
      </trkpt>
      <trkpt lat="45.07126" lon="5.49225">
        <ele>938.78472900391</ele>
        <time>2011-08-10T14:05:09Z</time>
      </trkpt>
      <trkpt lat="45.07026" lon="5.49244">
        <ele>986.08996582031</ele>
        <time>2011-08-10T14:05:12Z</time>
      </trkpt>
      <trkpt lat="45.06911" lon="5.49262">
        <ele>1022.2357177734</ele>
        <time>2011-08-10T14:05:15Z</time>
      </trkpt>
      <trkpt lat="45.06785" lon="5.49277">
        <ele>1047.4399414062</ele>
        <time>2011-08-10T14:05:18Z</time>
      </trkpt>
      <trkpt lat="45.06674" lon="5.49287">
        <ele>1071.3312988281</ele>
        <time>2011-08-10T14:05:20Z</time>
      </trkpt>
      <trkpt lat="45.06764" lon="5.49309">
        <ele>1046.0502929688</ele>
        <time>2011-08-10T14:05:22Z</time>
      </trkpt>
      <trkpt lat="45.06767" lon="5.49313">
        <ele>1044.2036132812</ele>
        <time>2011-08-10T14:05:23Z</time>
      </trkpt>
      <trkpt lat="45.06773" lon="5.49321">
        <ele>1041.1864013672</ele>
        <time>2011-08-10T14:05:25Z</time>
      </trkpt>
      <trkpt lat="45.06784" lon="5.49339">
        <ele>1033.1881103516</ele>
        <time>2011-08-10T14:05:29Z</time>
      </trkpt>
      <trkpt lat="45.06793" lon="5.49369">
        <ele>1021.3972167969</ele>
        <time>2011-08-10T14:05:35Z</time>
      </trkpt>
      <trkpt lat="45.06793" lon="5.49374">
        <ele>1020.4393310547</ele>
        <time>2011-08-10T14:05:36Z</time>
      </trkpt>
      <trkpt lat="45.06802" lon="5.494">
        <ele>1012.2860107422</ele>
        <time>2011-08-10T14:05:41Z</time>
      </trkpt>
      <trkpt lat="45.06885" lon="5.49415">
        <ele>995.90441894531</ele>
        <time>2011-08-10T14:05:46Z</time>
      </trkpt>
      <trkpt lat="45.06953" lon="5.49417">
        <ele>979.02581787109</ele>
        <time>2011-08-10T14:05:48Z</time>
      </trkpt>
      <trkpt lat="45.06995" lon="5.49418">
        <ele>971.03051757812</ele>
        <time>2011-08-10T14:05:49Z</time>
      </trkpt>
      <trkpt lat="45.07093" lon="5.4943">
        <ele>929.64483642578</ele>
        <time>2011-08-10T14:05:52Z</time>
      </trkpt>
      <trkpt lat="45.07174" lon="5.49446">
        <ele>860.30688476562</ele>
        <time>2011-08-10T14:05:55Z</time>
      </trkpt>
      <trkpt lat="45.07246" lon="5.49472">
        <ele>785.89691162109</ele>
        <time>2011-08-10T14:05:59Z</time>
      </trkpt>
      <trkpt lat="45.0728" lon="5.49484">
        <ele>764.06970214844</ele>
        <time>2011-08-10T14:06:01Z</time>
      </trkpt>
      <trkpt lat="45.07264" lon="5.49517">
        <ele>771.16497802734</ele>
        <time>2011-08-10T14:06:05Z</time>
      </trkpt>
      <trkpt lat="45.07273" lon="5.49524">
        <ele>767.92883300781</ele>
        <time>2011-08-10T14:06:06Z</time>
      </trkpt>
      <trkpt lat="45.07273" lon="5.49553">
        <ele>770.15454101562</ele>
        <time>2011-08-10T14:06:10Z</time>
      </trkpt>
      <trkpt lat="45.07239" lon="5.49571">
        <ele>778.35339355469</ele>
        <time>2011-08-10T14:06:13Z</time>
      </trkpt>
      <trkpt lat="45.07203" lon="5.49587">
        <ele>795.92492675781</ele>
        <time>2011-08-10T14:06:16Z</time>
      </trkpt>
      <trkpt lat="45.07199" lon="5.49622">
        <ele>797.91052246094</ele>
        <time>2011-08-10T14:06:22Z</time>
      </trkpt>
      <trkpt lat="45.07183" lon="5.4965">
        <ele>821.67907714844</ele>
        <time>2011-08-10T14:06:27Z</time>
      </trkpt>
      <trkpt lat="45.07163" lon="5.49669">
        <ele>861.74877929688</ele>
        <time>2011-08-10T14:06:31Z</time>
      </trkpt>
      <trkpt lat="45.07152" lon="5.49679">
        <ele>878.85614013672</ele>
        <time>2011-08-10T14:06:33Z</time>
      </trkpt>
      <trkpt lat="45.07138" lon="5.49713">
        <ele>896.51812744141</ele>
        <time>2011-08-10T14:06:40Z</time>
      </trkpt>
      <trkpt lat="45.07121" lon="5.49751">
        <ele>901.93804931641</ele>
        <time>2011-08-10T14:06:47Z</time>
      </trkpt>
      <trkpt lat="45.0711" lon="5.49779">
        <ele>905.7861328125</ele>
        <time>2011-08-10T14:06:52Z</time>
      </trkpt>
      <trkpt lat="45.07081" lon="5.49828">
        <ele>923.63775634766</ele>
        <time>2011-08-10T14:07:02Z</time>
      </trkpt>
      <trkpt lat="45.07059" lon="5.49861">
        <ele>906.89312744141</ele>
        <time>2011-08-10T14:07:09Z</time>
      </trkpt>
      <trkpt lat="45.0705" lon="5.49889">
        <ele>912.57281494141</ele>
        <time>2011-08-10T14:07:15Z</time>
      </trkpt>
      <trkpt lat="45.07043" lon="5.49913">
        <ele>903.5869140625</ele>
        <time>2011-08-10T14:07:20Z</time>
      </trkpt>
      <trkpt lat="45.0703" lon="5.49952">
        <ele>897.89343261719</ele>
        <time>2011-08-10T14:07:27Z</time>
      </trkpt>
      <trkpt lat="45.0703" lon="5.49968">
        <ele>890.49359130859</ele>
        <time>2011-08-10T14:07:30Z</time>
      </trkpt>
      <trkpt lat="45.07039" lon="5.49985">
        <ele>863.04534912109</ele>
        <time>2011-08-10T14:07:33Z</time>
      </trkpt>
      <trkpt lat="45.0704" lon="5.50024">
        <ele>827.87756347656</ele>
        <time>2011-08-10T14:07:40Z</time>
      </trkpt>
      <trkpt lat="45.07036" lon="5.50064">
        <ele>822.64276123047</ele>
        <time>2011-08-10T14:07:47Z</time>
      </trkpt>
      <trkpt lat="45.07033" lon="5.50082">
        <ele>820.89770507812</ele>
        <time>2011-08-10T14:07:50Z</time>
      </trkpt>
      <trkpt lat="45.07025" lon="5.50106">
        <ele>824.40808105469</ele>
        <time>2011-08-10T14:07:54Z</time>
      </trkpt>
      <trkpt lat="45.07013" lon="5.50135">
        <ele>844.03033447266</ele>
        <time>2011-08-10T14:07:59Z</time>
      </trkpt>
      <trkpt lat="45.06999" lon="5.50181">
        <ele>867.50402832031</ele>
        <time>2011-08-10T14:08:06Z</time>
      </trkpt>
      <trkpt lat="45.0698" lon="5.50226">
        <ele>901.27374267578</ele>
        <time>2011-08-10T14:08:13Z</time>
      </trkpt>
      <trkpt lat="45.06969" lon="5.50261">
        <ele>927.09210205078</ele>
        <time>2011-08-10T14:08:19Z</time>
      </trkpt>
      <trkpt lat="45.06964" lon="5.50273">
        <ele>934.55102539062</ele>
        <time>2011-08-10T14:08:21Z</time>
      </trkpt>
      <trkpt lat="45.06961" lon="5.50317">
        <ele>914.59289550781</ele>
        <time>2011-08-10T14:08:28Z</time>
      </trkpt>
      <trkpt lat="45.0696" lon="5.50336">
        <ele>912.38610839844</ele>
        <time>2011-08-10T14:08:31Z</time>
      </trkpt>
      <trkpt lat="45.06958" lon="5.50394">
        <ele>895.74981689453</ele>
        <time>2011-08-10T14:08:41Z</time>
      </trkpt>
      <trkpt lat="45.06976" lon="5.50436">
        <ele>869.38702392578</ele>
        <time>2011-08-10T14:08:49Z</time>
      </trkpt>
      <trkpt lat="45.06993" lon="5.50477">
        <ele>839.66094970703</ele>
        <time>2011-08-10T14:08:57Z</time>
      </trkpt>
      <trkpt lat="45.06995" lon="5.50514">
        <ele>824.65692138672</ele>
        <time>2011-08-10T14:09:04Z</time>
      </trkpt>
      <trkpt lat="45.07004" lon="5.5053">
        <ele>816.31427001953</ele>
        <time>2011-08-10T14:09:07Z</time>
      </trkpt>
      <trkpt lat="45.07039" lon="5.50558">
        <ele>819.12976074219</ele>
        <time>2011-08-10T14:09:12Z</time>
      </trkpt>
      <trkpt lat="45.07051" lon="5.5057">
        <ele>821.48895263672</ele>
        <time>2011-08-10T14:09:14Z</time>
      </trkpt>
      <trkpt lat="45.07079" lon="5.50599">
        <ele>832.98760986328</ele>
        <time>2011-08-10T14:09:19Z</time>
      </trkpt>
      <trkpt lat="45.0713" lon="5.50628">
        <ele>864.95959472656</ele>
        <time>2011-08-10T14:09:25Z</time>
      </trkpt>
      <trkpt lat="45.07138" lon="5.50638">
        <ele>871.48272705078</ele>
        <time>2011-08-10T14:09:27Z</time>
      </trkpt>
      <trkpt lat="45.07151" lon="5.50654">
        <ele>883.73046875</ele>
        <time>2011-08-10T14:09:30Z</time>
      </trkpt>
      <trkpt lat="45.07153" lon="5.50666">
        <ele>888.42199707031</ele>
        <time>2011-08-10T14:09:32Z</time>
      </trkpt>
      <trkpt lat="45.07139" lon="5.50686">
        <ele>888.20910644531</ele>
        <time>2011-08-10T14:09:36Z</time>
      </trkpt>
      <trkpt lat="45.07158" lon="5.5073">
        <ele>914.94610595703</ele>
        <time>2011-08-10T14:09:43Z</time>
      </trkpt>
      <trkpt lat="45.07156" lon="5.50735">
        <ele>915.97436523438</ele>
        <time>2011-08-10T14:09:44Z</time>
      </trkpt>
      <trkpt lat="45.07053" lon="5.50767">
        <ele>868.37670898438</ele>
        <time>2011-08-10T14:09:53Z</time>
      </trkpt>
      <trkpt lat="45.06996" lon="5.5078">
        <ele>834.26293945312</ele>
        <time>2011-08-10T14:09:57Z</time>
      </trkpt>
      <trkpt lat="45.06964" lon="5.50794">
        <ele>825.42266845703</ele>
        <time>2011-08-10T14:10:01Z</time>
      </trkpt>
      <trkpt lat="45.06938" lon="5.50836">
        <ele>819.09423828125</ele>
        <time>2011-08-10T14:10:10Z</time>
      </trkpt>
      <trkpt lat="45.06928" lon="5.5087">
        <ele>817.029296875</ele>
        <time>2011-08-10T14:10:17Z</time>
      </trkpt>
      <trkpt lat="45.06917" lon="5.50909">
        <ele>813.79418945312</ele>
        <time>2011-08-10T14:10:25Z</time>
      </trkpt>
      <trkpt lat="45.06904" lon="5.50937">
        <ele>821.67034912109</ele>
        <time>2011-08-10T14:10:31Z</time>
      </trkpt>
      <trkpt lat="45.0689" lon="5.50959">
        <ele>829.69140625</ele>
        <time>2011-08-10T14:10:36Z</time>
      </trkpt>
      <trkpt lat="45.06877" lon="5.50988">
        <ele>837.08221435547</ele>
        <time>2011-08-10T14:10:42Z</time>
      </trkpt>
      <trkpt lat="45.06869" lon="5.51018">
        <ele>841.60211181641</ele>
        <time>2011-08-10T14:10:48Z</time>
      </trkpt>
      <trkpt lat="45.06875" lon="5.51041">
        <ele>839.36688232422</ele>
        <time>2011-08-10T14:10:52Z</time>
      </trkpt>
      <trkpt lat="45.06877" lon="5.51052">
        <ele>839.09906005859</ele>
        <time>2011-08-10T14:10:54Z</time>
      </trkpt>
      <trkpt lat="45.06892" lon="5.51091">
        <ele>835.751953125</ele>
        <time>2011-08-10T14:11:00Z</time>
      </trkpt>
      <trkpt lat="45.06914" lon="5.51131">
        <ele>830.22021484375</ele>
        <time>2011-08-10T14:11:06Z</time>
      </trkpt>
      <trkpt lat="45.06923" lon="5.51138">
        <ele>841.57958984375</ele>
        <time>2011-08-10T14:11:07Z</time>
      </trkpt>
      <trkpt lat="45.06959" lon="5.51182">
        <ele>924.31359863281</ele>
        <time>2011-08-10T14:11:13Z</time>
      </trkpt>
      <trkpt lat="45.07029" lon="5.51233">
        <ele>1069.1890869141</ele>
        <time>2011-08-10T14:11:19Z</time>
      </trkpt>
      <trkpt lat="45.07075" lon="5.51268">
        <ele>1116.8508300781</ele>
        <time>2011-08-10T14:11:23Z</time>
      </trkpt>
      <trkpt lat="45.07055" lon="5.5129">
        <ele>1112.8739013672</ele>
        <time>2011-08-10T14:11:27Z</time>
      </trkpt>
      <trkpt lat="45.07047" lon="5.51294">
        <ele>1111.4085693359</ele>
        <time>2011-08-10T14:11:28Z</time>
      </trkpt>
      <trkpt lat="45.07018" lon="5.51304">
        <ele>1095.8228759766</ele>
        <time>2011-08-10T14:11:31Z</time>
      </trkpt>
      <trkpt lat="45.06994" lon="5.51324">
        <ele>1075.9742431641</ele>
        <time>2011-08-10T14:11:35Z</time>
      </trkpt>
      <trkpt lat="45.06997" lon="5.51347">
        <ele>1091.7705078125</ele>
        <time>2011-08-10T14:11:39Z</time>
      </trkpt>
      <trkpt lat="45.06981" lon="5.51356">
        <ele>1053.169921875</ele>
        <time>2011-08-10T14:11:41Z</time>
      </trkpt>
      <trkpt lat="45.06963" lon="5.51394">
        <ele>1039.5446777344</ele>
        <time>2011-08-10T14:11:48Z</time>
      </trkpt>
      <trkpt lat="45.07164" lon="5.51677">
        <ele>1067.6199951172</ele>
        <time>2011-08-10T14:12:32Z</time>
      </trkpt>
      <trkpt lat="45.07217" lon="5.51707">
        <ele>1056.1926269531</ele>
        <time>2011-08-10T14:12:36Z</time>
      </trkpt>
      <trkpt lat="45.06836" lon="5.51707">
        <ele>883.71246337891</ele>
        <time>2011-08-10T14:13:01Z</time>
      </trkpt>
      <trkpt lat="45.06854" lon="5.51723">
        <ele>891.48168945312</ele>
        <time>2011-08-10T14:13:05Z</time>
      </trkpt>
      <trkpt lat="45.07286" lon="5.52057">
        <ele>942.12524414062</ele>
        <time>2011-08-10T14:15:31Z</time>
      </trkpt>
      <trkpt lat="45.0729" lon="5.52059">
        <ele>942.09191894531</ele>
        <time>2011-08-10T14:15:33Z</time>
      </trkpt>
      <trkpt lat="45.07307" lon="5.52062">
        <ele>942.17095947266</ele>
        <time>2011-08-10T14:15:37Z</time>
      </trkpt>
      <trkpt lat="45.07336" lon="5.52062">
        <ele>943.3916015625</ele>
        <time>2011-08-10T14:15:44Z</time>
      </trkpt>
      <trkpt lat="45.07361" lon="5.52059">
        <ele>949.48669433594</ele>
        <time>2011-08-10T14:15:50Z</time>
      </trkpt>
      <trkpt lat="45.07392" lon="5.52058">
        <ele>957.61199951172</ele>
        <time>2011-08-10T14:15:54Z</time>
      </trkpt>
      <trkpt lat="45.07412" lon="5.52052">
        <ele>962.97979736328</ele>
        <time>2011-08-10T14:15:58Z</time>
      </trkpt>
      <trkpt lat="45.07417" lon="5.52046">
        <ele>964.66229248047</ele>
        <time>2011-08-10T14:16:02Z</time>
      </trkpt>
      <trkpt lat="45.07422" lon="5.52036">
        <ele>965.20635986328</ele>
        <time>2011-08-10T14:16:06Z</time>
      </trkpt>
      <trkpt lat="45.07434" lon="5.52042">
        <ele>963.97741699219</ele>
        <time>2011-08-10T14:16:11Z</time>
      </trkpt>
      <trkpt lat="45.07445" lon="5.52059">
        <ele>960.47473144531</ele>
        <time>2011-08-10T14:16:16Z</time>
      </trkpt>
      <trkpt lat="45.07457" lon="5.52072">
        <ele>956.82177734375</ele>
        <time>2011-08-10T14:16:20Z</time>
      </trkpt>
      <trkpt lat="45.07473" lon="5.52088">
        <ele>953.48602294922</ele>
        <time>2011-08-10T14:16:25Z</time>
      </trkpt>
      <trkpt lat="45.07911" lon="5.52258">
        <ele>985.00134277344</ele>
        <time>2011-08-10T14:17:01Z</time>
      </trkpt>
      <trkpt lat="45.07912" lon="5.52251">
        <ele>983.41680908203</ele>
        <time>2011-08-10T14:17:04Z</time>
      </trkpt>
      <trkpt lat="45.07885" lon="5.52196">
        <ele>969.64050292969</ele>
        <time>2011-08-10T14:17:16Z</time>
      </trkpt>
      <trkpt lat="45.07725" lon="5.52155">
        <ele>970.58538818359</ele>
        <time>2011-08-10T14:17:21Z</time>
      </trkpt>
      <trkpt lat="45.07735" lon="5.52146">
        <ele>971.65380859375</ele>
        <time>2011-08-10T14:17:24Z</time>
      </trkpt>
      <trkpt lat="45.0774" lon="5.52133">
        <ele>973.208984375</ele>
        <time>2011-08-10T14:17:30Z</time>
      </trkpt>
      <trkpt lat="45.07743" lon="5.52134">
        <ele>973.00988769531</ele>
        <time>2011-08-10T14:17:34Z</time>
      </trkpt>
      <trkpt lat="45.07747" lon="5.52135">
        <ele>972.74206542969</ele>
        <time>2011-08-10T14:17:38Z</time>
      </trkpt>
      <trkpt lat="45.07759" lon="5.52142">
        <ele>971.32629394531</ele>
        <time>2011-08-10T14:17:45Z</time>
      </trkpt>
      <trkpt lat="45.07756" lon="5.52147">
        <ele>970.93664550781</ele>
        <time>2011-08-10T14:17:50Z</time>
      </trkpt>
      <trkpt lat="45.07763" lon="5.52148">
        <ele>970.49890136719</ele>
        <time>2011-08-10T14:17:55Z</time>
      </trkpt>
      <trkpt lat="45.07782" lon="5.52135">
        <ele>971.58880615234</ele>
        <time>2011-08-10T14:18:01Z</time>
      </trkpt>
      <trkpt lat="45.07796" lon="5.52126">
        <ele>972.82476806641</ele>
        <time>2011-08-10T14:18:06Z</time>
      </trkpt>
      <trkpt lat="45.07807" lon="5.52119">
        <ele>973.7763671875</ele>
        <time>2011-08-10T14:18:11Z</time>
      </trkpt>
      <trkpt lat="45.07825" lon="5.52124">
        <ele>972.49926757812</ele>
        <time>2011-08-10T14:18:17Z</time>
      </trkpt>
      <trkpt lat="45.07839" lon="5.52124">
        <ele>972.04241943359</ele>
        <time>2011-08-10T14:18:22Z</time>
      </trkpt>
      <trkpt lat="45.07851" lon="5.52128">
        <ele>971.26342773438</ele>
        <time>2011-08-10T14:18:26Z</time>
      </trkpt>
      <trkpt lat="45.07866" lon="5.5213">
        <ele>970.24542236328</ele>
        <time>2011-08-10T14:18:31Z</time>
      </trkpt>
      <trkpt lat="45.079" lon="5.52129">
        <ele>969.119140625</ele>
        <time>2011-08-10T14:18:39Z</time>
      </trkpt>
      <trkpt lat="45.07935" lon="5.5214">
        <ele>967.43939208984</ele>
        <time>2011-08-10T14:18:43Z</time>
      </trkpt>
      <trkpt lat="45.07951" lon="5.52148">
        <ele>966.48901367188</ele>
        <time>2011-08-10T14:18:46Z</time>
      </trkpt>
      <trkpt lat="45.07957" lon="5.52154">
        <ele>965.28350830078</ele>
        <time>2011-08-10T14:18:49Z</time>
      </trkpt>
      <trkpt lat="45.07973" lon="5.52171">
        <ele>963.67248535156</ele>
        <time>2011-08-10T14:18:54Z</time>
      </trkpt>
      <trkpt lat="45.07992" lon="5.52177">
        <ele>965.35504150391</ele>
        <time>2011-08-10T14:18:58Z</time>
      </trkpt>
      <trkpt lat="45.08008" lon="5.52171">
        <ele>964.99584960938</ele>
        <time>2011-08-10T14:19:02Z</time>
      </trkpt>
      <trkpt lat="45.08013" lon="5.52167">
        <ele>964.58728027344</ele>
        <time>2011-08-10T14:19:03Z</time>
      </trkpt>
      <trkpt lat="45.08047" lon="5.52162">
        <ele>964.29028320312</ele>
        <time>2011-08-10T14:19:07Z</time>
      </trkpt>
      <trkpt lat="45.08068" lon="5.52158">
        <ele>964.43908691406</ele>
        <time>2011-08-10T14:19:10Z</time>
      </trkpt>
      <trkpt lat="45.08072" lon="5.52149">
        <ele>965.79779052734</ele>
        <time>2011-08-10T14:19:14Z</time>
      </trkpt>
      <trkpt lat="45.0808" lon="5.52143">
        <ele>966.52691650391</ele>
        <time>2011-08-10T14:19:18Z</time>
      </trkpt>
      <trkpt lat="45.08084" lon="5.52142">
        <ele>966.55163574219</ele>
        <time>2011-08-10T14:19:19Z</time>
      </trkpt>
      <trkpt lat="45.08112" lon="5.52132">
        <ele>966.94982910156</ele>
        <time>2011-08-10T14:19:25Z</time>
      </trkpt>
      <trkpt lat="45.08139" lon="5.52135">
        <ele>965.56134033203</ele>
        <time>2011-08-10T14:19:29Z</time>
      </trkpt>
      <trkpt lat="45.08159" lon="5.52133">
        <ele>965.87719726562</ele>
        <time>2011-08-10T14:19:34Z</time>
      </trkpt>
      <trkpt lat="45.08168" lon="5.5213">
        <ele>966.26477050781</ele>
        <time>2011-08-10T14:19:36Z</time>
      </trkpt>
      <trkpt lat="45.08208" lon="5.52124">
        <ele>964.51647949219</ele>
        <time>2011-08-10T14:19:40Z</time>
      </trkpt>
      <trkpt lat="45.08242" lon="5.52092">
        <ele>961.60815429688</ele>
        <time>2011-08-10T14:19:44Z</time>
      </trkpt>
      <trkpt lat="45.08264" lon="5.52063">
        <ele>962.83367919922</ele>
        <time>2011-08-10T14:19:48Z</time>
      </trkpt>
      <trkpt lat="45.08282" lon="5.52047">
        <ele>963.7607421875</ele>
        <time>2011-08-10T14:19:52Z</time>
      </trkpt>
      <trkpt lat="45.08292" lon="5.52027">
        <ele>964.953125</ele>
        <time>2011-08-10T14:19:57Z</time>
      </trkpt>
      <trkpt lat="45.08312" lon="5.52014">
        <ele>963.61334228516</ele>
        <time>2011-08-10T14:20:02Z</time>
      </trkpt>
      <trkpt lat="45.08327" lon="5.52002">
        <ele>961.96514892578</ele>
        <time>2011-08-10T14:20:07Z</time>
      </trkpt>
      <trkpt lat="45.08339" lon="5.51998">
        <ele>961.61633300781</ele>
        <time>2011-08-10T14:20:12Z</time>
      </trkpt>
      <trkpt lat="45.08357" lon="5.52">
        <ele>960.11395263672</ele>
        <time>2011-08-10T14:20:16Z</time>
      </trkpt>
      <trkpt lat="45.08394" lon="5.52014">
        <ele>957.34130859375</ele>
        <time>2011-08-10T14:20:23Z</time>
      </trkpt>
      <trkpt lat="45.08426" lon="5.52017">
        <ele>957.02825927734</ele>
        <time>2011-08-10T14:20:29Z</time>
      </trkpt>
      <trkpt lat="45.08432" lon="5.52017">
        <ele>957.3349609375</ele>
        <time>2011-08-10T14:20:30Z</time>
      </trkpt>
      <trkpt lat="45.08452" lon="5.52025">
        <ele>956.47088623047</ele>
        <time>2011-08-10T14:20:34Z</time>
      </trkpt>
      <trkpt lat="45.08461" lon="5.52036">
        <ele>954.29028320312</ele>
        <time>2011-08-10T14:20:36Z</time>
      </trkpt>
      <trkpt lat="45.08495" lon="5.52095">
        <ele>941.69415283203</ele>
        <time>2011-08-10T14:20:45Z</time>
      </trkpt>
      <trkpt lat="45.08522" lon="5.52142">
        <ele>938.80529785156</ele>
        <time>2011-08-10T14:20:52Z</time>
      </trkpt>
      <trkpt lat="45.0855" lon="5.52194">
        <ele>936.18890380859</ele>
        <time>2011-08-10T14:20:59Z</time>
      </trkpt>
      <trkpt lat="45.08583" lon="5.52235">
        <ele>934.53308105469</ele>
        <time>2011-08-10T14:21:05Z</time>
      </trkpt>
      <trkpt lat="45.08597" lon="5.52271">
        <ele>933.51513671875</ele>
        <time>2011-08-10T14:21:09Z</time>
      </trkpt>
      <trkpt lat="45.08595" lon="5.52302">
        <ele>933.59753417969</ele>
        <time>2011-08-10T14:21:12Z</time>
      </trkpt>
      <trkpt lat="45.08572" lon="5.52392">
        <ele>933</ele>
        <time>2011-08-10T14:21:21Z</time>
      </trkpt>
      <trkpt lat="45.08559" lon="5.52448">
        <ele>933.01513671875</ele>
        <time>2011-08-10T14:21:27Z</time>
      </trkpt>
      <trkpt lat="45.08557" lon="5.52456">
        <ele>933.01800537109</ele>
        <time>2011-08-10T14:21:28Z</time>
      </trkpt>
      <trkpt lat="45.08546" lon="5.52495">
        <ele>933.56042480469</ele>
        <time>2011-08-10T14:21:33Z</time>
      </trkpt>
      <trkpt lat="45.0853" lon="5.5256">
        <ele>936.59490966797</ele>
        <time>2011-08-10T14:21:41Z</time>
      </trkpt>
      <trkpt lat="45.08522" lon="5.52593">
        <ele>937.78540039062</ele>
        <time>2011-08-10T14:21:45Z</time>
      </trkpt>
      <trkpt lat="45.08496" lon="5.52679">
        <ele>936.87683105469</ele>
        <time>2011-08-10T14:21:56Z</time>
      </trkpt>
      <trkpt lat="45.08493" lon="5.52686">
        <ele>937.96728515625</ele>
        <time>2011-08-10T14:21:57Z</time>
      </trkpt>
      <trkpt lat="45.08475" lon="5.52758">
        <ele>945.77917480469</ele>
        <time>2011-08-10T14:22:06Z</time>
      </trkpt>
      <trkpt lat="45.08463" lon="5.5282">
        <ele>949.0830078125</ele>
        <time>2011-08-10T14:22:13Z</time>
      </trkpt>
      <trkpt lat="45.08451" lon="5.52903">
        <ele>952.27801513672</ele>
        <time>2011-08-10T14:22:22Z</time>
      </trkpt>
      <trkpt lat="45.08443" lon="5.52983">
        <ele>958.81414794922</ele>
        <time>2011-08-10T14:22:31Z</time>
      </trkpt>
      <trkpt lat="45.08431" lon="5.53014">
        <ele>957.67761230469</ele>
        <time>2011-08-10T14:22:35Z</time>
      </trkpt>
      <trkpt lat="45.08401" lon="5.53064">
        <ele>958.20776367188</ele>
        <time>2011-08-10T14:22:42Z</time>
      </trkpt>
      <trkpt lat="45.08362" lon="5.53108">
        <ele>957.69134521484</ele>
        <time>2011-08-10T14:22:49Z</time>
      </trkpt>
      <trkpt lat="45.08312" lon="5.53156">
        <ele>954.78399658203</ele>
        <time>2011-08-10T14:22:57Z</time>
      </trkpt>
      <trkpt lat="45.08244" lon="5.53215">
        <ele>948.94604492188</ele>
        <time>2011-08-10T14:23:08Z</time>
      </trkpt>
      <trkpt lat="45.08184" lon="5.53265">
        <ele>945.69836425781</ele>
        <time>2011-08-10T14:23:18Z</time>
      </trkpt>
      <trkpt lat="45.08133" lon="5.53294">
        <ele>947.89581298828</ele>
        <time>2011-08-10T14:23:26Z</time>
      </trkpt>
      <trkpt lat="45.08054" lon="5.53338">
        <ele>947.123046875</ele>
        <time>2011-08-10T14:23:38Z</time>
      </trkpt>
      <trkpt lat="45.07999" lon="5.53374">
        <ele>947.80511474609</ele>
        <time>2011-08-10T14:23:47Z</time>
      </trkpt>
      <trkpt lat="45.07956" lon="5.53403">
        <ele>948.8525390625</ele>
        <time>2011-08-10T14:23:55Z</time>
      </trkpt>
      <trkpt lat="45.07919" lon="5.53437">
        <ele>948.38702392578</ele>
        <time>2011-08-10T14:24:04Z</time>
      </trkpt>
      <trkpt lat="45.07912" lon="5.53445">
        <ele>949.55584716797</ele>
        <time>2011-08-10T14:24:06Z</time>
      </trkpt>
      <trkpt lat="45.07882" lon="5.5349">
        <ele>954.07177734375</ele>
        <time>2011-08-10T14:24:15Z</time>
      </trkpt>
      <trkpt lat="45.0784" lon="5.53552">
        <ele>953.88061523438</ele>
        <time>2011-08-10T14:24:26Z</time>
      </trkpt>
      <trkpt lat="45.07813" lon="5.53598">
        <ele>958.18060302734</ele>
        <time>2011-08-10T14:24:34Z</time>
      </trkpt>
      <trkpt lat="45.07792" lon="5.53641">
        <ele>961.58367919922</ele>
        <time>2011-08-10T14:24:41Z</time>
      </trkpt>
      <trkpt lat="45.07784" lon="5.53654">
        <ele>961.19866943359</ele>
        <time>2011-08-10T14:24:43Z</time>
      </trkpt>
      <trkpt lat="45.07775" lon="5.53666">
        <ele>959.56634521484</ele>
        <time>2011-08-10T14:24:45Z</time>
      </trkpt>
      <trkpt lat="45.07747" lon="5.53683">
        <ele>958.41125488281</ele>
        <time>2011-08-10T14:24:50Z</time>
      </trkpt>
      <trkpt lat="45.07735" lon="5.53685">
        <ele>958.05200195312</ele>
        <time>2011-08-10T14:24:52Z</time>
      </trkpt>
      <trkpt lat="45.07684" lon="5.53688">
        <ele>956.52502441406</ele>
        <time>2011-08-10T14:25:01Z</time>
      </trkpt>
      <trkpt lat="45.07634" lon="5.53695">
        <ele>960.52838134766</ele>
        <time>2011-08-10T14:25:10Z</time>
      </trkpt>
      <trkpt lat="45.0761" lon="5.5372">
        <ele>960.40380859375</ele>
        <time>2011-08-10T14:25:15Z</time>
      </trkpt>
      <trkpt lat="45.076" lon="5.53746">
        <ele>958.10327148438</ele>
        <time>2011-08-10T14:25:18Z</time>
      </trkpt>
      <trkpt lat="45.07587" lon="5.53793">
        <ele>953.30426025391</ele>
        <time>2011-08-10T14:25:23Z</time>
      </trkpt>
      <trkpt lat="45.07562" lon="5.53833">
        <ele>948.55004882812</ele>
        <time>2011-08-10T14:25:28Z</time>
      </trkpt>
      <trkpt lat="45.07556" lon="5.53838">
        <ele>948.52239990234</ele>
        <time>2011-08-10T14:25:29Z</time>
      </trkpt>
      <trkpt lat="45.07486" lon="5.53889">
        <ele>949.01049804688</ele>
        <time>2011-08-10T14:25:40Z</time>
      </trkpt>
      <trkpt lat="45.07438" lon="5.53926">
        <ele>949.99609375</ele>
        <time>2011-08-10T14:25:48Z</time>
      </trkpt>
      <trkpt lat="45.07389" lon="5.5396">
        <ele>949.57659912109</ele>
        <time>2011-08-10T14:25:56Z</time>
      </trkpt>
      <trkpt lat="45.07345" lon="5.53992">
        <ele>950.12835693359</ele>
        <time>2011-08-10T14:26:04Z</time>
      </trkpt>
      <trkpt lat="45.07324" lon="5.54007">
        <ele>953.21905517578</ele>
        <time>2011-08-10T14:26:08Z</time>
      </trkpt>
      <trkpt lat="45.07305" lon="5.54038">
        <ele>960.50988769531</ele>
        <time>2011-08-10T14:26:13Z</time>
      </trkpt>
      <trkpt lat="45.07309" lon="5.54056">
        <ele>959.78997802734</ele>
        <time>2011-08-10T14:26:15Z</time>
      </trkpt>
      <trkpt lat="45.07326" lon="5.54072">
        <ele>955.49157714844</ele>
        <time>2011-08-10T14:26:18Z</time>
      </trkpt>
      <trkpt lat="45.07339" lon="5.54076">
        <ele>954.63958740234</ele>
        <time>2011-08-10T14:26:20Z</time>
      </trkpt>
      <trkpt lat="45.07361" lon="5.54081">
        <ele>959.69140625</ele>
        <time>2011-08-10T14:26:23Z</time>
      </trkpt>
      <trkpt lat="45.07385" lon="5.54102">
        <ele>964.62805175781</ele>
        <time>2011-08-10T14:26:27Z</time>
      </trkpt>
      <trkpt lat="45.07392" lon="5.5413">
        <ele>964.77911376953</ele>
        <time>2011-08-10T14:26:30Z</time>
      </trkpt>
      <trkpt lat="45.07388" lon="5.54159">
        <ele>963.9521484375</ele>
        <time>2011-08-10T14:26:33Z</time>
      </trkpt>
      <trkpt lat="45.07377" lon="5.54193">
        <ele>964.62603759766</ele>
        <time>2011-08-10T14:26:37Z</time>
      </trkpt>
      <trkpt lat="45.0736" lon="5.54266">
        <ele>967.50970458984</ele>
        <time>2011-08-10T14:26:46Z</time>
      </trkpt>
      <trkpt lat="45.07344" lon="5.54313">
        <ele>965.48828125</ele>
        <time>2011-08-10T14:26:52Z</time>
      </trkpt>
      <trkpt lat="45.07335" lon="5.54326">
        <ele>961.98181152344</ele>
        <time>2011-08-10T14:26:54Z</time>
      </trkpt>
      <trkpt lat="45.07302" lon="5.54359">
        <ele>975.939453125</ele>
        <time>2011-08-10T14:27:00Z</time>
      </trkpt>
      <trkpt lat="45.07292" lon="5.54397">
        <ele>985.12182617188</ele>
        <time>2011-08-10T14:27:05Z</time>
      </trkpt>
      <trkpt lat="45.07305" lon="5.54423">
        <ele>984.68078613281</ele>
        <time>2011-08-10T14:27:08Z</time>
      </trkpt>
      <trkpt lat="45.07322" lon="5.54447">
        <ele>979.26263427734</ele>
        <time>2011-08-10T14:27:11Z</time>
      </trkpt>
      <trkpt lat="45.07336" lon="5.54461">
        <ele>977.41943359375</ele>
        <time>2011-08-10T14:27:13Z</time>
      </trkpt>
      <trkpt lat="45.07349" lon="5.54473">
        <ele>982.01635742188</ele>
        <time>2011-08-10T14:27:15Z</time>
      </trkpt>
      <trkpt lat="45.07365" lon="5.54497">
        <ele>985.47814941406</ele>
        <time>2011-08-10T14:27:19Z</time>
      </trkpt>
      <trkpt lat="45.07374" lon="5.54537">
        <ele>981.1416015625</ele>
        <time>2011-08-10T14:27:24Z</time>
      </trkpt>
      <trkpt lat="45.07384" lon="5.54589">
        <ele>974.34765625</ele>
        <time>2011-08-10T14:27:30Z</time>
      </trkpt>
      <trkpt lat="45.07382" lon="5.54623">
        <ele>969.44555664062</ele>
        <time>2011-08-10T14:27:34Z</time>
      </trkpt>
      <trkpt lat="45.07365" lon="5.5466">
        <ele>963.66217041016</ele>
        <time>2011-08-10T14:27:39Z</time>
      </trkpt>
      <trkpt lat="45.07347" lon="5.5467">
        <ele>963.10284423828</ele>
        <time>2011-08-10T14:27:42Z</time>
      </trkpt>
      <trkpt lat="45.07328" lon="5.54667">
        <ele>963.17895507812</ele>
        <time>2011-08-10T14:27:45Z</time>
      </trkpt>
      <trkpt lat="45.07267" lon="5.54641">
        <ele>966.31860351562</ele>
        <time>2011-08-10T14:27:54Z</time>
      </trkpt>
      <trkpt lat="45.07205" lon="5.54618">
        <ele>967.76312255859</ele>
        <time>2011-08-10T14:28:03Z</time>
      </trkpt>
      <trkpt lat="45.07154" lon="5.54599">
        <ele>969.44635009766</ele>
        <time>2011-08-10T14:28:11Z</time>
      </trkpt>
      <trkpt lat="45.07098" lon="5.54578">
        <ele>972.17022705078</ele>
        <time>2011-08-10T14:28:20Z</time>
      </trkpt>
      <trkpt lat="45.07041" lon="5.54559">
        <ele>979.04095458984</ele>
        <time>2011-08-10T14:28:29Z</time>
      </trkpt>
      <trkpt lat="45.06991" lon="5.5454">
        <ele>985.70733642578</ele>
        <time>2011-08-10T14:28:37Z</time>
      </trkpt>
      <trkpt lat="45.06936" lon="5.5452">
        <ele>992.67633056641</ele>
        <time>2011-08-10T14:28:46Z</time>
      </trkpt>
      <trkpt lat="45.06885" lon="5.54515">
        <ele>997.60327148438</ele>
        <time>2011-08-10T14:28:54Z</time>
      </trkpt>
      <trkpt lat="45.0685" lon="5.54518">
        <ele>999.86419677734</ele>
        <time>2011-08-10T14:29:00Z</time>
      </trkpt>
      <trkpt lat="45.06816" lon="5.54526">
        <ele>999.1416015625</ele>
        <time>2011-08-10T14:29:06Z</time>
      </trkpt>
      <trkpt lat="45.06775" lon="5.54547">
        <ele>993.74523925781</ele>
        <time>2011-08-10T14:29:14Z</time>
      </trkpt>
      <trkpt lat="45.06744" lon="5.54568">
        <ele>986.95690917969</ele>
        <time>2011-08-10T14:29:20Z</time>
      </trkpt>
      <trkpt lat="45.0673" lon="5.5458">
        <ele>982.48168945312</ele>
        <time>2011-08-10T14:29:23Z</time>
      </trkpt>
      <trkpt lat="45.06714" lon="5.54587">
        <ele>980.7578125</ele>
        <time>2011-08-10T14:29:26Z</time>
      </trkpt>
      <trkpt lat="45.06699" lon="5.54596">
        <ele>980.12268066406</ele>
        <time>2011-08-10T14:29:29Z</time>
      </trkpt>
      <trkpt lat="45.06655" lon="5.54616">
        <ele>978.81292724609</ele>
        <time>2011-08-10T14:29:37Z</time>
      </trkpt>
      <trkpt lat="45.06596" lon="5.54631">
        <ele>979.82843017578</ele>
        <time>2011-08-10T14:29:46Z</time>
      </trkpt>
      <trkpt lat="45.06544" lon="5.5462">
        <ele>979.39489746094</ele>
        <time>2011-08-10T14:29:54Z</time>
      </trkpt>
      <trkpt lat="45.06496" lon="5.5461">
        <ele>980.1640625</ele>
        <time>2011-08-10T14:30:02Z</time>
      </trkpt>
      <trkpt lat="45.06454" lon="5.546">
        <ele>982.69891357422</ele>
        <time>2011-08-10T14:30:10Z</time>
      </trkpt>
      <trkpt lat="45.06444" lon="5.54598">
        <ele>983.48974609375</ele>
        <time>2011-08-10T14:30:12Z</time>
      </trkpt>
      <trkpt lat="45.06406" lon="5.5459">
        <ele>986.85955810547</ele>
        <time>2011-08-10T14:30:20Z</time>
      </trkpt>
      <trkpt lat="45.0637" lon="5.5459">
        <ele>988.68939208984</ele>
        <time>2011-08-10T14:30:27Z</time>
      </trkpt>
      <trkpt lat="45.06338" lon="5.54598">
        <ele>989.70037841797</ele>
        <time>2011-08-10T14:30:33Z</time>
      </trkpt>
      <trkpt lat="45.06308" lon="5.54613">
        <ele>988.69635009766</ele>
        <time>2011-08-10T14:30:39Z</time>
      </trkpt>
      <trkpt lat="45.06266" lon="5.54648">
        <ele>988.2744140625</ele>
        <time>2011-08-10T14:30:47Z</time>
      </trkpt>
      <trkpt lat="45.06227" lon="5.54677">
        <ele>988.61737060547</ele>
        <time>2011-08-10T14:30:54Z</time>
      </trkpt>
      <trkpt lat="45.06198" lon="5.54686">
        <ele>988.54705810547</ele>
        <time>2011-08-10T14:30:59Z</time>
      </trkpt>
      <trkpt lat="45.06193" lon="5.54687">
        <ele>988.58740234375</ele>
        <time>2011-08-10T14:31:00Z</time>
      </trkpt>
      <trkpt lat="45.0615" lon="5.54678">
        <ele>990.17633056641</ele>
        <time>2011-08-10T14:31:07Z</time>
      </trkpt>
      <trkpt lat="45.061" lon="5.54653">
        <ele>992.46301269531</ele>
        <time>2011-08-10T14:31:15Z</time>
      </trkpt>
      <trkpt lat="45.06047" lon="5.5462">
        <ele>994.38208007812</ele>
        <time>2011-08-10T14:31:24Z</time>
      </trkpt>
      <trkpt lat="45.05994" lon="5.54575">
        <ele>996.86755371094</ele>
        <time>2011-08-10T14:31:34Z</time>
      </trkpt>
      <trkpt lat="45.0596" lon="5.54546">
        <ele>999.55139160156</ele>
        <time>2011-08-10T14:31:41Z</time>
      </trkpt>
      <trkpt lat="45.05922" lon="5.54527">
        <ele>1001.0537109375</ele>
        <time>2011-08-10T14:31:48Z</time>
      </trkpt>
      <trkpt lat="45.05881" lon="5.54522">
        <ele>1001.9254150391</ele>
        <time>2011-08-10T14:31:55Z</time>
      </trkpt>
      <trkpt lat="45.05828" lon="5.5452">
        <ele>1003.6288452148</ele>
        <time>2011-08-10T14:32:04Z</time>
      </trkpt>
      <trkpt lat="45.05764" lon="5.54516">
        <ele>1001.6439819336</ele>
        <time>2011-08-10T14:32:14Z</time>
      </trkpt>
      <trkpt lat="45.05736" lon="5.5451">
        <ele>1002.8461914062</ele>
        <time>2011-08-10T14:32:19Z</time>
      </trkpt>
      <trkpt lat="45.05733" lon="5.54509">
        <ele>1003.0862426758</ele>
        <time>2011-08-10T14:32:22Z</time>
      </trkpt>
      <trkpt lat="45.05733" lon="5.54512">
        <ele>1003.0499267578</ele>
        <time>2011-08-10T14:32:36Z</time>
      </trkpt>
      <trkpt lat="45.05735" lon="5.54519">
        <ele>1002.80859375</ele>
        <time>2011-08-10T14:32:41Z</time>
      </trkpt>
      <trkpt lat="45.05735" lon="5.54522">
        <ele>1002.6759033203</ele>
        <time>2011-08-10T14:32:46Z</time>
      </trkpt>
      <trkpt lat="45.05735" lon="5.54519">
        <ele>1002.7255859375</ele>
        <time>2011-08-10T14:33:31Z</time>
      </trkpt>
      <trkpt lat="45.05728" lon="5.5451">
        <ele>1003.493347168</ele>
        <time>2011-08-10T14:33:36Z</time>
      </trkpt>
      <trkpt lat="45.05726" lon="5.54509">
        <ele>1003.6932373047</ele>
        <time>2011-08-10T14:33:37Z</time>
      </trkpt>
      <trkpt lat="45.05703" lon="5.54505">
        <ele>1005.5361938477</ele>
        <time>2011-08-10T14:33:44Z</time>
      </trkpt>
      <trkpt lat="45.05682" lon="5.54499">
        <ele>1007.100402832</ele>
        <time>2011-08-10T14:33:49Z</time>
      </trkpt>
      <trkpt lat="45.05677" lon="5.54498">
        <ele>1007.7458496094</ele>
        <time>2011-08-10T14:33:50Z</time>
      </trkpt>
      <trkpt lat="45.05637" lon="5.54503">
        <ele>1011.48046875</ele>
        <time>2011-08-10T14:33:57Z</time>
      </trkpt>
      <trkpt lat="45.05613" lon="5.54506">
        <ele>1014.4876708984</ele>
        <time>2011-08-10T14:34:01Z</time>
      </trkpt>
      <trkpt lat="45.0557" lon="5.54515">
        <ele>1020.2813720703</ele>
        <time>2011-08-10T14:34:07Z</time>
      </trkpt>
      <trkpt lat="45.05548" lon="5.5452">
        <ele>1021.9899291992</ele>
        <time>2011-08-10T14:34:10Z</time>
      </trkpt>
      <trkpt lat="45.05502" lon="5.54515">
        <ele>1024.4340820312</ele>
        <time>2011-08-10T14:34:17Z</time>
      </trkpt>
      <trkpt lat="45.05464" lon="5.54502">
        <ele>1020.275390625</ele>
        <time>2011-08-10T14:34:23Z</time>
      </trkpt>
      <trkpt lat="45.05416" lon="5.545">
        <ele>1015.9808349609</ele>
        <time>2011-08-10T14:34:31Z</time>
      </trkpt>
      <trkpt lat="45.05376" lon="5.54503">
        <ele>1013.7753295898</ele>
        <time>2011-08-10T14:34:38Z</time>
      </trkpt>
      <trkpt lat="45.05358" lon="5.54502">
        <ele>1013.0067749023</ele>
        <time>2011-08-10T14:34:41Z</time>
      </trkpt>
      <trkpt lat="45.05322" lon="5.5448">
        <ele>1017.5051269531</ele>
        <time>2011-08-10T14:34:48Z</time>
      </trkpt>
      <trkpt lat="45.05317" lon="5.54476">
        <ele>1018.5505981445</ele>
        <time>2011-08-10T14:34:49Z</time>
      </trkpt>
      <trkpt lat="45.05306" lon="5.54469">
        <ele>1020.7626342773</ele>
        <time>2011-08-10T14:34:51Z</time>
      </trkpt>
      <trkpt lat="45.05295" lon="5.54461">
        <ele>1022.9590454102</ele>
        <time>2011-08-10T14:34:55Z</time>
      </trkpt>
      <trkpt lat="45.05294" lon="5.54462">
        <ele>1022.7152099609</ele>
        <time>2011-08-10T14:35:00Z</time>
      </trkpt>
      <trkpt lat="45.05296" lon="5.54472">
        <ele>1020.372253418</ele>
        <time>2011-08-10T14:35:05Z</time>
      </trkpt>
      <trkpt lat="45.05298" lon="5.54473">
        <ele>1020.0384521484</ele>
        <time>2011-08-10T14:35:06Z</time>
      </trkpt>
      <trkpt lat="45.05309" lon="5.5448">
        <ele>1017.9102783203</ele>
        <time>2011-08-10T14:35:11Z</time>
      </trkpt>
      <trkpt lat="45.05323" lon="5.54491">
        <ele>1014.5680541992</ele>
        <time>2011-08-10T14:35:16Z</time>
      </trkpt>
      <trkpt lat="45.05341" lon="5.545">
        <ele>1012.3335571289</ele>
        <time>2011-08-10T14:35:20Z</time>
      </trkpt>
      <trkpt lat="45.0538" lon="5.54508">
        <ele>1014.2731933594</ele>
        <time>2011-08-10T14:35:27Z</time>
      </trkpt>
      <trkpt lat="45.05389" lon="5.54509">
        <ele>1014.6542358398</ele>
        <time>2011-08-10T14:35:29Z</time>
      </trkpt>
      <trkpt lat="45.05419" lon="5.54507">
        <ele>1016.7052612305</ele>
        <time>2011-08-10T14:35:35Z</time>
      </trkpt>
      <trkpt lat="45.05462" lon="5.54508">
        <ele>1020.4779052734</ele>
        <time>2011-08-10T14:35:41Z</time>
      </trkpt>
      <trkpt lat="45.05509" lon="5.54521">
        <ele>1024.34765625</ele>
        <time>2011-08-10T14:35:47Z</time>
      </trkpt>
      <trkpt lat="45.05549" lon="5.54526">
        <ele>1022.3744506836</ele>
        <time>2011-08-10T14:35:52Z</time>
      </trkpt>
      <trkpt lat="45.0559" lon="5.54519">
        <ele>1019.0718994141</ele>
        <time>2011-08-10T14:35:57Z</time>
      </trkpt>
      <trkpt lat="45.05656" lon="5.54506">
        <ele>1009.6138916016</ele>
        <time>2011-08-10T14:36:05Z</time>
      </trkpt>
      <trkpt lat="45.05672" lon="5.54504">
        <ele>1007.8963012695</ele>
        <time>2011-08-10T14:36:07Z</time>
      </trkpt>
      <trkpt lat="45.05718" lon="5.54514">
        <ele>1004.3576660156</ele>
        <time>2011-08-10T14:36:13Z</time>
      </trkpt>
      <trkpt lat="45.0574" lon="5.54519">
        <ele>1002.3261108398</ele>
        <time>2011-08-10T14:36:17Z</time>
      </trkpt>
      <trkpt lat="45.05743" lon="5.54522">
        <ele>1001.9001464844</ele>
        <time>2011-08-10T14:36:20Z</time>
      </trkpt>
      <trkpt lat="45.05743" lon="5.54523">
        <ele>1001.8795776367</ele>
        <time>2011-08-10T14:36:29Z</time>
      </trkpt>
      <trkpt lat="45.05736" lon="5.54529">
        <ele>1002.4946899414</ele>
        <time>2011-08-10T14:36:35Z</time>
      </trkpt>
      <trkpt lat="45.05722" lon="5.54528">
        <ele>1003.9778442383</ele>
        <time>2011-08-10T14:36:42Z</time>
      </trkpt>
      <trkpt lat="45.05698" lon="5.54528">
        <ele>1006.5801391602</ele>
        <time>2011-08-10T14:36:51Z</time>
      </trkpt>
      <trkpt lat="45.05676" lon="5.54529">
        <ele>1009.0356445312</ele>
        <time>2011-08-10T14:36:59Z</time>
      </trkpt>
      <trkpt lat="45.05662" lon="5.54532">
        <ele>1010.7864990234</ele>
        <time>2011-08-10T14:37:04Z</time>
      </trkpt>
      <trkpt lat="45.05648" lon="5.54534">
        <ele>1012.5250854492</ele>
        <time>2011-08-10T14:37:09Z</time>
      </trkpt>
      <trkpt lat="45.05634" lon="5.54534">
        <ele>1014.311706543</ele>
        <time>2011-08-10T14:37:14Z</time>
      </trkpt>
      <trkpt lat="45.05614" lon="5.5454">
        <ele>1017.8565673828</ele>
        <time>2011-08-10T14:37:22Z</time>
      </trkpt>
      <trkpt lat="45.05599" lon="5.54544">
        <ele>1020.4880981445</ele>
        <time>2011-08-10T14:37:28Z</time>
      </trkpt>
      <trkpt lat="45.05582" lon="5.5455">
        <ele>1023.3897094727</ele>
        <time>2011-08-10T14:37:35Z</time>
      </trkpt>
      <trkpt lat="45.05564" lon="5.54558">
        <ele>1024.2115478516</ele>
        <time>2011-08-10T14:37:43Z</time>
      </trkpt>
      <trkpt lat="45.05548" lon="5.54561">
        <ele>1025.0344238281</ele>
        <time>2011-08-10T14:37:49Z</time>
      </trkpt>
      <trkpt lat="45.05529" lon="5.54566">
        <ele>1026.6512451172</ele>
        <time>2011-08-10T14:37:57Z</time>
      </trkpt>
      <trkpt lat="45.05515" lon="5.54569">
        <ele>1027.3974609375</ele>
        <time>2011-08-10T14:38:03Z</time>
      </trkpt>
      <trkpt lat="45.05501" lon="5.54571">
        <ele>1028.0394287109</ele>
        <time>2011-08-10T14:38:09Z</time>
      </trkpt>
      <trkpt lat="45.05484" lon="5.54576">
        <ele>1027.3422851562</ele>
        <time>2011-08-10T14:38:17Z</time>
      </trkpt>
      <trkpt lat="45.05473" lon="5.54581">
        <ele>1026.8548583984</ele>
        <time>2011-08-10T14:38:22Z</time>
      </trkpt>
      <trkpt lat="45.05459" lon="5.54589">
        <ele>1027.5812988281</ele>
        <time>2011-08-10T14:38:29Z</time>
      </trkpt>
      <trkpt lat="45.05445" lon="5.54598">
        <ele>1029.1606445312</ele>
        <time>2011-08-10T14:38:37Z</time>
      </trkpt>
      <trkpt lat="45.05431" lon="5.54607">
        <ele>1030.7947998047</ele>
        <time>2011-08-10T14:38:44Z</time>
      </trkpt>
      <trkpt lat="45.05415" lon="5.54616">
        <ele>1032.419921875</ele>
        <time>2011-08-10T14:38:51Z</time>
      </trkpt>
      <trkpt lat="45.054" lon="5.54626">
        <ele>1033.7362060547</ele>
        <time>2011-08-10T14:38:58Z</time>
      </trkpt>
      <trkpt lat="45.05379" lon="5.54639">
        <ele>1035.5913085938</ele>
        <time>2011-08-10T14:39:06Z</time>
      </trkpt>
      <trkpt lat="45.05359" lon="5.54652">
        <ele>1038.1136474609</ele>
        <time>2011-08-10T14:39:14Z</time>
      </trkpt>
      <trkpt lat="45.05345" lon="5.54667">
        <ele>1040.8741455078</ele>
        <time>2011-08-10T14:39:21Z</time>
      </trkpt>
      <trkpt lat="45.05332" lon="5.54679">
        <ele>1042.8542480469</ele>
        <time>2011-08-10T14:39:28Z</time>
      </trkpt>
      <trkpt lat="45.05311" lon="5.54694">
        <ele>1047.4715576172</ele>
        <time>2011-08-10T14:39:35Z</time>
      </trkpt>
      <trkpt lat="45.05296" lon="5.54704">
        <ele>1049.9876708984</ele>
        <time>2011-08-10T14:39:41Z</time>
      </trkpt>
      <trkpt lat="45.05283" lon="5.54711">
        <ele>1051.3328857422</ele>
        <time>2011-08-10T14:39:47Z</time>
      </trkpt>
      <trkpt lat="45.0527" lon="5.54715">
        <ele>1052.3953857422</ele>
        <time>2011-08-10T14:39:54Z</time>
      </trkpt>
      <trkpt lat="45.05252" lon="5.54713">
        <ele>1052.9085693359</ele>
        <time>2011-08-10T14:40:01Z</time>
      </trkpt>
      <trkpt lat="45.05239" lon="5.54705">
        <ele>1053.1496582031</ele>
        <time>2011-08-10T14:40:07Z</time>
      </trkpt>
      <trkpt lat="45.0523" lon="5.54696">
        <ele>1053.2436523438</ele>
        <time>2011-08-10T14:40:12Z</time>
      </trkpt>
      <trkpt lat="45.05215" lon="5.54682">
        <ele>1054.0397949219</ele>
        <time>2011-08-10T14:40:20Z</time>
      </trkpt>
      <trkpt lat="45.05198" lon="5.5467">
        <ele>1055.6557617188</ele>
        <time>2011-08-10T14:40:27Z</time>
      </trkpt>
      <trkpt lat="45.05182" lon="5.54667">
        <ele>1057.8170166016</ele>
        <time>2011-08-10T14:40:32Z</time>
      </trkpt>
      <trkpt lat="45.05151" lon="5.54674">
        <ele>1060.564453125</ele>
        <time>2011-08-10T14:40:41Z</time>
      </trkpt>
      <trkpt lat="45.0511" lon="5.54692">
        <ele>1062.9826660156</ele>
        <time>2011-08-10T14:40:53Z</time>
      </trkpt>
      <trkpt lat="45.0508" lon="5.54704">
        <ele>1065.3839111328</ele>
        <time>2011-08-10T14:41:02Z</time>
      </trkpt>
      <trkpt lat="45.05054" lon="5.54716">
        <ele>1066.5816650391</ele>
        <time>2011-08-10T14:41:10Z</time>
      </trkpt>
      <trkpt lat="45.05029" lon="5.54726">
        <ele>1068.4051513672</ele>
        <time>2011-08-10T14:41:18Z</time>
      </trkpt>
      <trkpt lat="45.05007" lon="5.54737">
        <ele>1071.1375732422</ele>
        <time>2011-08-10T14:41:26Z</time>
      </trkpt>
      <trkpt lat="45.04989" lon="5.54744">
        <ele>1072.3010253906</ele>
        <time>2011-08-10T14:41:32Z</time>
      </trkpt>
      <trkpt lat="45.04973" lon="5.54751">
        <ele>1073.046875</ele>
        <time>2011-08-10T14:41:37Z</time>
      </trkpt>
      <trkpt lat="45.0495" lon="5.54762">
        <ele>1073.4467773438</ele>
        <time>2011-08-10T14:41:44Z</time>
      </trkpt>
      <trkpt lat="45.04924" lon="5.54775">
        <ele>1075.2937011719</ele>
        <time>2011-08-10T14:41:51Z</time>
      </trkpt>
      <trkpt lat="45.04893" lon="5.54793">
        <ele>1074.5504150391</ele>
        <time>2011-08-10T14:41:59Z</time>
      </trkpt>
      <trkpt lat="45.04861" lon="5.54816">
        <ele>1074.1944580078</ele>
        <time>2011-08-10T14:42:08Z</time>
      </trkpt>
      <trkpt lat="45.04826" lon="5.54845">
        <ele>1074.0852050781</ele>
        <time>2011-08-10T14:42:18Z</time>
      </trkpt>
      <trkpt lat="45.04811" lon="5.5487">
        <ele>1074.8542480469</ele>
        <time>2011-08-10T14:42:24Z</time>
      </trkpt>
      <trkpt lat="45.04795" lon="5.54911">
        <ele>1079.7850341797</ele>
        <time>2011-08-10T14:42:32Z</time>
      </trkpt>
      <trkpt lat="45.04778" lon="5.54953">
        <ele>1082.2971191406</ele>
        <time>2011-08-10T14:42:41Z</time>
      </trkpt>
      <trkpt lat="45.04763" lon="5.54997">
        <ele>1085.9294433594</ele>
        <time>2011-08-10T14:42:50Z</time>
      </trkpt>
      <trkpt lat="45.0476" lon="5.55036">
        <ele>1087.7318115234</ele>
        <time>2011-08-10T14:42:57Z</time>
      </trkpt>
      <trkpt lat="45.04763" lon="5.55079">
        <ele>1092.0295410156</ele>
        <time>2011-08-10T14:43:05Z</time>
      </trkpt>
      <trkpt lat="45.04766" lon="5.55116">
        <ele>1095.513671875</ele>
        <time>2011-08-10T14:43:12Z</time>
      </trkpt>
      <trkpt lat="45.0477" lon="5.55167">
        <ele>1100.7392578125</ele>
        <time>2011-08-10T14:43:22Z</time>
      </trkpt>
      <trkpt lat="45.04773" lon="5.55189">
        <ele>1102.3100585938</ele>
        <time>2011-08-10T14:43:27Z</time>
      </trkpt>
      <trkpt lat="45.04776" lon="5.5522">
        <ele>1105.1458740234</ele>
        <time>2011-08-10T14:43:33Z</time>
      </trkpt>
      <trkpt lat="45.04779" lon="5.55256">
        <ele>1108.4946289062</ele>
        <time>2011-08-10T14:43:41Z</time>
      </trkpt>
      <trkpt lat="45.04783" lon="5.55288">
        <ele>1111.4226074219</ele>
        <time>2011-08-10T14:43:49Z</time>
      </trkpt>
      <trkpt lat="45.04786" lon="5.55321">
        <ele>1114.5306396484</ele>
        <time>2011-08-10T14:43:57Z</time>
      </trkpt>
      <trkpt lat="45.04789" lon="5.55348">
        <ele>1117.0732421875</ele>
        <time>2011-08-10T14:44:04Z</time>
      </trkpt>
      <trkpt lat="45.04792" lon="5.55378">
        <ele>1119.6024169922</ele>
        <time>2011-08-10T14:44:12Z</time>
      </trkpt>
      <trkpt lat="45.04794" lon="5.55399">
        <ele>1120.9075927734</ele>
        <time>2011-08-10T14:44:17Z</time>
      </trkpt>
      <trkpt lat="45.04799" lon="5.55432">
        <ele>1123.5407714844</ele>
        <time>2011-08-10T14:44:26Z</time>
      </trkpt>
      <trkpt lat="45.04804" lon="5.5546">
        <ele>1125.3366699219</ele>
        <time>2011-08-10T14:44:34Z</time>
      </trkpt>
      <trkpt lat="45.04808" lon="5.55483">
        <ele>1126.5832519531</ele>
        <time>2011-08-10T14:44:40Z</time>
      </trkpt>
      <trkpt lat="45.04813" lon="5.55512">
        <ele>1127.9853515625</ele>
        <time>2011-08-10T14:44:47Z</time>
      </trkpt>
      <trkpt lat="45.04821" lon="5.55535">
        <ele>1129.4534912109</ele>
        <time>2011-08-10T14:44:54Z</time>
      </trkpt>
      <trkpt lat="45.04828" lon="5.55557">
        <ele>1130.8623046875</ele>
        <time>2011-08-10T14:45:01Z</time>
      </trkpt>
      <trkpt lat="45.04835" lon="5.55579">
        <ele>1132.20703125</ele>
        <time>2011-08-10T14:45:08Z</time>
      </trkpt>
      <trkpt lat="45.04844" lon="5.55597">
        <ele>1135.6645507812</ele>
        <time>2011-08-10T14:45:15Z</time>
      </trkpt>
      <trkpt lat="45.04851" lon="5.55616">
        <ele>1138.5557861328</ele>
        <time>2011-08-10T14:45:22Z</time>
      </trkpt>
      <trkpt lat="45.04858" lon="5.5563">
        <ele>1140.8571777344</ele>
        <time>2011-08-10T14:45:28Z</time>
      </trkpt>
      <trkpt lat="45.04859" lon="5.55656">
        <ele>1142.9841308594</ele>
        <time>2011-08-10T14:45:36Z</time>
      </trkpt>
      <trkpt lat="45.04851" lon="5.55667">
        <ele>1142.9794921875</ele>
        <time>2011-08-10T14:45:41Z</time>
      </trkpt>
      <trkpt lat="45.04839" lon="5.55668">
        <ele>1141.8062744141</ele>
        <time>2011-08-10T14:45:46Z</time>
      </trkpt>
      <trkpt lat="45.04817" lon="5.55664">
        <ele>1140.1070556641</ele>
        <time>2011-08-10T14:45:54Z</time>
      </trkpt>
      <trkpt lat="45.04792" lon="5.55668">
        <ele>1139.8286132812</ele>
        <time>2011-08-10T14:46:02Z</time>
      </trkpt>
      <trkpt lat="45.0477" lon="5.55676">
        <ele>1140.6770019531</ele>
        <time>2011-08-10T14:46:09Z</time>
      </trkpt>
      <trkpt lat="45.04735" lon="5.5568">
        <ele>1142.1871337891</ele>
        <time>2011-08-10T14:46:19Z</time>
      </trkpt>
      <trkpt lat="45.04696" lon="5.5568">
        <ele>1143.7979736328</ele>
        <time>2011-08-10T14:46:29Z</time>
      </trkpt>
      <trkpt lat="45.04665" lon="5.55663">
        <ele>1141.380859375</ele>
        <time>2011-08-10T14:46:37Z</time>
      </trkpt>
      <trkpt lat="45.04637" lon="5.55651">
        <ele>1137.6318359375</ele>
        <time>2011-08-10T14:46:44Z</time>
      </trkpt>
      <trkpt lat="45.04617" lon="5.55656">
        <ele>1136.9794921875</ele>
        <time>2011-08-10T14:46:49Z</time>
      </trkpt>
      <trkpt lat="45.04609" lon="5.55678">
        <ele>1139.0423583984</ele>
        <time>2011-08-10T14:46:53Z</time>
      </trkpt>
      <trkpt lat="45.04614" lon="5.55702">
        <ele>1142.5723876953</ele>
        <time>2011-08-10T14:46:57Z</time>
      </trkpt>
      <trkpt lat="45.04616" lon="5.55707">
        <ele>1143.5859375</ele>
        <time>2011-08-10T14:46:58Z</time>
      </trkpt>
      <trkpt lat="45.04622" lon="5.55728">
        <ele>1147.9920654297</ele>
        <time>2011-08-10T14:47:03Z</time>
      </trkpt>
      <trkpt lat="45.04625" lon="5.55744">
        <ele>1151.2265625</ele>
        <time>2011-08-10T14:47:06Z</time>
      </trkpt>
      <trkpt lat="45.04626" lon="5.55775">
        <ele>1154.6467285156</ele>
        <time>2011-08-10T14:47:12Z</time>
      </trkpt>
      <trkpt lat="45.04626" lon="5.55785">
        <ele>1155.4123535156</ele>
        <time>2011-08-10T14:47:16Z</time>
      </trkpt>
      <trkpt lat="45.04624" lon="5.5579">
        <ele>1155.0552978516</ele>
        <time>2011-08-10T14:48:35Z</time>
      </trkpt>
      <trkpt lat="45.04624" lon="5.558">
        <ele>1155.8929443359</ele>
        <time>2011-08-10T14:48:41Z</time>
      </trkpt>
      <trkpt lat="45.04623" lon="5.55818">
        <ele>1157.2297363281</ele>
        <time>2011-08-10T14:48:47Z</time>
      </trkpt>
      <trkpt lat="45.04622" lon="5.55833">
        <ele>1158.7866210938</ele>
        <time>2011-08-10T14:48:52Z</time>
      </trkpt>
      <trkpt lat="45.04624" lon="5.5585">
        <ele>1160.4909667969</ele>
        <time>2011-08-10T14:48:56Z</time>
      </trkpt>
      <trkpt lat="45.04619" lon="5.55878">
        <ele>1161.2874755859</ele>
        <time>2011-08-10T14:49:03Z</time>
      </trkpt>
      <trkpt lat="45.04611" lon="5.55907">
        <ele>1162.0119628906</ele>
        <time>2011-08-10T14:49:08Z</time>
      </trkpt>
      <trkpt lat="45.04615" lon="5.55933">
        <ele>1165.7055664062</ele>
        <time>2011-08-10T14:49:13Z</time>
      </trkpt>
      <trkpt lat="45.0462" lon="5.55937">
        <ele>1167.2470703125</ele>
        <time>2011-08-10T14:49:15Z</time>
      </trkpt>
      <trkpt lat="45.04624" lon="5.55937">
        <ele>1168.0408935547</ele>
        <time>2011-08-10T14:49:17Z</time>
      </trkpt>
      <trkpt lat="45.04628" lon="5.55936">
        <ele>1168.9729003906</ele>
        <time>2011-08-10T14:49:23Z</time>
      </trkpt>
      <trkpt lat="45.04625" lon="5.55937">
        <ele>1168.3166503906</ele>
        <time>2011-08-10T14:49:55Z</time>
      </trkpt>
      <trkpt lat="45.04624" lon="5.55947">
        <ele>1168.9447021484</ele>
        <time>2011-08-10T14:50:01Z</time>
      </trkpt>
      <trkpt lat="45.0463" lon="5.55953">
        <ele>1170.7917480469</ele>
        <time>2011-08-10T14:50:07Z</time>
      </trkpt>
      <trkpt lat="45.04632" lon="5.55955">
        <ele>1171.3601074219</ele>
        <time>2011-08-10T14:50:09Z</time>
      </trkpt>
      <trkpt lat="45.04634" lon="5.55957">
        <ele>1171.9152832031</ele>
        <time>2011-08-10T14:50:11Z</time>
      </trkpt>
      <trkpt lat="45.0464" lon="5.55951">
        <ele>1172.74609375</ele>
        <time>2011-08-10T14:50:17Z</time>
      </trkpt>
      <trkpt lat="45.04644" lon="5.55949">
        <ele>1173.3812255859</ele>
        <time>2011-08-10T14:50:20Z</time>
      </trkpt>
      <trkpt lat="45.0465" lon="5.55948">
        <ele>1174.5931396484</ele>
        <time>2011-08-10T14:50:26Z</time>
      </trkpt>
      <trkpt lat="45.04651" lon="5.55948">
        <ele>1174.9295654297</ele>
        <time>2011-08-10T14:50:27Z</time>
      </trkpt>
      <trkpt lat="45.04655" lon="5.55938">
        <ele>1175.2436523438</ele>
        <time>2011-08-10T14:50:32Z</time>
      </trkpt>
      <trkpt lat="45.04655" lon="5.55937">
        <ele>1175.1165771484</ele>
        <time>2011-08-10T14:50:37Z</time>
      </trkpt>
      <trkpt lat="45.04656" lon="5.55938">
        <ele>1175.4291992188</ele>
        <time>2011-08-10T14:50:42Z</time>
      </trkpt>
      <trkpt lat="45.04658" lon="5.55939">
        <ele>1175.9173583984</ele>
        <time>2011-08-10T14:50:46Z</time>
      </trkpt>
      <trkpt lat="45.04658" lon="5.5594">
        <ele>1175.9510498047</ele>
        <time>2011-08-10T14:50:55Z</time>
      </trkpt>
      <trkpt lat="45.04655" lon="5.55937">
        <ele>1175.1408691406</ele>
        <time>2011-08-10T14:51:00Z</time>
      </trkpt>
      <trkpt lat="45.04655" lon="5.55937">
        <ele>1175.1882324219</ele>
        <time>2011-08-10T14:51:04Z</time>
      </trkpt>
      <trkpt lat="45.04665" lon="5.55937">
        <ele>1177.3728027344</ele>
        <time>2011-08-10T14:51:10Z</time>
      </trkpt>
      <trkpt lat="45.04663" lon="5.55941">
        <ele>1177.1063232422</ele>
        <time>2011-08-10T14:51:21Z</time>
      </trkpt>
      <trkpt lat="45.04658" lon="5.55946">
        <ele>1176.2067871094</ele>
        <time>2011-08-10T14:51:27Z</time>
      </trkpt>
      <trkpt lat="45.04662" lon="5.55951">
        <ele>1177.4050292969</ele>
        <time>2011-08-10T14:51:34Z</time>
      </trkpt>
      <trkpt lat="45.04661" lon="5.55955">
        <ele>1177.5526123047</ele>
        <time>2011-08-10T14:51:41Z</time>
      </trkpt>
      <trkpt lat="45.04672" lon="5.5591">
        <ele>1176.865234375</ele>
        <time>2011-08-10T14:53:33Z</time>
      </trkpt>
      <trkpt lat="45.04659" lon="5.55906">
        <ele>1174.2669677734</ele>
        <time>2011-08-10T14:53:40Z</time>
      </trkpt>
      <trkpt lat="45.04663" lon="5.55902">
        <ele>1175.0627441406</ele>
        <time>2011-08-10T14:53:53Z</time>
      </trkpt>
      <trkpt lat="45.04659" lon="5.55923">
        <ele>1175.2294921875</ele>
        <time>2011-08-10T14:55:38Z</time>
      </trkpt>
      <trkpt lat="45.04657" lon="5.55901">
        <ele>1173.2432861328</ele>
        <time>2011-08-10T14:56:23Z</time>
      </trkpt>
      <trkpt lat="45.0465" lon="5.559">
        <ele>1171.140625</ele>
        <time>2011-08-10T14:56:26Z</time>
      </trkpt>
      <trkpt lat="45.04654" lon="5.55902">
        <ele>1172.4149169922</ele>
        <time>2011-08-10T14:56:30Z</time>
      </trkpt>
      <trkpt lat="45.04647" lon="5.55905">
        <ele>1171.0264892578</ele>
        <time>2011-08-10T14:56:34Z</time>
      </trkpt>
      <trkpt lat="45.04655" lon="5.55912">
        <ele>1173.6909179688</ele>
        <time>2011-08-10T14:58:41Z</time>
      </trkpt>
      <trkpt lat="45.04659" lon="5.5591">
        <ele>1174.4864501953</ele>
        <time>2011-08-10T14:58:48Z</time>
      </trkpt>
      <trkpt lat="45.04657" lon="5.55918">
        <ele>1174.5277099609</ele>
        <time>2011-08-10T14:59:02Z</time>
      </trkpt>
      <trkpt lat="45.04666" lon="5.55931">
        <ele>1177.3994140625</ele>
        <time>2011-08-10T14:59:07Z</time>
      </trkpt>
      <trkpt lat="45.04646" lon="5.55921">
        <ele>1171.9250488281</ele>
        <time>2011-08-10T15:02:38Z</time>
      </trkpt>
      <trkpt lat="45.04635" lon="5.55912">
        <ele>1168.5025634766</ele>
        <time>2011-08-10T15:02:43Z</time>
      </trkpt>
      <trkpt lat="45.04631" lon="5.55912">
        <ele>1167.5721435547</ele>
        <time>2011-08-10T15:02:44Z</time>
      </trkpt>
      <trkpt lat="45.0463" lon="5.55906">
        <ele>1166.7309570312</ele>
        <time>2011-08-10T15:02:47Z</time>
      </trkpt>
      <trkpt lat="45.0462" lon="5.55891">
        <ele>1162.3450927734</ele>
        <time>2011-08-10T15:02:52Z</time>
      </trkpt>
      <trkpt lat="45.04621" lon="5.55888">
        <ele>1162.4754638672</ele>
        <time>2011-08-10T15:02:55Z</time>
      </trkpt>
      <trkpt lat="45.04664" lon="5.55916">
        <ele>1176.3126220703</ele>
        <time>2011-08-10T15:03:34Z</time>
      </trkpt>
      <trkpt lat="45.04664" lon="5.55951">
        <ele>1177.9748535156</ele>
        <time>2011-08-10T15:04:45Z</time>
      </trkpt>
      <trkpt lat="45.0466" lon="5.55949">
        <ele>1176.814453125</ele>
        <time>2011-08-10T15:04:50Z</time>
      </trkpt>
      <trkpt lat="45.04659" lon="5.55941">
        <ele>1176.0999755859</ele>
        <time>2011-08-10T15:04:55Z</time>
      </trkpt>
      <trkpt lat="45.04654" lon="5.55936">
        <ele>1174.9072265625</ele>
        <time>2011-08-10T15:05:00Z</time>
      </trkpt>
      <trkpt lat="45.04654" lon="5.55936">
        <ele>1174.7242431641</ele>
        <time>2011-08-10T15:06:06Z</time>
      </trkpt>
      <trkpt lat="45.04655" lon="5.55937">
        <ele>1175.1116943359</ele>
        <time>2011-08-10T15:06:15Z</time>
      </trkpt>
      <trkpt lat="45.04655" lon="5.55939">
        <ele>1175.3134765625</ele>
        <time>2011-08-10T15:06:17Z</time>
      </trkpt>
      <trkpt lat="45.04653" lon="5.55946">
        <ele>1175.1149902344</ele>
        <time>2011-08-10T15:06:24Z</time>
      </trkpt>
      <trkpt lat="45.04653" lon="5.55948">
        <ele>1175.2420654297</ele>
        <time>2011-08-10T15:06:33Z</time>
      </trkpt>
      <trkpt lat="45.0464" lon="5.55952">
        <ele>1172.7976074219</ele>
        <time>2011-08-10T15:06:39Z</time>
      </trkpt>
      <trkpt lat="45.04631" lon="5.55955">
        <ele>1171.0700683594</ele>
        <time>2011-08-10T15:06:43Z</time>
      </trkpt>
      <trkpt lat="45.04624" lon="5.55943">
        <ele>1168.6524658203</ele>
        <time>2011-08-10T15:06:46Z</time>
      </trkpt>
      <trkpt lat="45.04618" lon="5.55936">
        <ele>1166.5435791016</ele>
        <time>2011-08-10T15:06:48Z</time>
      </trkpt>
      <trkpt lat="45.04609" lon="5.55925">
        <ele>1163.390625</ele>
        <time>2011-08-10T15:06:51Z</time>
      </trkpt>
      <trkpt lat="45.04608" lon="5.5592">
        <ele>1162.5578613281</ele>
        <time>2011-08-10T15:06:52Z</time>
      </trkpt>
      <trkpt lat="45.04613" lon="5.55889">
        <ele>1160.4772949219</ele>
        <time>2011-08-10T15:06:56Z</time>
      </trkpt>
      <trkpt lat="45.04619" lon="5.55866">
        <ele>1160.3193359375</ele>
        <time>2011-08-10T15:06:58Z</time>
      </trkpt>
      <trkpt lat="45.04622" lon="5.55825">
        <ele>1157.8356933594</ele>
        <time>2011-08-10T15:07:02Z</time>
      </trkpt>
      <trkpt lat="45.04626" lon="5.55794">
        <ele>1156.0509033203</ele>
        <time>2011-08-10T15:07:05Z</time>
      </trkpt>
      <trkpt lat="45.04627" lon="5.55784">
        <ele>1155.3780517578</ele>
        <time>2011-08-10T15:07:06Z</time>
      </trkpt>
      <trkpt lat="45.04624" lon="5.55735">
        <ele>1149.6271972656</ele>
        <time>2011-08-10T15:07:11Z</time>
      </trkpt>
      <trkpt lat="45.04623" lon="5.55718">
        <ele>1146.4501953125</ele>
        <time>2011-08-10T15:07:14Z</time>
      </trkpt>
      <trkpt lat="45.04627" lon="5.5569">
        <ele>1142.6126708984</ele>
        <time>2011-08-10T15:07:19Z</time>
      </trkpt>
      <trkpt lat="45.0463" lon="5.55677">
        <ele>1141.0446777344</ele>
        <time>2011-08-10T15:07:21Z</time>
      </trkpt>
      <trkpt lat="45.04643" lon="5.55663">
        <ele>1139.7604980469</ele>
        <time>2011-08-10T15:07:24Z</time>
      </trkpt>
      <trkpt lat="45.04655" lon="5.55666">
        <ele>1141.0239257812</ele>
        <time>2011-08-10T15:07:26Z</time>
      </trkpt>
      <trkpt lat="45.04681" lon="5.5568">
        <ele>1144.4837646484</ele>
        <time>2011-08-10T15:07:30Z</time>
      </trkpt>
      <trkpt lat="45.04705" lon="5.55687">
        <ele>1145.0511474609</ele>
        <time>2011-08-10T15:07:33Z</time>
      </trkpt>
      <trkpt lat="45.04758" lon="5.55684">
        <ele>1142.0675048828</ele>
        <time>2011-08-10T15:07:39Z</time>
      </trkpt>
      <trkpt lat="45.04798" lon="5.55675">
        <ele>1141.1640625</ele>
        <time>2011-08-10T15:07:43Z</time>
      </trkpt>
      <trkpt lat="45.0483" lon="5.55671">
        <ele>1141.6618652344</ele>
        <time>2011-08-10T15:07:46Z</time>
      </trkpt>
      <trkpt lat="45.04841" lon="5.55672">
        <ele>1142.6512451172</ele>
        <time>2011-08-10T15:07:47Z</time>
      </trkpt>
      <trkpt lat="45.0487" lon="5.55648">
        <ele>1143.7808837891</ele>
        <time>2011-08-10T15:07:50Z</time>
      </trkpt>
      <trkpt lat="45.04871" lon="5.55616">
        <ele>1142.2733154297</ele>
        <time>2011-08-10T15:07:52Z</time>
      </trkpt>
      <trkpt lat="45.04859" lon="5.55585">
        <ele>1138.4827880859</ele>
        <time>2011-08-10T15:07:54Z</time>
      </trkpt>
      <trkpt lat="45.04828" lon="5.5552">
        <ele>1129.33984375</ele>
        <time>2011-08-10T15:07:58Z</time>
      </trkpt>
      <trkpt lat="45.04812" lon="5.55442">
        <ele>1125.8343505859</ele>
        <time>2011-08-10T15:08:02Z</time>
      </trkpt>
      <trkpt lat="45.04797" lon="5.55328">
        <ele>1118.0291748047</ele>
        <time>2011-08-10T15:08:07Z</time>
      </trkpt>
      <trkpt lat="45.04778" lon="5.55179">
        <ele>1103.6075439453</ele>
        <time>2011-08-10T15:08:13Z</time>
      </trkpt>
      <trkpt lat="45.04762" lon="5.55033">
        <ele>1087.9790039062</ele>
        <time>2011-08-10T15:08:19Z</time>
      </trkpt>
      <trkpt lat="45.04769" lon="5.54967">
        <ele>1082.5786132812</ele>
        <time>2011-08-10T15:08:22Z</time>
      </trkpt>
      <trkpt lat="45.04784" lon="5.54928">
        <ele>1080.2431640625</ele>
        <time>2011-08-10T15:08:24Z</time>
      </trkpt>
      <trkpt lat="45.04812" lon="5.5486">
        <ele>1073.2559814453</ele>
        <time>2011-08-10T15:08:28Z</time>
      </trkpt>
      <trkpt lat="45.04851" lon="5.54819">
        <ele>1073.7189941406</ele>
        <time>2011-08-10T15:08:32Z</time>
      </trkpt>
      <trkpt lat="45.04899" lon="5.54783">
        <ele>1074.5263671875</ele>
        <time>2011-08-10T15:08:36Z</time>
      </trkpt>
      <trkpt lat="45.04956" lon="5.54755">
        <ele>1073.1721191406</ele>
        <time>2011-08-10T15:08:40Z</time>
      </trkpt>
      <trkpt lat="45.04984" lon="5.54743">
        <ele>1072.0651855469</ele>
        <time>2011-08-10T15:08:42Z</time>
      </trkpt>
      <trkpt lat="45.05035" lon="5.54725">
        <ele>1067.9830322266</ele>
        <time>2011-08-10T15:08:46Z</time>
      </trkpt>
      <trkpt lat="45.05139" lon="5.54681">
        <ele>1061.0061035156</ele>
        <time>2011-08-10T15:08:54Z</time>
      </trkpt>
      <trkpt lat="45.05167" lon="5.54671">
        <ele>1059.9526367188</ele>
        <time>2011-08-10T15:08:56Z</time>
      </trkpt>
      <trkpt lat="45.05213" lon="5.5468">
        <ele>1054.1568603516</ele>
        <time>2011-08-10T15:08:59Z</time>
      </trkpt>
      <trkpt lat="45.05238" lon="5.54703">
        <ele>1053.0728759766</ele>
        <time>2011-08-10T15:09:01Z</time>
      </trkpt>
      <trkpt lat="45.05295" lon="5.54713">
        <ele>1051.5495605469</ele>
        <time>2011-08-10T15:09:05Z</time>
      </trkpt>
      <trkpt lat="45.05323" lon="5.5469">
        <ele>1045.7493896484</ele>
        <time>2011-08-10T15:09:07Z</time>
      </trkpt>
      <trkpt lat="45.05365" lon="5.54649">
        <ele>1037.6635742188</ele>
        <time>2011-08-10T15:09:10Z</time>
      </trkpt>
      <trkpt lat="45.05441" lon="5.54602">
        <ele>1030.1218261719</ele>
        <time>2011-08-10T15:09:15Z</time>
      </trkpt>
      <trkpt lat="45.0549" lon="5.54579">
        <ele>1027.998046875</ele>
        <time>2011-08-10T15:09:18Z</time>
      </trkpt>
      <trkpt lat="45.05584" lon="5.54558">
        <ele>1024.1187744141</ele>
        <time>2011-08-10T15:09:23Z</time>
      </trkpt>
      <trkpt lat="45.05684" lon="5.54521">
        <ele>1007.8111572266</ele>
        <time>2011-08-10T15:09:28Z</time>
      </trkpt>
      <trkpt lat="45.05753" lon="5.54521">
        <ele>1001.2627563477</ele>
        <time>2011-08-10T15:09:32Z</time>
      </trkpt>
      <trkpt lat="45.05783" lon="5.54528">
        <ele>1001.1887817383</ele>
        <time>2011-08-10T15:09:34Z</time>
      </trkpt>
      <trkpt lat="45.05841" lon="5.54532">
        <ele>1002.220703125</ele>
        <time>2011-08-10T15:09:38Z</time>
      </trkpt>
      <trkpt lat="45.05907" lon="5.54536">
        <ele>1000.373046875</ele>
        <time>2011-08-10T15:09:43Z</time>
      </trkpt>
      <trkpt lat="45.05919" lon="5.54539">
        <ele>1000.1301879883</ele>
        <time>2011-08-10T15:09:44Z</time>
      </trkpt>
      <trkpt lat="45.05964" lon="5.54564">
        <ele>997.87915039062</ele>
        <time>2011-08-10T15:09:48Z</time>
      </trkpt>
      <trkpt lat="45.06039" lon="5.5463">
        <ele>993.64050292969</ele>
        <time>2011-08-10T15:09:56Z</time>
      </trkpt>
      <trkpt lat="45.06091" lon="5.54666">
        <ele>991.05200195312</ele>
        <time>2011-08-10T15:10:02Z</time>
      </trkpt>
      <trkpt lat="45.06149" lon="5.54694">
        <ele>989.00903320312</ele>
        <time>2011-08-10T15:10:09Z</time>
      </trkpt>
      <trkpt lat="45.06157" lon="5.54698">
        <ele>988.75158691406</ele>
        <time>2011-08-10T15:10:10Z</time>
      </trkpt>
      <trkpt lat="45.06195" lon="5.54705">
        <ele>987.62689208984</ele>
        <time>2011-08-10T15:10:15Z</time>
      </trkpt>
      <trkpt lat="45.06203" lon="5.54705">
        <ele>987.60626220703</ele>
        <time>2011-08-10T15:10:16Z</time>
      </trkpt>
      <trkpt lat="45.06242" lon="5.54693">
        <ele>988.05603027344</ele>
        <time>2011-08-10T15:10:22Z</time>
      </trkpt>
      <trkpt lat="45.06277" lon="5.54666">
        <ele>986.13323974609</ele>
        <time>2011-08-10T15:10:28Z</time>
      </trkpt>
      <trkpt lat="45.06313" lon="5.54635">
        <ele>986.15747070312</ele>
        <time>2011-08-10T15:10:36Z</time>
      </trkpt>
      <trkpt lat="45.06347" lon="5.54614">
        <ele>987.22009277344</ele>
        <time>2011-08-10T15:10:44Z</time>
      </trkpt>
      <trkpt lat="45.06375" lon="5.54606">
        <ele>986.99261474609</ele>
        <time>2011-08-10T15:10:50Z</time>
      </trkpt>
      <trkpt lat="45.0641" lon="5.54607">
        <ele>985.56176757812</ele>
        <time>2011-08-10T15:10:56Z</time>
      </trkpt>
      <trkpt lat="45.06456" lon="5.54615">
        <ele>982.06378173828</ele>
        <time>2011-08-10T15:11:02Z</time>
      </trkpt>
      <trkpt lat="45.06474" lon="5.54618">
        <ele>980.70562744141</ele>
        <time>2011-08-10T15:11:04Z</time>
      </trkpt>
      <trkpt lat="45.06524" lon="5.5463">
        <ele>979.12603759766</ele>
        <time>2011-08-10T15:11:09Z</time>
      </trkpt>
      <trkpt lat="45.06598" lon="5.54646">
        <ele>979.23107910156</ele>
        <time>2011-08-10T15:11:16Z</time>
      </trkpt>
      <trkpt lat="45.06646" lon="5.54638">
        <ele>978.04211425781</ele>
        <time>2011-08-10T15:11:21Z</time>
      </trkpt>
      <trkpt lat="45.06695" lon="5.54618">
        <ele>978.50561523438</ele>
        <time>2011-08-10T15:11:27Z</time>
      </trkpt>
      <trkpt lat="45.06702" lon="5.54615">
        <ele>978.69787597656</ele>
        <time>2011-08-10T15:11:28Z</time>
      </trkpt>
      <trkpt lat="45.06714" lon="5.54612">
        <ele>978.93481445312</ele>
        <time>2011-08-10T15:11:31Z</time>
      </trkpt>
      <trkpt lat="45.06721" lon="5.54622">
        <ele>978.19323730469</ele>
        <time>2011-08-10T15:11:36Z</time>
      </trkpt>
      <trkpt lat="45.0673" lon="5.54619">
        <ele>978.447265625</ele>
        <time>2011-08-10T15:11:39Z</time>
      </trkpt>
      <trkpt lat="45.06731" lon="5.54601">
        <ele>979.73474121094</ele>
        <time>2011-08-10T15:11:42Z</time>
      </trkpt>
      <trkpt lat="45.06726" lon="5.54584">
        <ele>980.96728515625</ele>
        <time>2011-08-10T15:11:45Z</time>
      </trkpt>
      <trkpt lat="45.06732" lon="5.5457">
        <ele>986.12603759766</ele>
        <time>2011-08-10T15:11:49Z</time>
      </trkpt>
      <trkpt lat="45.06743" lon="5.54567">
        <ele>987.27789306641</ele>
        <time>2011-08-10T15:11:53Z</time>
      </trkpt>
      <trkpt lat="45.0675" lon="5.54563">
        <ele>989.06011962891</ele>
        <time>2011-08-10T15:11:56Z</time>
      </trkpt>
      <trkpt lat="45.06769" lon="5.54551">
        <ele>992.619140625</ele>
        <time>2011-08-10T15:12:03Z</time>
      </trkpt>
      <trkpt lat="45.06784" lon="5.54539">
        <ele>995.98358154297</ele>
        <time>2011-08-10T15:12:09Z</time>
      </trkpt>
      <trkpt lat="45.06795" lon="5.54533">
        <ele>997.68115234375</ele>
        <time>2011-08-10T15:12:13Z</time>
      </trkpt>
      <trkpt lat="45.06813" lon="5.54523">
        <ele>1000.7634277344</ele>
        <time>2011-08-10T15:12:19Z</time>
      </trkpt>
      <trkpt lat="45.06834" lon="5.5451">
        <ele>1004.2758789062</ele>
        <time>2011-08-10T15:12:26Z</time>
      </trkpt>
      <trkpt lat="45.06854" lon="5.54502">
        <ele>1005.0174560547</ele>
        <time>2011-08-10T15:12:32Z</time>
      </trkpt>
      <trkpt lat="45.06875" lon="5.54494">
        <ele>1007.1547241211</ele>
        <time>2011-08-10T15:12:39Z</time>
      </trkpt>
      <trkpt lat="45.0689" lon="5.54491">
        <ele>1007.104675293</ele>
        <time>2011-08-10T15:12:44Z</time>
      </trkpt>
      <trkpt lat="45.06912" lon="5.54493">
        <ele>1003.9220581055</ele>
        <time>2011-08-10T15:12:51Z</time>
      </trkpt>
      <trkpt lat="45.06931" lon="5.54492">
        <ele>1003.8979492188</ele>
        <time>2011-08-10T15:12:57Z</time>
      </trkpt>
      <trkpt lat="45.0695" lon="5.54494">
        <ele>1002.7890625</ele>
        <time>2011-08-10T15:13:04Z</time>
      </trkpt>
      <trkpt lat="45.06966" lon="5.54497">
        <ele>1001.0672607422</ele>
        <time>2011-08-10T15:13:10Z</time>
      </trkpt>
      <trkpt lat="45.06983" lon="5.54499">
        <ele>999.76934814453</ele>
        <time>2011-08-10T15:13:16Z</time>
      </trkpt>
      <trkpt lat="45.07004" lon="5.54505">
        <ele>998.091796875</ele>
        <time>2011-08-10T15:13:23Z</time>
      </trkpt>
      <trkpt lat="45.07021" lon="5.54505">
        <ele>998.12615966797</ele>
        <time>2011-08-10T15:13:29Z</time>
      </trkpt>
      <trkpt lat="45.07048" lon="5.54497">
        <ele>1001.3239746094</ele>
        <time>2011-08-10T15:13:38Z</time>
      </trkpt>
      <trkpt lat="45.07067" lon="5.54491">
        <ele>1004.2818603516</ele>
        <time>2011-08-10T15:13:45Z</time>
      </trkpt>
      <trkpt lat="45.07083" lon="5.54486">
        <ele>1006.624206543</ele>
        <time>2011-08-10T15:13:51Z</time>
      </trkpt>
      <trkpt lat="45.07108" lon="5.54475">
        <ele>1007.580871582</ele>
        <time>2011-08-10T15:14:00Z</time>
      </trkpt>
      <trkpt lat="45.07127" lon="5.54457">
        <ele>1009.840637207</ele>
        <time>2011-08-10T15:14:08Z</time>
      </trkpt>
      <trkpt lat="45.07145" lon="5.54433">
        <ele>1012.5918579102</ele>
        <time>2011-08-10T15:14:16Z</time>
      </trkpt>
      <trkpt lat="45.0716" lon="5.54405">
        <ele>1013.5806884766</ele>
        <time>2011-08-10T15:14:24Z</time>
      </trkpt>
      <trkpt lat="45.07174" lon="5.54378">
        <ele>1012.121887207</ele>
        <time>2011-08-10T15:14:31Z</time>
      </trkpt>
      <trkpt lat="45.0719" lon="5.54338">
        <ele>1010.3449707031</ele>
        <time>2011-08-10T15:14:40Z</time>
      </trkpt>
      <trkpt lat="45.07191" lon="5.54306">
        <ele>1009.2305908203</ele>
        <time>2011-08-10T15:14:46Z</time>
      </trkpt>
      <trkpt lat="45.07187" lon="5.54284">
        <ele>1010.241394043</ele>
        <time>2011-08-10T15:14:50Z</time>
      </trkpt>
      <trkpt lat="45.0718" lon="5.54263">
        <ele>1011.9800415039</ele>
        <time>2011-08-10T15:14:54Z</time>
      </trkpt>
      <trkpt lat="45.07157" lon="5.54208">
        <ele>1014.352355957</ele>
        <time>2011-08-10T15:15:05Z</time>
      </trkpt>
      <trkpt lat="45.07138" lon="5.54166">
        <ele>1015.1281738281</ele>
        <time>2011-08-10T15:15:14Z</time>
      </trkpt>
      <trkpt lat="45.07125" lon="5.54129">
        <ele>1018.2035522461</ele>
        <time>2011-08-10T15:15:22Z</time>
      </trkpt>
      <trkpt lat="45.07116" lon="5.54091">
        <ele>1019.9577636719</ele>
        <time>2011-08-10T15:15:30Z</time>
      </trkpt>
      <trkpt lat="45.07104" lon="5.54062">
        <ele>1020.8857421875</ele>
        <time>2011-08-10T15:15:37Z</time>
      </trkpt>
      <trkpt lat="45.0709" lon="5.54037">
        <ele>1022.3071289062</ele>
        <time>2011-08-10T15:15:44Z</time>
      </trkpt>
      <trkpt lat="45.07074" lon="5.54009">
        <ele>1024.4504394531</ele>
        <time>2011-08-10T15:15:52Z</time>
      </trkpt>
      <trkpt lat="45.07057" lon="5.53981">
        <ele>1025.6278076172</ele>
        <time>2011-08-10T15:16:01Z</time>
      </trkpt>
      <trkpt lat="45.07042" lon="5.53962">
        <ele>1026.2583007812</ele>
        <time>2011-08-10T15:16:08Z</time>
      </trkpt>
      <trkpt lat="45.07025" lon="5.53948">
        <ele>1028.0616455078</ele>
        <time>2011-08-10T15:16:15Z</time>
      </trkpt>
      <trkpt lat="45.06998" lon="5.53936">
        <ele>1032.7332763672</ele>
        <time>2011-08-10T15:16:25Z</time>
      </trkpt>
      <trkpt lat="45.06979" lon="5.53925">
        <ele>1037.9074707031</ele>
        <time>2011-08-10T15:16:32Z</time>
      </trkpt>
      <trkpt lat="45.06957" lon="5.53916">
        <ele>1043.5717773438</ele>
        <time>2011-08-10T15:16:40Z</time>
      </trkpt>
      <trkpt lat="45.06938" lon="5.53903">
        <ele>1046.3264160156</ele>
        <time>2011-08-10T15:16:47Z</time>
      </trkpt>
      <trkpt lat="45.06918" lon="5.53886">
        <ele>1047.3712158203</ele>
        <time>2011-08-10T15:16:55Z</time>
      </trkpt>
      <trkpt lat="45.069" lon="5.53871">
        <ele>1049.353515625</ele>
        <time>2011-08-10T15:17:02Z</time>
      </trkpt>
      <trkpt lat="45.06887" lon="5.5386">
        <ele>1050.4334716797</ele>
        <time>2011-08-10T15:17:07Z</time>
      </trkpt>
      <trkpt lat="45.06863" lon="5.53837">
        <ele>1050.7647705078</ele>
        <time>2011-08-10T15:17:16Z</time>
      </trkpt>
      <trkpt lat="45.06847" lon="5.53824">
        <ele>1051.826171875</ele>
        <time>2011-08-10T15:17:22Z</time>
      </trkpt>
      <trkpt lat="45.0683" lon="5.53809">
        <ele>1052.953125</ele>
        <time>2011-08-10T15:17:29Z</time>
      </trkpt>
      <trkpt lat="45.06812" lon="5.53792">
        <ele>1053.6284179688</ele>
        <time>2011-08-10T15:17:36Z</time>
      </trkpt>
      <trkpt lat="45.06809" lon="5.5379">
        <ele>1053.8046875</ele>
        <time>2011-08-10T15:17:37Z</time>
      </trkpt>
      <trkpt lat="45.06791" lon="5.53775">
        <ele>1055.1055908203</ele>
        <time>2011-08-10T15:17:44Z</time>
      </trkpt>
      <trkpt lat="45.0677" lon="5.53763">
        <ele>1057.5393066406</ele>
        <time>2011-08-10T15:17:52Z</time>
      </trkpt>
      <trkpt lat="45.06753" lon="5.53752">
        <ele>1058.9014892578</ele>
        <time>2011-08-10T15:17:59Z</time>
      </trkpt>
      <trkpt lat="45.0674" lon="5.53745">
        <ele>1062.9403076172</ele>
        <time>2011-08-10T15:18:05Z</time>
      </trkpt>
      <trkpt lat="45.06723" lon="5.53735">
        <ele>1069.0385742188</ele>
        <time>2011-08-10T15:18:12Z</time>
      </trkpt>
      <trkpt lat="45.06711" lon="5.53723">
        <ele>1072.7354736328</ele>
        <time>2011-08-10T15:18:18Z</time>
      </trkpt>
      <trkpt lat="45.06699" lon="5.53712">
        <ele>1075.5837402344</ele>
        <time>2011-08-10T15:18:23Z</time>
      </trkpt>
      <trkpt lat="45.06683" lon="5.53704">
        <ele>1079.4643554688</ele>
        <time>2011-08-10T15:18:29Z</time>
      </trkpt>
      <trkpt lat="45.06668" lon="5.53692">
        <ele>1081.0842285156</ele>
        <time>2011-08-10T15:18:35Z</time>
      </trkpt>
      <trkpt lat="45.06649" lon="5.53682">
        <ele>1085.0749511719</ele>
        <time>2011-08-10T15:18:42Z</time>
      </trkpt>
      <trkpt lat="45.06634" lon="5.53672">
        <ele>1087.7893066406</ele>
        <time>2011-08-10T15:18:48Z</time>
      </trkpt>
      <trkpt lat="45.06615" lon="5.53656">
        <ele>1094.4906005859</ele>
        <time>2011-08-10T15:18:56Z</time>
      </trkpt>
      <trkpt lat="45.06604" lon="5.53645">
        <ele>1098.8984375</ele>
        <time>2011-08-10T15:19:01Z</time>
      </trkpt>
      <trkpt lat="45.0659" lon="5.53621">
        <ele>1104.8179931641</ele>
        <time>2011-08-10T15:19:09Z</time>
      </trkpt>
      <trkpt lat="45.06587" lon="5.53602">
        <ele>1107.4382324219</ele>
        <time>2011-08-10T15:19:14Z</time>
      </trkpt>
      <trkpt lat="45.06593" lon="5.53588">
        <ele>1108.2951660156</ele>
        <time>2011-08-10T15:19:19Z</time>
      </trkpt>
      <trkpt lat="45.066" lon="5.53582">
        <ele>1108.3439941406</ele>
        <time>2011-08-10T15:19:23Z</time>
      </trkpt>
      <trkpt lat="45.0661" lon="5.53577">
        <ele>1107.9594726562</ele>
        <time>2011-08-10T15:19:28Z</time>
      </trkpt>
      <trkpt lat="45.06628" lon="5.53568">
        <ele>1107.9576416016</ele>
        <time>2011-08-10T15:19:34Z</time>
      </trkpt>
      <trkpt lat="45.06647" lon="5.53561">
        <ele>1107.9252929688</ele>
        <time>2011-08-10T15:19:40Z</time>
      </trkpt>
      <trkpt lat="45.06661" lon="5.53556">
        <ele>1108.2047119141</ele>
        <time>2011-08-10T15:19:45Z</time>
      </trkpt>
      <trkpt lat="45.06677" lon="5.5355">
        <ele>1108.7497558594</ele>
        <time>2011-08-10T15:19:51Z</time>
      </trkpt>
      <trkpt lat="45.06696" lon="5.53545">
        <ele>1109.3060302734</ele>
        <time>2011-08-10T15:19:58Z</time>
      </trkpt>
      <trkpt lat="45.06713" lon="5.53541">
        <ele>1110.5738525391</ele>
        <time>2011-08-10T15:20:04Z</time>
      </trkpt>
      <trkpt lat="45.06727" lon="5.53537">
        <ele>1111.7410888672</ele>
        <time>2011-08-10T15:20:09Z</time>
      </trkpt>
      <trkpt lat="45.06743" lon="5.53536">
        <ele>1112.4283447266</ele>
        <time>2011-08-10T15:20:15Z</time>
      </trkpt>
      <trkpt lat="45.06758" lon="5.53535">
        <ele>1112.0751953125</ele>
        <time>2011-08-10T15:20:21Z</time>
      </trkpt>
      <trkpt lat="45.0677" lon="5.53532">
        <ele>1111.8142089844</ele>
        <time>2011-08-10T15:20:25Z</time>
      </trkpt>
      <trkpt lat="45.06784" lon="5.5353">
        <ele>1110.3934326172</ele>
        <time>2011-08-10T15:20:30Z</time>
      </trkpt>
      <trkpt lat="45.068" lon="5.53526">
        <ele>1109.4184570312</ele>
        <time>2011-08-10T15:20:36Z</time>
      </trkpt>
      <trkpt lat="45.06813" lon="5.5352">
        <ele>1109.5645751953</ele>
        <time>2011-08-10T15:20:41Z</time>
      </trkpt>
      <trkpt lat="45.0683" lon="5.53511">
        <ele>1110.3198242188</ele>
        <time>2011-08-10T15:20:47Z</time>
      </trkpt>
      <trkpt lat="45.06843" lon="5.53501">
        <ele>1110.4289550781</ele>
        <time>2011-08-10T15:20:53Z</time>
      </trkpt>
      <trkpt lat="45.06854" lon="5.53481">
        <ele>1109.9992675781</ele>
        <time>2011-08-10T15:20:59Z</time>
      </trkpt>
      <trkpt lat="45.06855" lon="5.53467">
        <ele>1111.3967285156</ele>
        <time>2011-08-10T15:21:04Z</time>
      </trkpt>
      <trkpt lat="45.06855" lon="5.53451">
        <ele>1113.2260742188</ele>
        <time>2011-08-10T15:21:11Z</time>
      </trkpt>
      <trkpt lat="45.0686" lon="5.5343">
        <ele>1114.5009765625</ele>
        <time>2011-08-10T15:21:18Z</time>
      </trkpt>
      <trkpt lat="45.06862" lon="5.53406">
        <ele>1116.3410644531</ele>
        <time>2011-08-10T15:21:25Z</time>
      </trkpt>
      <trkpt lat="45.06863" lon="5.53387">
        <ele>1117.5593261719</ele>
        <time>2011-08-10T15:21:30Z</time>
      </trkpt>
      <trkpt lat="45.0686" lon="5.53363">
        <ele>1120.3854980469</ele>
        <time>2011-08-10T15:21:36Z</time>
      </trkpt>
      <trkpt lat="45.06855" lon="5.53334">
        <ele>1124.0316162109</ele>
        <time>2011-08-10T15:21:43Z</time>
      </trkpt>
      <trkpt lat="45.06847" lon="5.53312">
        <ele>1123.2874755859</ele>
        <time>2011-08-10T15:21:49Z</time>
      </trkpt>
      <trkpt lat="45.06834" lon="5.53299">
        <ele>1124.5736083984</ele>
        <time>2011-08-10T15:21:55Z</time>
      </trkpt>
      <trkpt lat="45.06822" lon="5.5329">
        <ele>1124.060546875</ele>
        <time>2011-08-10T15:22:00Z</time>
      </trkpt>
      <trkpt lat="45.06802" lon="5.53278">
        <ele>1123.3287353516</ele>
        <time>2011-08-10T15:22:07Z</time>
      </trkpt>
      <trkpt lat="45.06776" lon="5.53267">
        <ele>1123.2241210938</ele>
        <time>2011-08-10T15:22:15Z</time>
      </trkpt>
      <trkpt lat="45.06755" lon="5.53256">
        <ele>1123.0096435547</ele>
        <time>2011-08-10T15:22:21Z</time>
      </trkpt>
      <trkpt lat="45.06736" lon="5.53251">
        <ele>1123.1860351562</ele>
        <time>2011-08-10T15:22:27Z</time>
      </trkpt>
      <trkpt lat="45.06704" lon="5.53247">
        <ele>1125.1528320312</ele>
        <time>2011-08-10T15:22:37Z</time>
      </trkpt>
      <trkpt lat="45.06672" lon="5.53243">
        <ele>1127.8743896484</ele>
        <time>2011-08-10T15:22:47Z</time>
      </trkpt>
      <trkpt lat="45.06655" lon="5.53243">
        <ele>1129.1076660156</ele>
        <time>2011-08-10T15:22:52Z</time>
      </trkpt>
      <trkpt lat="45.06627" lon="5.53243">
        <ele>1130.34765625</ele>
        <time>2011-08-10T15:23:00Z</time>
      </trkpt>
      <trkpt lat="45.06604" lon="5.5324">
        <ele>1131.1527099609</ele>
        <time>2011-08-10T15:23:06Z</time>
      </trkpt>
      <trkpt lat="45.06577" lon="5.53231">
        <ele>1132.5393066406</ele>
        <time>2011-08-10T15:23:13Z</time>
      </trkpt>
      <trkpt lat="45.06566" lon="5.53222">
        <ele>1132.9041748047</ele>
        <time>2011-08-10T15:23:16Z</time>
      </trkpt>
      <trkpt lat="45.06557" lon="5.53203">
        <ele>1132.4689941406</ele>
        <time>2011-08-10T15:23:20Z</time>
      </trkpt>
      <trkpt lat="45.06562" lon="5.53178">
        <ele>1130.5252685547</ele>
        <time>2011-08-10T15:23:24Z</time>
      </trkpt>
      <trkpt lat="45.06584" lon="5.5312">
        <ele>1130.2584228516</ele>
        <time>2011-08-10T15:23:33Z</time>
      </trkpt>
      <trkpt lat="45.06593" lon="5.53064">
        <ele>1129.7757568359</ele>
        <time>2011-08-10T15:23:41Z</time>
      </trkpt>
      <trkpt lat="45.06597" lon="5.53019">
        <ele>1128.6834716797</ele>
        <time>2011-08-10T15:23:48Z</time>
      </trkpt>
      <trkpt lat="45.06602" lon="5.5296">
        <ele>1129.3729248047</ele>
        <time>2011-08-10T15:23:57Z</time>
      </trkpt>
      <trkpt lat="45.06607" lon="5.52899">
        <ele>1131.3365478516</ele>
        <time>2011-08-10T15:24:06Z</time>
      </trkpt>
      <trkpt lat="45.06612" lon="5.52846">
        <ele>1134.0139160156</ele>
        <time>2011-08-10T15:24:14Z</time>
      </trkpt>
      <trkpt lat="45.06616" lon="5.52786">
        <ele>1134.44921875</ele>
        <time>2011-08-10T15:24:23Z</time>
      </trkpt>
      <trkpt lat="45.06617" lon="5.5278">
        <ele>1134.4079589844</ele>
        <time>2011-08-10T15:24:24Z</time>
      </trkpt>
      <trkpt lat="45.06615" lon="5.52754">
        <ele>1134.6140136719</ele>
        <time>2011-08-10T15:24:28Z</time>
      </trkpt>
      <trkpt lat="45.06599" lon="5.52713">
        <ele>1134.4575195312</ele>
        <time>2011-08-10T15:24:35Z</time>
      </trkpt>
      <trkpt lat="45.06575" lon="5.52668">
        <ele>1135.9913330078</ele>
        <time>2011-08-10T15:24:43Z</time>
      </trkpt>
      <trkpt lat="45.06547" lon="5.52614">
        <ele>1137.0659179688</ele>
        <time>2011-08-10T15:24:52Z</time>
      </trkpt>
      <trkpt lat="45.06519" lon="5.52559">
        <ele>1139.2182617188</ele>
        <time>2011-08-10T15:25:01Z</time>
      </trkpt>
      <trkpt lat="45.06504" lon="5.52509">
        <ele>1141.9350585938</ele>
        <time>2011-08-10T15:25:08Z</time>
      </trkpt>
      <trkpt lat="45.06486" lon="5.5246">
        <ele>1142.2891845703</ele>
        <time>2011-08-10T15:25:15Z</time>
      </trkpt>
      <trkpt lat="45.06461" lon="5.52436">
        <ele>1141.2961425781</ele>
        <time>2011-08-10T15:25:20Z</time>
      </trkpt>
      <trkpt lat="45.06438" lon="5.52431">
        <ele>1140.4011230469</ele>
        <time>2011-08-10T15:25:24Z</time>
      </trkpt>
      <trkpt lat="45.06394" lon="5.52441">
        <ele>1139.0843505859</ele>
        <time>2011-08-10T15:25:31Z</time>
      </trkpt>
      <trkpt lat="45.06347" lon="5.5246">
        <ele>1137.3686523438</ele>
        <time>2011-08-10T15:25:38Z</time>
      </trkpt>
      <trkpt lat="45.06297" lon="5.52478">
        <ele>1137.3073730469</ele>
        <time>2011-08-10T15:25:45Z</time>
      </trkpt>
      <trkpt lat="45.06274" lon="5.52478">
        <ele>1136.8908691406</ele>
        <time>2011-08-10T15:25:48Z</time>
      </trkpt>
      <trkpt lat="45.06231" lon="5.52462">
        <ele>1135.9020996094</ele>
        <time>2011-08-10T15:25:54Z</time>
      </trkpt>
      <trkpt lat="45.06186" lon="5.52429">
        <ele>1135.9416503906</ele>
        <time>2011-08-10T15:26:01Z</time>
      </trkpt>
      <trkpt lat="45.06157" lon="5.52418">
        <ele>1136.9449462891</ele>
        <time>2011-08-10T15:26:05Z</time>
      </trkpt>
      <trkpt lat="45.06114" lon="5.52412">
        <ele>1139.4230957031</ele>
        <time>2011-08-10T15:26:11Z</time>
      </trkpt>
      <trkpt lat="45.061" lon="5.52408">
        <ele>1140.517578125</ele>
        <time>2011-08-10T15:26:13Z</time>
      </trkpt>
      <trkpt lat="45.06075" lon="5.52389">
        <ele>1141.3458251953</ele>
        <time>2011-08-10T15:26:17Z</time>
      </trkpt>
      <trkpt lat="45.06063" lon="5.52363">
        <ele>1139.8798828125</ele>
        <time>2011-08-10T15:26:20Z</time>
      </trkpt>
      <trkpt lat="45.06054" lon="5.52328">
        <ele>1137.6517333984</ele>
        <time>2011-08-10T15:26:24Z</time>
      </trkpt>
      <trkpt lat="45.06036" lon="5.52303">
        <ele>1136.626953125</ele>
        <time>2011-08-10T15:26:28Z</time>
      </trkpt>
      <trkpt lat="45.0603" lon="5.52301">
        <ele>1136.7813720703</ele>
        <time>2011-08-10T15:26:29Z</time>
      </trkpt>
      <trkpt lat="45.05971" lon="5.52292">
        <ele>1137.9940185547</ele>
        <time>2011-08-10T15:26:37Z</time>
      </trkpt>
      <trkpt lat="45.0592" lon="5.52282">
        <ele>1137.3107910156</ele>
        <time>2011-08-10T15:26:44Z</time>
      </trkpt>
      <trkpt lat="45.05872" lon="5.52256">
        <ele>1139.6103515625</ele>
        <time>2011-08-10T15:26:51Z</time>
      </trkpt>
      <trkpt lat="45.05839" lon="5.52234">
        <ele>1139.1013183594</ele>
        <time>2011-08-10T15:26:56Z</time>
      </trkpt>
      <trkpt lat="45.05812" lon="5.5222">
        <ele>1138.9750976562</ele>
        <time>2011-08-10T15:27:00Z</time>
      </trkpt>
      <trkpt lat="45.05775" lon="5.52212">
        <ele>1142.9135742188</ele>
        <time>2011-08-10T15:27:06Z</time>
      </trkpt>
      <trkpt lat="45.0573" lon="5.52194">
        <ele>1145.0059814453</ele>
        <time>2011-08-10T15:27:13Z</time>
      </trkpt>
      <trkpt lat="45.05696" lon="5.52174">
        <ele>1144.43359375</ele>
        <time>2011-08-10T15:27:19Z</time>
      </trkpt>
      <trkpt lat="45.05666" lon="5.52156">
        <ele>1145.0017089844</ele>
        <time>2011-08-10T15:27:24Z</time>
      </trkpt>
      <trkpt lat="45.05639" lon="5.52125">
        <ele>1146.4344482422</ele>
        <time>2011-08-10T15:27:29Z</time>
      </trkpt>
      <trkpt lat="45.05636" lon="5.52117">
        <ele>1146.7503662109</ele>
        <time>2011-08-10T15:27:30Z</time>
      </trkpt>
      <trkpt lat="45.0561" lon="5.52053">
        <ele>1151.1837158203</ele>
        <time>2011-08-10T15:27:38Z</time>
      </trkpt>
      <trkpt lat="45.05603" lon="5.52038">
        <ele>1152.8427734375</ele>
        <time>2011-08-10T15:27:40Z</time>
      </trkpt>
      <trkpt lat="45.05592" lon="5.52005">
        <ele>1156.6378173828</ele>
        <time>2011-08-10T15:27:44Z</time>
      </trkpt>
      <trkpt lat="45.05589" lon="5.51951">
        <ele>1155.7227783203</ele>
        <time>2011-08-10T15:27:50Z</time>
      </trkpt>
      <trkpt lat="45.05583" lon="5.51925">
        <ele>1156.4985351562</ele>
        <time>2011-08-10T15:27:53Z</time>
      </trkpt>
      <trkpt lat="45.05577" lon="5.51888">
        <ele>1156.2004394531</ele>
        <time>2011-08-10T15:27:57Z</time>
      </trkpt>
      <trkpt lat="45.05568" lon="5.51862">
        <ele>1158.1907958984</ele>
        <time>2011-08-10T15:28:00Z</time>
      </trkpt>
      <trkpt lat="45.05564" lon="5.51831">
        <ele>1158.1751708984</ele>
        <time>2011-08-10T15:28:03Z</time>
      </trkpt>
      <trkpt lat="45.05581" lon="5.51788">
        <ele>1153.2707519531</ele>
        <time>2011-08-10T15:28:08Z</time>
      </trkpt>
      <trkpt lat="45.05584" lon="5.51752">
        <ele>1153.7752685547</ele>
        <time>2011-08-10T15:28:12Z</time>
      </trkpt>
      <trkpt lat="45.05577" lon="5.51735">
        <ele>1153.7818603516</ele>
        <time>2011-08-10T15:28:14Z</time>
      </trkpt>
      <trkpt lat="45.05571" lon="5.5169">
        <ele>1151.0963134766</ele>
        <time>2011-08-10T15:28:19Z</time>
      </trkpt>
      <trkpt lat="45.05569" lon="5.51679">
        <ele>1150.8972167969</ele>
        <time>2011-08-10T15:28:20Z</time>
      </trkpt>
      <trkpt lat="45.0555" lon="5.51638">
        <ele>1153.2506103516</ele>
        <time>2011-08-10T15:28:25Z</time>
      </trkpt>
      <trkpt lat="45.05542" lon="5.51611">
        <ele>1152.8935546875</ele>
        <time>2011-08-10T15:28:28Z</time>
      </trkpt>
      <trkpt lat="45.05537" lon="5.51575">
        <ele>1152.365234375</ele>
        <time>2011-08-10T15:28:32Z</time>
      </trkpt>
      <trkpt lat="45.05537" lon="5.51538">
        <ele>1156.7746582031</ele>
        <time>2011-08-10T15:28:37Z</time>
      </trkpt>
      <trkpt lat="45.05546" lon="5.51526">
        <ele>1157.28515625</ele>
        <time>2011-08-10T15:28:40Z</time>
      </trkpt>
      <trkpt lat="45.0556" lon="5.51522">
        <ele>1156.4645996094</ele>
        <time>2011-08-10T15:28:43Z</time>
      </trkpt>
      <trkpt lat="45.05585" lon="5.51516">
        <ele>1154.7509765625</ele>
        <time>2011-08-10T15:28:49Z</time>
      </trkpt>
      <trkpt lat="45.05598" lon="5.51504">
        <ele>1153.5407714844</ele>
        <time>2011-08-10T15:28:52Z</time>
      </trkpt>
      <trkpt lat="45.05611" lon="5.51484">
        <ele>1152.0458984375</ele>
        <time>2011-08-10T15:28:56Z</time>
      </trkpt>
      <trkpt lat="45.05614" lon="5.51456">
        <ele>1153.8615722656</ele>
        <time>2011-08-10T15:29:01Z</time>
      </trkpt>
      <trkpt lat="45.05604" lon="5.51417">
        <ele>1160.7469482422</ele>
        <time>2011-08-10T15:29:09Z</time>
      </trkpt>
      <trkpt lat="45.05606" lon="5.51395">
        <ele>1162.6094970703</ele>
        <time>2011-08-10T15:29:13Z</time>
      </trkpt>
      <trkpt lat="45.05618" lon="5.51376">
        <ele>1162.3873291016</ele>
        <time>2011-08-10T15:29:18Z</time>
      </trkpt>
      <trkpt lat="45.05636" lon="5.51361">
        <ele>1160.732421875</ele>
        <time>2011-08-10T15:29:24Z</time>
      </trkpt>
      <trkpt lat="45.05648" lon="5.51342">
        <ele>1160.5989990234</ele>
        <time>2011-08-10T15:29:29Z</time>
      </trkpt>
      <trkpt lat="45.05652" lon="5.51321">
        <ele>1162.2282714844</ele>
        <time>2011-08-10T15:29:34Z</time>
      </trkpt>
      <trkpt lat="45.05645" lon="5.51291">
        <ele>1166.0393066406</ele>
        <time>2011-08-10T15:29:41Z</time>
      </trkpt>
      <trkpt lat="45.05636" lon="5.51261">
        <ele>1170.3355712891</ele>
        <time>2011-08-10T15:29:49Z</time>
      </trkpt>
      <trkpt lat="45.05624" lon="5.51236">
        <ele>1173.9084472656</ele>
        <time>2011-08-10T15:29:56Z</time>
      </trkpt>
      <trkpt lat="45.05608" lon="5.51212">
        <ele>1177.1734619141</ele>
        <time>2011-08-10T15:30:04Z</time>
      </trkpt>
      <trkpt lat="45.05598" lon="5.51202">
        <ele>1179.0471191406</ele>
        <time>2011-08-10T15:30:09Z</time>
      </trkpt>
      <trkpt lat="45.05591" lon="5.51194">
        <ele>1180.1839599609</ele>
        <time>2011-08-10T15:30:12Z</time>
      </trkpt>
      <trkpt lat="45.05584" lon="5.51179">
        <ele>1181.4792480469</ele>
        <time>2011-08-10T15:30:16Z</time>
      </trkpt>
      <trkpt lat="45.05582" lon="5.51153">
        <ele>1182.6071777344</ele>
        <time>2011-08-10T15:30:22Z</time>
      </trkpt>
      <trkpt lat="45.05591" lon="5.51135">
        <ele>1183.0235595703</ele>
        <time>2011-08-10T15:30:26Z</time>
      </trkpt>
      <trkpt lat="45.05603" lon="5.5113">
        <ele>1183.1849365234</ele>
        <time>2011-08-10T15:30:29Z</time>
      </trkpt>
      <trkpt lat="45.05637" lon="5.5113">
        <ele>1182.3862304688</ele>
        <time>2011-08-10T15:30:36Z</time>
      </trkpt>
      <trkpt lat="45.05642" lon="5.51129">
        <ele>1182.4229736328</ele>
        <time>2011-08-10T15:30:37Z</time>
      </trkpt>
      <trkpt lat="45.05671" lon="5.51132">
        <ele>1181.4246826172</ele>
        <time>2011-08-10T15:30:43Z</time>
      </trkpt>
      <trkpt lat="45.05676" lon="5.51132">
        <ele>1180.6213378906</ele>
        <time>2011-08-10T15:30:44Z</time>
      </trkpt>
      <trkpt lat="45.05701" lon="5.51131">
        <ele>1177.2487792969</ele>
        <time>2011-08-10T15:30:49Z</time>
      </trkpt>
      <trkpt lat="45.0572" lon="5.51115">
        <ele>1177.6145019531</ele>
        <time>2011-08-10T15:30:53Z</time>
      </trkpt>
      <trkpt lat="45.05727" lon="5.51095">
        <ele>1180.4591064453</ele>
        <time>2011-08-10T15:30:56Z</time>
      </trkpt>
      <trkpt lat="45.05737" lon="5.51066">
        <ele>1184.2064208984</ele>
        <time>2011-08-10T15:31:00Z</time>
      </trkpt>
      <trkpt lat="45.05755" lon="5.51051">
        <ele>1184.6497802734</ele>
        <time>2011-08-10T15:31:04Z</time>
      </trkpt>
      <trkpt lat="45.05789" lon="5.51038">
        <ele>1180.8050537109</ele>
        <time>2011-08-10T15:31:10Z</time>
      </trkpt>
      <trkpt lat="45.05828" lon="5.51018">
        <ele>1179.2493896484</ele>
        <time>2011-08-10T15:31:17Z</time>
      </trkpt>
      <trkpt lat="45.05838" lon="5.51009">
        <ele>1179.0113525391</ele>
        <time>2011-08-10T15:31:19Z</time>
      </trkpt>
      <trkpt lat="45.05866" lon="5.50972">
        <ele>1177.6629638672</ele>
        <time>2011-08-10T15:31:25Z</time>
      </trkpt>
      <trkpt lat="45.05889" lon="5.50927">
        <ele>1180.7237548828</ele>
        <time>2011-08-10T15:31:32Z</time>
      </trkpt>
      <trkpt lat="45.05911" lon="5.50898">
        <ele>1182.4938964844</ele>
        <time>2011-08-10T15:31:38Z</time>
      </trkpt>
      <trkpt lat="45.05916" lon="5.50894">
        <ele>1182.8032226562</ele>
        <time>2011-08-10T15:31:39Z</time>
      </trkpt>
      <trkpt lat="45.05925" lon="5.50888">
        <ele>1182.1192626953</ele>
        <time>2011-08-10T15:31:41Z</time>
      </trkpt>
      <trkpt lat="45.05943" lon="5.50866">
        <ele>1183.2991943359</ele>
        <time>2011-08-10T15:31:45Z</time>
      </trkpt>
      <trkpt lat="45.05971" lon="5.50822">
        <ele>1188.0028076172</ele>
        <time>2011-08-10T15:31:52Z</time>
      </trkpt>
      <trkpt lat="45.05983" lon="5.50801">
        <ele>1191.9554443359</ele>
        <time>2011-08-10T15:31:56Z</time>
      </trkpt>
      <trkpt lat="45.06002" lon="5.50779">
        <ele>1195.7407226562</ele>
        <time>2011-08-10T15:32:01Z</time>
      </trkpt>
      <trkpt lat="45.06007" lon="5.50773">
        <ele>1196.4315185547</ele>
        <time>2011-08-10T15:32:02Z</time>
      </trkpt>
      <trkpt lat="45.06038" lon="5.50751">
        <ele>1194.0778808594</ele>
        <time>2011-08-10T15:32:08Z</time>
      </trkpt>
      <trkpt lat="45.06068" lon="5.50732">
        <ele>1190.5124511719</ele>
        <time>2011-08-10T15:32:14Z</time>
      </trkpt>
      <trkpt lat="45.06084" lon="5.50721">
        <ele>1188.4020996094</ele>
        <time>2011-08-10T15:32:17Z</time>
      </trkpt>
      <trkpt lat="45.06094" lon="5.50712">
        <ele>1189.3836669922</ele>
        <time>2011-08-10T15:32:19Z</time>
      </trkpt>
      <trkpt lat="45.06121" lon="5.50684">
        <ele>1191.7785644531</ele>
        <time>2011-08-10T15:32:24Z</time>
      </trkpt>
      <trkpt lat="45.06142" lon="5.50665">
        <ele>1191.4267578125</ele>
        <time>2011-08-10T15:32:28Z</time>
      </trkpt>
      <trkpt lat="45.06163" lon="5.50639">
        <ele>1189.7735595703</ele>
        <time>2011-08-10T15:32:32Z</time>
      </trkpt>
      <trkpt lat="45.06174" lon="5.50612">
        <ele>1191.1325683594</ele>
        <time>2011-08-10T15:32:35Z</time>
      </trkpt>
      <trkpt lat="45.06186" lon="5.50571">
        <ele>1195.220703125</ele>
        <time>2011-08-10T15:32:39Z</time>
      </trkpt>
      <trkpt lat="45.06202" lon="5.50539">
        <ele>1198.6423339844</ele>
        <time>2011-08-10T15:32:43Z</time>
      </trkpt>
      <trkpt lat="45.06236" lon="5.50505">
        <ele>1198.2183837891</ele>
        <time>2011-08-10T15:32:49Z</time>
      </trkpt>
      <trkpt lat="45.0624" lon="5.50502">
        <ele>1197.8369140625</ele>
        <time>2011-08-10T15:32:50Z</time>
      </trkpt>
      <trkpt lat="45.06264" lon="5.50473">
        <ele>1198.1516113281</ele>
        <time>2011-08-10T15:32:55Z</time>
      </trkpt>
      <trkpt lat="45.06279" lon="5.50449">
        <ele>1198.7628173828</ele>
        <time>2011-08-10T15:32:59Z</time>
      </trkpt>
      <trkpt lat="45.06297" lon="5.50425">
        <ele>1197.689453125</ele>
        <time>2011-08-10T15:33:03Z</time>
      </trkpt>
      <trkpt lat="45.06311" lon="5.50409">
        <ele>1194.8002929688</ele>
        <time>2011-08-10T15:33:06Z</time>
      </trkpt>
      <trkpt lat="45.06323" lon="5.5037">
        <ele>1196.0682373047</ele>
        <time>2011-08-10T15:33:11Z</time>
      </trkpt>
      <trkpt lat="45.06345" lon="5.50301">
        <ele>1198.7392578125</ele>
        <time>2011-08-10T15:33:19Z</time>
      </trkpt>
      <trkpt lat="45.06352" lon="5.50284">
        <ele>1199.1169433594</ele>
        <time>2011-08-10T15:33:21Z</time>
      </trkpt>
      <trkpt lat="45.0638" lon="5.50226">
        <ele>1197.806640625</ele>
        <time>2011-08-10T15:33:28Z</time>
      </trkpt>
      <trkpt lat="45.06405" lon="5.50174">
        <ele>1198.5321044922</ele>
        <time>2011-08-10T15:33:34Z</time>
      </trkpt>
      <trkpt lat="45.06418" lon="5.50147">
        <ele>1200.8649902344</ele>
        <time>2011-08-10T15:33:37Z</time>
      </trkpt>
      <trkpt lat="45.06449" lon="5.50104">
        <ele>1201.6124267578</ele>
        <time>2011-08-10T15:33:43Z</time>
      </trkpt>
      <trkpt lat="45.0647" lon="5.50085">
        <ele>1201.1557617188</ele>
        <time>2011-08-10T15:33:46Z</time>
      </trkpt>
      <trkpt lat="45.06511" lon="5.50064">
        <ele>1198.7556152344</ele>
        <time>2011-08-10T15:33:52Z</time>
      </trkpt>
      <trkpt lat="45.06518" lon="5.50059">
        <ele>1198.9212646484</ele>
        <time>2011-08-10T15:33:53Z</time>
      </trkpt>
      <trkpt lat="45.06549" lon="5.50043">
        <ele>1197.8752441406</ele>
        <time>2011-08-10T15:33:58Z</time>
      </trkpt>
      <trkpt lat="45.06583" lon="5.50026">
        <ele>1195.3439941406</ele>
        <time>2011-08-10T15:34:03Z</time>
      </trkpt>
      <trkpt lat="45.06591" lon="5.50023">
        <ele>1193.7852783203</ele>
        <time>2011-08-10T15:34:04Z</time>
      </trkpt>
      <trkpt lat="45.06625" lon="5.49996">
        <ele>1188.7830810547</ele>
        <time>2011-08-10T15:34:09Z</time>
      </trkpt>
      <trkpt lat="45.06631" lon="5.49948">
        <ele>1191.91015625</ele>
        <time>2011-08-10T15:34:13Z</time>
      </trkpt>
      <trkpt lat="45.06615" lon="5.49922">
        <ele>1198.5943603516</ele>
        <time>2011-08-10T15:34:16Z</time>
      </trkpt>
      <trkpt lat="45.06609" lon="5.49912">
        <ele>1200.9180908203</ele>
        <time>2011-08-10T15:34:17Z</time>
      </trkpt>
      <trkpt lat="45.06616" lon="5.49852">
        <ele>1198.3029785156</ele>
        <time>2011-08-10T15:34:22Z</time>
      </trkpt>
      <trkpt lat="45.06632" lon="5.49817">
        <ele>1184.1590576172</ele>
        <time>2011-08-10T15:34:26Z</time>
      </trkpt>
      <trkpt lat="45.06623" lon="5.49786">
        <ele>1180.1359863281</ele>
        <time>2011-08-10T15:34:29Z</time>
      </trkpt>
      <trkpt lat="45.06609" lon="5.49752">
        <ele>1170.5732421875</ele>
        <time>2011-08-10T15:34:32Z</time>
      </trkpt>
      <trkpt lat="45.0658" lon="5.49664">
        <ele>1139.9772949219</ele>
        <time>2011-08-10T15:34:39Z</time>
      </trkpt>
      <trkpt lat="45.06577" lon="5.49655">
        <ele>1137.1864013672</ele>
        <time>2011-08-10T15:34:40Z</time>
      </trkpt>
      <trkpt lat="45.06551" lon="5.49636">
        <ele>1140.5109863281</ele>
        <time>2011-08-10T15:34:44Z</time>
      </trkpt>
      <trkpt lat="45.06543" lon="5.49632">
        <ele>1145.5904541016</ele>
        <time>2011-08-10T15:34:45Z</time>
      </trkpt>
      <trkpt lat="45.06503" lon="5.496">
        <ele>1154.6793212891</ele>
        <time>2011-08-10T15:34:50Z</time>
      </trkpt>
      <trkpt lat="45.0647" lon="5.49548">
        <ele>1117.8214111328</ele>
        <time>2011-08-10T15:34:55Z</time>
      </trkpt>
      <trkpt lat="45.06465" lon="5.49538">
        <ele>1120.1806640625</ele>
        <time>2011-08-10T15:34:56Z</time>
      </trkpt>
      <trkpt lat="45.06458" lon="5.49519">
        <ele>1117.4129638672</ele>
        <time>2011-08-10T15:34:58Z</time>
      </trkpt>
      <trkpt lat="45.06435" lon="5.49491">
        <ele>1114.2497558594</ele>
        <time>2011-08-10T15:35:02Z</time>
      </trkpt>
      <trkpt lat="45.0642" lon="5.49486">
        <ele>1118.8481445312</ele>
        <time>2011-08-10T15:35:04Z</time>
      </trkpt>
      <trkpt lat="45.06372" lon="5.49473">
        <ele>1147.3107910156</ele>
        <time>2011-08-10T15:35:10Z</time>
      </trkpt>
      <trkpt lat="45.06338" lon="5.49423">
        <ele>1150.9111328125</ele>
        <time>2011-08-10T15:35:17Z</time>
      </trkpt>
      <trkpt lat="45.06317" lon="5.49393">
        <ele>1169.0245361328</ele>
        <time>2011-08-10T15:35:22Z</time>
      </trkpt>
      <trkpt lat="45.06308" lon="5.49383">
        <ele>1175.9506835938</ele>
        <time>2011-08-10T15:35:24Z</time>
      </trkpt>
      <trkpt lat="45.06288" lon="5.49345">
        <ele>1193.376953125</ele>
        <time>2011-08-10T15:35:30Z</time>
      </trkpt>
      <trkpt lat="45.06275" lon="5.4933">
        <ele>1202.2407226562</ele>
        <time>2011-08-10T15:35:33Z</time>
      </trkpt>
      <trkpt lat="45.06255" lon="5.49302">
        <ele>1220.5842285156</ele>
        <time>2011-08-10T15:35:38Z</time>
      </trkpt>
      <trkpt lat="45.06236" lon="5.49284">
        <ele>1251.3262939453</ele>
        <time>2011-08-10T15:35:42Z</time>
      </trkpt>
      <trkpt lat="45.06244" lon="5.49256">
        <ele>1267.7365722656</ele>
        <time>2011-08-10T15:35:46Z</time>
      </trkpt>
      <trkpt lat="45.06259" lon="5.49235">
        <ele>1268.9027099609</ele>
        <time>2011-08-10T15:35:49Z</time>
      </trkpt>
      <trkpt lat="45.06264" lon="5.49229">
        <ele>1267.3100585938</ele>
        <time>2011-08-10T15:35:50Z</time>
      </trkpt>
      <trkpt lat="45.0628" lon="5.49207">
        <ele>1264.2453613281</ele>
        <time>2011-08-10T15:35:54Z</time>
      </trkpt>
      <trkpt lat="45.06284" lon="5.49173">
        <ele>1273.3862304688</ele>
        <time>2011-08-10T15:36:00Z</time>
      </trkpt>
      <trkpt lat="45.06284" lon="5.49161">
        <ele>1274.4877929688</ele>
        <time>2011-08-10T15:36:02Z</time>
      </trkpt>
      <trkpt lat="45.06301" lon="5.49124">
        <ele>1258.6397705078</ele>
        <time>2011-08-10T15:36:06Z</time>
      </trkpt>
      <trkpt lat="45.06305" lon="5.49117">
        <ele>1255.5823974609</ele>
        <time>2011-08-10T15:36:07Z</time>
      </trkpt>
      <trkpt lat="45.06313" lon="5.49098">
        <ele>1245.9465332031</ele>
        <time>2011-08-10T15:36:11Z</time>
      </trkpt>
      <trkpt lat="45.06313" lon="5.49077">
        <ele>1241.4829101562</ele>
        <time>2011-08-10T15:36:16Z</time>
      </trkpt>
      <trkpt lat="45.06313" lon="5.49067">
        <ele>1238.1791992188</ele>
        <time>2011-08-10T15:36:18Z</time>
      </trkpt>
      <trkpt lat="45.06318" lon="5.49034">
        <ele>1226.3806152344</ele>
        <time>2011-08-10T15:36:23Z</time>
      </trkpt>
      <trkpt lat="45.06316" lon="5.49014">
        <ele>1222.12890625</ele>
        <time>2011-08-10T15:36:27Z</time>
      </trkpt>
      <trkpt lat="45.06311" lon="5.48986">
        <ele>1218.5928955078</ele>
        <time>2011-08-10T15:36:33Z</time>
      </trkpt>
      <trkpt lat="45.0631" lon="5.48977">
        <ele>1217.5053710938</ele>
        <time>2011-08-10T15:36:35Z</time>
      </trkpt>
      <trkpt lat="45.06305" lon="5.48953">
        <ele>1211.9185791016</ele>
        <time>2011-08-10T15:36:40Z</time>
      </trkpt>
      <trkpt lat="45.06303" lon="5.48944">
        <ele>1209.1530761719</ele>
        <time>2011-08-10T15:36:42Z</time>
      </trkpt>
      <trkpt lat="45.06295" lon="5.48918">
        <ele>1205.7756347656</ele>
        <time>2011-08-10T15:36:48Z</time>
      </trkpt>
      <trkpt lat="45.06286" lon="5.48893">
        <ele>1197.7631835938</ele>
        <time>2011-08-10T15:36:54Z</time>
      </trkpt>
      <trkpt lat="45.06277" lon="5.48873">
        <ele>1194.8071289062</ele>
        <time>2011-08-10T15:36:59Z</time>
      </trkpt>
      <trkpt lat="45.06263" lon="5.48845">
        <ele>1189.4827880859</ele>
        <time>2011-08-10T15:37:06Z</time>
      </trkpt>
      <trkpt lat="45.06249" lon="5.48821">
        <ele>1187.0467529297</ele>
        <time>2011-08-10T15:37:12Z</time>
      </trkpt>
      <trkpt lat="45.06236" lon="5.48803">
        <ele>1186.4884033203</ele>
        <time>2011-08-10T15:37:17Z</time>
      </trkpt>
      <trkpt lat="45.0622" lon="5.48784">
        <ele>1187.9985351562</ele>
        <time>2011-08-10T15:37:22Z</time>
      </trkpt>
      <trkpt lat="45.06205" lon="5.48763">
        <ele>1185.4151611328</ele>
        <time>2011-08-10T15:37:28Z</time>
      </trkpt>
      <trkpt lat="45.06186" lon="5.48745">
        <ele>1187.9234619141</ele>
        <time>2011-08-10T15:37:34Z</time>
      </trkpt>
      <trkpt lat="45.06166" lon="5.48727">
        <ele>1196.0797119141</ele>
        <time>2011-08-10T15:37:39Z</time>
      </trkpt>
      <trkpt lat="45.06147" lon="5.48713">
        <ele>1198.2861328125</ele>
        <time>2011-08-10T15:37:44Z</time>
      </trkpt>
      <trkpt lat="45.0614" lon="5.48707">
        <ele>1199.0959472656</ele>
        <time>2011-08-10T15:37:46Z</time>
      </trkpt>
      <trkpt lat="45.06113" lon="5.48687">
        <ele>1207.3553466797</ele>
        <time>2011-08-10T15:37:53Z</time>
      </trkpt>
      <trkpt lat="45.06105" lon="5.4868">
        <ele>1210.0463867188</ele>
        <time>2011-08-10T15:37:55Z</time>
      </trkpt>
      <trkpt lat="45.06095" lon="5.48667">
        <ele>1214.2564697266</ele>
        <time>2011-08-10T15:37:58Z</time>
      </trkpt>
      <trkpt lat="45.06083" lon="5.48636">
        <ele>1215.9680175781</ele>
        <time>2011-08-10T15:38:03Z</time>
      </trkpt>
      <trkpt lat="45.0608" lon="5.4862">
        <ele>1216.0427246094</ele>
        <time>2011-08-10T15:38:05Z</time>
      </trkpt>
      <trkpt lat="45.06066" lon="5.4859">
        <ele>1218.5642089844</ele>
        <time>2011-08-10T15:38:10Z</time>
      </trkpt>
      <trkpt lat="45.06042" lon="5.48554">
        <ele>1225.4942626953</ele>
        <time>2011-08-10T15:38:17Z</time>
      </trkpt>
      <trkpt lat="45.06039" lon="5.48549">
        <ele>1226.9969482422</ele>
        <time>2011-08-10T15:38:18Z</time>
      </trkpt>
      <trkpt lat="45.06023" lon="5.48531">
        <ele>1232.3626708984</ele>
        <time>2011-08-10T15:38:23Z</time>
      </trkpt>
      <trkpt lat="45.06006" lon="5.48506">
        <ele>1232.4812011719</ele>
        <time>2011-08-10T15:38:28Z</time>
      </trkpt>
      <trkpt lat="45.05976" lon="5.48458">
        <ele>1232.4311523438</ele>
        <time>2011-08-10T15:38:37Z</time>
      </trkpt>
      <trkpt lat="45.05967" lon="5.4844">
        <ele>1229.1430664062</ele>
        <time>2011-08-10T15:38:40Z</time>
      </trkpt>
      <trkpt lat="45.05952" lon="5.48415">
        <ele>1229.1446533203</ele>
        <time>2011-08-10T15:38:45Z</time>
      </trkpt>
      <trkpt lat="45.05929" lon="5.48379">
        <ele>1226.6745605469</ele>
        <time>2011-08-10T15:38:52Z</time>
      </trkpt>
      <trkpt lat="45.05915" lon="5.48356">
        <ele>1225.2076416016</ele>
        <time>2011-08-10T15:38:57Z</time>
      </trkpt>
      <trkpt lat="45.05901" lon="5.48331">
        <ele>1223.6737060547</ele>
        <time>2011-08-10T15:39:02Z</time>
      </trkpt>
      <trkpt lat="45.05889" lon="5.48308">
        <ele>1222.3935546875</ele>
        <time>2011-08-10T15:39:07Z</time>
      </trkpt>
      <trkpt lat="45.05873" lon="5.4828">
        <ele>1227.3807373047</ele>
        <time>2011-08-10T15:39:13Z</time>
      </trkpt>
      <trkpt lat="45.05868" lon="5.4827">
        <ele>1229.0070800781</ele>
        <time>2011-08-10T15:39:15Z</time>
      </trkpt>
      <trkpt lat="45.05853" lon="5.48242">
        <ele>1230.8760986328</ele>
        <time>2011-08-10T15:39:21Z</time>
      </trkpt>
      <trkpt lat="45.05849" lon="5.48237">
        <ele>1231.2297363281</ele>
        <time>2011-08-10T15:39:22Z</time>
      </trkpt>
      <trkpt lat="45.05831" lon="5.48209">
        <ele>1232.4591064453</ele>
        <time>2011-08-10T15:39:28Z</time>
      </trkpt>
      <trkpt lat="45.05821" lon="5.48186">
        <ele>1232.1363525391</ele>
        <time>2011-08-10T15:39:32Z</time>
      </trkpt>
      <trkpt lat="45.0581" lon="5.48146">
        <ele>1230.1910400391</ele>
        <time>2011-08-10T15:39:39Z</time>
      </trkpt>
      <trkpt lat="45.05803" lon="5.48129">
        <ele>1231.0848388672</ele>
        <time>2011-08-10T15:39:43Z</time>
      </trkpt>
      <trkpt lat="45.05796" lon="5.48107">
        <ele>1233.1691894531</ele>
        <time>2011-08-10T15:39:47Z</time>
      </trkpt>
      <trkpt lat="45.05783" lon="5.48067">
        <ele>1236.8732910156</ele>
        <time>2011-08-10T15:39:54Z</time>
      </trkpt>
      <trkpt lat="45.05774" lon="5.48036">
        <ele>1238.0430908203</ele>
        <time>2011-08-10T15:40:00Z</time>
      </trkpt>
      <trkpt lat="45.05762" lon="5.48011">
        <ele>1238.6068115234</ele>
        <time>2011-08-10T15:40:06Z</time>
      </trkpt>
      <trkpt lat="45.05759" lon="5.47994">
        <ele>1239</ele>
        <time>2011-08-10T15:40:10Z</time>
      </trkpt>
      <trkpt lat="45.05754" lon="5.4797">
        <ele>1239.0693359375</ele>
        <time>2011-08-10T15:40:15Z</time>
      </trkpt>
      <trkpt lat="45.05753" lon="5.47931">
        <ele>1240</ele>
        <time>2011-08-10T15:40:22Z</time>
      </trkpt>
      <trkpt lat="45.05736" lon="5.47902">
        <ele>1243.1878662109</ele>
        <time>2011-08-10T15:40:29Z</time>
      </trkpt>
      <trkpt lat="45.05727" lon="5.47885">
        <ele>1245.9578857422</ele>
        <time>2011-08-10T15:40:33Z</time>
      </trkpt>
      <trkpt lat="45.05718" lon="5.47853">
        <ele>1251.4248046875</ele>
        <time>2011-08-10T15:40:39Z</time>
      </trkpt>
      <trkpt lat="45.057" lon="5.47828">
        <ele>1256.8565673828</ele>
        <time>2011-08-10T15:40:45Z</time>
      </trkpt>
      <trkpt lat="45.05695" lon="5.47821">
        <ele>1257.8569335938</ele>
        <time>2011-08-10T15:40:47Z</time>
      </trkpt>
      <trkpt lat="45.05684" lon="5.47796">
        <ele>1260.7927246094</ele>
        <time>2011-08-10T15:40:52Z</time>
      </trkpt>
      <trkpt lat="45.05672" lon="5.47785">
        <ele>1260.5843505859</ele>
        <time>2011-08-10T15:40:55Z</time>
      </trkpt>
      <trkpt lat="45.05657" lon="5.4777">
        <ele>1261.404296875</ele>
        <time>2011-08-10T15:40:59Z</time>
      </trkpt>
      <trkpt lat="45.05641" lon="5.47757">
        <ele>1263.1285400391</ele>
        <time>2011-08-10T15:41:03Z</time>
      </trkpt>
      <trkpt lat="45.05617" lon="5.47735">
        <ele>1264.6114501953</ele>
        <time>2011-08-10T15:41:10Z</time>
      </trkpt>
      <trkpt lat="45.05597" lon="5.47718">
        <ele>1266.21484375</ele>
        <time>2011-08-10T15:41:16Z</time>
      </trkpt>
      <trkpt lat="45.05579" lon="5.477">
        <ele>1268.7935791016</ele>
        <time>2011-08-10T15:41:22Z</time>
      </trkpt>
      <trkpt lat="45.05564" lon="5.47682">
        <ele>1270.65234375</ele>
        <time>2011-08-10T15:41:27Z</time>
      </trkpt>
      <trkpt lat="45.05548" lon="5.47656">
        <ele>1273.7479248047</ele>
        <time>2011-08-10T15:41:34Z</time>
      </trkpt>
      <trkpt lat="45.05531" lon="5.47642">
        <ele>1276.4670410156</ele>
        <time>2011-08-10T15:41:41Z</time>
      </trkpt>
      <trkpt lat="45.05513" lon="5.47634">
        <ele>1277.3602294922</ele>
        <time>2011-08-10T15:41:48Z</time>
      </trkpt>
      <trkpt lat="45.05495" lon="5.4763">
        <ele>1277.9459228516</ele>
        <time>2011-08-10T15:41:54Z</time>
      </trkpt>
      <trkpt lat="45.05474" lon="5.47626">
        <ele>1279.3846435547</ele>
        <time>2011-08-10T15:42:01Z</time>
      </trkpt>
      <trkpt lat="45.05465" lon="5.47621">
        <ele>1280.0972900391</ele>
        <time>2011-08-10T15:42:06Z</time>
      </trkpt>
      <trkpt lat="45.05459" lon="5.47613">
        <ele>1280.8115234375</ele>
        <time>2011-08-10T15:42:11Z</time>
      </trkpt>
      <trkpt lat="45.05453" lon="5.47608">
        <ele>1281.9948730469</ele>
        <time>2011-08-10T15:42:17Z</time>
      </trkpt>
      <trkpt lat="45.05449" lon="5.47606">
        <ele>1282.8044433594</ele>
        <time>2011-08-10T15:42:21Z</time>
      </trkpt>
      <trkpt lat="45.05448" lon="5.47605">
        <ele>1283.0661621094</ele>
        <time>2011-08-10T15:42:22Z</time>
      </trkpt>
      <trkpt lat="45.05438" lon="5.47598">
        <ele>1285.1907958984</ele>
        <time>2011-08-10T15:42:28Z</time>
      </trkpt>
      <trkpt lat="45.05427" lon="5.47596">
        <ele>1286.533203125</ele>
        <time>2011-08-10T15:42:34Z</time>
      </trkpt>
      <trkpt lat="45.05412" lon="5.47591">
        <ele>1289.1036376953</ele>
        <time>2011-08-10T15:42:41Z</time>
      </trkpt>
      <trkpt lat="45.05394" lon="5.47589">
        <ele>1292.1931152344</ele>
        <time>2011-08-10T15:42:48Z</time>
      </trkpt>
      <trkpt lat="45.05381" lon="5.47585">
        <ele>1293.9517822266</ele>
        <time>2011-08-10T15:42:54Z</time>
      </trkpt>
      <trkpt lat="45.0537" lon="5.4758">
        <ele>1295.255859375</ele>
        <time>2011-08-10T15:42:59Z</time>
      </trkpt>
      <trkpt lat="45.05357" lon="5.47572">
        <ele>1296.6614990234</ele>
        <time>2011-08-10T15:43:04Z</time>
      </trkpt>
      <trkpt lat="45.05339" lon="5.47559">
        <ele>1298.5760498047</ele>
        <time>2011-08-10T15:43:11Z</time>
      </trkpt>
      <trkpt lat="45.05328" lon="5.47551">
        <ele>1299.8021240234</ele>
        <time>2011-08-10T15:43:16Z</time>
      </trkpt>
      <trkpt lat="45.05316" lon="5.47542">
        <ele>1301.2755126953</ele>
        <time>2011-08-10T15:43:21Z</time>
      </trkpt>
      <trkpt lat="45.05301" lon="5.47529">
        <ele>1302.8905029297</ele>
        <time>2011-08-10T15:43:28Z</time>
      </trkpt>
      <trkpt lat="45.05284" lon="5.47521">
        <ele>1304.7272949219</ele>
        <time>2011-08-10T15:43:34Z</time>
      </trkpt>
      <trkpt lat="45.05274" lon="5.47517">
        <ele>1305.6885986328</ele>
        <time>2011-08-10T15:43:38Z</time>
      </trkpt>
      <trkpt lat="45.05256" lon="5.47512">
        <ele>1307.0463867188</ele>
        <time>2011-08-10T15:43:44Z</time>
      </trkpt>
      <trkpt lat="45.05243" lon="5.47506">
        <ele>1308.1749267578</ele>
        <time>2011-08-10T15:43:49Z</time>
      </trkpt>
      <trkpt lat="45.0523" lon="5.475">
        <ele>1309.3784179688</ele>
        <time>2011-08-10T15:43:55Z</time>
      </trkpt>
      <trkpt lat="45.05224" lon="5.47495">
        <ele>1310.2130126953</ele>
        <time>2011-08-10T15:43:59Z</time>
      </trkpt>
      <trkpt lat="45.05218" lon="5.47491">
        <ele>1311.5806884766</ele>
        <time>2011-08-10T15:44:02Z</time>
      </trkpt>
      <trkpt lat="45.05204" lon="5.47485">
        <ele>1314.3371582031</ele>
        <time>2011-08-10T15:44:09Z</time>
      </trkpt>
      <trkpt lat="45.05197" lon="5.47478">
        <ele>1316.1114501953</ele>
        <time>2011-08-10T15:44:14Z</time>
      </trkpt>
      <trkpt lat="45.05187" lon="5.47472">
        <ele>1317.0228271484</ele>
        <time>2011-08-10T15:44:19Z</time>
      </trkpt>
      <trkpt lat="45.05168" lon="5.47459">
        <ele>1319.3659667969</ele>
        <time>2011-08-10T15:44:26Z</time>
      </trkpt>
      <trkpt lat="45.05149" lon="5.47448">
        <ele>1322.65625</ele>
        <time>2011-08-10T15:44:33Z</time>
      </trkpt>
      <trkpt lat="45.05136" lon="5.47435">
        <ele>1325.1616210938</ele>
        <time>2011-08-10T15:44:39Z</time>
      </trkpt>
      <trkpt lat="45.05114" lon="5.47426">
        <ele>1326.9211425781</ele>
        <time>2011-08-10T15:44:47Z</time>
      </trkpt>
      <trkpt lat="45.05099" lon="5.47424">
        <ele>1328.1531982422</ele>
        <time>2011-08-10T15:44:52Z</time>
      </trkpt>
      <trkpt lat="45.05081" lon="5.47423">
        <ele>1329.3695068359</ele>
        <time>2011-08-10T15:44:58Z</time>
      </trkpt>
      <trkpt lat="45.0507" lon="5.47422">
        <ele>1329.3798828125</ele>
        <time>2011-08-10T15:45:03Z</time>
      </trkpt>
      <trkpt lat="45.05062" lon="5.47424">
        <ele>1329.1840820312</ele>
        <time>2011-08-10T15:45:07Z</time>
      </trkpt>
      <trkpt lat="45.05051" lon="5.47425">
        <ele>1329.4782714844</ele>
        <time>2011-08-10T15:45:12Z</time>
      </trkpt>
      <trkpt lat="45.05044" lon="5.47422">
        <ele>1330.2268066406</ele>
        <time>2011-08-10T15:45:16Z</time>
      </trkpt>
      <trkpt lat="45.05029" lon="5.47424">
        <ele>1331.1279296875</ele>
        <time>2011-08-10T15:45:23Z</time>
      </trkpt>
      <trkpt lat="45.05017" lon="5.47428">
        <ele>1331.5708007812</ele>
        <time>2011-08-10T15:45:29Z</time>
      </trkpt>
      <trkpt lat="45.05007" lon="5.47425">
        <ele>1332.5493164062</ele>
        <time>2011-08-10T15:45:34Z</time>
      </trkpt>
      <trkpt lat="45.0499" lon="5.47421">
        <ele>1334.6291503906</ele>
        <time>2011-08-10T15:45:41Z</time>
      </trkpt>
      <trkpt lat="45.04985" lon="5.47421">
        <ele>1335.11328125</ele>
        <time>2011-08-10T15:45:43Z</time>
      </trkpt>
      <trkpt lat="45.04976" lon="5.47415">
        <ele>1337.0848388672</ele>
        <time>2011-08-10T15:45:48Z</time>
      </trkpt>
      <trkpt lat="45.04965" lon="5.47412">
        <ele>1338.8756103516</ele>
        <time>2011-08-10T15:45:53Z</time>
      </trkpt>
      <trkpt lat="45.04962" lon="5.47412">
        <ele>1339.1330566406</ele>
        <time>2011-08-10T15:45:54Z</time>
      </trkpt>
      <trkpt lat="45.04942" lon="5.47409">
        <ele>1342.0144042969</ele>
        <time>2011-08-10T15:46:02Z</time>
      </trkpt>
      <trkpt lat="45.04929" lon="5.47404">
        <ele>1344.9979248047</ele>
        <time>2011-08-10T15:46:08Z</time>
      </trkpt>
      <trkpt lat="45.04914" lon="5.474">
        <ele>1347.9758300781</ele>
        <time>2011-08-10T15:46:15Z</time>
      </trkpt>
      <trkpt lat="45.049" lon="5.47402">
        <ele>1349.2615966797</ele>
        <time>2011-08-10T15:46:22Z</time>
      </trkpt>
      <trkpt lat="45.04889" lon="5.47404">
        <ele>1350.1397705078</ele>
        <time>2011-08-10T15:46:28Z</time>
      </trkpt>
      <trkpt lat="45.04877" lon="5.47408">
        <ele>1351.2375488281</ele>
        <time>2011-08-10T15:46:34Z</time>
      </trkpt>
      <trkpt lat="45.04865" lon="5.47409">
        <ele>1353.0423583984</ele>
        <time>2011-08-10T15:46:40Z</time>
      </trkpt>
      <trkpt lat="45.04852" lon="5.47414">
        <ele>1353.5935058594</ele>
        <time>2011-08-10T15:46:46Z</time>
      </trkpt>
      <trkpt lat="45.04838" lon="5.4742">
        <ele>1354.0218505859</ele>
        <time>2011-08-10T15:46:52Z</time>
      </trkpt>
      <trkpt lat="45.04824" lon="5.47426">
        <ele>1355.9604492188</ele>
        <time>2011-08-10T15:46:58Z</time>
      </trkpt>
      <trkpt lat="45.04813" lon="5.47432">
        <ele>1358.3310546875</ele>
        <time>2011-08-10T15:47:04Z</time>
      </trkpt>
      <trkpt lat="45.04802" lon="5.47441">
        <ele>1359.8693847656</ele>
        <time>2011-08-10T15:47:09Z</time>
      </trkpt>
      <trkpt lat="45.04787" lon="5.47452">
        <ele>1359.5578613281</ele>
        <time>2011-08-10T15:47:17Z</time>
      </trkpt>
      <trkpt lat="45.04779" lon="5.47455">
        <ele>1359.8891601562</ele>
        <time>2011-08-10T15:47:23Z</time>
      </trkpt>
      <trkpt lat="45.04767" lon="5.47462">
        <ele>1360.2421875</ele>
        <time>2011-08-10T15:47:30Z</time>
      </trkpt>
      <trkpt lat="45.04757" lon="5.47469">
        <ele>1360.0184326172</ele>
        <time>2011-08-10T15:47:35Z</time>
      </trkpt>
      <trkpt lat="45.04738" lon="5.47478">
        <ele>1360.5958251953</ele>
        <time>2011-08-10T15:47:44Z</time>
      </trkpt>
      <trkpt lat="45.04726" lon="5.47483">
        <ele>1361.1013183594</ele>
        <time>2011-08-10T15:47:49Z</time>
      </trkpt>
      <trkpt lat="45.04711" lon="5.47488">
        <ele>1362.5517578125</ele>
        <time>2011-08-10T15:47:55Z</time>
      </trkpt>
      <trkpt lat="45.04697" lon="5.47496">
        <ele>1363.2957763672</ele>
        <time>2011-08-10T15:48:01Z</time>
      </trkpt>
      <trkpt lat="45.04677" lon="5.47504">
        <ele>1363.5394287109</ele>
        <time>2011-08-10T15:48:09Z</time>
      </trkpt>
      <trkpt lat="45.0466" lon="5.47513">
        <ele>1364.2540283203</ele>
        <time>2011-08-10T15:48:15Z</time>
      </trkpt>
      <trkpt lat="45.0464" lon="5.47519">
        <ele>1367.5335693359</ele>
        <time>2011-08-10T15:48:22Z</time>
      </trkpt>
      <trkpt lat="45.04617" lon="5.47529">
        <ele>1369.8000488281</ele>
        <time>2011-08-10T15:48:30Z</time>
      </trkpt>
      <trkpt lat="45.046" lon="5.47532">
        <ele>1371.5167236328</ele>
        <time>2011-08-10T15:48:36Z</time>
      </trkpt>
      <trkpt lat="45.04586" lon="5.47536">
        <ele>1372.5810546875</ele>
        <time>2011-08-10T15:48:41Z</time>
      </trkpt>
      <trkpt lat="45.0457" lon="5.47536">
        <ele>1374.2030029297</ele>
        <time>2011-08-10T15:48:47Z</time>
      </trkpt>
      <trkpt lat="45.04554" lon="5.47542">
        <ele>1375.6372070312</ele>
        <time>2011-08-10T15:48:53Z</time>
      </trkpt>
      <trkpt lat="45.04539" lon="5.47551">
        <ele>1377.0422363281</ele>
        <time>2011-08-10T15:48:58Z</time>
      </trkpt>
      <trkpt lat="45.04523" lon="5.47559">
        <ele>1378.0062255859</ele>
        <time>2011-08-10T15:49:04Z</time>
      </trkpt>
      <trkpt lat="45.04505" lon="5.47565">
        <ele>1378.6481933594</ele>
        <time>2011-08-10T15:49:10Z</time>
      </trkpt>
      <trkpt lat="45.04494" lon="5.47568">
        <ele>1378.8353271484</ele>
        <time>2011-08-10T15:49:14Z</time>
      </trkpt>
      <trkpt lat="45.0448" lon="5.47569">
        <ele>1379.2805175781</ele>
        <time>2011-08-10T15:49:19Z</time>
      </trkpt>
      <trkpt lat="45.04457" lon="5.47572">
        <ele>1379.4185791016</ele>
        <time>2011-08-10T15:49:26Z</time>
      </trkpt>
      <trkpt lat="45.04442" lon="5.47573">
        <ele>1379.4727783203</ele>
        <time>2011-08-10T15:49:31Z</time>
      </trkpt>
      <trkpt lat="45.04425" lon="5.47574">
        <ele>1380.0325927734</ele>
        <time>2011-08-10T15:49:36Z</time>
      </trkpt>
      <trkpt lat="45.04409" lon="5.47578">
        <ele>1379.7403564453</ele>
        <time>2011-08-10T15:49:41Z</time>
      </trkpt>
      <trkpt lat="45.0439" lon="5.47588">
        <ele>1379</ele>
        <time>2011-08-10T15:49:46Z</time>
      </trkpt>
      <trkpt lat="45.04367" lon="5.47589">
        <ele>1379</ele>
        <time>2011-08-10T15:49:52Z</time>
      </trkpt>
      <trkpt lat="45.04343" lon="5.47582">
        <ele>1379.1499023438</ele>
        <time>2011-08-10T15:49:58Z</time>
      </trkpt>
      <trkpt lat="45.04335" lon="5.4758">
        <ele>1379.5206298828</ele>
        <time>2011-08-10T15:50:00Z</time>
      </trkpt>
      <trkpt lat="45.04307" lon="5.47576">
        <ele>1380.0013427734</ele>
        <time>2011-08-10T15:50:06Z</time>
      </trkpt>
      <trkpt lat="45.04291" lon="5.47576">
        <ele>1380.3992919922</ele>
        <time>2011-08-10T15:50:09Z</time>
      </trkpt>
      <trkpt lat="45.04269" lon="5.47573">
        <ele>1381.1713867188</ele>
        <time>2011-08-10T15:50:13Z</time>
      </trkpt>
      <trkpt lat="45.04233" lon="5.47566">
        <ele>1382.7679443359</ele>
        <time>2011-08-10T15:50:19Z</time>
      </trkpt>
      <trkpt lat="45.04215" lon="5.4757">
        <ele>1381.8615722656</ele>
        <time>2011-08-10T15:50:23Z</time>
      </trkpt>
      <trkpt lat="45.0421" lon="5.47573">
        <ele>1381.1405029297</ele>
        <time>2011-08-10T15:50:27Z</time>
      </trkpt>
      <trkpt lat="45.04201" lon="5.47571">
        <ele>1381.6246337891</ele>
        <time>2011-08-10T15:53:09Z</time>
      </trkpt>
      <trkpt lat="45.0419" lon="5.47582">
        <ele>1379.3792724609</ele>
        <time>2011-08-10T15:53:15Z</time>
      </trkpt>
      <trkpt lat="45.04173" lon="5.47595">
        <ele>1376.9349365234</ele>
        <time>2011-08-10T15:53:19Z</time>
      </trkpt>
      <trkpt lat="45.0416" lon="5.47606">
        <ele>1374.9044189453</ele>
        <time>2011-08-10T15:53:21Z</time>
      </trkpt>
      <trkpt lat="45.04128" lon="5.4763">
        <ele>1371.7260742188</ele>
        <time>2011-08-10T15:53:26Z</time>
      </trkpt>
      <trkpt lat="45.04091" lon="5.47638">
        <ele>1370.8443603516</ele>
        <time>2011-08-10T15:53:31Z</time>
      </trkpt>
      <trkpt lat="45.04082" lon="5.47638">
        <ele>1371.2152099609</ele>
        <time>2011-08-10T15:53:35Z</time>
      </trkpt>
      <trkpt lat="45.04064" lon="5.47638">
        <ele>1371.8331298828</ele>
        <time>2011-08-10T15:53:40Z</time>
      </trkpt>
      <trkpt lat="45.04049" lon="5.47637">
        <ele>1373.0200195312</ele>
        <time>2011-08-10T15:53:43Z</time>
      </trkpt>
      <trkpt lat="45.04016" lon="5.47637">
        <ele>1376.6195068359</ele>
        <time>2011-08-10T15:53:48Z</time>
      </trkpt>
      <trkpt lat="45.03975" lon="5.4763">
        <ele>1382.0467529297</ele>
        <time>2011-08-10T15:53:54Z</time>
      </trkpt>
      <trkpt lat="45.03939" lon="5.47626">
        <ele>1382.7387695312</ele>
        <time>2011-08-10T15:53:59Z</time>
      </trkpt>
      <trkpt lat="45.039" lon="5.47622">
        <ele>1383.9240722656</ele>
        <time>2011-08-10T15:54:04Z</time>
      </trkpt>
      <trkpt lat="45.03858" lon="5.47616">
        <ele>1385.853515625</ele>
        <time>2011-08-10T15:54:09Z</time>
      </trkpt>
      <trkpt lat="45.0385" lon="5.47614">
        <ele>1386.5093994141</ele>
        <time>2011-08-10T15:54:10Z</time>
      </trkpt>
      <trkpt lat="45.03831" lon="5.47614">
        <ele>1387.0300292969</ele>
        <time>2011-08-10T15:54:12Z</time>
      </trkpt>
      <trkpt lat="45.03792" lon="5.47626">
        <ele>1385.2698974609</ele>
        <time>2011-08-10T15:54:17Z</time>
      </trkpt>
      <trkpt lat="45.03784" lon="5.47629">
        <ele>1385.4727783203</ele>
        <time>2011-08-10T15:54:18Z</time>
      </trkpt>
      <trkpt lat="45.03759" lon="5.47637">
        <ele>1384.4111328125</ele>
        <time>2011-08-10T15:54:21Z</time>
      </trkpt>
      <trkpt lat="45.0374" lon="5.47642">
        <ele>1383.7593994141</ele>
        <time>2011-08-10T15:54:23Z</time>
      </trkpt>
      <trkpt lat="45.03707" lon="5.47649">
        <ele>1384.0372314453</ele>
        <time>2011-08-10T15:54:27Z</time>
      </trkpt>
      <trkpt lat="45.03674" lon="5.47651">
        <ele>1382.5574951172</ele>
        <time>2011-08-10T15:54:31Z</time>
      </trkpt>
      <trkpt lat="45.03657" lon="5.47655">
        <ele>1380.0684814453</ele>
        <time>2011-08-10T15:54:33Z</time>
      </trkpt>
      <trkpt lat="45.03642" lon="5.47661">
        <ele>1376.9560546875</ele>
        <time>2011-08-10T15:54:35Z</time>
      </trkpt>
      <trkpt lat="45.0359" lon="5.47671">
        <ele>1371.7482910156</ele>
        <time>2011-08-10T15:54:41Z</time>
      </trkpt>
      <trkpt lat="45.03563" lon="5.47675">
        <ele>1369.2585449219</ele>
        <time>2011-08-10T15:54:44Z</time>
      </trkpt>
      <trkpt lat="45.03503" lon="5.47696">
        <ele>1363.7698974609</ele>
        <time>2011-08-10T15:54:50Z</time>
      </trkpt>
      <trkpt lat="45.03466" lon="5.47707">
        <ele>1353.8897705078</ele>
        <time>2011-08-10T15:54:54Z</time>
      </trkpt>
      <trkpt lat="45.03438" lon="5.47693">
        <ele>1349.2874755859</ele>
        <time>2011-08-10T15:54:57Z</time>
      </trkpt>
      <trkpt lat="45.03428" lon="5.47668">
        <ele>1348.3818359375</ele>
        <time>2011-08-10T15:54:59Z</time>
      </trkpt>
      <trkpt lat="45.03425" lon="5.47623">
        <ele>1355.0330810547</ele>
        <time>2011-08-10T15:55:02Z</time>
      </trkpt>
      <trkpt lat="45.03419" lon="5.47564">
        <ele>1363.3469238281</ele>
        <time>2011-08-10T15:55:06Z</time>
      </trkpt>
      <trkpt lat="45.03375" lon="5.47551">
        <ele>1353.6688232422</ele>
        <time>2011-08-10T15:55:10Z</time>
      </trkpt>
      <trkpt lat="45.03362" lon="5.47548">
        <ele>1351.0384521484</ele>
        <time>2011-08-10T15:55:11Z</time>
      </trkpt>
      <trkpt lat="45.03335" lon="5.47499">
        <ele>1350.7384033203</ele>
        <time>2011-08-10T15:55:15Z</time>
      </trkpt>
      <trkpt lat="45.03331" lon="5.47484">
        <ele>1351.0008544922</ele>
        <time>2011-08-10T15:55:16Z</time>
      </trkpt>
      <trkpt lat="45.03316" lon="5.47422">
        <ele>1352.0286865234</ele>
        <time>2011-08-10T15:55:20Z</time>
      </trkpt>
      <trkpt lat="45.03311" lon="5.47407">
        <ele>1350.9711914062</ele>
        <time>2011-08-10T15:55:21Z</time>
      </trkpt>
      <trkpt lat="45.03282" lon="5.47377">
        <ele>1347.3876953125</ele>
        <time>2011-08-10T15:55:24Z</time>
      </trkpt>
      <trkpt lat="45.03261" lon="5.47364">
        <ele>1341.7686767578</ele>
        <time>2011-08-10T15:55:26Z</time>
      </trkpt>
      <trkpt lat="45.03226" lon="5.47345">
        <ele>1336.2044677734</ele>
        <time>2011-08-10T15:55:29Z</time>
      </trkpt>
      <trkpt lat="45.03167" lon="5.47319">
        <ele>1331.0629882812</ele>
        <time>2011-08-10T15:55:34Z</time>
      </trkpt>
      <trkpt lat="45.0312" lon="5.47292">
        <ele>1329.9477539062</ele>
        <time>2011-08-10T15:55:38Z</time>
      </trkpt>
      <trkpt lat="45.03086" lon="5.47275">
        <ele>1327.4887695312</ele>
        <time>2011-08-10T15:55:41Z</time>
      </trkpt>
      <trkpt lat="45.03051" lon="5.4727">
        <ele>1324.3197021484</ele>
        <time>2011-08-10T15:55:44Z</time>
      </trkpt>
      <trkpt lat="45.03002" lon="5.47266">
        <ele>1319.4468994141</ele>
        <time>2011-08-10T15:55:48Z</time>
      </trkpt>
      <trkpt lat="45.02954" lon="5.47258">
        <ele>1319.1879882812</ele>
        <time>2011-08-10T15:55:52Z</time>
      </trkpt>
      <trkpt lat="45.02922" lon="5.47259">
        <ele>1319.8101806641</ele>
        <time>2011-08-10T15:55:55Z</time>
      </trkpt>
      <trkpt lat="45.029" lon="5.47257">
        <ele>1320.3592529297</ele>
        <time>2011-08-10T15:55:57Z</time>
      </trkpt>
      <trkpt lat="45.02856" lon="5.4724">
        <ele>1322.1604003906</ele>
        <time>2011-08-10T15:56:01Z</time>
      </trkpt>
      <trkpt lat="45.02808" lon="5.47234">
        <ele>1321.5618896484</ele>
        <time>2011-08-10T15:56:05Z</time>
      </trkpt>
      <trkpt lat="45.02776" lon="5.47246">
        <ele>1319.8615722656</ele>
        <time>2011-08-10T15:56:08Z</time>
      </trkpt>
      <trkpt lat="45.02745" lon="5.47248">
        <ele>1314.4509277344</ele>
        <time>2011-08-10T15:56:11Z</time>
      </trkpt>
      <trkpt lat="45.02675" lon="5.47244">
        <ele>1307.0959472656</ele>
        <time>2011-08-10T15:56:17Z</time>
      </trkpt>
      <trkpt lat="45.02641" lon="5.47231">
        <ele>1307.1003417969</ele>
        <time>2011-08-10T15:56:20Z</time>
      </trkpt>
      <trkpt lat="45.02598" lon="5.47212">
        <ele>1311.8605957031</ele>
        <time>2011-08-10T15:56:24Z</time>
      </trkpt>
      <trkpt lat="45.02548" lon="5.472">
        <ele>1307.4479980469</ele>
        <time>2011-08-10T15:56:29Z</time>
      </trkpt>
      <trkpt lat="45.02515" lon="5.47193">
        <ele>1310.3135986328</ele>
        <time>2011-08-10T15:56:33Z</time>
      </trkpt>
      <trkpt lat="45.02489" lon="5.47188">
        <ele>1318.0270996094</ele>
        <time>2011-08-10T15:56:36Z</time>
      </trkpt>
      <trkpt lat="45.02453" lon="5.47189">
        <ele>1318.3253173828</ele>
        <time>2011-08-10T15:56:40Z</time>
      </trkpt>
      <trkpt lat="45.02408" lon="5.4719">
        <ele>1310.5368652344</ele>
        <time>2011-08-10T15:56:45Z</time>
      </trkpt>
      <trkpt lat="45.02399" lon="5.47189">
        <ele>1309.6149902344</ele>
        <time>2011-08-10T15:56:46Z</time>
      </trkpt>
      <trkpt lat="45.02343" lon="5.47181">
        <ele>1304.2037353516</ele>
        <time>2011-08-10T15:56:52Z</time>
      </trkpt>
      <trkpt lat="45.02325" lon="5.47181">
        <ele>1302.2171630859</ele>
        <time>2011-08-10T15:56:54Z</time>
      </trkpt>
      <trkpt lat="45.02271" lon="5.47168">
        <ele>1301.6704101562</ele>
        <time>2011-08-10T15:57:00Z</time>
      </trkpt>
      <trkpt lat="45.02237" lon="5.47172">
        <ele>1305.5296630859</ele>
        <time>2011-08-10T15:57:04Z</time>
      </trkpt>
      <trkpt lat="45.02189" lon="5.47199">
        <ele>1310.1309814453</ele>
        <time>2011-08-10T15:57:11Z</time>
      </trkpt>
      <trkpt lat="45.02154" lon="5.4721">
        <ele>1313.1413574219</ele>
        <time>2011-08-10T15:57:16Z</time>
      </trkpt>
      <trkpt lat="45.02147" lon="5.47212">
        <ele>1313.6014404297</ele>
        <time>2011-08-10T15:57:17Z</time>
      </trkpt>
      <trkpt lat="45.02119" lon="5.47217">
        <ele>1314.5291748047</ele>
        <time>2011-08-10T15:57:21Z</time>
      </trkpt>
      <trkpt lat="45.02101" lon="5.47226">
        <ele>1314.3514404297</ele>
        <time>2011-08-10T15:57:24Z</time>
      </trkpt>
      <trkpt lat="45.02076" lon="5.47244">
        <ele>1313.6145019531</ele>
        <time>2011-08-10T15:57:28Z</time>
      </trkpt>
      <trkpt lat="45.02047" lon="5.47283">
        <ele>1309.0202636719</ele>
        <time>2011-08-10T15:57:34Z</time>
      </trkpt>
      <trkpt lat="45.02036" lon="5.47299">
        <ele>1308.1396484375</ele>
        <time>2011-08-10T15:57:37Z</time>
      </trkpt>
      <trkpt lat="45.02006" lon="5.47323">
        <ele>1308.3859863281</ele>
        <time>2011-08-10T15:57:43Z</time>
      </trkpt>
      <trkpt lat="45.01971" lon="5.47328">
        <ele>1312.3903808594</ele>
        <time>2011-08-10T15:57:49Z</time>
      </trkpt>
      <trkpt lat="45.01966" lon="5.47326">
        <ele>1312.3216552734</ele>
        <time>2011-08-10T15:57:50Z</time>
      </trkpt>
      <trkpt lat="45.01924" lon="5.47306">
        <ele>1312.1956787109</ele>
        <time>2011-08-10T15:57:58Z</time>
      </trkpt>
      <trkpt lat="45.01888" lon="5.4729">
        <ele>1313.5817871094</ele>
        <time>2011-08-10T15:58:05Z</time>
      </trkpt>
      <trkpt lat="45.01867" lon="5.47275">
        <ele>1313.7683105469</ele>
        <time>2011-08-10T15:58:09Z</time>
      </trkpt>
      <trkpt lat="45.01835" lon="5.4725">
        <ele>1318.8054199219</ele>
        <time>2011-08-10T15:58:15Z</time>
      </trkpt>
      <trkpt lat="45.01806" lon="5.47239">
        <ele>1319.7769775391</ele>
        <time>2011-08-10T15:58:20Z</time>
      </trkpt>
      <trkpt lat="45.01768" lon="5.47233">
        <ele>1320.2370605469</ele>
        <time>2011-08-10T15:58:27Z</time>
      </trkpt>
      <trkpt lat="45.01731" lon="5.47227">
        <ele>1320.0949707031</ele>
        <time>2011-08-10T15:58:33Z</time>
      </trkpt>
      <trkpt lat="45.01724" lon="5.47226">
        <ele>1319.9305419922</ele>
        <time>2011-08-10T15:58:34Z</time>
      </trkpt>
      <trkpt lat="45.01696" lon="5.47236">
        <ele>1318.5999755859</ele>
        <time>2011-08-10T15:58:38Z</time>
      </trkpt>
      <trkpt lat="45.01679" lon="5.47264">
        <ele>1314.4278564453</ele>
        <time>2011-08-10T15:58:42Z</time>
      </trkpt>
      <trkpt lat="45.0166" lon="5.47285">
        <ele>1311.0043945312</ele>
        <time>2011-08-10T15:58:46Z</time>
      </trkpt>
      <trkpt lat="45.01624" lon="5.47321">
        <ele>1305.4680175781</ele>
        <time>2011-08-10T15:58:52Z</time>
      </trkpt>
      <trkpt lat="45.01608" lon="5.47331">
        <ele>1304.2906494141</ele>
        <time>2011-08-10T15:58:55Z</time>
      </trkpt>
      <trkpt lat="45.0158" lon="5.47333">
        <ele>1303.0736083984</ele>
        <time>2011-08-10T15:58:59Z</time>
      </trkpt>
      <trkpt lat="45.01573" lon="5.47332">
        <ele>1303.1755371094</ele>
        <time>2011-08-10T15:59:00Z</time>
      </trkpt>
      <trkpt lat="45.01546" lon="5.47323">
        <ele>1303.4602050781</ele>
        <time>2011-08-10T15:59:04Z</time>
      </trkpt>
      <trkpt lat="45.01511" lon="5.47318">
        <ele>1302.3159179688</ele>
        <time>2011-08-10T15:59:09Z</time>
      </trkpt>
      <trkpt lat="45.01493" lon="5.47335">
        <ele>1300.7006835938</ele>
        <time>2011-08-10T15:59:12Z</time>
      </trkpt>
      <trkpt lat="45.01464" lon="5.47352">
        <ele>1298.9356689453</ele>
        <time>2011-08-10T15:59:16Z</time>
      </trkpt>
      <trkpt lat="45.01446" lon="5.47338">
        <ele>1298.0865478516</ele>
        <time>2011-08-10T15:59:19Z</time>
      </trkpt>
      <trkpt lat="45.01443" lon="5.47299">
        <ele>1296.8876953125</ele>
        <time>2011-08-10T15:59:22Z</time>
      </trkpt>
      <trkpt lat="45.0142" lon="5.47243">
        <ele>1293.2481689453</ele>
        <time>2011-08-10T15:59:27Z</time>
      </trkpt>
      <trkpt lat="45.01361" lon="5.4716">
        <ele>1278.2105712891</ele>
        <time>2011-08-10T15:59:34Z</time>
      </trkpt>
      <trkpt lat="45.01353" lon="5.47145">
        <ele>1273.8940429688</ele>
        <time>2011-08-10T15:59:35Z</time>
      </trkpt>
      <trkpt lat="45.01343" lon="5.47091">
        <ele>1262.3784179688</ele>
        <time>2011-08-10T15:59:38Z</time>
      </trkpt>
      <trkpt lat="45.01341" lon="5.47074">
        <ele>1258.1838378906</ele>
        <time>2011-08-10T15:59:39Z</time>
      </trkpt>
      <trkpt lat="45.01321" lon="5.47023">
        <ele>1238.0942382812</ele>
        <time>2011-08-10T15:59:43Z</time>
      </trkpt>
      <trkpt lat="45.01301" lon="5.47007">
        <ele>1230.8955078125</ele>
        <time>2011-08-10T15:59:45Z</time>
      </trkpt>
      <trkpt lat="45.01239" lon="5.46994">
        <ele>1224.3977050781</ele>
        <time>2011-08-10T15:59:50Z</time>
      </trkpt>
      <trkpt lat="45.01176" lon="5.46986">
        <ele>1222.4814453125</ele>
        <time>2011-08-10T15:59:55Z</time>
      </trkpt>
      <trkpt lat="45.01151" lon="5.46978">
        <ele>1218.8916015625</ele>
        <time>2011-08-10T15:59:57Z</time>
      </trkpt>
      <trkpt lat="45.01096" lon="5.46982">
        <ele>1217.4405517578</ele>
        <time>2011-08-10T16:00:01Z</time>
      </trkpt>
      <trkpt lat="45.01039" lon="5.46991">
        <ele>1221.2064208984</ele>
        <time>2011-08-10T16:00:05Z</time>
      </trkpt>
      <trkpt lat="45.00982" lon="5.47027">
        <ele>1225.7208251953</ele>
        <time>2011-08-10T16:00:09Z</time>
      </trkpt>
      <trkpt lat="45.00954" lon="5.47046">
        <ele>1230.1234130859</ele>
        <time>2011-08-10T16:00:11Z</time>
      </trkpt>
      <trkpt lat="45.00906" lon="5.47098">
        <ele>1237.1422119141</ele>
        <time>2011-08-10T16:00:15Z</time>
      </trkpt>
      <trkpt lat="45.00882" lon="5.47128">
        <ele>1239.4810791016</ele>
        <time>2011-08-10T16:00:18Z</time>
      </trkpt>
      <trkpt lat="45.0086" lon="5.47121">
        <ele>1237.0908203125</ele>
        <time>2011-08-10T16:00:20Z</time>
      </trkpt>
      <trkpt lat="45.00841" lon="5.471">
        <ele>1229.9273681641</ele>
        <time>2011-08-10T16:00:22Z</time>
      </trkpt>
      <trkpt lat="45.00812" lon="5.47097">
        <ele>1224.9060058594</ele>
        <time>2011-08-10T16:00:25Z</time>
      </trkpt>
      <trkpt lat="45.0079" lon="5.47107">
        <ele>1222.0981445312</ele>
        <time>2011-08-10T16:00:27Z</time>
      </trkpt>
      <trkpt lat="45.00764" lon="5.47101">
        <ele>1213.2543945312</ele>
        <time>2011-08-10T16:00:31Z</time>
      </trkpt>
      <trkpt lat="45.00769" lon="5.47087">
        <ele>1213.8612060547</ele>
        <time>2011-08-10T16:00:33Z</time>
      </trkpt>
      <trkpt lat="45.00784" lon="5.47081">
        <ele>1217.7133789062</ele>
        <time>2011-08-10T16:00:35Z</time>
      </trkpt>
      <trkpt lat="45.0082" lon="5.47043">
        <ele>1217.6224365234</ele>
        <time>2011-08-10T16:00:40Z</time>
      </trkpt>
      <trkpt lat="45.00824" lon="5.47027">
        <ele>1213.8273925781</ele>
        <time>2011-08-10T16:00:41Z</time>
      </trkpt>
      <trkpt lat="45.00817" lon="5.4697">
        <ele>1188.9771728516</ele>
        <time>2011-08-10T16:00:45Z</time>
      </trkpt>
      <trkpt lat="45.00799" lon="5.46952">
        <ele>1173.9212646484</ele>
        <time>2011-08-10T16:00:48Z</time>
      </trkpt>
      <trkpt lat="45.00779" lon="5.4696">
        <ele>1175.9562988281</ele>
        <time>2011-08-10T16:00:50Z</time>
      </trkpt>
      <trkpt lat="45.00761" lon="5.46971">
        <ele>1177.5294189453</ele>
        <time>2011-08-10T16:00:52Z</time>
      </trkpt>
      <trkpt lat="45.00715" lon="5.46959">
        <ele>1156.0750732422</ele>
        <time>2011-08-10T16:00:56Z</time>
      </trkpt>
      <trkpt lat="45.00703" lon="5.46946">
        <ele>1145.1453857422</ele>
        <time>2011-08-10T16:00:57Z</time>
      </trkpt>
      <trkpt lat="45.0068" lon="5.46928">
        <ele>1136.3811035156</ele>
        <time>2011-08-10T16:00:59Z</time>
      </trkpt>
      <trkpt lat="45.00635" lon="5.46942">
        <ele>1139.5122070312</ele>
        <time>2011-08-10T16:01:03Z</time>
      </trkpt>
      <trkpt lat="45.00603" lon="5.46976">
        <ele>1149.2994384766</ele>
        <time>2011-08-10T16:01:06Z</time>
      </trkpt>
      <trkpt lat="45.00568" lon="5.46968">
        <ele>1148.7347412109</ele>
        <time>2011-08-10T16:01:09Z</time>
      </trkpt>
      <trkpt lat="45.00559" lon="5.46958">
        <ele>1145.5521240234</ele>
        <time>2011-08-10T16:01:10Z</time>
      </trkpt>
      <trkpt lat="45.00521" lon="5.46927">
        <ele>1137.9156494141</ele>
        <time>2011-08-10T16:01:14Z</time>
      </trkpt>
      <trkpt lat="45.0047" lon="5.46888">
        <ele>1128.7397460938</ele>
        <time>2011-08-10T16:01:19Z</time>
      </trkpt>
      <trkpt lat="45.00446" lon="5.46847">
        <ele>1118.4620361328</ele>
        <time>2011-08-10T16:01:22Z</time>
      </trkpt>
      <trkpt lat="45.00416" lon="5.46813">
        <ele>1111.9962158203</ele>
        <time>2011-08-10T16:01:25Z</time>
      </trkpt>
      <trkpt lat="45.00352" lon="5.46763">
        <ele>1104.9934082031</ele>
        <time>2011-08-10T16:01:31Z</time>
      </trkpt>
      <trkpt lat="45.00348" lon="5.46745">
        <ele>1097.5832519531</ele>
        <time>2011-08-10T16:01:34Z</time>
      </trkpt>
      <trkpt lat="45.00362" lon="5.46746">
        <ele>1097.3559570312</ele>
        <time>2011-08-10T16:01:36Z</time>
      </trkpt>
      <trkpt lat="45.00369" lon="5.46751">
        <ele>1096.9476318359</ele>
        <time>2011-08-10T16:01:37Z</time>
      </trkpt>
      <trkpt lat="45.00389" lon="5.46768">
        <ele>1097.0124511719</ele>
        <time>2011-08-10T16:01:40Z</time>
      </trkpt>
      <trkpt lat="45.00397" lon="5.46769">
        <ele>1097.046875</ele>
        <time>2011-08-10T16:01:41Z</time>
      </trkpt>
      <trkpt lat="45.00425" lon="5.46771">
        <ele>1095.8474121094</ele>
        <time>2011-08-10T16:01:44Z</time>
      </trkpt>
      <trkpt lat="45.00468" lon="5.46787">
        <ele>1102.7177734375</ele>
        <time>2011-08-10T16:01:48Z</time>
      </trkpt>
      <trkpt lat="45.00505" lon="5.46789">
        <ele>1103.2670898438</ele>
        <time>2011-08-10T16:01:51Z</time>
      </trkpt>
      <trkpt lat="45.00544" lon="5.46784">
        <ele>1101.8250732422</ele>
        <time>2011-08-10T16:01:54Z</time>
      </trkpt>
      <trkpt lat="45.00581" lon="5.46792">
        <ele>1104.1596679688</ele>
        <time>2011-08-10T16:01:57Z</time>
      </trkpt>
      <trkpt lat="45.00621" lon="5.46792">
        <ele>1099.2395019531</ele>
        <time>2011-08-10T16:02:01Z</time>
      </trkpt>
      <trkpt lat="45.0064" lon="5.46786">
        <ele>1096.4997558594</ele>
        <time>2011-08-10T16:02:03Z</time>
      </trkpt>
      <trkpt lat="45.00695" lon="5.46785">
        <ele>1096.12890625</ele>
        <time>2011-08-10T16:02:08Z</time>
      </trkpt>
      <trkpt lat="45.00762" lon="5.46789">
        <ele>1088.8896484375</ele>
        <time>2011-08-10T16:02:13Z</time>
      </trkpt>
      <trkpt lat="45.00777" lon="5.4679">
        <ele>1089.0201416016</ele>
        <time>2011-08-10T16:02:14Z</time>
      </trkpt>
      <trkpt lat="45.00857" lon="5.46778">
        <ele>1080.8662109375</ele>
        <time>2011-08-10T16:02:19Z</time>
      </trkpt>
      <trkpt lat="45.00971" lon="5.46774">
        <ele>1080.5336914062</ele>
        <time>2011-08-10T16:02:26Z</time>
      </trkpt>
      <trkpt lat="45.01034" lon="5.46761">
        <ele>1073.2844238281</ele>
        <time>2011-08-10T16:02:30Z</time>
      </trkpt>
      <trkpt lat="45.01096" lon="5.46735">
        <ele>1068.8299560547</ele>
        <time>2011-08-10T16:02:34Z</time>
      </trkpt>
      <trkpt lat="45.01192" lon="5.4671">
        <ele>1068.5634765625</ele>
        <time>2011-08-10T16:02:40Z</time>
      </trkpt>
      <trkpt lat="45.01286" lon="5.46676">
        <ele>1073.2528076172</ele>
        <time>2011-08-10T16:02:46Z</time>
      </trkpt>
      <trkpt lat="45.013" lon="5.46661">
        <ele>1072.2056884766</ele>
        <time>2011-08-10T16:02:47Z</time>
      </trkpt>
      <trkpt lat="45.01374" lon="5.4657">
        <ele>1066.2866210938</ele>
        <time>2011-08-10T16:02:53Z</time>
      </trkpt>
      <trkpt lat="45.01394" lon="5.46544">
        <ele>1071.9201660156</ele>
        <time>2011-08-10T16:02:55Z</time>
      </trkpt>
      <trkpt lat="45.01405" lon="5.46504">
        <ele>1071.6151123047</ele>
        <time>2011-08-10T16:02:58Z</time>
      </trkpt>
      <trkpt lat="45.01388" lon="5.46471">
        <ele>1063.5665283203</ele>
        <time>2011-08-10T16:03:01Z</time>
      </trkpt>
      <trkpt lat="45.01381" lon="5.46459">
        <ele>1058.6944580078</ele>
        <time>2011-08-10T16:03:02Z</time>
      </trkpt>
      <trkpt lat="45.01295" lon="5.46395">
        <ele>1034.5439453125</ele>
        <time>2011-08-10T16:03:10Z</time>
      </trkpt>
      <trkpt lat="45.01253" lon="5.46372">
        <ele>1031.6756591797</ele>
        <time>2011-08-10T16:03:14Z</time>
      </trkpt>
      <trkpt lat="45.01249" lon="5.46355">
        <ele>1028.3275146484</ele>
        <time>2011-08-10T16:03:17Z</time>
      </trkpt>
      <trkpt lat="45.01263" lon="5.4635">
        <ele>1024.5112304688</ele>
        <time>2011-08-10T16:03:19Z</time>
      </trkpt>
      <trkpt lat="45.01291" lon="5.46351">
        <ele>1022.361328125</ele>
        <time>2011-08-10T16:03:22Z</time>
      </trkpt>
      <trkpt lat="45.0133" lon="5.46335">
        <ele>1016.5591430664</ele>
        <time>2011-08-10T16:03:26Z</time>
      </trkpt>
      <trkpt lat="45.01399" lon="5.46291">
        <ele>1012.9608154297</ele>
        <time>2011-08-10T16:03:32Z</time>
      </trkpt>
      <trkpt lat="45.01436" lon="5.46265">
        <ele>1004.0342407227</ele>
        <time>2011-08-10T16:03:35Z</time>
      </trkpt>
      <trkpt lat="45.0149" lon="5.46205">
        <ele>984.13427734375</ele>
        <time>2011-08-10T16:03:40Z</time>
      </trkpt>
      <trkpt lat="45.01514" lon="5.46184">
        <ele>979.11279296875</ele>
        <time>2011-08-10T16:03:42Z</time>
      </trkpt>
      <trkpt lat="45.01571" lon="5.46168">
        <ele>984.22827148438</ele>
        <time>2011-08-10T16:03:46Z</time>
      </trkpt>
      <trkpt lat="45.01642" lon="5.46152">
        <ele>982.88757324219</ele>
        <time>2011-08-10T16:03:51Z</time>
      </trkpt>
      <trkpt lat="45.01699" lon="5.46136">
        <ele>968.96850585938</ele>
        <time>2011-08-10T16:03:55Z</time>
      </trkpt>
      <trkpt lat="45.0179" lon="5.46122">
        <ele>962.56481933594</ele>
        <time>2011-08-10T16:04:01Z</time>
      </trkpt>
      <trkpt lat="45.01882" lon="5.46114">
        <ele>971.81066894531</ele>
        <time>2011-08-10T16:04:07Z</time>
      </trkpt>
      <trkpt lat="45.01958" lon="5.46109">
        <ele>978.98168945312</ele>
        <time>2011-08-10T16:04:12Z</time>
      </trkpt>
      <trkpt lat="45.0202" lon="5.46124">
        <ele>986.07727050781</ele>
        <time>2011-08-10T16:04:16Z</time>
      </trkpt>
      <trkpt lat="45.02096" lon="5.46125">
        <ele>985.26300048828</ele>
        <time>2011-08-10T16:04:21Z</time>
      </trkpt>
      <trkpt lat="45.02158" lon="5.46118">
        <ele>981.5947265625</ele>
        <time>2011-08-10T16:04:25Z</time>
      </trkpt>
      <trkpt lat="45.02234" lon="5.46102">
        <ele>969.07153320312</ele>
        <time>2011-08-10T16:04:30Z</time>
      </trkpt>
      <trkpt lat="45.0228" lon="5.46081">
        <ele>963.77954101562</ele>
        <time>2011-08-10T16:04:33Z</time>
      </trkpt>
      <trkpt lat="45.0233" lon="5.46032">
        <ele>955.77532958984</ele>
        <time>2011-08-10T16:04:37Z</time>
      </trkpt>
      <trkpt lat="45.02357" lon="5.46014">
        <ele>955.41296386719</ele>
        <time>2011-08-10T16:04:39Z</time>
      </trkpt>
      <trkpt lat="45.02414" lon="5.45983">
        <ele>958.16369628906</ele>
        <time>2011-08-10T16:04:43Z</time>
      </trkpt>
      <trkpt lat="45.02438" lon="5.45959">
        <ele>959.21960449219</ele>
        <time>2011-08-10T16:04:45Z</time>
      </trkpt>
      <trkpt lat="45.02462" lon="5.45905">
        <ele>951.69610595703</ele>
        <time>2011-08-10T16:04:48Z</time>
      </trkpt>
      <trkpt lat="45.02471" lon="5.45861">
        <ele>944.73004150391</ele>
        <time>2011-08-10T16:04:50Z</time>
      </trkpt>
      <trkpt lat="45.02501" lon="5.45758">
        <ele>931.93493652344</ele>
        <time>2011-08-10T16:04:55Z</time>
      </trkpt>
      <trkpt lat="45.02508" lon="5.45742">
        <ele>930.32934570312</ele>
        <time>2011-08-10T16:04:56Z</time>
      </trkpt>
      <trkpt lat="45.02519" lon="5.45705">
        <ele>925.33087158203</ele>
        <time>2011-08-10T16:04:58Z</time>
      </trkpt>
      <trkpt lat="45.02552" lon="5.45633">
        <ele>917.76080322266</ele>
        <time>2011-08-10T16:05:02Z</time>
      </trkpt>
      <trkpt lat="45.02597" lon="5.45551">
        <ele>911.20147705078</ele>
        <time>2011-08-10T16:05:07Z</time>
      </trkpt>
      <trkpt lat="45.02639" lon="5.45496">
        <ele>904.28790283203</ele>
        <time>2011-08-10T16:05:11Z</time>
      </trkpt>
      <trkpt lat="45.02697" lon="5.45404">
        <ele>893.32287597656</ele>
        <time>2011-08-10T16:05:17Z</time>
      </trkpt>
      <trkpt lat="45.02759" lon="5.45308">
        <ele>882.18249511719</ele>
        <time>2011-08-10T16:05:23Z</time>
      </trkpt>
      <trkpt lat="45.02808" lon="5.45253">
        <ele>875.38903808594</ele>
        <time>2011-08-10T16:05:27Z</time>
      </trkpt>
      <trkpt lat="45.02821" lon="5.4524">
        <ele>874.99688720703</ele>
        <time>2011-08-10T16:05:28Z</time>
      </trkpt>
      <trkpt lat="45.02864" lon="5.45165">
        <ele>864.77551269531</ele>
        <time>2011-08-10T16:05:33Z</time>
      </trkpt>
      <trkpt lat="45.02872" lon="5.45152">
        <ele>862.07012939453</ele>
        <time>2011-08-10T16:05:34Z</time>
      </trkpt>
      <trkpt lat="45.02923" lon="5.45135">
        <ele>864.85699462891</ele>
        <time>2011-08-10T16:05:38Z</time>
      </trkpt>
      <trkpt lat="45.02988" lon="5.45092">
        <ele>863.42077636719</ele>
        <time>2011-08-10T16:05:43Z</time>
      </trkpt>
      <trkpt lat="45.03043" lon="5.45062">
        <ele>862.26916503906</ele>
        <time>2011-08-10T16:05:47Z</time>
      </trkpt>
      <trkpt lat="45.03106" lon="5.45008">
        <ele>855.14569091797</ele>
        <time>2011-08-10T16:05:52Z</time>
      </trkpt>
      <trkpt lat="45.03156" lon="5.44965">
        <ele>850.84326171875</ele>
        <time>2011-08-10T16:05:56Z</time>
      </trkpt>
      <trkpt lat="45.03213" lon="5.44902">
        <ele>842.19934082031</ele>
        <time>2011-08-10T16:06:01Z</time>
      </trkpt>
      <trkpt lat="45.03247" lon="5.44866">
        <ele>838.58081054688</ele>
        <time>2011-08-10T16:06:04Z</time>
      </trkpt>
      <trkpt lat="45.03302" lon="5.44843">
        <ele>838.16186523438</ele>
        <time>2011-08-10T16:06:08Z</time>
      </trkpt>
      <trkpt lat="45.03345" lon="5.44827">
        <ele>838.67962646484</ele>
        <time>2011-08-10T16:06:11Z</time>
      </trkpt>
      <trkpt lat="45.03365" lon="5.4481">
        <ele>838.9052734375</ele>
        <time>2011-08-10T16:06:13Z</time>
      </trkpt>
      <trkpt lat="45.03372" lon="5.44793">
        <ele>837.64697265625</ele>
        <time>2011-08-10T16:06:14Z</time>
      </trkpt>
      <trkpt lat="45.03416" lon="5.44693">
        <ele>827.70581054688</ele>
        <time>2011-08-10T16:06:20Z</time>
      </trkpt>
      <trkpt lat="45.03447" lon="5.44624">
        <ele>819.10919189453</ele>
        <time>2011-08-10T16:06:24Z</time>
      </trkpt>
      <trkpt lat="45.03498" lon="5.44526">
        <ele>817.91632080078</ele>
        <time>2011-08-10T16:06:30Z</time>
      </trkpt>
      <trkpt lat="45.03539" lon="5.44485">
        <ele>827.00207519531</ele>
        <time>2011-08-10T16:06:34Z</time>
      </trkpt>
      <trkpt lat="45.03549" lon="5.44481">
        <ele>828.32043457031</ele>
        <time>2011-08-10T16:06:35Z</time>
      </trkpt>
      <trkpt lat="45.03575" lon="5.44464">
        <ele>834.53009033203</ele>
        <time>2011-08-10T16:06:39Z</time>
      </trkpt>
      <trkpt lat="45.03576" lon="5.44459">
        <ele>835.81756591797</ele>
        <time>2011-08-10T16:06:40Z</time>
      </trkpt>
      <trkpt lat="45.03581" lon="5.44445">
        <ele>839.53918457031</ele>
        <time>2011-08-10T16:06:43Z</time>
      </trkpt>
      <trkpt lat="45.03583" lon="5.44442">
        <ele>840.67309570312</ele>
        <time>2011-08-10T16:06:46Z</time>
      </trkpt>
      <trkpt lat="45.03583" lon="5.44442">
        <ele>840.75463867188</ele>
        <time>2011-08-10T16:06:54Z</time>
      </trkpt>
      <trkpt lat="45.0358" lon="5.44442">
        <ele>840.30364990234</ele>
        <time>2011-08-10T16:08:02Z</time>
      </trkpt>
      <trkpt lat="45.03575" lon="5.44432">
        <ele>841.69702148438</ele>
        <time>2011-08-10T16:08:07Z</time>
      </trkpt>
      <trkpt lat="45.03569" lon="5.4443">
        <ele>841.07672119141</ele>
        <time>2011-08-10T16:08:09Z</time>
      </trkpt>
      <trkpt lat="45.03545" lon="5.44425">
        <ele>838.05895996094</ele>
        <time>2011-08-10T16:08:14Z</time>
      </trkpt>
      <trkpt lat="45.03509" lon="5.44416">
        <ele>836.23394775391</ele>
        <time>2011-08-10T16:08:19Z</time>
      </trkpt>
      <trkpt lat="45.03463" lon="5.44406">
        <ele>834.35650634766</ele>
        <time>2011-08-10T16:08:24Z</time>
      </trkpt>
      <trkpt lat="45.03401" lon="5.44393">
        <ele>828.9189453125</ele>
        <time>2011-08-10T16:08:30Z</time>
      </trkpt>
      <trkpt lat="45.03345" lon="5.44389">
        <ele>826.81304931641</ele>
        <time>2011-08-10T16:08:35Z</time>
      </trkpt>
      <trkpt lat="45.03294" lon="5.44385">
        <ele>824.91125488281</ele>
        <time>2011-08-10T16:08:39Z</time>
      </trkpt>
      <trkpt lat="45.03239" lon="5.44392">
        <ele>818.89428710938</ele>
        <time>2011-08-10T16:08:43Z</time>
      </trkpt>
      <trkpt lat="45.03225" lon="5.44395">
        <ele>817.73596191406</ele>
        <time>2011-08-10T16:08:44Z</time>
      </trkpt>
      <trkpt lat="45.03165" lon="5.44399">
        <ele>811.38989257812</ele>
        <time>2011-08-10T16:08:48Z</time>
      </trkpt>
      <trkpt lat="45.03094" lon="5.44401">
        <ele>802.95037841797</ele>
        <time>2011-08-10T16:08:53Z</time>
      </trkpt>
      <trkpt lat="45.03041" lon="5.44414">
        <ele>794.60076904297</ele>
        <time>2011-08-10T16:08:57Z</time>
      </trkpt>
      <trkpt lat="45.03012" lon="5.44413">
        <ele>793.56500244141</ele>
        <time>2011-08-10T16:08:59Z</time>
      </trkpt>
      <trkpt lat="45.02952" lon="5.44409">
        <ele>791.16680908203</ele>
        <time>2011-08-10T16:09:03Z</time>
      </trkpt>
      <trkpt lat="45.02894" lon="5.44388">
        <ele>797.99682617188</ele>
        <time>2011-08-10T16:09:07Z</time>
      </trkpt>
      <trkpt lat="45.0284" lon="5.44359">
        <ele>803.86029052734</ele>
        <time>2011-08-10T16:09:11Z</time>
      </trkpt>
      <trkpt lat="45.02827" lon="5.44356">
        <ele>804.04272460938</ele>
        <time>2011-08-10T16:09:12Z</time>
      </trkpt>
      <trkpt lat="45.02768" lon="5.44372">
        <ele>796.02526855469</ele>
        <time>2011-08-10T16:09:16Z</time>
      </trkpt>
      <trkpt lat="45.0274" lon="5.44386">
        <ele>793.15802001953</ele>
        <time>2011-08-10T16:09:18Z</time>
      </trkpt>
      <trkpt lat="45.02673" lon="5.444">
        <ele>785.28979492188</ele>
        <time>2011-08-10T16:09:23Z</time>
      </trkpt>
      <trkpt lat="45.02588" lon="5.44395">
        <ele>774.25604248047</ele>
        <time>2011-08-10T16:09:29Z</time>
      </trkpt>
      <trkpt lat="45.02517" lon="5.44393">
        <ele>769.04699707031</ele>
        <time>2011-08-10T16:09:34Z</time>
      </trkpt>
      <trkpt lat="45.02464" lon="5.4438">
        <ele>768.97058105469</ele>
        <time>2011-08-10T16:09:38Z</time>
      </trkpt>
      <trkpt lat="45.02406" lon="5.4436">
        <ele>770.9560546875</ele>
        <time>2011-08-10T16:09:43Z</time>
      </trkpt>
      <trkpt lat="45.02355" lon="5.44343">
        <ele>772.89331054688</ele>
        <time>2011-08-10T16:09:48Z</time>
      </trkpt>
      <trkpt lat="45.0231" lon="5.44327">
        <ele>771.2666015625</ele>
        <time>2011-08-10T16:09:53Z</time>
      </trkpt>
      <trkpt lat="45.02269" lon="5.44319">
        <ele>769.45745849609</ele>
        <time>2011-08-10T16:09:58Z</time>
      </trkpt>
      <trkpt lat="45.02232" lon="5.44307">
        <ele>765.53552246094</ele>
        <time>2011-08-10T16:10:03Z</time>
      </trkpt>
      <trkpt lat="45.02195" lon="5.44293">
        <ele>762.72204589844</ele>
        <time>2011-08-10T16:10:08Z</time>
      </trkpt>
      <trkpt lat="45.02161" lon="5.44282">
        <ele>760.99853515625</ele>
        <time>2011-08-10T16:10:13Z</time>
      </trkpt>
      <trkpt lat="45.02126" lon="5.44262">
        <ele>762.25427246094</ele>
        <time>2011-08-10T16:10:18Z</time>
      </trkpt>
      <trkpt lat="45.0212" lon="5.44254">
        <ele>763.38037109375</ele>
        <time>2011-08-10T16:10:19Z</time>
      </trkpt>
      <trkpt lat="45.02081" lon="5.44237">
        <ele>764.39263916016</ele>
        <time>2011-08-10T16:10:24Z</time>
      </trkpt>
      <trkpt lat="45.02064" lon="5.44234">
        <ele>764.91619873047</ele>
        <time>2011-08-10T16:10:26Z</time>
      </trkpt>
      <trkpt lat="45.02018" lon="5.44242">
        <ele>761.52575683594</ele>
        <time>2011-08-10T16:10:31Z</time>
      </trkpt>
      <trkpt lat="45.01982" lon="5.44261">
        <ele>757.86547851562</ele>
        <time>2011-08-10T16:10:35Z</time>
      </trkpt>
      <trkpt lat="45.01959" lon="5.44276">
        <ele>752.8623046875</ele>
        <time>2011-08-10T16:10:38Z</time>
      </trkpt>
      <trkpt lat="45.01946" lon="5.4428">
        <ele>749.81005859375</ele>
        <time>2011-08-10T16:10:40Z</time>
      </trkpt>
      <trkpt lat="45.01917" lon="5.44281">
        <ele>745.29302978516</ele>
        <time>2011-08-10T16:10:44Z</time>
      </trkpt>
      <trkpt lat="45.01871" lon="5.44279">
        <ele>740.65618896484</ele>
        <time>2011-08-10T16:10:49Z</time>
      </trkpt>
      <trkpt lat="45.01814" lon="5.44276">
        <ele>742.15087890625</ele>
        <time>2011-08-10T16:10:55Z</time>
      </trkpt>
      <trkpt lat="45.01752" lon="5.44274">
        <ele>742.53833007812</ele>
        <time>2011-08-10T16:11:01Z</time>
      </trkpt>
      <trkpt lat="45.01689" lon="5.44269">
        <ele>739.72802734375</ele>
        <time>2011-08-10T16:11:07Z</time>
      </trkpt>
      <trkpt lat="45.0162" lon="5.4424">
        <ele>739.40765380859</ele>
        <time>2011-08-10T16:11:14Z</time>
      </trkpt>
      <trkpt lat="45.0157" lon="5.44229">
        <ele>737.62335205078</ele>
        <time>2011-08-10T16:11:19Z</time>
      </trkpt>
      <trkpt lat="45.01497" lon="5.44232">
        <ele>733.34265136719</ele>
        <time>2011-08-10T16:11:26Z</time>
      </trkpt>
      <trkpt lat="45.01433" lon="5.4424">
        <ele>725.32440185547</ele>
        <time>2011-08-10T16:11:32Z</time>
      </trkpt>
      <trkpt lat="45.01361" lon="5.4425">
        <ele>720</ele>
        <time>2011-08-10T16:11:39Z</time>
      </trkpt>
      <trkpt lat="45.01294" lon="5.4427">
        <ele>720</ele>
        <time>2011-08-10T16:11:46Z</time>
      </trkpt>
      <trkpt lat="45.0124" lon="5.4428">
        <ele>720</ele>
        <time>2011-08-10T16:11:52Z</time>
      </trkpt>
      <trkpt lat="45.01167" lon="5.4427">
        <ele>720</ele>
        <time>2011-08-10T16:12:00Z</time>
      </trkpt>
      <trkpt lat="45.01112" lon="5.44269">
        <ele>720</ele>
        <time>2011-08-10T16:12:06Z</time>
      </trkpt>
      <trkpt lat="45.01024" lon="5.44269">
        <ele>720</ele>
        <time>2011-08-10T16:12:16Z</time>
      </trkpt>
      <trkpt lat="45.00968" lon="5.44266">
        <ele>720</ele>
        <time>2011-08-10T16:12:22Z</time>
      </trkpt>
      <trkpt lat="45.00935" lon="5.44246">
        <ele>720.54333496094</ele>
        <time>2011-08-10T16:12:26Z</time>
      </trkpt>
      <trkpt lat="45.00897" lon="5.44213">
        <ele>726.01599121094</ele>
        <time>2011-08-10T16:12:31Z</time>
      </trkpt>
      <trkpt lat="45.00889" lon="5.44208">
        <ele>727.63244628906</ele>
        <time>2011-08-10T16:12:32Z</time>
      </trkpt>
      <trkpt lat="45.00863" lon="5.44202">
        <ele>727.59777832031</ele>
        <time>2011-08-10T16:12:35Z</time>
      </trkpt>
      <trkpt lat="45.0085" lon="5.44211">
        <ele>723.14385986328</ele>
        <time>2011-08-10T16:12:38Z</time>
      </trkpt>
      <trkpt lat="45.00827" lon="5.4423">
        <ele>720</ele>
        <time>2011-08-10T16:12:41Z</time>
      </trkpt>
      <trkpt lat="45.00774" lon="5.44251">
        <ele>719.85034179688</ele>
        <time>2011-08-10T16:12:45Z</time>
      </trkpt>
      <trkpt lat="45.00751" lon="5.4424">
        <ele>719.05383300781</ele>
        <time>2011-08-10T16:12:47Z</time>
      </trkpt>
      <trkpt lat="45.00735" lon="5.44225">
        <ele>717.47406005859</ele>
        <time>2011-08-10T16:12:49Z</time>
      </trkpt>
      <trkpt lat="45.00738" lon="5.44173">
        <ele>718.01086425781</ele>
        <time>2011-08-10T16:12:52Z</time>
      </trkpt>
      <trkpt lat="45.00739" lon="5.44154">
        <ele>720.18969726562</ele>
        <time>2011-08-10T16:12:53Z</time>
      </trkpt>
      <trkpt lat="45.00738" lon="5.44116">
        <ele>727.17053222656</ele>
        <time>2011-08-10T16:12:55Z</time>
      </trkpt>
      <trkpt lat="45.00716" lon="5.44087">
        <ele>731.6435546875</ele>
        <time>2011-08-10T16:12:59Z</time>
      </trkpt>
      <trkpt lat="45.00708" lon="5.44095">
        <ele>726.85693359375</ele>
        <time>2011-08-10T16:13:00Z</time>
      </trkpt>
      <trkpt lat="45.00652" lon="5.44078">
        <ele>719.30133056641</ele>
        <time>2011-08-10T16:13:07Z</time>
      </trkpt>
      <trkpt lat="45.0064" lon="5.44072">
        <ele>718.89617919922</ele>
        <time>2011-08-10T16:13:09Z</time>
      </trkpt>
      <trkpt lat="45.00626" lon="5.44069">
        <ele>717.14019775391</ele>
        <time>2011-08-10T16:13:11Z</time>
      </trkpt>
      <trkpt lat="45.00582" lon="5.44076">
        <ele>714.44226074219</ele>
        <time>2011-08-10T16:13:15Z</time>
      </trkpt>
      <trkpt lat="45.00558" lon="5.44078">
        <ele>713.47406005859</ele>
        <time>2011-08-10T16:13:17Z</time>
      </trkpt>
      <trkpt lat="45.00494" lon="5.44103">
        <ele>707.93798828125</ele>
        <time>2011-08-10T16:13:22Z</time>
      </trkpt>
      <trkpt lat="45.0046" lon="5.44127">
        <ele>703.001953125</ele>
        <time>2011-08-10T16:13:25Z</time>
      </trkpt>
      <trkpt lat="45.00447" lon="5.44135">
        <ele>700.68450927734</ele>
        <time>2011-08-10T16:13:26Z</time>
      </trkpt>
      <trkpt lat="45.00391" lon="5.44136">
        <ele>700</ele>
        <time>2011-08-10T16:13:31Z</time>
      </trkpt>
      <trkpt lat="45.0038" lon="5.44133">
        <ele>700</ele>
        <time>2011-08-10T16:13:32Z</time>
      </trkpt>
      <trkpt lat="45.00367" lon="5.44131">
        <ele>700</ele>
        <time>2011-08-10T16:13:33Z</time>
      </trkpt>
      <trkpt lat="45.00315" lon="5.44112">
        <ele>700</ele>
        <time>2011-08-10T16:13:37Z</time>
      </trkpt>
      <trkpt lat="45.00297" lon="5.44097">
        <ele>700</ele>
        <time>2011-08-10T16:13:39Z</time>
      </trkpt>
      <trkpt lat="45.00282" lon="5.44081">
        <ele>700</ele>
        <time>2011-08-10T16:13:41Z</time>
      </trkpt>
      <trkpt lat="45.00286" lon="5.44024">
        <ele>700</ele>
        <time>2011-08-10T16:13:44Z</time>
      </trkpt>
      <trkpt lat="45.00296" lon="5.43986">
        <ele>700</ele>
        <time>2011-08-10T16:13:46Z</time>
      </trkpt>
      <trkpt lat="45.00306" lon="5.43935">
        <ele>700</ele>
        <time>2011-08-10T16:13:50Z</time>
      </trkpt>
      <trkpt lat="45.00314" lon="5.43878">
        <ele>700</ele>
        <time>2011-08-10T16:13:55Z</time>
      </trkpt>
      <trkpt lat="45.00322" lon="5.43823">
        <ele>700</ele>
        <time>2011-08-10T16:14:01Z</time>
      </trkpt>
      <trkpt lat="45.00322" lon="5.43815">
        <ele>700</ele>
        <time>2011-08-10T16:14:02Z</time>
      </trkpt>
      <trkpt lat="45.00329" lon="5.43772">
        <ele>700</ele>
        <time>2011-08-10T16:14:08Z</time>
      </trkpt>
      <trkpt lat="45.00331" lon="5.43743">
        <ele>700</ele>
        <time>2011-08-10T16:14:12Z</time>
      </trkpt>
      <trkpt lat="45.00331" lon="5.43728">
        <ele>700</ele>
        <time>2011-08-10T16:14:14Z</time>
      </trkpt>
      <trkpt lat="45.00318" lon="5.43693">
        <ele>702.80126953125</ele>
        <time>2011-08-10T16:14:19Z</time>
      </trkpt>
      <trkpt lat="45.00313" lon="5.43689">
        <ele>702.39617919922</ele>
        <time>2011-08-10T16:14:20Z</time>
      </trkpt>
      <trkpt lat="45.00287" lon="5.43668">
        <ele>701.23083496094</ele>
        <time>2011-08-10T16:14:25Z</time>
      </trkpt>
      <trkpt lat="45.0026" lon="5.43658">
        <ele>700.59777832031</ele>
        <time>2011-08-10T16:14:30Z</time>
      </trkpt>
      <trkpt lat="45.00246" lon="5.43652">
        <ele>700</ele>
        <time>2011-08-10T16:14:33Z</time>
      </trkpt>
      <trkpt lat="45.00231" lon="5.43648">
        <ele>700</ele>
        <time>2011-08-10T16:14:36Z</time>
      </trkpt>
      <trkpt lat="45.00197" lon="5.43627">
        <ele>700</ele>
        <time>2011-08-10T16:14:42Z</time>
      </trkpt>
      <trkpt lat="45.00166" lon="5.43605">
        <ele>700</ele>
        <time>2011-08-10T16:14:47Z</time>
      </trkpt>
      <trkpt lat="45.00154" lon="5.43586">
        <ele>700</ele>
        <time>2011-08-10T16:14:50Z</time>
      </trkpt>
      <trkpt lat="45.00153" lon="5.43553">
        <ele>700</ele>
        <time>2011-08-10T16:14:54Z</time>
      </trkpt>
      <trkpt lat="45.00154" lon="5.43545">
        <ele>700</ele>
        <time>2011-08-10T16:14:55Z</time>
      </trkpt>
      <trkpt lat="45.00159" lon="5.43449">
        <ele>700</ele>
        <time>2011-08-10T16:15:06Z</time>
      </trkpt>
      <trkpt lat="45.00159" lon="5.43441">
        <ele>700</ele>
        <time>2011-08-10T16:15:07Z</time>
      </trkpt>
      <trkpt lat="45.0015" lon="5.43401">
        <ele>700</ele>
        <time>2011-08-10T16:15:12Z</time>
      </trkpt>
      <trkpt lat="45.00143" lon="5.43358">
        <ele>700.87060546875</ele>
        <time>2011-08-10T16:15:17Z</time>
      </trkpt>
      <trkpt lat="45.00138" lon="5.4331">
        <ele>700</ele>
        <time>2011-08-10T16:15:23Z</time>
      </trkpt>
      <trkpt lat="45.00139" lon="5.43289">
        <ele>700.23022460938</ele>
        <time>2011-08-10T16:15:25Z</time>
      </trkpt>
      <trkpt lat="45.00134" lon="5.43248">
        <ele>702.83374023438</ele>
        <time>2011-08-10T16:15:30Z</time>
      </trkpt>
      <trkpt lat="45.00122" lon="5.43215">
        <ele>706.029296875</ele>
        <time>2011-08-10T16:15:35Z</time>
      </trkpt>
      <trkpt lat="45.00119" lon="5.43208">
        <ele>705.76000976562</ele>
        <time>2011-08-10T16:15:36Z</time>
      </trkpt>
      <trkpt lat="45.00104" lon="5.43159">
        <ele>706.59930419922</ele>
        <time>2011-08-10T16:15:42Z</time>
      </trkpt>
      <trkpt lat="45.00092" lon="5.43117">
        <ele>708.03106689453</ele>
        <time>2011-08-10T16:15:47Z</time>
      </trkpt>
      <trkpt lat="45.0008" lon="5.43092">
        <ele>708.75457763672</ele>
        <time>2011-08-10T16:15:50Z</time>
      </trkpt>
      <trkpt lat="45.00074" lon="5.43077">
        <ele>708.26196289062</ele>
        <time>2011-08-10T16:15:52Z</time>
      </trkpt>
      <trkpt lat="45.00058" lon="5.43015">
        <ele>709.98571777344</ele>
        <time>2011-08-10T16:15:59Z</time>
      </trkpt>
      <trkpt lat="45.0005" lon="5.42959">
        <ele>713.01824951172</ele>
        <time>2011-08-10T16:16:05Z</time>
      </trkpt>
      <trkpt lat="45.00039" lon="5.42914">
        <ele>711.51745605469</ele>
        <time>2011-08-10T16:16:10Z</time>
      </trkpt>
      <trkpt lat="45.00037" lon="5.42876">
        <ele>710.36328125</ele>
        <time>2011-08-10T16:16:14Z</time>
      </trkpt>
      <trkpt lat="45.00032" lon="5.42832">
        <ele>703.15905761719</ele>
        <time>2011-08-10T16:16:19Z</time>
      </trkpt>
      <trkpt lat="45.00019" lon="5.42799">
        <ele>696.70416259766</ele>
        <time>2011-08-10T16:16:23Z</time>
      </trkpt>
      <trkpt lat="44.99996" lon="5.42767">
        <ele>688.94885253906</ele>
        <time>2011-08-10T16:16:28Z</time>
      </trkpt>
      <trkpt lat="44.9998" lon="5.42754">
        <ele>690.21789550781</ele>
        <time>2011-08-10T16:16:31Z</time>
      </trkpt>
      <trkpt lat="44.99972" lon="5.42728">
        <ele>690.21612548828</ele>
        <time>2011-08-10T16:16:34Z</time>
      </trkpt>
      <trkpt lat="44.99979" lon="5.4271">
        <ele>689.43585205078</ele>
        <time>2011-08-10T16:16:36Z</time>
      </trkpt>
      <trkpt lat="44.99998" lon="5.42693">
        <ele>687.16156005859</ele>
        <time>2011-08-10T16:16:39Z</time>
      </trkpt>
      <trkpt lat="45.00016" lon="5.42695">
        <ele>691.74487304688</ele>
        <time>2011-08-10T16:16:41Z</time>
      </trkpt>
      <trkpt lat="45.00068" lon="5.42676">
        <ele>696.43237304688</ele>
        <time>2011-08-10T16:16:47Z</time>
      </trkpt>
      <trkpt lat="45.00126" lon="5.42603">
        <ele>693.48681640625</ele>
        <time>2011-08-10T16:16:55Z</time>
      </trkpt>
      <trkpt lat="45.00155" lon="5.42542">
        <ele>689.29254150391</ele>
        <time>2011-08-10T16:17:00Z</time>
      </trkpt>
      <trkpt lat="45.00164" lon="5.42512">
        <ele>686.82946777344</ele>
        <time>2011-08-10T16:17:02Z</time>
      </trkpt>
      <trkpt lat="45.00168" lon="5.4245">
        <ele>680.67181396484</ele>
        <time>2011-08-10T16:17:06Z</time>
      </trkpt>
      <trkpt lat="45.00175" lon="5.42429">
        <ele>680.35992431641</ele>
        <time>2011-08-10T16:17:08Z</time>
      </trkpt>
      <trkpt lat="45.0019" lon="5.42424">
        <ele>683.55889892578</ele>
        <time>2011-08-10T16:17:10Z</time>
      </trkpt>
      <trkpt lat="45.01234" lon="5.40786">
        <ele>560.02941894531</ele>
        <time>2011-08-10T16:19:13Z</time>
      </trkpt>
      <trkpt lat="45.013" lon="5.4072">
        <ele>557.33868408203</ele>
        <time>2011-08-10T16:19:19Z</time>
      </trkpt>
      <trkpt lat="45.01372" lon="5.40638">
        <ele>540.47973632812</ele>
        <time>2011-08-10T16:19:26Z</time>
      </trkpt>
      <trkpt lat="45.01393" lon="5.40615">
        <ele>537.97155761719</ele>
        <time>2011-08-10T16:19:28Z</time>
      </trkpt>
      <trkpt lat="45.0145" lon="5.40569">
        <ele>528.076171875</ele>
        <time>2011-08-10T16:19:33Z</time>
      </trkpt>
      <trkpt lat="45.01485" lon="5.40551">
        <ele>533.23486328125</ele>
        <time>2011-08-10T16:19:36Z</time>
      </trkpt>
      <trkpt lat="45.0152" lon="5.40563">
        <ele>548.35272216797</ele>
        <time>2011-08-10T16:19:39Z</time>
      </trkpt>
      <trkpt lat="45.01543" lon="5.40564">
        <ele>554.07464599609</ele>
        <time>2011-08-10T16:19:41Z</time>
      </trkpt>
      <trkpt lat="45.01563" lon="5.40545">
        <ele>553.15057373047</ele>
        <time>2011-08-10T16:19:43Z</time>
      </trkpt>
      <trkpt lat="45.0158" lon="5.40499">
        <ele>544.53356933594</ele>
        <time>2011-08-10T16:19:46Z</time>
      </trkpt>
      <trkpt lat="45.01586" lon="5.40485">
        <ele>540.53424072266</ele>
        <time>2011-08-10T16:19:47Z</time>
      </trkpt>
      <trkpt lat="45.01605" lon="5.40463">
        <ele>538.94757080078</ele>
        <time>2011-08-10T16:19:49Z</time>
      </trkpt>
      <trkpt lat="45.01629" lon="5.40456">
        <ele>550.59167480469</ele>
        <time>2011-08-10T16:19:51Z</time>
      </trkpt>
      <trkpt lat="45.01649" lon="5.40437">
        <ele>554.66180419922</ele>
        <time>2011-08-10T16:19:53Z</time>
      </trkpt>
      <trkpt lat="45.01683" lon="5.40386">
        <ele>546.76739501953</ele>
        <time>2011-08-10T16:19:57Z</time>
      </trkpt>
      <trkpt lat="45.01708" lon="5.40326">
        <ele>539.65191650391</ele>
        <time>2011-08-10T16:20:01Z</time>
      </trkpt>
      <trkpt lat="45.01728" lon="5.40241">
        <ele>527.87152099609</ele>
        <time>2011-08-10T16:20:06Z</time>
      </trkpt>
      <trkpt lat="45.01733" lon="5.40206">
        <ele>521.73907470703</ele>
        <time>2011-08-10T16:20:08Z</time>
      </trkpt>
      <trkpt lat="45.01753" lon="5.40141">
        <ele>511.65106201172</ele>
        <time>2011-08-10T16:20:12Z</time>
      </trkpt>
      <trkpt lat="45.01783" lon="5.40044">
        <ele>505.48788452148</ele>
        <time>2011-08-10T16:20:18Z</time>
      </trkpt>
      <trkpt lat="45.018" lon="5.39979">
        <ele>499.49630737305</ele>
        <time>2011-08-10T16:20:22Z</time>
      </trkpt>
      <trkpt lat="45.01833" lon="5.39888">
        <ele>489.91366577148</ele>
        <time>2011-08-10T16:20:28Z</time>
      </trkpt>
      <trkpt lat="45.01839" lon="5.39874">
        <ele>488.53778076172</ele>
        <time>2011-08-10T16:20:29Z</time>
      </trkpt>
      <trkpt lat="45.01852" lon="5.39845">
        <ele>483.49053955078</ele>
        <time>2011-08-10T16:20:31Z</time>
      </trkpt>
      <trkpt lat="45.01888" lon="5.39801">
        <ele>475.90362548828</ele>
        <time>2011-08-10T16:20:35Z</time>
      </trkpt>
      <trkpt lat="45.01898" lon="5.39794">
        <ele>475.51306152344</ele>
        <time>2011-08-10T16:20:36Z</time>
      </trkpt>
      <trkpt lat="45.01921" lon="5.39781">
        <ele>476.45126342773</ele>
        <time>2011-08-10T16:20:38Z</time>
      </trkpt>
      <trkpt lat="45.01978" lon="5.39761">
        <ele>485.48760986328</ele>
        <time>2011-08-10T16:20:43Z</time>
      </trkpt>
      <trkpt lat="45.02002" lon="5.39758">
        <ele>488.53948974609</ele>
        <time>2011-08-10T16:20:45Z</time>
      </trkpt>
      <trkpt lat="45.02046" lon="5.39774">
        <ele>494.5207824707</ele>
        <time>2011-08-10T16:20:49Z</time>
      </trkpt>
      <trkpt lat="45.02079" lon="5.39774">
        <ele>495.07373046875</ele>
        <time>2011-08-10T16:20:52Z</time>
      </trkpt>
      <trkpt lat="45.02087" lon="5.39763">
        <ele>493.3642578125</ele>
        <time>2011-08-10T16:20:53Z</time>
      </trkpt>
      <trkpt lat="45.02136" lon="5.3972">
        <ele>486.32418823242</ele>
        <time>2011-08-10T16:20:58Z</time>
      </trkpt>
      <trkpt lat="45.02168" lon="5.39698">
        <ele>486.63940429688</ele>
        <time>2011-08-10T16:21:01Z</time>
      </trkpt>
      <trkpt lat="45.02203" lon="5.39655">
        <ele>484.53363037109</ele>
        <time>2011-08-10T16:21:05Z</time>
      </trkpt>
      <trkpt lat="45.0221" lon="5.39643">
        <ele>482.78265380859</ele>
        <time>2011-08-10T16:21:06Z</time>
      </trkpt>
      <trkpt lat="45.02227" lon="5.39619">
        <ele>480.91668701172</ele>
        <time>2011-08-10T16:21:08Z</time>
      </trkpt>
      <trkpt lat="45.02242" lon="5.39594">
        <ele>477.41201782227</ele>
        <time>2011-08-10T16:21:10Z</time>
      </trkpt>
      <trkpt lat="45.02249" lon="5.3958">
        <ele>474.74325561523</ele>
        <time>2011-08-10T16:21:11Z</time>
      </trkpt>
      <trkpt lat="45.02279" lon="5.39525">
        <ele>465.60815429688</ele>
        <time>2011-08-10T16:21:15Z</time>
      </trkpt>
      <trkpt lat="45.02284" lon="5.3951">
        <ele>463.59973144531</ele>
        <time>2011-08-10T16:21:16Z</time>
      </trkpt>
      <trkpt lat="45.02308" lon="5.3945">
        <ele>452.87835693359</ele>
        <time>2011-08-10T16:21:20Z</time>
      </trkpt>
      <trkpt lat="45.02344" lon="5.39408">
        <ele>451.80499267578</ele>
        <time>2011-08-10T16:21:24Z</time>
      </trkpt>
      <trkpt lat="45.02359" lon="5.39384">
        <ele>448.7668762207</ele>
        <time>2011-08-10T16:21:26Z</time>
      </trkpt>
      <trkpt lat="45.02374" lon="5.39339">
        <ele>439.84252929688</ele>
        <time>2011-08-10T16:21:29Z</time>
      </trkpt>
      <trkpt lat="45.024" lon="5.39304">
        <ele>436.42556762695</ele>
        <time>2011-08-10T16:21:32Z</time>
      </trkpt>
      <trkpt lat="45.02443" lon="5.3927">
        <ele>434.30435180664</ele>
        <time>2011-08-10T16:21:36Z</time>
      </trkpt>
      <trkpt lat="45.02479" lon="5.39257">
        <ele>441.56454467773</ele>
        <time>2011-08-10T16:21:39Z</time>
      </trkpt>
      <trkpt lat="45.02526" lon="5.39229">
        <ele>449.54333496094</ele>
        <time>2011-08-10T16:21:43Z</time>
      </trkpt>
      <trkpt lat="45.02547" lon="5.39215">
        <ele>453.34014892578</ele>
        <time>2011-08-10T16:21:45Z</time>
      </trkpt>
      <trkpt lat="45.02558" lon="5.39192">
        <ele>451.8938293457</ele>
        <time>2011-08-10T16:21:48Z</time>
      </trkpt>
      <trkpt lat="45.02546" lon="5.39185">
        <ele>445.78240966797</ele>
        <time>2011-08-10T16:21:50Z</time>
      </trkpt>
      <trkpt lat="45.02534" lon="5.39194">
        <ele>444.08032226562</ele>
        <time>2011-08-10T16:21:52Z</time>
      </trkpt>
      <trkpt lat="45.02517" lon="5.39216">
        <ele>442.38244628906</ele>
        <time>2011-08-10T16:21:55Z</time>
      </trkpt>
      <trkpt lat="45.025" lon="5.39226">
        <ele>438.44470214844</ele>
        <time>2011-08-10T16:21:57Z</time>
      </trkpt>
      <trkpt lat="45.02482" lon="5.39233">
        <ele>433.72451782227</ele>
        <time>2011-08-10T16:21:59Z</time>
      </trkpt>
      <trkpt lat="45.02462" lon="5.39236">
        <ele>428.24676513672</ele>
        <time>2011-08-10T16:22:01Z</time>
      </trkpt>
      <trkpt lat="45.02452" lon="5.39235">
        <ele>425.06253051758</ele>
        <time>2011-08-10T16:22:02Z</time>
      </trkpt>
      <trkpt lat="45.02411" lon="5.39246">
        <ele>419.22314453125</ele>
        <time>2011-08-10T16:22:06Z</time>
      </trkpt>
      <trkpt lat="45.02357" lon="5.39279">
        <ele>416.42367553711</ele>
        <time>2011-08-10T16:22:11Z</time>
      </trkpt>
      <trkpt lat="45.02321" lon="5.39323">
        <ele>419.70672607422</ele>
        <time>2011-08-10T16:22:15Z</time>
      </trkpt>
      <trkpt lat="45.02312" lon="5.39336">
        <ele>420.79357910156</ele>
        <time>2011-08-10T16:22:16Z</time>
      </trkpt>
      <trkpt lat="45.02281" lon="5.39364">
        <ele>422.38232421875</ele>
        <time>2011-08-10T16:22:19Z</time>
      </trkpt>
      <trkpt lat="45.02233" lon="5.39424">
        <ele>426.77722167969</ele>
        <time>2011-08-10T16:22:24Z</time>
      </trkpt>
      <trkpt lat="45.02224" lon="5.39438">
        <ele>429.2004699707</ele>
        <time>2011-08-10T16:22:25Z</time>
      </trkpt>
      <trkpt lat="45.02195" lon="5.3946">
        <ele>426.44281005859</ele>
        <time>2011-08-10T16:22:28Z</time>
      </trkpt>
      <trkpt lat="45.02173" lon="5.39451">
        <ele>417.01309204102</ele>
        <time>2011-08-10T16:22:30Z</time>
      </trkpt>
      <trkpt lat="45.02151" lon="5.39458">
        <ele>409.13159179688</ele>
        <time>2011-08-10T16:22:32Z</time>
      </trkpt>
      <trkpt lat="45.02143" lon="5.39469">
        <ele>407.88363647461</ele>
        <time>2011-08-10T16:22:33Z</time>
      </trkpt>
      <trkpt lat="45.02102" lon="5.39493">
        <ele>404.20474243164</ele>
        <time>2011-08-10T16:22:37Z</time>
      </trkpt>
      <trkpt lat="45.02092" lon="5.39485">
        <ele>400.52282714844</ele>
        <time>2011-08-10T16:22:38Z</time>
      </trkpt>
      <trkpt lat="45.02052" lon="5.39481">
        <ele>397.77655029297</ele>
        <time>2011-08-10T16:22:42Z</time>
      </trkpt>
      <trkpt lat="45.02029" lon="5.3949">
        <ele>397.93560791016</ele>
        <time>2011-08-10T16:22:44Z</time>
      </trkpt>
      <trkpt lat="45.02005" lon="5.39496">
        <ele>397.50164794922</ele>
        <time>2011-08-10T16:22:46Z</time>
      </trkpt>
      <trkpt lat="45.01975" lon="5.3952">
        <ele>400.94528198242</ele>
        <time>2011-08-10T16:22:49Z</time>
      </trkpt>
      <trkpt lat="45.01957" lon="5.39564">
        <ele>409.56195068359</ele>
        <time>2011-08-10T16:22:52Z</time>
      </trkpt>
      <trkpt lat="45.01939" lon="5.3958">
        <ele>409.48678588867</ele>
        <time>2011-08-10T16:22:54Z</time>
      </trkpt>
      <trkpt lat="45.01915" lon="5.39584">
        <ele>407.03106689453</ele>
        <time>2011-08-10T16:22:56Z</time>
      </trkpt>
      <trkpt lat="45.01905" lon="5.39588">
        <ele>406.95208740234</ele>
        <time>2011-08-10T16:22:57Z</time>
      </trkpt>
      <trkpt lat="45.01884" lon="5.39586">
        <ele>404.46008300781</ele>
        <time>2011-08-10T16:23:01Z</time>
      </trkpt>
      <trkpt lat="45.01892" lon="5.39572">
        <ele>402.63116455078</ele>
        <time>2011-08-10T16:23:03Z</time>
      </trkpt>
      <trkpt lat="45.01913" lon="5.39567">
        <ele>403.64682006836</ele>
        <time>2011-08-10T16:23:06Z</time>
      </trkpt>
      <trkpt lat="45.01936" lon="5.39552">
        <ele>402.90081787109</ele>
        <time>2011-08-10T16:23:09Z</time>
      </trkpt>
      <trkpt lat="45.01948" lon="5.39517">
        <ele>396.10717773438</ele>
        <time>2011-08-10T16:23:12Z</time>
      </trkpt>
      <trkpt lat="45.01956" lon="5.39478">
        <ele>389.92868041992</ele>
        <time>2011-08-10T16:23:15Z</time>
      </trkpt>
      <trkpt lat="45.01982" lon="5.39435">
        <ele>386.3310546875</ele>
        <time>2011-08-10T16:23:19Z</time>
      </trkpt>
      <trkpt lat="45.01992" lon="5.39428">
        <ele>385.20153808594</ele>
        <time>2011-08-10T16:23:20Z</time>
      </trkpt>
      <trkpt lat="45.02056" lon="5.39375">
        <ele>379.02545166016</ele>
        <time>2011-08-10T16:23:27Z</time>
      </trkpt>
      <trkpt lat="45.02074" lon="5.39359">
        <ele>377.81292724609</ele>
        <time>2011-08-10T16:23:29Z</time>
      </trkpt>
      <trkpt lat="45.02115" lon="5.39336">
        <ele>376.5778503418</ele>
        <time>2011-08-10T16:23:33Z</time>
      </trkpt>
      <trkpt lat="45.02169" lon="5.39307">
        <ele>374.53881835938</ele>
        <time>2011-08-10T16:23:38Z</time>
      </trkpt>
      <trkpt lat="45.0218" lon="5.39299">
        <ele>373.68249511719</ele>
        <time>2011-08-10T16:23:39Z</time>
      </trkpt>
      <trkpt lat="45.02241" lon="5.3924">
        <ele>365.96459960938</ele>
        <time>2011-08-10T16:23:45Z</time>
      </trkpt>
      <trkpt lat="45.02261" lon="5.39218">
        <ele>363.10775756836</ele>
        <time>2011-08-10T16:23:47Z</time>
      </trkpt>
      <trkpt lat="45.02285" lon="5.39176">
        <ele>359.78732299805</ele>
        <time>2011-08-10T16:23:50Z</time>
      </trkpt>
      <trkpt lat="45.02327" lon="5.39132">
        <ele>358.54418945312</ele>
        <time>2011-08-10T16:23:54Z</time>
      </trkpt>
      <trkpt lat="45.02368" lon="5.39086">
        <ele>356.79956054688</ele>
        <time>2011-08-10T16:23:58Z</time>
      </trkpt>
      <trkpt lat="45.02401" lon="5.39059">
        <ele>357.52377319336</ele>
        <time>2011-08-10T16:24:01Z</time>
      </trkpt>
      <trkpt lat="45.02437" lon="5.39013">
        <ele>355.29748535156</ele>
        <time>2011-08-10T16:24:05Z</time>
      </trkpt>
      <trkpt lat="45.02444" lon="5.39">
        <ele>354.93182373047</ele>
        <time>2011-08-10T16:24:06Z</time>
      </trkpt>
      <trkpt lat="45.02482" lon="5.38937">
        <ele>351.20114135742</ele>
        <time>2011-08-10T16:24:11Z</time>
      </trkpt>
      <trkpt lat="45.02517" lon="5.38898">
        <ele>351.3483581543</ele>
        <time>2011-08-10T16:24:15Z</time>
      </trkpt>
      <trkpt lat="45.02536" lon="5.38881">
        <ele>352.18893432617</ele>
        <time>2011-08-10T16:24:17Z</time>
      </trkpt>
      <trkpt lat="45.02567" lon="5.38867">
        <ele>355.08908081055</ele>
        <time>2011-08-10T16:24:20Z</time>
      </trkpt>
      <trkpt lat="45.02631" lon="5.38847">
        <ele>359.396484375</ele>
        <time>2011-08-10T16:24:26Z</time>
      </trkpt>
      <trkpt lat="45.02679" lon="5.38816">
        <ele>357.80218505859</ele>
        <time>2011-08-10T16:24:31Z</time>
      </trkpt>
      <trkpt lat="45.02707" lon="5.38774">
        <ele>345.6708984375</ele>
        <time>2011-08-10T16:24:35Z</time>
      </trkpt>
      <trkpt lat="45.0274" lon="5.38717">
        <ele>338.51773071289</ele>
        <time>2011-08-10T16:24:40Z</time>
      </trkpt>
      <trkpt lat="45.02794" lon="5.38673">
        <ele>339.01931762695</ele>
        <time>2011-08-10T16:24:46Z</time>
      </trkpt>
      <trkpt lat="45.02832" lon="5.38654">
        <ele>341.06109619141</ele>
        <time>2011-08-10T16:24:50Z</time>
      </trkpt>
      <trkpt lat="45.02841" lon="5.38646">
        <ele>341.8561706543</ele>
        <time>2011-08-10T16:24:51Z</time>
      </trkpt>
      <trkpt lat="45.02892" lon="5.38599">
        <ele>342.97247314453</ele>
        <time>2011-08-10T16:24:57Z</time>
      </trkpt>
      <trkpt lat="45.0293" lon="5.38552">
        <ele>346.22732543945</ele>
        <time>2011-08-10T16:25:02Z</time>
      </trkpt>
      <trkpt lat="45.02959" lon="5.38512">
        <ele>348.990234375</ele>
        <time>2011-08-10T16:25:06Z</time>
      </trkpt>
      <trkpt lat="45.02991" lon="5.38439">
        <ele>346.88146972656</ele>
        <time>2011-08-10T16:25:12Z</time>
      </trkpt>
      <trkpt lat="45.03024" lon="5.38386">
        <ele>347.71243286133</ele>
        <time>2011-08-10T16:25:17Z</time>
      </trkpt>
      <trkpt lat="45.03032" lon="5.38377">
        <ele>346.82308959961</ele>
        <time>2011-08-10T16:25:18Z</time>
      </trkpt>
      <trkpt lat="45.03076" lon="5.38347">
        <ele>342.64739990234</ele>
        <time>2011-08-10T16:25:23Z</time>
      </trkpt>
      <trkpt lat="45.03095" lon="5.38341">
        <ele>341.96600341797</ele>
        <time>2011-08-10T16:25:25Z</time>
      </trkpt>
      <trkpt lat="45.03154" lon="5.38325">
        <ele>340.37554931641</ele>
        <time>2011-08-10T16:25:31Z</time>
      </trkpt>
      <trkpt lat="45.03194" lon="5.38329">
        <ele>339.59069824219</ele>
        <time>2011-08-10T16:25:35Z</time>
      </trkpt>
      <trkpt lat="45.03204" lon="5.38334">
        <ele>339.49612426758</ele>
        <time>2011-08-10T16:25:36Z</time>
      </trkpt>
      <trkpt lat="45.03232" lon="5.38351">
        <ele>340.84307861328</ele>
        <time>2011-08-10T16:25:39Z</time>
      </trkpt>
      <trkpt lat="45.03271" lon="5.38353">
        <ele>338.18829345703</ele>
        <time>2011-08-10T16:25:43Z</time>
      </trkpt>
      <trkpt lat="45.03321" lon="5.38335">
        <ele>331.19927978516</ele>
        <time>2011-08-10T16:25:48Z</time>
      </trkpt>
      <trkpt lat="45.03373" lon="5.38314">
        <ele>337.8776550293</ele>
        <time>2011-08-10T16:25:53Z</time>
      </trkpt>
      <trkpt lat="45.03446" lon="5.38277">
        <ele>333.00375366211</ele>
        <time>2011-08-10T16:26:00Z</time>
      </trkpt>
      <trkpt lat="45.0349" lon="5.38235">
        <ele>329.9521484375</ele>
        <time>2011-08-10T16:26:05Z</time>
      </trkpt>
      <trkpt lat="45.03535" lon="5.38191">
        <ele>328.82028198242</ele>
        <time>2011-08-10T16:26:10Z</time>
      </trkpt>
      <trkpt lat="45.03574" lon="5.3816">
        <ele>327.81246948242</ele>
        <time>2011-08-10T16:26:14Z</time>
      </trkpt>
      <trkpt lat="45.03593" lon="5.38143">
        <ele>328.99029541016</ele>
        <time>2011-08-10T16:26:16Z</time>
      </trkpt>
      <trkpt lat="45.03634" lon="5.38087">
        <ele>320.58825683594</ele>
        <time>2011-08-10T16:26:21Z</time>
      </trkpt>
      <trkpt lat="45.0365" lon="5.38065">
        <ele>322.19903564453</ele>
        <time>2011-08-10T16:26:23Z</time>
      </trkpt>
      <trkpt lat="45.03703" lon="5.38002">
        <ele>322.57647705078</ele>
        <time>2011-08-10T16:26:29Z</time>
      </trkpt>
      <trkpt lat="45.03712" lon="5.37991">
        <ele>322.87976074219</ele>
        <time>2011-08-10T16:26:30Z</time>
      </trkpt>
      <trkpt lat="45.03728" lon="5.37966">
        <ele>321.34173583984</ele>
        <time>2011-08-10T16:26:32Z</time>
      </trkpt>
      <trkpt lat="45.03764" lon="5.37901">
        <ele>320.44567871094</ele>
        <time>2011-08-10T16:26:37Z</time>
      </trkpt>
      <trkpt lat="45.0378" lon="5.37876">
        <ele>320.20077514648</ele>
        <time>2011-08-10T16:26:39Z</time>
      </trkpt>
      <trkpt lat="45.03831" lon="5.37806">
        <ele>320</ele>
        <time>2011-08-10T16:26:45Z</time>
      </trkpt>
      <trkpt lat="45.03873" lon="5.3775">
        <ele>318.98989868164</ele>
        <time>2011-08-10T16:26:50Z</time>
      </trkpt>
      <trkpt lat="45.03897" lon="5.37716">
        <ele>318</ele>
        <time>2011-08-10T16:26:53Z</time>
      </trkpt>
      <trkpt lat="45.03911" lon="5.37674">
        <ele>317.41323852539</ele>
        <time>2011-08-10T16:26:56Z</time>
      </trkpt>
      <trkpt lat="45.03902" lon="5.37645">
        <ele>321.00674438477</ele>
        <time>2011-08-10T16:26:58Z</time>
      </trkpt>
      <trkpt lat="45.03893" lon="5.37593">
        <ele>348.81951904297</ele>
        <time>2011-08-10T16:27:02Z</time>
      </trkpt>
      <trkpt lat="45.039" lon="5.37569">
        <ele>356.70538330078</ele>
        <time>2011-08-10T16:27:04Z</time>
      </trkpt>
      <trkpt lat="45.03928" lon="5.37533">
        <ele>360.72827148438</ele>
        <time>2011-08-10T16:27:09Z</time>
      </trkpt>
      <trkpt lat="45.03946" lon="5.37515">
        <ele>355.75048828125</ele>
        <time>2011-08-10T16:27:12Z</time>
      </trkpt>
      <trkpt lat="45.03975" lon="5.37497">
        <ele>331.48208618164</ele>
        <time>2011-08-10T16:27:17Z</time>
      </trkpt>
      <trkpt lat="45.03984" lon="5.37487">
        <ele>332.07275390625</ele>
        <time>2011-08-10T16:27:19Z</time>
      </trkpt>
      <trkpt lat="45.0401" lon="5.37457">
        <ele>332.76651000977</ele>
        <time>2011-08-10T16:27:25Z</time>
      </trkpt>
      <trkpt lat="45.04026" lon="5.3744">
        <ele>335.79522705078</ele>
        <time>2011-08-10T16:27:29Z</time>
      </trkpt>
      <trkpt lat="45.04057" lon="5.37421">
        <ele>326.01397705078</ele>
        <time>2011-08-10T16:27:36Z</time>
      </trkpt>
      <trkpt lat="45.04084" lon="5.37412">
        <ele>308.86511230469</ele>
        <time>2011-08-10T16:27:43Z</time>
      </trkpt>
      <trkpt lat="45.04096" lon="5.37406">
        <ele>305.86135864258</ele>
        <time>2011-08-10T16:27:46Z</time>
      </trkpt>
      <trkpt lat="45.04109" lon="5.37398">
        <ele>300.95309448242</ele>
        <time>2011-08-10T16:27:49Z</time>
      </trkpt>
      <trkpt lat="45.04122" lon="5.3739">
        <ele>299.57821655273</ele>
        <time>2011-08-10T16:27:52Z</time>
      </trkpt>
      <trkpt lat="45.04156" lon="5.37377">
        <ele>299</ele>
        <time>2011-08-10T16:27:59Z</time>
      </trkpt>
      <trkpt lat="45.04179" lon="5.37368">
        <ele>299</ele>
        <time>2011-08-10T16:28:04Z</time>
      </trkpt>
      <trkpt lat="45.04189" lon="5.37357">
        <ele>299</ele>
        <time>2011-08-10T16:28:07Z</time>
      </trkpt>
      <trkpt lat="45.04196" lon="5.37351">
        <ele>299</ele>
        <time>2011-08-10T16:28:09Z</time>
      </trkpt>
      <trkpt lat="45.04208" lon="5.37336">
        <ele>299</ele>
        <time>2011-08-10T16:28:13Z</time>
      </trkpt>
      <trkpt lat="45.04227" lon="5.373">
        <ele>298.80737304688</ele>
        <time>2011-08-10T16:28:19Z</time>
      </trkpt>
      <trkpt lat="45.04242" lon="5.37258">
        <ele>298</ele>
        <time>2011-08-10T16:28:24Z</time>
      </trkpt>
      <trkpt lat="45.04253" lon="5.37213">
        <ele>298</ele>
        <time>2011-08-10T16:28:29Z</time>
      </trkpt>
      <trkpt lat="45.04276" lon="5.37159">
        <ele>298</ele>
        <time>2011-08-10T16:28:35Z</time>
      </trkpt>
      <trkpt lat="45.04308" lon="5.37078">
        <ele>297</ele>
        <time>2011-08-10T16:28:43Z</time>
      </trkpt>
      <trkpt lat="45.04319" lon="5.37045">
        <ele>297.37994384766</ele>
        <time>2011-08-10T16:28:46Z</time>
      </trkpt>
      <trkpt lat="45.04328" lon="5.36971">
        <ele>300.45669555664</ele>
        <time>2011-08-10T16:28:52Z</time>
      </trkpt>
      <trkpt lat="45.04341" lon="5.36898">
        <ele>315.32308959961</ele>
        <time>2011-08-10T16:28:58Z</time>
      </trkpt>
      <trkpt lat="45.04343" lon="5.36887">
        <ele>316.91934204102</ele>
        <time>2011-08-10T16:28:59Z</time>
      </trkpt>
      <trkpt lat="45.04374" lon="5.36811">
        <ele>315.61196899414</ele>
        <time>2011-08-10T16:29:06Z</time>
      </trkpt>
      <trkpt lat="45.04405" lon="5.36748">
        <ele>306.97256469727</ele>
        <time>2011-08-10T16:29:12Z</time>
      </trkpt>
      <trkpt lat="45.04427" lon="5.36691">
        <ele>300.9485168457</ele>
        <time>2011-08-10T16:29:17Z</time>
      </trkpt>
      <trkpt lat="45.04453" lon="5.36614">
        <ele>296.17803955078</ele>
        <time>2011-08-10T16:29:23Z</time>
      </trkpt>
      <trkpt lat="45.04472" lon="5.36578">
        <ele>292.26345825195</ele>
        <time>2011-08-10T16:29:27Z</time>
      </trkpt>
      <trkpt lat="45.04487" lon="5.36543">
        <ele>290.86871337891</ele>
        <time>2011-08-10T16:29:31Z</time>
      </trkpt>
      <trkpt lat="45.04498" lon="5.36505">
        <ele>292.07922363281</ele>
        <time>2011-08-10T16:29:36Z</time>
      </trkpt>
      <trkpt lat="45.04503" lon="5.36455">
        <ele>294.5403137207</ele>
        <time>2011-08-10T16:29:43Z</time>
      </trkpt>
      <trkpt lat="45.04504" lon="5.36448">
        <ele>294.83557128906</ele>
        <time>2011-08-10T16:29:44Z</time>
      </trkpt>
      <trkpt lat="45.04503" lon="5.36434">
        <ele>296.34173583984</ele>
        <time>2011-08-10T16:29:46Z</time>
      </trkpt>
      <trkpt lat="45.04502" lon="5.36403">
        <ele>299.08117675781</ele>
        <time>2011-08-10T16:29:50Z</time>
      </trkpt>
      <trkpt lat="45.04506" lon="5.36381">
        <ele>300.40237426758</ele>
        <time>2011-08-10T16:29:53Z</time>
      </trkpt>
      <trkpt lat="45.04522" lon="5.36346">
        <ele>301.41757202148</ele>
        <time>2011-08-10T16:29:59Z</time>
      </trkpt>
      <trkpt lat="45.04532" lon="5.3633">
        <ele>299.72415161133</ele>
        <time>2011-08-10T16:30:02Z</time>
      </trkpt>
      <trkpt lat="45.04551" lon="5.36297">
        <ele>298.89837646484</ele>
        <time>2011-08-10T16:30:08Z</time>
      </trkpt>
      <trkpt lat="45.04563" lon="5.36273">
        <ele>298.27532958984</ele>
        <time>2011-08-10T16:30:12Z</time>
      </trkpt>
      <trkpt lat="45.0457" lon="5.36262">
        <ele>298.39920043945</ele>
        <time>2011-08-10T16:30:14Z</time>
      </trkpt>
      <trkpt lat="45.04578" lon="5.36228">
        <ele>301.13238525391</ele>
        <time>2011-08-10T16:30:19Z</time>
      </trkpt>
      <trkpt lat="45.04579" lon="5.36205">
        <ele>301.88345336914</ele>
        <time>2011-08-10T16:30:22Z</time>
      </trkpt>
      <trkpt lat="45.04581" lon="5.36148">
        <ele>304.89144897461</ele>
        <time>2011-08-10T16:30:30Z</time>
      </trkpt>
      <trkpt lat="45.04582" lon="5.36142">
        <ele>305.24346923828</ele>
        <time>2011-08-10T16:30:31Z</time>
      </trkpt>
      <trkpt lat="45.04587" lon="5.36101">
        <ele>300.74749755859</ele>
        <time>2011-08-10T16:30:37Z</time>
      </trkpt>
      <trkpt lat="45.04594" lon="5.36064">
        <ele>295.95767211914</ele>
        <time>2011-08-10T16:30:43Z</time>
      </trkpt>
      <trkpt lat="45.04592" lon="5.36034">
        <ele>296.2649230957</ele>
        <time>2011-08-10T16:30:49Z</time>
      </trkpt>
      <trkpt lat="45.04584" lon="5.36008">
        <ele>299.10107421875</ele>
        <time>2011-08-10T16:30:55Z</time>
      </trkpt>
      <trkpt lat="45.04575" lon="5.35984">
        <ele>302.26260375977</ele>
        <time>2011-08-10T16:31:01Z</time>
      </trkpt>
      <trkpt lat="45.04559" lon="5.35957">
        <ele>306.41033935547</ele>
        <time>2011-08-10T16:31:08Z</time>
      </trkpt>
      <trkpt lat="45.04552" lon="5.35943">
        <ele>309.47113037109</ele>
        <time>2011-08-10T16:31:11Z</time>
      </trkpt>
      <trkpt lat="45.04547" lon="5.35926">
        <ele>310.81350708008</ele>
        <time>2011-08-10T16:31:14Z</time>
      </trkpt>
      <trkpt lat="45.04543" lon="5.35878">
        <ele>311.02648925781</ele>
        <time>2011-08-10T16:31:21Z</time>
      </trkpt>
      <trkpt lat="45.04542" lon="5.35836">
        <ele>313.72583007812</ele>
        <time>2011-08-10T16:31:27Z</time>
      </trkpt>
      <trkpt lat="45.04536" lon="5.35773">
        <ele>335.41662597656</ele>
        <time>2011-08-10T16:31:36Z</time>
      </trkpt>
      <trkpt lat="45.04535" lon="5.35766">
        <ele>337.36663818359</ele>
        <time>2011-08-10T16:31:37Z</time>
      </trkpt>
      <trkpt lat="45.04536" lon="5.35716">
        <ele>348.53509521484</ele>
        <time>2011-08-10T16:31:44Z</time>
      </trkpt>
      <trkpt lat="45.04546" lon="5.35654">
        <ele>354.23443603516</ele>
        <time>2011-08-10T16:31:52Z</time>
      </trkpt>
      <trkpt lat="45.04559" lon="5.35597">
        <ele>358.25152587891</ele>
        <time>2011-08-10T16:31:59Z</time>
      </trkpt>
      <trkpt lat="45.04575" lon="5.35541">
        <ele>362.38314819336</ele>
        <time>2011-08-10T16:32:06Z</time>
      </trkpt>
      <trkpt lat="45.04582" lon="5.35486">
        <ele>373.90481567383</ele>
        <time>2011-08-10T16:32:12Z</time>
      </trkpt>
      <trkpt lat="45.04588" lon="5.35442">
        <ele>381.58358764648</ele>
        <time>2011-08-10T16:32:17Z</time>
      </trkpt>
      <trkpt lat="45.04639" lon="5.35347">
        <ele>354.97659301758</ele>
        <time>2011-08-10T16:32:30Z</time>
      </trkpt>
      <trkpt lat="45.04639" lon="5.3533">
        <ele>359.58843994141</ele>
        <time>2011-08-10T16:32:34Z</time>
      </trkpt>
      <trkpt lat="45.04652" lon="5.35319">
        <ele>352.44735717773</ele>
        <time>2011-08-10T16:32:36Z</time>
      </trkpt>
      <trkpt lat="45.04662" lon="5.35248">
        <ele>359.38522338867</ele>
        <time>2011-08-10T16:32:41Z</time>
      </trkpt>
      <trkpt lat="45.04647" lon="5.34814">
        <ele>315.82452392578</ele>
        <time>2011-08-10T16:33:20Z</time>
      </trkpt>
      <trkpt lat="45.04643" lon="5.34756">
        <ele>313.91961669922</ele>
        <time>2011-08-10T16:33:25Z</time>
      </trkpt>
      <trkpt lat="45.04626" lon="5.34688">
        <ele>315.12756347656</ele>
        <time>2011-08-10T16:33:30Z</time>
      </trkpt>
      <trkpt lat="45.04617" lon="5.34616">
        <ele>313.51651000977</ele>
        <time>2011-08-10T16:33:35Z</time>
      </trkpt>
      <trkpt lat="45.04617" lon="5.346">
        <ele>312.60971069336</ele>
        <time>2011-08-10T16:33:36Z</time>
      </trkpt>
      <trkpt lat="45.04621" lon="5.34462">
        <ele>304.11294555664</ele>
        <time>2011-08-10T16:33:45Z</time>
      </trkpt>
      <trkpt lat="45.04625" lon="5.34431">
        <ele>301.93566894531</ele>
        <time>2011-08-10T16:33:47Z</time>
      </trkpt>
      <trkpt lat="45.0465" lon="5.34359">
        <ele>297.19165039062</ele>
        <time>2011-08-10T16:33:52Z</time>
      </trkpt>
      <trkpt lat="45.04665" lon="5.34321">
        <ele>296.07241821289</ele>
        <time>2011-08-10T16:33:55Z</time>
      </trkpt>
      <trkpt lat="45.04666" lon="5.3431">
        <ele>296.02191162109</ele>
        <time>2011-08-10T16:33:58Z</time>
      </trkpt>
      <trkpt lat="45.04665" lon="5.3431">
        <ele>296.05380249023</ele>
        <time>2011-08-10T16:33:59Z</time>
      </trkpt>
      <trkpt lat="45.0466" lon="5.34313">
        <ele>296.32373046875</ele>
        <time>2011-08-10T16:34:04Z</time>
      </trkpt>
      <trkpt lat="45.0466" lon="5.3432">
        <ele>296.34222412109</ele>
        <time>2011-08-10T16:34:09Z</time>
      </trkpt>
      <trkpt lat="45.04662" lon="5.34322">
        <ele>296.27008056641</ele>
        <time>2011-08-10T16:34:17Z</time>
      </trkpt>
      <trkpt lat="45.04663" lon="5.34321">
        <ele>296.22451782227</ele>
        <time>2011-08-10T16:38:56Z</time>
      </trkpt>
      <trkpt lat="45.04666" lon="5.3432">
        <ele>296.05029296875</ele>
        <time>2011-08-10T16:39:00Z</time>
      </trkpt>
      <trkpt lat="45.04676" lon="5.343">
        <ele>292.48733520508</ele>
        <time>2011-08-10T16:39:06Z</time>
      </trkpt>
      <trkpt lat="45.0468" lon="5.34289">
        <ele>290.80874633789</ele>
        <time>2011-08-10T16:39:08Z</time>
      </trkpt>
      <trkpt lat="45.04696" lon="5.3425">
        <ele>285.8844909668</ele>
        <time>2011-08-10T16:39:14Z</time>
      </trkpt>
      <trkpt lat="45.04715" lon="5.34201">
        <ele>283.54992675781</ele>
        <time>2011-08-10T16:39:20Z</time>
      </trkpt>
      <trkpt lat="45.04735" lon="5.34149">
        <ele>282.53338623047</ele>
        <time>2011-08-10T16:39:26Z</time>
      </trkpt>
      <trkpt lat="45.04752" lon="5.34105">
        <ele>281.94287109375</ele>
        <time>2011-08-10T16:39:31Z</time>
      </trkpt>
      <trkpt lat="45.0475" lon="5.34085">
        <ele>281.99780273438</ele>
        <time>2011-08-10T16:39:35Z</time>
      </trkpt>
      <trkpt lat="45.04745" lon="5.34073">
        <ele>282.19006347656</ele>
        <time>2011-08-10T16:39:38Z</time>
      </trkpt>
      <trkpt lat="45.04707" lon="5.34044">
        <ele>283.64819335938</ele>
        <time>2011-08-10T16:39:46Z</time>
      </trkpt>
      <trkpt lat="45.04671" lon="5.3402">
        <ele>290.47994995117</ele>
        <time>2011-08-10T16:39:52Z</time>
      </trkpt>
      <trkpt lat="45.04633" lon="5.33995">
        <ele>292.41497802734</ele>
        <time>2011-08-10T16:39:58Z</time>
      </trkpt>
      <trkpt lat="45.04582" lon="5.33965">
        <ele>294.03024291992</ele>
        <time>2011-08-10T16:40:05Z</time>
      </trkpt>
      <trkpt lat="45.04522" lon="5.33929">
        <ele>294.44451904297</ele>
        <time>2011-08-10T16:40:13Z</time>
      </trkpt>
      <trkpt lat="45.04464" lon="5.33896">
        <ele>294.08413696289</ele>
        <time>2011-08-10T16:40:21Z</time>
      </trkpt>
      <trkpt lat="45.04411" lon="5.33876">
        <ele>293.90203857422</ele>
        <time>2011-08-10T16:40:28Z</time>
      </trkpt>
      <trkpt lat="45.04351" lon="5.33853">
        <ele>292.69277954102</ele>
        <time>2011-08-10T16:40:36Z</time>
      </trkpt>
      <trkpt lat="45.04291" lon="5.33826">
        <ele>291.865234375</ele>
        <time>2011-08-10T16:40:44Z</time>
      </trkpt>
      <trkpt lat="45.04223" lon="5.33783">
        <ele>289.22528076172</ele>
        <time>2011-08-10T16:40:53Z</time>
      </trkpt>
      <trkpt lat="45.04161" lon="5.33749">
        <ele>283.08538818359</ele>
        <time>2011-08-10T16:41:01Z</time>
      </trkpt>
      <trkpt lat="45.04104" lon="5.3373">
        <ele>282.53125</ele>
        <time>2011-08-10T16:41:08Z</time>
      </trkpt>
      <trkpt lat="45.04016" lon="5.33706">
        <ele>282.70657348633</ele>
        <time>2011-08-10T16:41:19Z</time>
      </trkpt>
      <trkpt lat="45.03949" lon="5.33682">
        <ele>287.38763427734</ele>
        <time>2011-08-10T16:41:28Z</time>
      </trkpt>
      <trkpt lat="45.0391" lon="5.3365">
        <ele>286.63827514648</ele>
        <time>2011-08-10T16:41:34Z</time>
      </trkpt>
      <trkpt lat="45.03872" lon="5.33602">
        <ele>286.28979492188</ele>
        <time>2011-08-10T16:41:41Z</time>
      </trkpt>
      <trkpt lat="45.03867" lon="5.33594">
        <ele>286.17651367188</ele>
        <time>2011-08-10T16:41:42Z</time>
      </trkpt>
      <trkpt lat="45.03844" lon="5.33528">
        <ele>284.63671875</ele>
        <time>2011-08-10T16:41:49Z</time>
      </trkpt>
      <trkpt lat="45.03823" lon="5.33475">
        <ele>285.35504150391</ele>
        <time>2011-08-10T16:41:55Z</time>
      </trkpt>
      <trkpt lat="45.038" lon="5.33438">
        <ele>286.20648193359</ele>
        <time>2011-08-10T16:42:00Z</time>
      </trkpt>
      <trkpt lat="45.03751" lon="5.33378">
        <ele>287.57333374023</ele>
        <time>2011-08-10T16:42:09Z</time>
      </trkpt>
      <trkpt lat="45.03694" lon="5.33318">
        <ele>289.01049804688</ele>
        <time>2011-08-10T16:42:19Z</time>
      </trkpt>
      <trkpt lat="45.03634" lon="5.3326">
        <ele>291</ele>
        <time>2011-08-10T16:42:30Z</time>
      </trkpt>
      <trkpt lat="45.03592" lon="5.33234">
        <ele>291.67718505859</ele>
        <time>2011-08-10T16:42:37Z</time>
      </trkpt>
      <trkpt lat="45.03553" lon="5.33222">
        <ele>293.10540771484</ele>
        <time>2011-08-10T16:42:43Z</time>
      </trkpt>
      <trkpt lat="45.03502" lon="5.33211">
        <ele>294.94561767578</ele>
        <time>2011-08-10T16:42:51Z</time>
      </trkpt>
      <trkpt lat="45.03442" lon="5.33201">
        <ele>296.07421875</ele>
        <time>2011-08-10T16:43:00Z</time>
      </trkpt>
      <trkpt lat="45.03396" lon="5.33205">
        <ele>297.74963378906</ele>
        <time>2011-08-10T16:43:07Z</time>
      </trkpt>
      <trkpt lat="45.03347" lon="5.33213">
        <ele>299.17849731445</ele>
        <time>2011-08-10T16:43:14Z</time>
      </trkpt>
      <trkpt lat="45.03292" lon="5.3321">
        <ele>300.48498535156</ele>
        <time>2011-08-10T16:43:22Z</time>
      </trkpt>
      <trkpt lat="45.0323" lon="5.33209">
        <ele>303.72344970703</ele>
        <time>2011-08-10T16:43:31Z</time>
      </trkpt>
      <trkpt lat="45.03183" lon="5.33194">
        <ele>305.85556030273</ele>
        <time>2011-08-10T16:43:38Z</time>
      </trkpt>
      <trkpt lat="45.0313" lon="5.33169">
        <ele>307.40832519531</ele>
        <time>2011-08-10T16:43:46Z</time>
      </trkpt>
      <trkpt lat="45.03099" lon="5.33148">
        <ele>308.43383789062</ele>
        <time>2011-08-10T16:43:51Z</time>
      </trkpt>
      <trkpt lat="45.03067" lon="5.33109">
        <ele>309.58740234375</ele>
        <time>2011-08-10T16:43:57Z</time>
      </trkpt>
      <trkpt lat="45.03043" lon="5.3305">
        <ele>310.9326171875</ele>
        <time>2011-08-10T16:44:04Z</time>
      </trkpt>
      <trkpt lat="45.03016" lon="5.32981">
        <ele>312.42761230469</ele>
        <time>2011-08-10T16:44:12Z</time>
      </trkpt>
      <trkpt lat="45.02988" lon="5.32922">
        <ele>312.44384765625</ele>
        <time>2011-08-10T16:44:19Z</time>
      </trkpt>
      <trkpt lat="45.02961" lon="5.32864">
        <ele>312.53656005859</ele>
        <time>2011-08-10T16:44:26Z</time>
      </trkpt>
      <trkpt lat="45.02932" lon="5.32808">
        <ele>313.46258544922</ele>
        <time>2011-08-10T16:44:33Z</time>
      </trkpt>
      <trkpt lat="45.02912" lon="5.32767">
        <ele>313.10260009766</ele>
        <time>2011-08-10T16:44:38Z</time>
      </trkpt>
      <trkpt lat="45.02886" lon="5.32733">
        <ele>313.03726196289</ele>
        <time>2011-08-10T16:44:43Z</time>
      </trkpt>
      <trkpt lat="45.02853" lon="5.32696">
        <ele>312.32843017578</ele>
        <time>2011-08-10T16:44:49Z</time>
      </trkpt>
      <trkpt lat="45.02827" lon="5.32667">
        <ele>312.01947021484</ele>
        <time>2011-08-10T16:44:54Z</time>
      </trkpt>
      <trkpt lat="45.02818" lon="5.32656">
        <ele>311.61264038086</ele>
        <time>2011-08-10T16:44:58Z</time>
      </trkpt>
      <trkpt lat="45.0281" lon="5.32647">
        <ele>311.28475952148</ele>
        <time>2011-08-10T16:45:02Z</time>
      </trkpt>
      <trkpt lat="45.02807" lon="5.32643">
        <ele>311.15600585938</ele>
        <time>2011-08-10T16:45:03Z</time>
      </trkpt>
      <trkpt lat="45.02803" lon="5.32633">
        <ele>310.87924194336</ele>
        <time>2011-08-10T16:45:05Z</time>
      </trkpt>
      <trkpt lat="45.02801" lon="5.32605">
        <ele>310.13629150391</ele>
        <time>2011-08-10T16:45:09Z</time>
      </trkpt>
      <trkpt lat="45.02803" lon="5.32565">
        <ele>309.35107421875</ele>
        <time>2011-08-10T16:45:14Z</time>
      </trkpt>
      <trkpt lat="45.02789" lon="5.32511">
        <ele>307.99453735352</ele>
        <time>2011-08-10T16:45:20Z</time>
      </trkpt>
      <trkpt lat="45.02778" lon="5.32475">
        <ele>306.1650390625</ele>
        <time>2011-08-10T16:45:24Z</time>
      </trkpt>
      <trkpt lat="45.02773" lon="5.32435">
        <ele>305.66644287109</ele>
        <time>2011-08-10T16:45:28Z</time>
      </trkpt>
      <trkpt lat="45.0278" lon="5.32352">
        <ele>302.68295288086</ele>
        <time>2011-08-10T16:45:36Z</time>
      </trkpt>
      <trkpt lat="45.02789" lon="5.32266">
        <ele>299.15179443359</ele>
        <time>2011-08-10T16:45:44Z</time>
      </trkpt>
      <trkpt lat="45.02792" lon="5.32245">
        <ele>297.33474731445</ele>
        <time>2011-08-10T16:45:46Z</time>
      </trkpt>
      <trkpt lat="45.02803" lon="5.32215">
        <ele>294.19491577148</ele>
        <time>2011-08-10T16:45:49Z</time>
      </trkpt>
      <trkpt lat="45.02807" lon="5.32171">
        <ele>289.84561157227</ele>
        <time>2011-08-10T16:45:53Z</time>
      </trkpt>
      <trkpt lat="45.02812" lon="5.32137">
        <ele>288.12268066406</ele>
        <time>2011-08-10T16:45:56Z</time>
      </trkpt>
      <trkpt lat="45.0283" lon="5.32095">
        <ele>286.60440063477</ele>
        <time>2011-08-10T16:46:00Z</time>
      </trkpt>
      <trkpt lat="45.02851" lon="5.32066">
        <ele>286.82809448242</ele>
        <time>2011-08-10T16:46:03Z</time>
      </trkpt>
      <trkpt lat="45.02926" lon="5.3198">
        <ele>289.15115356445</ele>
        <time>2011-08-10T16:46:12Z</time>
      </trkpt>
      <trkpt lat="45.02951" lon="5.3195">
        <ele>288.28125</ele>
        <time>2011-08-10T16:46:15Z</time>
      </trkpt>
      <trkpt lat="45.02992" lon="5.31899">
        <ele>286.35684204102</ele>
        <time>2011-08-10T16:46:20Z</time>
      </trkpt>
      <trkpt lat="45.03052" lon="5.31821">
        <ele>282.88671875</ele>
        <time>2011-08-10T16:46:27Z</time>
      </trkpt>
      <trkpt lat="45.03111" lon="5.31738">
        <ele>276.65979003906</ele>
        <time>2011-08-10T16:46:34Z</time>
      </trkpt>
      <trkpt lat="45.03153" lon="5.31712">
        <ele>277.12448120117</ele>
        <time>2011-08-10T16:46:38Z</time>
      </trkpt>
      <trkpt lat="45.03199" lon="5.31696">
        <ele>278.38766479492</ele>
        <time>2011-08-10T16:46:42Z</time>
      </trkpt>
      <trkpt lat="45.03223" lon="5.31665">
        <ele>280.13171386719</ele>
        <time>2011-08-10T16:46:45Z</time>
      </trkpt>
      <trkpt lat="45.03218" lon="5.31637">
        <ele>279.59368896484</ele>
        <time>2011-08-10T16:46:47Z</time>
      </trkpt>
      <trkpt lat="45.03202" lon="5.31617">
        <ele>277.78094482422</ele>
        <time>2011-08-10T16:46:49Z</time>
      </trkpt>
      <trkpt lat="45.03172" lon="5.3157">
        <ele>271.27255249023</ele>
        <time>2011-08-10T16:46:53Z</time>
      </trkpt>
      <trkpt lat="45.03178" lon="5.31537">
        <ele>269.27947998047</ele>
        <time>2011-08-10T16:46:55Z</time>
      </trkpt>
      <trkpt lat="45.03196" lon="5.31494">
        <ele>267.58276367188</ele>
        <time>2011-08-10T16:46:58Z</time>
      </trkpt>
      <trkpt lat="45.03201" lon="5.31478">
        <ele>266.54248046875</ele>
        <time>2011-08-10T16:46:59Z</time>
      </trkpt>
      <trkpt lat="45.03235" lon="5.31334">
        <ele>258.41998291016</ele>
        <time>2011-08-10T16:47:08Z</time>
      </trkpt>
      <trkpt lat="45.03257" lon="5.31239">
        <ele>253.41731262207</ele>
        <time>2011-08-10T16:47:14Z</time>
      </trkpt>
      <trkpt lat="45.03278" lon="5.31128">
        <ele>247.20069885254</ele>
        <time>2011-08-10T16:47:21Z</time>
      </trkpt>
      <trkpt lat="45.03273" lon="5.31066">
        <ele>243.53147888184</ele>
        <time>2011-08-10T16:47:25Z</time>
      </trkpt>
      <trkpt lat="45.03272" lon="5.3102">
        <ele>241.08903503418</ele>
        <time>2011-08-10T16:47:28Z</time>
      </trkpt>
      <trkpt lat="45.03282" lon="5.30992">
        <ele>238.62953186035</ele>
        <time>2011-08-10T16:47:30Z</time>
      </trkpt>
      <trkpt lat="45.03316" lon="5.3091">
        <ele>228.16688537598</ele>
        <time>2011-08-10T16:47:36Z</time>
      </trkpt>
      <trkpt lat="45.03329" lon="5.30885">
        <ele>224.81495666504</ele>
        <time>2011-08-10T16:47:38Z</time>
      </trkpt>
      <trkpt lat="45.03364" lon="5.30825">
        <ele>222.53048706055</ele>
        <time>2011-08-10T16:47:43Z</time>
      </trkpt>
      <trkpt lat="45.03404" lon="5.30775">
        <ele>224.07397460938</ele>
        <time>2011-08-10T16:47:48Z</time>
      </trkpt>
      <trkpt lat="45.03463" lon="5.30692">
        <ele>225.32032775879</ele>
        <time>2011-08-10T16:47:56Z</time>
      </trkpt>
      <trkpt lat="45.03519" lon="5.30609">
        <ele>223.92886352539</ele>
        <time>2011-08-10T16:48:04Z</time>
      </trkpt>
      <trkpt lat="45.0355" lon="5.30565">
        <ele>222.24984741211</ele>
        <time>2011-08-10T16:48:09Z</time>
      </trkpt>
      <trkpt lat="45.03577" lon="5.30527">
        <ele>221.65374755859</ele>
        <time>2011-08-10T16:48:14Z</time>
      </trkpt>
      <trkpt lat="45.03617" lon="5.30469">
        <ele>219.96005249023</ele>
        <time>2011-08-10T16:48:22Z</time>
      </trkpt>
      <trkpt lat="45.03657" lon="5.30407">
        <ele>215.25131225586</ele>
        <time>2011-08-10T16:48:30Z</time>
      </trkpt>
      <trkpt lat="45.03708" lon="5.3033">
        <ele>210.27169799805</ele>
        <time>2011-08-10T16:48:39Z</time>
      </trkpt>
      <trkpt lat="45.03754" lon="5.30258">
        <ele>205.09220886231</ele>
        <time>2011-08-10T16:48:47Z</time>
      </trkpt>
      <trkpt lat="45.03806" lon="5.30178">
        <ele>200.01069641113</ele>
        <time>2011-08-10T16:48:56Z</time>
      </trkpt>
      <trkpt lat="45.03812" lon="5.30169">
        <ele>200.04840087891</ele>
        <time>2011-08-10T16:48:57Z</time>
      </trkpt>
      <trkpt lat="45.03846" lon="5.30157">
        <ele>199.65521240234</ele>
        <time>2011-08-10T16:49:01Z</time>
      </trkpt>
      <trkpt lat="45.03869" lon="5.30176">
        <ele>201.61308288574</ele>
        <time>2011-08-10T16:49:04Z</time>
      </trkpt>
      <trkpt lat="45.03912" lon="5.30213">
        <ele>209.92269897461</ele>
        <time>2011-08-10T16:49:09Z</time>
      </trkpt>
      <trkpt lat="45.03922" lon="5.30217">
        <ele>210.40101623535</ele>
        <time>2011-08-10T16:49:10Z</time>
      </trkpt>
      <trkpt lat="45.0399" lon="5.3023">
        <ele>204.25006103516</ele>
        <time>2011-08-10T16:49:16Z</time>
      </trkpt>
      <trkpt lat="45.04013" lon="5.30236">
        <ele>201.57917785644</ele>
        <time>2011-08-10T16:49:18Z</time>
      </trkpt>
      <trkpt lat="45.04053" lon="5.30272">
        <ele>199.11825561523</ele>
        <time>2011-08-10T16:49:22Z</time>
      </trkpt>
      <trkpt lat="45.04092" lon="5.30311">
        <ele>198.04075622559</ele>
        <time>2011-08-10T16:49:26Z</time>
      </trkpt>
      <trkpt lat="45.04137" lon="5.30335">
        <ele>198.07121276856</ele>
        <time>2011-08-10T16:49:30Z</time>
      </trkpt>
      <trkpt lat="45.04148" lon="5.3034">
        <ele>197.91877746582</ele>
        <time>2011-08-10T16:49:31Z</time>
      </trkpt>
      <trkpt lat="45.04169" lon="5.30344">
        <ele>197.32234191894</ele>
        <time>2011-08-10T16:49:33Z</time>
      </trkpt>
      <trkpt lat="45.04196" lon="5.30329">
        <ele>195.49990844727</ele>
        <time>2011-08-10T16:49:35Z</time>
      </trkpt>
      <trkpt lat="45.04258" lon="5.30283">
        <ele>190.52001953125</ele>
        <time>2011-08-10T16:49:41Z</time>
      </trkpt>
      <trkpt lat="45.04275" lon="5.30262">
        <ele>187.84910583496</ele>
        <time>2011-08-10T16:49:43Z</time>
      </trkpt>
      <trkpt lat="45.04282" lon="5.30233">
        <ele>183.88684082031</ele>
        <time>2011-08-10T16:49:45Z</time>
      </trkpt>
      <trkpt lat="45.04277" lon="5.30184">
        <ele>185.18307495117</ele>
        <time>2011-08-10T16:49:48Z</time>
      </trkpt>
      <trkpt lat="45.04269" lon="5.30155">
        <ele>188.3440246582</ele>
        <time>2011-08-10T16:49:50Z</time>
      </trkpt>
      <trkpt lat="45.04244" lon="5.30125">
        <ele>191.7421875</ele>
        <time>2011-08-10T16:49:53Z</time>
      </trkpt>
      <trkpt lat="45.04223" lon="5.30117">
        <ele>193.35922241211</ele>
        <time>2011-08-10T16:49:55Z</time>
      </trkpt>
      <trkpt lat="45.04196" lon="5.30107">
        <ele>195.08178710938</ele>
        <time>2011-08-10T16:49:58Z</time>
      </trkpt>
      <trkpt lat="45.04184" lon="5.30079">
        <ele>196.2960357666</ele>
        <time>2011-08-10T16:50:01Z</time>
      </trkpt>
      <trkpt lat="45.04189" lon="5.30051">
        <ele>198.28131103516</ele>
        <time>2011-08-10T16:50:04Z</time>
      </trkpt>
      <trkpt lat="45.04194" lon="5.30035">
        <ele>199.4363861084</ele>
        <time>2011-08-10T16:50:06Z</time>
      </trkpt>
      <trkpt lat="45.04213" lon="5.30006">
        <ele>202.33876037598</ele>
        <time>2011-08-10T16:50:10Z</time>
      </trkpt>
      <trkpt lat="45.04244" lon="5.29988">
        <ele>203.55827331543</ele>
        <time>2011-08-10T16:50:15Z</time>
      </trkpt>
      <trkpt lat="45.04251" lon="5.29987">
        <ele>203.41415405273</ele>
        <time>2011-08-10T16:50:16Z</time>
      </trkpt>
      <trkpt lat="45.04265" lon="5.29986">
        <ele>203.56349182129</ele>
        <time>2011-08-10T16:50:18Z</time>
      </trkpt>
      <trkpt lat="45.043" lon="5.29968">
        <ele>205.73864746094</ele>
        <time>2011-08-10T16:50:23Z</time>
      </trkpt>
      <trkpt lat="45.04345" lon="5.29923">
        <ele>212.42321777344</ele>
        <time>2011-08-10T16:50:31Z</time>
      </trkpt>
      <trkpt lat="45.04379" lon="5.29886">
        <ele>214.55271911621</ele>
        <time>2011-08-10T16:50:38Z</time>
      </trkpt>
      <trkpt lat="45.04407" lon="5.29859">
        <ele>218.65568542481</ele>
        <time>2011-08-10T16:50:45Z</time>
      </trkpt>
      <trkpt lat="45.04426" lon="5.29832">
        <ele>221.56297302246</ele>
        <time>2011-08-10T16:50:52Z</time>
      </trkpt>
      <trkpt lat="45.04431" lon="5.2981">
        <ele>224.80693054199</ele>
        <time>2011-08-10T16:50:57Z</time>
      </trkpt>
      <trkpt lat="45.04439" lon="5.29784">
        <ele>228.76470947266</ele>
        <time>2011-08-10T16:51:04Z</time>
      </trkpt>
      <trkpt lat="45.04451" lon="5.29759">
        <ele>233.9122467041</ele>
        <time>2011-08-10T16:51:11Z</time>
      </trkpt>
      <trkpt lat="45.0448" lon="5.29754">
        <ele>236.27139282227</ele>
        <time>2011-08-10T16:51:18Z</time>
      </trkpt>
      <trkpt lat="45.04518" lon="5.29745">
        <ele>235.99780273438</ele>
        <time>2011-08-10T16:51:26Z</time>
      </trkpt>
      <trkpt lat="45.04553" lon="5.29726">
        <ele>236.72421264648</ele>
        <time>2011-08-10T16:51:34Z</time>
      </trkpt>
      <trkpt lat="45.04562" lon="5.2972">
        <ele>237.18840026856</ele>
        <time>2011-08-10T16:51:36Z</time>
      </trkpt>
      <trkpt lat="45.04596" lon="5.29695">
        <ele>239.52169799805</ele>
        <time>2011-08-10T16:51:43Z</time>
      </trkpt>
      <trkpt lat="45.04601" lon="5.29691">
        <ele>239.86611938477</ele>
        <time>2011-08-10T16:51:44Z</time>
      </trkpt>
      <trkpt lat="45.04646" lon="5.29657">
        <ele>240.82368469238</ele>
        <time>2011-08-10T16:51:53Z</time>
      </trkpt>
      <trkpt lat="45.04689" lon="5.29626">
        <ele>241.53605651856</ele>
        <time>2011-08-10T16:52:01Z</time>
      </trkpt>
      <trkpt lat="45.0473" lon="5.29595">
        <ele>242.87127685547</ele>
        <time>2011-08-10T16:52:08Z</time>
      </trkpt>
      <trkpt lat="45.04783" lon="5.29556">
        <ele>241.54046630859</ele>
        <time>2011-08-10T16:52:16Z</time>
      </trkpt>
      <trkpt lat="45.04805" lon="5.29542">
        <ele>240.50018310547</ele>
        <time>2011-08-10T16:52:19Z</time>
      </trkpt>
      <trkpt lat="45.04829" lon="5.29533">
        <ele>235.80760192871</ele>
        <time>2011-08-10T16:52:22Z</time>
      </trkpt>
      <trkpt lat="45.04857" lon="5.29516">
        <ele>232.46369934082</ele>
        <time>2011-08-10T16:52:26Z</time>
      </trkpt>
      <trkpt lat="45.04884" lon="5.29497">
        <ele>232.30458068848</ele>
        <time>2011-08-10T16:52:30Z</time>
      </trkpt>
      <trkpt lat="45.0491" lon="5.29465">
        <ele>231.27117919922</ele>
        <time>2011-08-10T16:52:35Z</time>
      </trkpt>
      <trkpt lat="45.04916" lon="5.2946">
        <ele>230.99308776856</ele>
        <time>2011-08-10T16:52:36Z</time>
      </trkpt>
      <trkpt lat="45.04961" lon="5.29424">
        <ele>228.98204040527</ele>
        <time>2011-08-10T16:52:44Z</time>
      </trkpt>
      <trkpt lat="45.05011" lon="5.29388">
        <ele>228.27308654785</ele>
        <time>2011-08-10T16:52:52Z</time>
      </trkpt>
      <trkpt lat="45.05058" lon="5.29356">
        <ele>228.09924316406</ele>
        <time>2011-08-10T16:52:59Z</time>
      </trkpt>
      <trkpt lat="45.05122" lon="5.29309">
        <ele>226.48126220703</ele>
        <time>2011-08-10T16:53:08Z</time>
      </trkpt>
      <trkpt lat="45.05188" lon="5.29261">
        <ele>224.39848327637</ele>
        <time>2011-08-10T16:53:17Z</time>
      </trkpt>
      <trkpt lat="45.05222" lon="5.29232">
        <ele>222.66404724121</ele>
        <time>2011-08-10T16:53:22Z</time>
      </trkpt>
      <trkpt lat="45.05242" lon="5.29199">
        <ele>221.56469726562</ele>
        <time>2011-08-10T16:53:26Z</time>
      </trkpt>
      <trkpt lat="45.05276" lon="5.29119">
        <ele>219.30625915527</ele>
        <time>2011-08-10T16:53:34Z</time>
      </trkpt>
      <trkpt lat="45.05326" lon="5.29">
        <ele>218.00173950195</ele>
        <time>2011-08-10T16:53:45Z</time>
      </trkpt>
      <trkpt lat="45.05369" lon="5.28901">
        <ele>217.72302246094</ele>
        <time>2011-08-10T16:53:54Z</time>
      </trkpt>
      <trkpt lat="45.05405" lon="5.28819">
        <ele>217.43212890625</ele>
        <time>2011-08-10T16:54:02Z</time>
      </trkpt>
      <trkpt lat="45.05428" lon="5.28762">
        <ele>216.95970153809</ele>
        <time>2011-08-10T16:54:08Z</time>
      </trkpt>
      <trkpt lat="45.05462" lon="5.28693">
        <ele>215.35845947266</ele>
        <time>2011-08-10T16:54:16Z</time>
      </trkpt>
      <trkpt lat="45.05491" lon="5.28656">
        <ele>214.31475830078</ele>
        <time>2011-08-10T16:54:21Z</time>
      </trkpt>
      <trkpt lat="45.05511" lon="5.28642">
        <ele>213.173828125</ele>
        <time>2011-08-10T16:54:24Z</time>
      </trkpt>
      <trkpt lat="45.05521" lon="5.28617">
        <ele>212.48718261719</ele>
        <time>2011-08-10T16:54:27Z</time>
      </trkpt>
      <trkpt lat="45.05515" lon="5.28584">
        <ele>212.92663574219</ele>
        <time>2011-08-10T16:54:30Z</time>
      </trkpt>
      <trkpt lat="45.05515" lon="5.28573">
        <ele>212.89916992188</ele>
        <time>2011-08-10T16:54:31Z</time>
      </trkpt>
      <trkpt lat="45.05521" lon="5.28471">
        <ele>212.48718261719</ele>
        <time>2011-08-10T16:54:40Z</time>
      </trkpt>
      <trkpt lat="45.05524" lon="5.28371">
        <ele>212.294921875</ele>
        <time>2011-08-10T16:54:49Z</time>
      </trkpt>
      <trkpt lat="45.05523" lon="5.28261">
        <ele>212.18865966797</ele>
        <time>2011-08-10T16:54:59Z</time>
      </trkpt>
      <trkpt lat="45.05522" lon="5.28171">
        <ele>212.20239257812</ele>
        <time>2011-08-10T16:55:07Z</time>
      </trkpt>
      <trkpt lat="45.05523" lon="5.28082">
        <ele>210.28430175781</ele>
        <time>2011-08-10T16:55:15Z</time>
      </trkpt>
      <trkpt lat="45.05524" lon="5.28">
        <ele>207.11903381348</ele>
        <time>2011-08-10T16:55:22Z</time>
      </trkpt>
      <trkpt lat="45.05525" lon="5.27907">
        <ele>203.76133728027</ele>
        <time>2011-08-10T16:55:30Z</time>
      </trkpt>
      <trkpt lat="45.0552" lon="5.27824">
        <ele>200.65615844727</ele>
        <time>2011-08-10T16:55:37Z</time>
      </trkpt>
      <trkpt lat="45.05502" lon="5.27771">
        <ele>197.04010009766</ele>
        <time>2011-08-10T16:55:42Z</time>
      </trkpt>
      <trkpt lat="45.05482" lon="5.27749">
        <ele>195.57260131836</ele>
        <time>2011-08-10T16:55:45Z</time>
      </trkpt>
      <trkpt lat="45.05424" lon="5.27708">
        <ele>197.61610412598</ele>
        <time>2011-08-10T16:55:53Z</time>
      </trkpt>
      <trkpt lat="45.05381" lon="5.27678">
        <ele>197.40502929688</ele>
        <time>2011-08-10T16:55:59Z</time>
      </trkpt>
      <trkpt lat="45.05349" lon="5.27675">
        <ele>197.31405639648</ele>
        <time>2011-08-10T16:56:03Z</time>
      </trkpt>
      <trkpt lat="45.05341" lon="5.27679">
        <ele>197.43249511719</ele>
        <time>2011-08-10T16:56:04Z</time>
      </trkpt>
      <trkpt lat="45.05291" lon="5.27709">
        <ele>198</ele>
        <time>2011-08-10T16:56:10Z</time>
      </trkpt>
      <trkpt lat="45.05273" lon="5.27719">
        <ele>198</ele>
        <time>2011-08-10T16:56:12Z</time>
      </trkpt>
      <trkpt lat="45.05236" lon="5.2772">
        <ele>198</ele>
        <time>2011-08-10T16:56:16Z</time>
      </trkpt>
      <trkpt lat="45.05214" lon="5.27699">
        <ele>198</ele>
        <time>2011-08-10T16:56:19Z</time>
      </trkpt>
      <trkpt lat="45.05176" lon="5.27646">
        <ele>202.64825439453</ele>
        <time>2011-08-10T16:56:26Z</time>
      </trkpt>
      <trkpt lat="45.05161" lon="5.27629">
        <ele>208.31500244141</ele>
        <time>2011-08-10T16:56:29Z</time>
      </trkpt>
      <trkpt lat="45.0512" lon="5.2759">
        <ele>220.06909179688</ele>
        <time>2011-08-10T16:56:37Z</time>
      </trkpt>
      <trkpt lat="45.05087" lon="5.27548">
        <ele>222</ele>
        <time>2011-08-10T16:56:44Z</time>
      </trkpt>
      <trkpt lat="45.05076" lon="5.27524">
        <ele>222.64852905273</ele>
        <time>2011-08-10T16:56:47Z</time>
      </trkpt>
      <trkpt lat="45.05067" lon="5.27483">
        <ele>224.74966430664</ele>
        <time>2011-08-10T16:56:51Z</time>
      </trkpt>
      <trkpt lat="45.05067" lon="5.27389">
        <ele>227.58511352539</ele>
        <time>2011-08-10T16:56:59Z</time>
      </trkpt>
      <trkpt lat="45.05069" lon="5.27328">
        <ele>229.12001037598</ele>
        <time>2011-08-10T16:57:04Z</time>
      </trkpt>
      <trkpt lat="45.05073" lon="5.27261">
        <ele>228.16650390625</ele>
        <time>2011-08-10T16:57:10Z</time>
      </trkpt>
      <trkpt lat="45.05081" lon="5.27205">
        <ele>225.6022644043</ele>
        <time>2011-08-10T16:57:16Z</time>
      </trkpt>
      <trkpt lat="45.05096" lon="5.27143">
        <ele>222.68667602539</ele>
        <time>2011-08-10T16:57:23Z</time>
      </trkpt>
      <trkpt lat="45.05109" lon="5.27077">
        <ele>219.83193969727</ele>
        <time>2011-08-10T16:57:31Z</time>
      </trkpt>
      <trkpt lat="45.05115" lon="5.27019">
        <ele>219</ele>
        <time>2011-08-10T16:57:38Z</time>
      </trkpt>
      <trkpt lat="45.05109" lon="5.26962">
        <ele>219.06140136719</ele>
        <time>2011-08-10T16:57:45Z</time>
      </trkpt>
      <trkpt lat="45.05095" lon="5.26915">
        <ele>219.62149047852</ele>
        <time>2011-08-10T16:57:51Z</time>
      </trkpt>
      <trkpt lat="45.05087" lon="5.26892">
        <ele>219.98696899414</ele>
        <time>2011-08-10T16:57:54Z</time>
      </trkpt>
      <trkpt lat="45.05083" lon="5.26851">
        <ele>220.01794433594</ele>
        <time>2011-08-10T16:57:59Z</time>
      </trkpt>
      <trkpt lat="45.05091" lon="5.26818">
        <ele>220</ele>
        <time>2011-08-10T16:58:03Z</time>
      </trkpt>
      <trkpt lat="45.051" lon="5.26803">
        <ele>220</ele>
        <time>2011-08-10T16:58:05Z</time>
      </trkpt>
      <trkpt lat="45.05156" lon="5.2674">
        <ele>220</ele>
        <time>2011-08-10T16:58:14Z</time>
      </trkpt>
      <trkpt lat="45.05228" lon="5.26659">
        <ele>220</ele>
        <time>2011-08-10T16:58:25Z</time>
      </trkpt>
      <trkpt lat="45.05285" lon="5.26609">
        <ele>220</ele>
        <time>2011-08-10T16:58:33Z</time>
      </trkpt>
      <trkpt lat="45.05331" lon="5.26567">
        <ele>220</ele>
        <time>2011-08-10T16:58:39Z</time>
      </trkpt>
      <trkpt lat="45.05354" lon="5.26524">
        <ele>220</ele>
        <time>2011-08-10T16:58:43Z</time>
      </trkpt>
      <trkpt lat="45.0536" lon="5.26498">
        <ele>220</ele>
        <time>2011-08-10T16:58:45Z</time>
      </trkpt>
      <trkpt lat="45.0536" lon="5.26425">
        <ele>220</ele>
        <time>2011-08-10T16:58:50Z</time>
      </trkpt>
      <trkpt lat="45.05344" lon="5.2632">
        <ele>214.11154174805</ele>
        <time>2011-08-10T16:58:57Z</time>
      </trkpt>
      <trkpt lat="45.05334" lon="5.26229">
        <ele>204.76290893555</ele>
        <time>2011-08-10T16:59:03Z</time>
      </trkpt>
      <trkpt lat="45.05333" lon="5.26214">
        <ele>203.0993347168</ele>
        <time>2011-08-10T16:59:04Z</time>
      </trkpt>
      <trkpt lat="45.05349" lon="5.26157">
        <ele>200</ele>
        <time>2011-08-10T16:59:08Z</time>
      </trkpt>
      <trkpt lat="45.05357" lon="5.26145">
        <ele>200</ele>
        <time>2011-08-10T16:59:09Z</time>
      </trkpt>
      <trkpt lat="45.05401" lon="5.26069">
        <ele>200</ele>
        <time>2011-08-10T16:59:15Z</time>
      </trkpt>
      <trkpt lat="45.05418" lon="5.26009">
        <ele>200</ele>
        <time>2011-08-10T16:59:19Z</time>
      </trkpt>
      <trkpt lat="45.05431" lon="5.2593">
        <ele>200</ele>
        <time>2011-08-10T16:59:24Z</time>
      </trkpt>
      <trkpt lat="45.05441" lon="5.25835">
        <ele>199.04931640625</ele>
        <time>2011-08-10T16:59:30Z</time>
      </trkpt>
      <trkpt lat="45.05461" lon="5.25776">
        <ele>199</ele>
        <time>2011-08-10T16:59:34Z</time>
      </trkpt>
      <trkpt lat="45.05478" lon="5.25753">
        <ele>199</ele>
        <time>2011-08-10T16:59:36Z</time>
      </trkpt>
      <trkpt lat="45.0556" lon="5.25658">
        <ele>196.53726196289</ele>
        <time>2011-08-10T16:59:45Z</time>
      </trkpt>
      <trkpt lat="45.05569" lon="5.25648">
        <ele>195.81970214844</ele>
        <time>2011-08-10T16:59:46Z</time>
      </trkpt>
      <trkpt lat="45.05591" lon="5.25632">
        <ele>194.91162109375</ele>
        <time>2011-08-10T16:59:48Z</time>
      </trkpt>
      <trkpt lat="45.05628" lon="5.25623">
        <ele>192.79675292969</ele>
        <time>2011-08-10T16:59:51Z</time>
      </trkpt>
      <trkpt lat="45.05641" lon="5.25622">
        <ele>191.93145751953</ele>
        <time>2011-08-10T16:59:52Z</time>
      </trkpt>
      <trkpt lat="45.05679" lon="5.25625">
        <ele>190.0888671875</ele>
        <time>2011-08-10T16:59:55Z</time>
      </trkpt>
      <trkpt lat="45.05714" lon="5.25656">
        <ele>187.87738037109</ele>
        <time>2011-08-10T16:59:58Z</time>
      </trkpt>
      <trkpt lat="45.05729" lon="5.25688">
        <ele>188.3010559082</ele>
        <time>2011-08-10T17:00:00Z</time>
      </trkpt>
      <trkpt lat="45.05737" lon="5.25744">
        <ele>189.73614501953</ele>
        <time>2011-08-10T17:00:03Z</time>
      </trkpt>
      <trkpt lat="45.0574" lon="5.25773">
        <ele>190.53610229492</ele>
        <time>2011-08-10T17:00:05Z</time>
      </trkpt>
      <trkpt lat="45.05759" lon="5.25774">
        <ele>188.22161865234</ele>
        <time>2011-08-10T17:00:08Z</time>
      </trkpt>
      <trkpt lat="45.05766" lon="5.25765">
        <ele>186.58911132812</ele>
        <time>2011-08-10T17:00:09Z</time>
      </trkpt>
      <trkpt lat="45.0577" lon="5.25742">
        <ele>185.2986907959</ele>
        <time>2011-08-10T17:00:11Z</time>
      </trkpt>
      <trkpt lat="45.05768" lon="5.25729">
        <ele>185.46025085449</ele>
        <time>2011-08-10T17:00:12Z</time>
      </trkpt>
      <trkpt lat="45.05764" lon="5.25688">
        <ele>185.22872924805</ele>
        <time>2011-08-10T17:00:15Z</time>
      </trkpt>
      <trkpt lat="45.05768" lon="5.25632">
        <ele>183.48252868652</ele>
        <time>2011-08-10T17:00:19Z</time>
      </trkpt>
      <trkpt lat="45.05785" lon="5.25577">
        <ele>182.45336914062</ele>
        <time>2011-08-10T17:00:23Z</time>
      </trkpt>
      <trkpt lat="45.05829" lon="5.25471">
        <ele>180.1611328125</ele>
        <time>2011-08-10T17:00:31Z</time>
      </trkpt>
      <trkpt lat="45.0584" lon="5.25448">
        <ele>179.07717895508</ele>
        <time>2011-08-10T17:00:33Z</time>
      </trkpt>
      <trkpt lat="45.05845" lon="5.25398">
        <ele>177.33740234375</ele>
        <time>2011-08-10T17:00:37Z</time>
      </trkpt>
      <trkpt lat="45.05841" lon="5.25331">
        <ele>178.1650390625</ele>
        <time>2011-08-10T17:00:43Z</time>
      </trkpt>
      <trkpt lat="45.05835" lon="5.25284">
        <ele>178.78302001953</ele>
        <time>2011-08-10T17:00:48Z</time>
      </trkpt>
      <trkpt lat="45.0583" lon="5.25248">
        <ele>180.13366699219</ele>
        <time>2011-08-10T17:00:52Z</time>
      </trkpt>
      <trkpt lat="45.05828" lon="5.2522">
        <ele>180.27157592773</ele>
        <time>2011-08-10T17:00:55Z</time>
      </trkpt>
      <trkpt lat="45.05833" lon="5.2515">
        <ele>180.99122619629</ele>
        <time>2011-08-10T17:01:02Z</time>
      </trkpt>
      <trkpt lat="45.05841" lon="5.25096">
        <ele>180.47082519531</ele>
        <time>2011-08-10T17:01:07Z</time>
      </trkpt>
      <trkpt lat="45.05865" lon="5.2506">
        <ele>177.77708435059</ele>
        <time>2011-08-10T17:01:11Z</time>
      </trkpt>
      <trkpt lat="45.05914" lon="5.25017">
        <ele>172.72010803223</ele>
        <time>2011-08-10T17:01:17Z</time>
      </trkpt>
      <trkpt lat="45.05961" lon="5.24977">
        <ele>168.40954589844</ele>
        <time>2011-08-10T17:01:23Z</time>
      </trkpt>
      <trkpt lat="45.05994" lon="5.24939">
        <ele>166.685546875</ele>
        <time>2011-08-10T17:01:28Z</time>
      </trkpt>
      <trkpt lat="45.06013" lon="5.24905">
        <ele>164.62561035156</ele>
        <time>2011-08-10T17:01:32Z</time>
      </trkpt>
      <trkpt lat="45.06032" lon="5.24846">
        <ele>162.84149169922</ele>
        <time>2011-08-10T17:01:38Z</time>
      </trkpt>
      <trkpt lat="45.06053" lon="5.24782">
        <ele>162.09991455078</ele>
        <time>2011-08-10T17:01:46Z</time>
      </trkpt>
      <trkpt lat="45.06055" lon="5.24775">
        <ele>161.92704772949</ele>
        <time>2011-08-10T17:01:47Z</time>
      </trkpt>
      <trkpt lat="45.0606" lon="5.24743">
        <ele>160.82525634766</ele>
        <time>2011-08-10T17:01:52Z</time>
      </trkpt>
      <trkpt lat="45.06061" lon="5.24734">
        <ele>160.79779052734</ele>
        <time>2011-08-10T17:01:55Z</time>
      </trkpt>
      <trkpt lat="45.06063" lon="5.24723">
        <ele>160.72912597656</ele>
        <time>2011-08-10T17:02:00Z</time>
      </trkpt>
      <trkpt lat="45.06059" lon="5.24705">
        <ele>160.88018798828</ele>
        <time>2011-08-10T17:02:06Z</time>
      </trkpt>
      <trkpt lat="45.06053" lon="5.24701">
        <ele>161.10556030273</ele>
        <time>2011-08-10T17:02:10Z</time>
      </trkpt>
      <trkpt lat="45.06038" lon="5.24699">
        <ele>161.75061035156</ele>
        <time>2011-08-10T17:02:16Z</time>
      </trkpt>
      <trkpt lat="45.06019" lon="5.24687">
        <ele>163.23364257812</ele>
        <time>2011-08-10T17:02:21Z</time>
      </trkpt>
      <trkpt lat="45.06015" lon="5.24684">
        <ele>163.837890625</ele>
        <time>2011-08-10T17:02:22Z</time>
      </trkpt>
      <trkpt lat="45.06005" lon="5.24656">
        <ele>165.25329589844</ele>
        <time>2011-08-10T17:02:27Z</time>
      </trkpt>
      <trkpt lat="45.05993" lon="5.24597">
        <ele>167.53588867188</ele>
        <time>2011-08-10T17:02:35Z</time>
      </trkpt>
      <trkpt lat="45.05983" lon="5.24551">
        <ele>170.19512939453</ele>
        <time>2011-08-10T17:02:41Z</time>
      </trkpt>
      <trkpt lat="45.05981" lon="5.2452">
        <ele>171.6183013916</ele>
        <time>2011-08-10T17:02:45Z</time>
      </trkpt>
      <trkpt lat="45.0598" lon="5.24505">
        <ele>173.71969604492</ele>
        <time>2011-08-10T17:02:47Z</time>
      </trkpt>
      <trkpt lat="45.05984" lon="5.2445">
        <ele>180.14268493652</ele>
        <time>2011-08-10T17:02:54Z</time>
      </trkpt>
      <trkpt lat="45.05985" lon="5.24411">
        <ele>188.5173034668</ele>
        <time>2011-08-10T17:02:59Z</time>
      </trkpt>
      <trkpt lat="45.05992" lon="5.24383">
        <ele>196.66334533691</ele>
        <time>2011-08-10T17:03:03Z</time>
      </trkpt>
      <trkpt lat="45.06013" lon="5.24342">
        <ele>206.38391113281</ele>
        <time>2011-08-10T17:03:09Z</time>
      </trkpt>
      <trkpt lat="45.06016" lon="5.24336">
        <ele>209.05838012695</ele>
        <time>2011-08-10T17:03:10Z</time>
      </trkpt>
      <trkpt lat="45.0604" lon="5.24304">
        <ele>228.93988037109</ele>
        <time>2011-08-10T17:03:16Z</time>
      </trkpt>
      <trkpt lat="45.06053" lon="5.24286">
        <ele>237.32420349121</ele>
        <time>2011-08-10T17:03:20Z</time>
      </trkpt>
      <trkpt lat="45.06078" lon="5.24274">
        <ele>238.73876953125</ele>
        <time>2011-08-10T17:03:24Z</time>
      </trkpt>
      <trkpt lat="45.06092" lon="5.24272">
        <ele>236.28875732422</ele>
        <time>2011-08-10T17:03:26Z</time>
      </trkpt>
      <trkpt lat="45.06152" lon="5.24269">
        <ele>217.47731018066</ele>
        <time>2011-08-10T17:03:35Z</time>
      </trkpt>
      <trkpt lat="45.06195" lon="5.24262">
        <ele>211.38792419434</ele>
        <time>2011-08-10T17:03:42Z</time>
      </trkpt>
      <trkpt lat="45.06254" lon="5.24251">
        <ele>209.59939575195</ele>
        <time>2011-08-10T17:03:51Z</time>
      </trkpt>
      <trkpt lat="45.063" lon="5.24247">
        <ele>202.12692260742</ele>
        <time>2011-08-10T17:03:58Z</time>
      </trkpt>
      <trkpt lat="45.06345" lon="5.24224">
        <ele>197.07513427734</ele>
        <time>2011-08-10T17:04:05Z</time>
      </trkpt>
      <trkpt lat="45.06412" lon="5.24181">
        <ele>198.47196960449</ele>
        <time>2011-08-10T17:04:15Z</time>
      </trkpt>
      <trkpt lat="45.06462" lon="5.24148">
        <ele>193.86685180664</ele>
        <time>2011-08-10T17:04:22Z</time>
      </trkpt>
      <trkpt lat="45.06485" lon="5.24147">
        <ele>187.95079040527</ele>
        <time>2011-08-10T17:04:25Z</time>
      </trkpt>
      <trkpt lat="45.06496" lon="5.24165">
        <ele>182.94412231445</ele>
        <time>2011-08-10T17:04:27Z</time>
      </trkpt>
      <trkpt lat="45.06505" lon="5.24187">
        <ele>179.60404968262</ele>
        <time>2011-08-10T17:04:29Z</time>
      </trkpt>
      <trkpt lat="45.06532" lon="5.24221">
        <ele>174.86828613281</ele>
        <time>2011-08-10T17:04:33Z</time>
      </trkpt>
      <trkpt lat="45.06567" lon="5.24249">
        <ele>169.35459899902</ele>
        <time>2011-08-10T17:04:37Z</time>
      </trkpt>
      <trkpt lat="45.06619" lon="5.24271">
        <ele>163.06768798828</ele>
        <time>2011-08-10T17:04:42Z</time>
      </trkpt>
      <trkpt lat="45.06629" lon="5.24274">
        <ele>161.44288635254</ele>
        <time>2011-08-10T17:04:43Z</time>
      </trkpt>
      <trkpt lat="45.06665" lon="5.24287">
        <ele>160</ele>
        <time>2011-08-10T17:04:47Z</time>
      </trkpt>
      <trkpt lat="45.06719" lon="5.24306">
        <ele>160</ele>
        <time>2011-08-10T17:04:54Z</time>
      </trkpt>
      <trkpt lat="45.06776" lon="5.24327">
        <ele>160</ele>
        <time>2011-08-10T17:05:02Z</time>
      </trkpt>
      <trkpt lat="45.06827" lon="5.24346">
        <ele>162.78689575195</ele>
        <time>2011-08-10T17:05:10Z</time>
      </trkpt>
      <trkpt lat="45.06862" lon="5.24358">
        <ele>169.02201843262</ele>
        <time>2011-08-10T17:05:16Z</time>
      </trkpt>
      <trkpt lat="45.06883" lon="5.24366">
        <ele>173.14875793457</ele>
        <time>2011-08-10T17:05:20Z</time>
      </trkpt>
      <trkpt lat="45.06919" lon="5.2438">
        <ele>178.04454040527</ele>
        <time>2011-08-10T17:05:27Z</time>
      </trkpt>
      <trkpt lat="45.06924" lon="5.24381">
        <ele>178.80767822266</ele>
        <time>2011-08-10T17:05:28Z</time>
      </trkpt>
      <trkpt lat="45.06955" lon="5.24396">
        <ele>182.81759643555</ele>
        <time>2011-08-10T17:05:35Z</time>
      </trkpt>
      <trkpt lat="45.06982" lon="5.24392">
        <ele>185.18383789062</ele>
        <time>2011-08-10T17:05:41Z</time>
      </trkpt>
      <trkpt lat="45.0699" lon="5.24385">
        <ele>185.82629394531</ele>
        <time>2011-08-10T17:05:43Z</time>
      </trkpt>
      <trkpt lat="45.07014" lon="5.24353">
        <ele>187.38046264648</ele>
        <time>2011-08-10T17:05:49Z</time>
      </trkpt>
      <trkpt lat="45.07033" lon="5.24326">
        <ele>188.52714538574</ele>
        <time>2011-08-10T17:05:54Z</time>
      </trkpt>
      <trkpt lat="45.07055" lon="5.24276">
        <ele>189.83850097656</ele>
        <time>2011-08-10T17:06:01Z</time>
      </trkpt>
      <trkpt lat="45.07058" lon="5.2427">
        <ele>189.87751770019</ele>
        <time>2011-08-10T17:06:02Z</time>
      </trkpt>
      <trkpt lat="45.07076" lon="5.24207">
        <ele>189.79100036621</ele>
        <time>2011-08-10T17:06:10Z</time>
      </trkpt>
      <trkpt lat="45.07091" lon="5.24141">
        <ele>188.63391113281</ele>
        <time>2011-08-10T17:06:18Z</time>
      </trkpt>
      <trkpt lat="45.07104" lon="5.24091">
        <ele>188.7442779541</ele>
        <time>2011-08-10T17:06:24Z</time>
      </trkpt>
      <trkpt lat="45.07111" lon="5.24075">
        <ele>188.7052154541</ele>
        <time>2011-08-10T17:06:26Z</time>
      </trkpt>
      <trkpt lat="45.0713" lon="5.24053">
        <ele>189.23736572266</ele>
        <time>2011-08-10T17:06:30Z</time>
      </trkpt>
      <trkpt lat="45.07147" lon="5.24053">
        <ele>190.22502136231</ele>
        <time>2011-08-10T17:06:33Z</time>
      </trkpt>
      <trkpt lat="45.07165" lon="5.24059">
        <ele>191.04556274414</ele>
        <time>2011-08-10T17:06:36Z</time>
      </trkpt>
      <trkpt lat="45.07196" lon="5.24074">
        <ele>193.73277282715</ele>
        <time>2011-08-10T17:06:42Z</time>
      </trkpt>
      <trkpt lat="45.07205" lon="5.24077">
        <ele>194.45268249512</ele>
        <time>2011-08-10T17:06:44Z</time>
      </trkpt>
      <trkpt lat="45.07228" lon="5.24078">
        <ele>195.86079406738</ele>
        <time>2011-08-10T17:06:49Z</time>
      </trkpt>
      <trkpt lat="45.07264" lon="5.24072">
        <ele>197.87680053711</ele>
        <time>2011-08-10T17:06:57Z</time>
      </trkpt>
      <trkpt lat="45.07292" lon="5.24069">
        <ele>199.49635314941</ele>
        <time>2011-08-10T17:07:03Z</time>
      </trkpt>
      <trkpt lat="45.07327" lon="5.24066">
        <ele>200.28239440918</ele>
        <time>2011-08-10T17:07:10Z</time>
      </trkpt>
      <trkpt lat="45.07358" lon="5.24062">
        <ele>200.91023254394</ele>
        <time>2011-08-10T17:07:16Z</time>
      </trkpt>
      <trkpt lat="45.07379" lon="5.2406">
        <ele>201</ele>
        <time>2011-08-10T17:07:20Z</time>
      </trkpt>
      <trkpt lat="45.07414" lon="5.24056">
        <ele>201.02381896973</ele>
        <time>2011-08-10T17:07:26Z</time>
      </trkpt>
      <trkpt lat="45.0745" lon="5.24052">
        <ele>201.89178466797</ele>
        <time>2011-08-10T17:07:32Z</time>
      </trkpt>
      <trkpt lat="45.07507" lon="5.24047">
        <ele>202.24993896484</ele>
        <time>2011-08-10T17:07:41Z</time>
      </trkpt>
      <trkpt lat="45.07564" lon="5.24041">
        <ele>204</ele>
        <time>2011-08-10T17:07:50Z</time>
      </trkpt>
      <trkpt lat="45.07627" lon="5.24035">
        <ele>205</ele>
        <time>2011-08-10T17:08:00Z</time>
      </trkpt>
      <trkpt lat="45.07677" lon="5.24029">
        <ele>205.36108398438</ele>
        <time>2011-08-10T17:08:08Z</time>
      </trkpt>
      <trkpt lat="45.07703" lon="5.2401">
        <ele>206.11578369141</ele>
        <time>2011-08-10T17:08:13Z</time>
      </trkpt>
      <trkpt lat="45.0771" lon="5.23997">
        <ele>206</ele>
        <time>2011-08-10T17:08:15Z</time>
      </trkpt>
      <trkpt lat="45.07732" lon="5.23932">
        <ele>206.36608886719</ele>
        <time>2011-08-10T17:08:23Z</time>
      </trkpt>
      <trkpt lat="45.07758" lon="5.23843">
        <ele>206.2724609375</ele>
        <time>2011-08-10T17:08:33Z</time>
      </trkpt>
      <trkpt lat="45.07782" lon="5.23761">
        <ele>207.13763427734</ele>
        <time>2011-08-10T17:08:42Z</time>
      </trkpt>
      <trkpt lat="45.07815" lon="5.23649">
        <ele>205.35632324219</ele>
        <time>2011-08-10T17:08:54Z</time>
      </trkpt>
      <trkpt lat="45.07844" lon="5.23547">
        <ele>203.26817321777</ele>
        <time>2011-08-10T17:09:05Z</time>
      </trkpt>
      <trkpt lat="45.07869" lon="5.23448">
        <ele>201.11735534668</ele>
        <time>2011-08-10T17:09:15Z</time>
      </trkpt>
      <trkpt lat="45.07875" lon="5.23428">
        <ele>200.69386291504</ele>
        <time>2011-08-10T17:09:17Z</time>
      </trkpt>
      <trkpt lat="45.07909" lon="5.23355">
        <ele>199.36380004883</ele>
        <time>2011-08-10T17:09:25Z</time>
      </trkpt>
      <trkpt lat="45.07935" lon="5.23304">
        <ele>197.55209350586</ele>
        <time>2011-08-10T17:09:31Z</time>
      </trkpt>
      <trkpt lat="45.07939" lon="5.23296">
        <ele>197.12980651856</ele>
        <time>2011-08-10T17:09:32Z</time>
      </trkpt>
      <trkpt lat="45.07962" lon="5.2324">
        <ele>195.56715393066</ele>
        <time>2011-08-10T17:09:39Z</time>
      </trkpt>
      <trkpt lat="45.07977" lon="5.23197">
        <ele>194.83773803711</ele>
        <time>2011-08-10T17:09:44Z</time>
      </trkpt>
      <trkpt lat="45.07988" lon="5.23161">
        <ele>194.50193786621</ele>
        <time>2011-08-10T17:09:48Z</time>
      </trkpt>
      <trkpt lat="45.08007" lon="5.23109">
        <ele>193.65791320801</ele>
        <time>2011-08-10T17:09:54Z</time>
      </trkpt>
      <trkpt lat="45.0803" lon="5.23041">
        <ele>191.41703796387</ele>
        <time>2011-08-10T17:10:01Z</time>
      </trkpt>
      <trkpt lat="45.08044" lon="5.22975">
        <ele>189.45207214356</ele>
        <time>2011-08-10T17:10:07Z</time>
      </trkpt>
      <trkpt lat="45.08057" lon="5.22906">
        <ele>187.03970336914</ele>
        <time>2011-08-10T17:10:13Z</time>
      </trkpt>
      <trkpt lat="45.08091" lon="5.2282">
        <ele>185.36842346191</ele>
        <time>2011-08-10T17:10:21Z</time>
      </trkpt>
      <trkpt lat="45.08128" lon="5.22737">
        <ele>185.34443664551</ele>
        <time>2011-08-10T17:10:29Z</time>
      </trkpt>
      <trkpt lat="45.08161" lon="5.22691">
        <ele>191.08131408691</ele>
        <time>2011-08-10T17:10:34Z</time>
      </trkpt>
      <trkpt lat="45.08208" lon="5.22624">
        <ele>192.96246337891</ele>
        <time>2011-08-10T17:10:41Z</time>
      </trkpt>
      <trkpt lat="45.08255" lon="5.22558">
        <ele>192.42509460449</ele>
        <time>2011-08-10T17:10:48Z</time>
      </trkpt>
      <trkpt lat="45.08261" lon="5.22549">
        <ele>192.68133544922</ele>
        <time>2011-08-10T17:10:49Z</time>
      </trkpt>
      <trkpt lat="45.08295" lon="5.22506">
        <ele>192.85180664062</ele>
        <time>2011-08-10T17:10:54Z</time>
      </trkpt>
      <trkpt lat="45.08314" lon="5.22467">
        <ele>193.11022949219</ele>
        <time>2011-08-10T17:10:58Z</time>
      </trkpt>
      <trkpt lat="45.08332" lon="5.22392">
        <ele>191.06918334961</ele>
        <time>2011-08-10T17:11:05Z</time>
      </trkpt>
      <trkpt lat="45.08343" lon="5.22305">
        <ele>189.31785583496</ele>
        <time>2011-08-10T17:11:13Z</time>
      </trkpt>
      <trkpt lat="45.08344" lon="5.22294">
        <ele>189.13096618652</ele>
        <time>2011-08-10T17:11:14Z</time>
      </trkpt>
      <trkpt lat="45.08368" lon="5.2221">
        <ele>188.81805419922</ele>
        <time>2011-08-10T17:11:22Z</time>
      </trkpt>
      <trkpt lat="45.08393" lon="5.22147">
        <ele>188.03921508789</ele>
        <time>2011-08-10T17:11:29Z</time>
      </trkpt>
      <trkpt lat="45.08429" lon="5.22086">
        <ele>187.53839111328</ele>
        <time>2011-08-10T17:11:37Z</time>
      </trkpt>
      <trkpt lat="45.0846" lon="5.2203">
        <ele>187.63031005859</ele>
        <time>2011-08-10T17:11:44Z</time>
      </trkpt>
      <trkpt lat="45.08491" lon="5.21957">
        <ele>186.81376647949</ele>
        <time>2011-08-10T17:11:52Z</time>
      </trkpt>
      <trkpt lat="45.08522" lon="5.21878">
        <ele>185.91055297852</ele>
        <time>2011-08-10T17:12:00Z</time>
      </trkpt>
      <trkpt lat="45.08545" lon="5.21835">
        <ele>185.63481140137</ele>
        <time>2011-08-10T17:12:05Z</time>
      </trkpt>
      <trkpt lat="45.08567" lon="5.21815">
        <ele>185.61457824707</ele>
        <time>2011-08-10T17:12:09Z</time>
      </trkpt>
      <trkpt lat="45.08591" lon="5.21816">
        <ele>186</ele>
        <time>2011-08-10T17:12:13Z</time>
      </trkpt>
      <trkpt lat="45.08597" lon="5.21818">
        <ele>186</ele>
        <time>2011-08-10T17:12:14Z</time>
      </trkpt>
      <trkpt lat="45.08641" lon="5.21838">
        <ele>186.01033020019</ele>
        <time>2011-08-10T17:12:22Z</time>
      </trkpt>
      <trkpt lat="45.08646" lon="5.21839">
        <ele>186.05142211914</ele>
        <time>2011-08-10T17:12:23Z</time>
      </trkpt>
      <trkpt lat="45.08674" lon="5.21833">
        <ele>186.25216674805</ele>
        <time>2011-08-10T17:12:28Z</time>
      </trkpt>
      <trkpt lat="45.08679" lon="5.21829">
        <ele>186.37422180176</ele>
        <time>2011-08-10T17:12:29Z</time>
      </trkpt>
      <trkpt lat="45.08701" lon="5.2181">
        <ele>186.17056274414</ele>
        <time>2011-08-10T17:12:35Z</time>
      </trkpt>
      <trkpt lat="45.08702" lon="5.21807">
        <ele>186.06240844727</ele>
        <time>2011-08-10T17:12:38Z</time>
      </trkpt>
      <trkpt lat="45.08706" lon="5.218">
        <ele>186</ele>
        <time>2011-08-10T17:12:43Z</time>
      </trkpt>
      <trkpt lat="45.08707" lon="5.21796">
        <ele>186</ele>
        <time>2011-08-10T17:12:44Z</time>
      </trkpt>
      <trkpt lat="45.08696" lon="5.21774">
        <ele>185.85391235352</ele>
        <time>2011-08-10T17:12:49Z</time>
      </trkpt>
      <trkpt lat="45.08677" lon="5.21742">
        <ele>185</ele>
        <time>2011-08-10T17:12:54Z</time>
      </trkpt>
      <trkpt lat="45.08649" lon="5.21694">
        <ele>184</ele>
        <time>2011-08-10T17:13:00Z</time>
      </trkpt>
      <trkpt lat="45.08615" lon="5.21622">
        <ele>183</ele>
        <time>2011-08-10T17:13:07Z</time>
      </trkpt>
      <trkpt lat="45.08587" lon="5.21548">
        <ele>181.72746276856</ele>
        <time>2011-08-10T17:13:13Z</time>
      </trkpt>
      <trkpt lat="45.08577" lon="5.2152">
        <ele>180.93655395508</ele>
        <time>2011-08-10T17:13:15Z</time>
      </trkpt>
      <trkpt lat="45.08547" lon="5.21428">
        <ele>177.12178039551</ele>
        <time>2011-08-10T17:13:21Z</time>
      </trkpt>
      <trkpt lat="45.08527" lon="5.21362">
        <ele>172.89468383789</ele>
        <time>2011-08-10T17:13:25Z</time>
      </trkpt>
      <trkpt lat="45.08483" lon="5.21211">
        <ele>161.74624633789</ele>
        <time>2011-08-10T17:13:34Z</time>
      </trkpt>
      <trkpt lat="45.08481" lon="5.21139">
        <ele>159.01316833496</ele>
        <time>2011-08-10T17:13:38Z</time>
      </trkpt>
      <trkpt lat="45.08486" lon="5.21123">
        <ele>159</ele>
        <time>2011-08-10T17:13:39Z</time>
      </trkpt>
      <trkpt lat="45.08506" lon="5.21061">
        <ele>159</ele>
        <time>2011-08-10T17:13:43Z</time>
      </trkpt>
      <trkpt lat="45.08521" lon="5.20999">
        <ele>158</ele>
        <time>2011-08-10T17:13:47Z</time>
      </trkpt>
      <trkpt lat="45.08526" lon="5.20936">
        <ele>157</ele>
        <time>2011-08-10T17:13:51Z</time>
      </trkpt>
      <trkpt lat="45.08526" lon="5.20921">
        <ele>157</ele>
        <time>2011-08-10T17:13:52Z</time>
      </trkpt>
      <trkpt lat="45.08525" lon="5.20837">
        <ele>158.66772460938</ele>
        <time>2011-08-10T17:13:58Z</time>
      </trkpt>
      <trkpt lat="45.08523" lon="5.20736">
        <ele>158.82067871094</ele>
        <time>2011-08-10T17:14:06Z</time>
      </trkpt>
      <trkpt lat="45.08522" lon="5.20663">
        <ele>158.77947998047</ele>
        <time>2011-08-10T17:14:12Z</time>
      </trkpt>
      <trkpt lat="45.0852" lon="5.2058">
        <ele>159.72454833984</ele>
        <time>2011-08-10T17:14:19Z</time>
      </trkpt>
      <trkpt lat="45.08519" lon="5.20484">
        <ele>159.66961669922</ele>
        <time>2011-08-10T17:14:27Z</time>
      </trkpt>
      <trkpt lat="45.08516" lon="5.20349">
        <ele>160.76165771484</ele>
        <time>2011-08-10T17:14:38Z</time>
      </trkpt>
      <trkpt lat="45.08514" lon="5.2024">
        <ele>162.07421875</ele>
        <time>2011-08-10T17:14:47Z</time>
      </trkpt>
      <trkpt lat="45.08512" lon="5.2013">
        <ele>161.34967041016</ele>
        <time>2011-08-10T17:14:56Z</time>
      </trkpt>
      <trkpt lat="45.08511" lon="5.20045">
        <ele>160.8173828125</ele>
        <time>2011-08-10T17:15:03Z</time>
      </trkpt>
      <trkpt lat="45.0851" lon="5.19949">
        <ele>160.35375976562</ele>
        <time>2011-08-10T17:15:11Z</time>
      </trkpt>
      <trkpt lat="45.08509" lon="5.19878">
        <ele>159.65258789062</ele>
        <time>2011-08-10T17:15:17Z</time>
      </trkpt>
      <trkpt lat="45.08511" lon="5.19755">
        <ele>158.90362548828</ele>
        <time>2011-08-10T17:15:27Z</time>
      </trkpt>
      <trkpt lat="45.08512" lon="5.19641">
        <ele>158.45625305176</ele>
        <time>2011-08-10T17:15:36Z</time>
      </trkpt>
      <trkpt lat="45.08514" lon="5.19552">
        <ele>157.98217773438</ele>
        <time>2011-08-10T17:15:43Z</time>
      </trkpt>
      <trkpt lat="45.08517" lon="5.19485">
        <ele>158.2568359375</ele>
        <time>2011-08-10T17:15:48Z</time>
      </trkpt>
      <trkpt lat="45.08528" lon="5.19336">
        <ele>157.99841308594</ele>
        <time>2011-08-10T17:15:59Z</time>
      </trkpt>
      <trkpt lat="45.08534" lon="5.19241">
        <ele>157.99192810059</ele>
        <time>2011-08-10T17:16:06Z</time>
      </trkpt>
      <trkpt lat="45.08547" lon="5.19098">
        <ele>157.69958496094</ele>
        <time>2011-08-10T17:16:17Z</time>
      </trkpt>
      <trkpt lat="45.08556" lon="5.18971">
        <ele>158.00799560547</ele>
        <time>2011-08-10T17:16:27Z</time>
      </trkpt>
      <trkpt lat="45.08562" lon="5.18884">
        <ele>157.47033691406</ele>
        <time>2011-08-10T17:16:34Z</time>
      </trkpt>
      <trkpt lat="45.08564" lon="5.18826">
        <ele>157.29010009766</ele>
        <time>2011-08-10T17:16:39Z</time>
      </trkpt>
      <trkpt lat="45.08569" lon="5.18782">
        <ele>157.07389831543</ele>
        <time>2011-08-10T17:16:43Z</time>
      </trkpt>
      <trkpt lat="45.08574" lon="5.18689">
        <ele>156.66088867188</ele>
        <time>2011-08-10T17:16:51Z</time>
      </trkpt>
      <trkpt lat="45.08572" lon="5.18609">
        <ele>157.60595703125</ele>
        <time>2011-08-10T17:16:58Z</time>
      </trkpt>
      <trkpt lat="45.0857" lon="5.18541">
        <ele>158.53729248047</ele>
        <time>2011-08-10T17:17:04Z</time>
      </trkpt>
      <trkpt lat="45.08571" lon="5.18464">
        <ele>159.55102539062</ele>
        <time>2011-08-10T17:17:11Z</time>
      </trkpt>
      <trkpt lat="45.08571" lon="5.18407">
        <ele>160.60977172852</ele>
        <time>2011-08-10T17:17:17Z</time>
      </trkpt>
      <trkpt lat="45.08569" lon="5.18356">
        <ele>164.1203918457</ele>
        <time>2011-08-10T17:17:23Z</time>
      </trkpt>
      <trkpt lat="45.08569" lon="5.1833">
        <ele>166.16873168945</ele>
        <time>2011-08-10T17:17:28Z</time>
      </trkpt>
      <trkpt lat="45.08569" lon="5.18329">
        <ele>166.27688598633</ele>
        <time>2011-08-10T17:17:33Z</time>
      </trkpt>
      <trkpt lat="45.08569" lon="5.18323">
        <ele>166.71975708008</ele>
        <time>2011-08-10T17:17:46Z</time>
      </trkpt>
      <trkpt lat="45.08566" lon="5.18305">
        <ele>167.74029541016</ele>
        <time>2011-08-10T17:17:54Z</time>
      </trkpt>
      <trkpt lat="45.08563" lon="5.18284">
        <ele>169.86254882812</ele>
        <time>2011-08-10T17:18:00Z</time>
      </trkpt>
      <trkpt lat="45.08554" lon="5.1825">
        <ele>170.54022216797</ele>
        <time>2011-08-10T17:18:06Z</time>
      </trkpt>
      <trkpt lat="45.08537" lon="5.18195">
        <ele>175.15156555176</ele>
        <time>2011-08-10T17:18:14Z</time>
      </trkpt>
      <trkpt lat="45.08519" lon="5.18143">
        <ele>176.02848815918</ele>
        <time>2011-08-10T17:18:21Z</time>
      </trkpt>
      <trkpt lat="45.08502" lon="5.1809">
        <ele>177.39878845215</ele>
        <time>2011-08-10T17:18:28Z</time>
      </trkpt>
      <trkpt lat="45.0848" lon="5.18026">
        <ele>183.00082397461</ele>
        <time>2011-08-10T17:18:37Z</time>
      </trkpt>
      <trkpt lat="45.08458" lon="5.17978">
        <ele>185.4296875</ele>
        <time>2011-08-10T17:18:44Z</time>
      </trkpt>
      <trkpt lat="45.08426" lon="5.17919">
        <ele>187.76538085938</ele>
        <time>2011-08-10T17:18:53Z</time>
      </trkpt>
      <trkpt lat="45.0839" lon="5.17852">
        <ele>198.85935974121</ele>
        <time>2011-08-10T17:19:03Z</time>
      </trkpt>
      <trkpt lat="45.08356" lon="5.17802">
        <ele>198.8249206543</ele>
        <time>2011-08-10T17:19:11Z</time>
      </trkpt>
      <trkpt lat="45.08305" lon="5.17739">
        <ele>184.48037719727</ele>
        <time>2011-08-10T17:19:21Z</time>
      </trkpt>
      <trkpt lat="45.08265" lon="5.1769">
        <ele>179.33950805664</ele>
        <time>2011-08-10T17:19:28Z</time>
      </trkpt>
      <trkpt lat="45.08202" lon="5.17602">
        <ele>180.15589904785</ele>
        <time>2011-08-10T17:19:40Z</time>
      </trkpt>
      <trkpt lat="45.08151" lon="5.17525">
        <ele>187.37857055664</ele>
        <time>2011-08-10T17:19:50Z</time>
      </trkpt>
      <trkpt lat="45.08095" lon="5.17437">
        <ele>192.35641479492</ele>
        <time>2011-08-10T17:20:01Z</time>
      </trkpt>
      <trkpt lat="45.08052" lon="5.17362">
        <ele>191.15130615234</ele>
        <time>2011-08-10T17:20:10Z</time>
      </trkpt>
      <trkpt lat="45.08013" lon="5.17306">
        <ele>189.82562255859</ele>
        <time>2011-08-10T17:20:17Z</time>
      </trkpt>
      <trkpt lat="45.07976" lon="5.17254">
        <ele>187.46752929688</ele>
        <time>2011-08-10T17:20:23Z</time>
      </trkpt>
      <trkpt lat="45.07951" lon="5.17215">
        <ele>187.22514343262</ele>
        <time>2011-08-10T17:20:27Z</time>
      </trkpt>
      <trkpt lat="45.07906" lon="5.17136">
        <ele>187.90643310547</ele>
        <time>2011-08-10T17:20:35Z</time>
      </trkpt>
      <trkpt lat="45.0788" lon="5.17086">
        <ele>187.87068176269</ele>
        <time>2011-08-10T17:20:41Z</time>
      </trkpt>
      <trkpt lat="45.07852" lon="5.17025">
        <ele>188.03466796875</ele>
        <time>2011-08-10T17:20:49Z</time>
      </trkpt>
      <trkpt lat="45.07829" lon="5.16962">
        <ele>187.03173828125</ele>
        <time>2011-08-10T17:20:57Z</time>
      </trkpt>
      <trkpt lat="45.07813" lon="5.1691">
        <ele>187.66220092773</ele>
        <time>2011-08-10T17:21:04Z</time>
      </trkpt>
      <trkpt lat="45.07796" lon="5.16843">
        <ele>189.8757019043</ele>
        <time>2011-08-10T17:21:13Z</time>
      </trkpt>
      <trkpt lat="45.07787" lon="5.16803">
        <ele>190</ele>
        <time>2011-08-10T17:21:18Z</time>
      </trkpt>
      <trkpt lat="45.07775" lon="5.16756">
        <ele>189.90417480469</ele>
        <time>2011-08-10T17:21:24Z</time>
      </trkpt>
      <trkpt lat="45.0776" lon="5.16687">
        <ele>189.36859130859</ele>
        <time>2011-08-10T17:21:33Z</time>
      </trkpt>
      <trkpt lat="45.07745" lon="5.16619">
        <ele>189.58897399902</ele>
        <time>2011-08-10T17:21:42Z</time>
      </trkpt>
      <trkpt lat="45.07734" lon="5.16572">
        <ele>190</ele>
        <time>2011-08-10T17:21:48Z</time>
      </trkpt>
      <trkpt lat="45.07722" lon="5.16512">
        <ele>189.98156738281</ele>
        <time>2011-08-10T17:21:56Z</time>
      </trkpt>
      <trkpt lat="45.07706" lon="5.16439">
        <ele>189.40478515625</ele>
        <time>2011-08-10T17:22:05Z</time>
      </trkpt>
      <trkpt lat="45.07689" lon="5.16362">
        <ele>189.77703857422</ele>
        <time>2011-08-10T17:22:14Z</time>
      </trkpt>
      <trkpt lat="45.07674" lon="5.16289">
        <ele>190</ele>
        <time>2011-08-10T17:22:23Z</time>
      </trkpt>
      <trkpt lat="45.07671" lon="5.16273">
        <ele>190</ele>
        <time>2011-08-10T17:22:25Z</time>
      </trkpt>
      <trkpt lat="45.07676" lon="5.16246">
        <ele>190</ele>
        <time>2011-08-10T17:22:29Z</time>
      </trkpt>
      <trkpt lat="45.07679" lon="5.16241">
        <ele>190</ele>
        <time>2011-08-10T17:22:30Z</time>
      </trkpt>
      <trkpt lat="45.077" lon="5.16207">
        <ele>190.39758300781</ele>
        <time>2011-08-10T17:22:38Z</time>
      </trkpt>
      <trkpt lat="45.07714" lon="5.16185">
        <ele>191.14347839356</ele>
        <time>2011-08-10T17:22:44Z</time>
      </trkpt>
      <trkpt lat="45.07733" lon="5.16153">
        <ele>192.1806640625</ele>
        <time>2011-08-10T17:22:52Z</time>
      </trkpt>
      <trkpt lat="45.07748" lon="5.16128">
        <ele>193.42515563965</ele>
        <time>2011-08-10T17:22:58Z</time>
      </trkpt>
      <trkpt lat="45.07763" lon="5.16104">
        <ele>193.95690917969</ele>
        <time>2011-08-10T17:23:04Z</time>
      </trkpt>
      <trkpt lat="45.07781" lon="5.16071">
        <ele>195.28228759766</ele>
        <time>2011-08-10T17:23:12Z</time>
      </trkpt>
      <trkpt lat="45.07791" lon="5.16037">
        <ele>195.62297058106</ele>
        <time>2011-08-10T17:23:19Z</time>
      </trkpt>
      <trkpt lat="45.07801" lon="5.15994">
        <ele>196.38369750977</ele>
        <time>2011-08-10T17:23:27Z</time>
      </trkpt>
      <trkpt lat="45.07811" lon="5.15958">
        <ele>196.62640380859</ele>
        <time>2011-08-10T17:23:33Z</time>
      </trkpt>
      <trkpt lat="45.07829" lon="5.15899">
        <ele>197.61474609375</ele>
        <time>2011-08-10T17:23:43Z</time>
      </trkpt>
      <trkpt lat="45.07843" lon="5.15849">
        <ele>197.55146789551</ele>
        <time>2011-08-10T17:23:50Z</time>
      </trkpt>
      <trkpt lat="45.0786" lon="5.15782">
        <ele>197.10830688477</ele>
        <time>2011-08-10T17:23:59Z</time>
      </trkpt>
      <trkpt lat="45.07874" lon="5.15722">
        <ele>196.92199707031</ele>
        <time>2011-08-10T17:24:07Z</time>
      </trkpt>
      <trkpt lat="45.07885" lon="5.1566">
        <ele>196.69104003906</ele>
        <time>2011-08-10T17:24:15Z</time>
      </trkpt>
      <trkpt lat="45.07897" lon="5.15592">
        <ele>197.59741210938</ele>
        <time>2011-08-10T17:24:24Z</time>
      </trkpt>
      <trkpt lat="45.07908" lon="5.1553">
        <ele>197.3897857666</ele>
        <time>2011-08-10T17:24:32Z</time>
      </trkpt>
      <trkpt lat="45.07922" lon="5.15461">
        <ele>197.87898254394</ele>
        <time>2011-08-10T17:24:41Z</time>
      </trkpt>
      <trkpt lat="45.07937" lon="5.15402">
        <ele>197.72692871094</ele>
        <time>2011-08-10T17:24:49Z</time>
      </trkpt>
      <trkpt lat="45.07955" lon="5.15336">
        <ele>197.83004760742</ele>
        <time>2011-08-10T17:24:57Z</time>
      </trkpt>
      <trkpt lat="45.07976" lon="5.15257">
        <ele>198.14141845703</ele>
        <time>2011-08-10T17:25:06Z</time>
      </trkpt>
      <trkpt lat="45.07984" lon="5.15193">
        <ele>197.42980957031</ele>
        <time>2011-08-10T17:25:13Z</time>
      </trkpt>
      <trkpt lat="45.07996" lon="5.15098">
        <ele>197.83522033691</ele>
        <time>2011-08-10T17:25:24Z</time>
      </trkpt>
      <trkpt lat="45.08009" lon="5.15044">
        <ele>197.30871582031</ele>
        <time>2011-08-10T17:25:31Z</time>
      </trkpt>
      <trkpt lat="45.08027" lon="5.14973">
        <ele>197.95416259766</ele>
        <time>2011-08-10T17:25:39Z</time>
      </trkpt>
      <trkpt lat="45.08048" lon="5.14885">
        <ele>198.47387695312</ele>
        <time>2011-08-10T17:25:48Z</time>
      </trkpt>
      <trkpt lat="45.08055" lon="5.14857">
        <ele>198.79644775391</ele>
        <time>2011-08-10T17:25:51Z</time>
      </trkpt>
      <trkpt lat="45.08072" lon="5.14802">
        <ele>198.57464599609</ele>
        <time>2011-08-10T17:25:58Z</time>
      </trkpt>
      <trkpt lat="45.08084" lon="5.14763">
        <ele>199</ele>
        <time>2011-08-10T17:26:03Z</time>
      </trkpt>
      <trkpt lat="45.08104" lon="5.14715">
        <ele>198.72821044922</ele>
        <time>2011-08-10T17:26:09Z</time>
      </trkpt>
      <trkpt lat="45.08125" lon="5.14661">
        <ele>200.38993835449</ele>
        <time>2011-08-10T17:26:16Z</time>
      </trkpt>
      <trkpt lat="45.08143" lon="5.14608">
        <ele>201.2958984375</ele>
        <time>2011-08-10T17:26:23Z</time>
      </trkpt>
      <trkpt lat="45.08158" lon="5.14558">
        <ele>201.69201660156</ele>
        <time>2011-08-10T17:26:30Z</time>
      </trkpt>
      <trkpt lat="45.08167" lon="5.1453">
        <ele>201.12632751465</ele>
        <time>2011-08-10T17:26:34Z</time>
      </trkpt>
      <trkpt lat="45.08176" lon="5.14503">
        <ele>201.70239257812</ele>
        <time>2011-08-10T17:26:38Z</time>
      </trkpt>
      <trkpt lat="45.08189" lon="5.14449">
        <ele>201.63623046875</ele>
        <time>2011-08-10T17:26:45Z</time>
      </trkpt>
      <trkpt lat="45.08203" lon="5.14403">
        <ele>201.89630126953</ele>
        <time>2011-08-10T17:26:51Z</time>
      </trkpt>
      <trkpt lat="45.08228" lon="5.14332">
        <ele>201.35227966309</ele>
        <time>2011-08-10T17:27:00Z</time>
      </trkpt>
      <trkpt lat="45.08253" lon="5.14256">
        <ele>199.47337341309</ele>
        <time>2011-08-10T17:27:09Z</time>
      </trkpt>
      <trkpt lat="45.08275" lon="5.14183">
        <ele>199</ele>
        <time>2011-08-10T17:27:17Z</time>
      </trkpt>
      <trkpt lat="45.08303" lon="5.14089">
        <ele>198.89678955078</ele>
        <time>2011-08-10T17:27:27Z</time>
      </trkpt>
      <trkpt lat="45.08321" lon="5.14031">
        <ele>198</ele>
        <time>2011-08-10T17:27:33Z</time>
      </trkpt>
      <trkpt lat="45.08351" lon="5.13932">
        <ele>197.64086914062</ele>
        <time>2011-08-10T17:27:43Z</time>
      </trkpt>
      <trkpt lat="45.08375" lon="5.13871">
        <ele>198.17497253418</ele>
        <time>2011-08-10T17:27:50Z</time>
      </trkpt>
      <trkpt lat="45.08409" lon="5.13822">
        <ele>198</ele>
        <time>2011-08-10T17:27:57Z</time>
      </trkpt>
      <trkpt lat="45.08463" lon="5.13753">
        <ele>199</ele>
        <time>2011-08-10T17:28:07Z</time>
      </trkpt>
      <trkpt lat="45.0852" lon="5.13676">
        <ele>199</ele>
        <time>2011-08-10T17:28:18Z</time>
      </trkpt>
      <trkpt lat="45.08576" lon="5.136">
        <ele>199</ele>
        <time>2011-08-10T17:28:29Z</time>
      </trkpt>
      <trkpt lat="45.08601" lon="5.13552">
        <ele>199</ele>
        <time>2011-08-10T17:28:35Z</time>
      </trkpt>
      <trkpt lat="45.08623" lon="5.13502">
        <ele>199</ele>
        <time>2011-08-10T17:28:41Z</time>
      </trkpt>
      <trkpt lat="45.08631" lon="5.13487">
        <ele>199</ele>
        <time>2011-08-10T17:28:43Z</time>
      </trkpt>
      <trkpt lat="45.08648" lon="5.13446">
        <ele>199</ele>
        <time>2011-08-10T17:28:48Z</time>
      </trkpt>
      <trkpt lat="45.08651" lon="5.13438">
        <ele>199</ele>
        <time>2011-08-10T17:28:49Z</time>
      </trkpt>
      <trkpt lat="45.08677" lon="5.13373">
        <ele>199</ele>
        <time>2011-08-10T17:28:57Z</time>
      </trkpt>
      <trkpt lat="45.08698" lon="5.13323">
        <ele>199</ele>
        <time>2011-08-10T17:29:03Z</time>
      </trkpt>
      <trkpt lat="45.08723" lon="5.13265">
        <ele>199.01672363281</ele>
        <time>2011-08-10T17:29:10Z</time>
      </trkpt>
      <trkpt lat="45.08752" lon="5.13198">
        <ele>200.11395263672</ele>
        <time>2011-08-10T17:29:18Z</time>
      </trkpt>
      <trkpt lat="45.08771" lon="5.13156">
        <ele>202.2412109375</ele>
        <time>2011-08-10T17:29:24Z</time>
      </trkpt>
      <trkpt lat="45.08775" lon="5.13146">
        <ele>202.73559570312</ele>
        <time>2011-08-10T17:29:26Z</time>
      </trkpt>
      <trkpt lat="45.08782" lon="5.13112">
        <ele>204.38668823242</ele>
        <time>2011-08-10T17:29:31Z</time>
      </trkpt>
      <trkpt lat="45.08785" lon="5.13098">
        <ele>205.2409362793</ele>
        <time>2011-08-10T17:29:33Z</time>
      </trkpt>
      <trkpt lat="45.08789" lon="5.13065">
        <ele>205.94650268555</ele>
        <time>2011-08-10T17:29:37Z</time>
      </trkpt>
      <trkpt lat="45.08797" lon="5.13031">
        <ele>206.36181640625</ele>
        <time>2011-08-10T17:29:42Z</time>
      </trkpt>
      <trkpt lat="45.08795" lon="5.12994">
        <ele>206.251953125</ele>
        <time>2011-08-10T17:29:47Z</time>
      </trkpt>
      <trkpt lat="45.08799" lon="5.12917">
        <ele>206.49914550781</ele>
        <time>2011-08-10T17:29:56Z</time>
      </trkpt>
      <trkpt lat="45.08808" lon="5.1286">
        <ele>207.27868652344</ele>
        <time>2011-08-10T17:30:03Z</time>
      </trkpt>
      <trkpt lat="45.08821" lon="5.12806">
        <ele>208.63824462891</ele>
        <time>2011-08-10T17:30:10Z</time>
      </trkpt>
      <trkpt lat="45.08841" lon="5.12735">
        <ele>210.0382232666</ele>
        <time>2011-08-10T17:30:19Z</time>
      </trkpt>
      <trkpt lat="45.08868" lon="5.12647">
        <ele>207.62263488769</ele>
        <time>2011-08-10T17:30:30Z</time>
      </trkpt>
      <trkpt lat="45.08896" lon="5.12573">
        <ele>204.04254150391</ele>
        <time>2011-08-10T17:30:40Z</time>
      </trkpt>
      <trkpt lat="45.08914" lon="5.12509">
        <ele>201.20590209961</ele>
        <time>2011-08-10T17:30:48Z</time>
      </trkpt>
      <trkpt lat="45.0892" lon="5.12454">
        <ele>200</ele>
        <time>2011-08-10T17:30:54Z</time>
      </trkpt>
      <trkpt lat="45.08917" lon="5.12392">
        <ele>200</ele>
        <time>2011-08-10T17:31:00Z</time>
      </trkpt>
      <trkpt lat="45.08915" lon="5.12314">
        <ele>199</ele>
        <time>2011-08-10T17:31:07Z</time>
      </trkpt>
      <trkpt lat="45.08915" lon="5.12229">
        <ele>199</ele>
        <time>2011-08-10T17:31:14Z</time>
      </trkpt>
      <trkpt lat="45.08908" lon="5.12131">
        <ele>198</ele>
        <time>2011-08-10T17:31:22Z</time>
      </trkpt>
      <trkpt lat="45.08899" lon="5.12036">
        <ele>197.54136657715</ele>
        <time>2011-08-10T17:31:30Z</time>
      </trkpt>
      <trkpt lat="45.08894" lon="5.11959">
        <ele>197</ele>
        <time>2011-08-10T17:31:37Z</time>
      </trkpt>
      <trkpt lat="45.08887" lon="5.11863">
        <ele>197</ele>
        <time>2011-08-10T17:31:46Z</time>
      </trkpt>
      <trkpt lat="45.08882" lon="5.11794">
        <ele>196</ele>
        <time>2011-08-10T17:31:52Z</time>
      </trkpt>
      <trkpt lat="45.08871" lon="5.1165">
        <ele>195</ele>
        <time>2011-08-10T17:32:04Z</time>
      </trkpt>
      <trkpt lat="45.08861" lon="5.11521">
        <ele>195</ele>
        <time>2011-08-10T17:32:15Z</time>
      </trkpt>
      <trkpt lat="45.0885" lon="5.114">
        <ele>195</ele>
        <time>2011-08-10T17:32:25Z</time>
      </trkpt>
      <trkpt lat="45.08841" lon="5.11291">
        <ele>195</ele>
        <time>2011-08-10T17:32:34Z</time>
      </trkpt>
      <trkpt lat="45.08831" lon="5.1118">
        <ele>195.90313720703</ele>
        <time>2011-08-10T17:32:43Z</time>
      </trkpt>
      <trkpt lat="45.08814" lon="5.11084">
        <ele>196.30291748047</ele>
        <time>2011-08-10T17:32:51Z</time>
      </trkpt>
      <trkpt lat="45.08794" lon="5.10975">
        <ele>196</ele>
        <time>2011-08-10T17:33:00Z</time>
      </trkpt>
      <trkpt lat="45.08786" lon="5.1089">
        <ele>196.29638671875</ele>
        <time>2011-08-10T17:33:07Z</time>
      </trkpt>
      <trkpt lat="45.08781" lon="5.10745">
        <ele>197.13159179688</ele>
        <time>2011-08-10T17:33:19Z</time>
      </trkpt>
      <trkpt lat="45.08771" lon="5.1066">
        <ele>196.7470703125</ele>
        <time>2011-08-10T17:33:26Z</time>
      </trkpt>
      <trkpt lat="45.08745" lon="5.10554">
        <ele>196.82696533203</ele>
        <time>2011-08-10T17:33:35Z</time>
      </trkpt>
      <trkpt lat="45.08719" lon="5.10451">
        <ele>195.7587890625</ele>
        <time>2011-08-10T17:33:44Z</time>
      </trkpt>
      <trkpt lat="45.08685" lon="5.10333">
        <ele>193.65716552734</ele>
        <time>2011-08-10T17:33:55Z</time>
      </trkpt>
      <trkpt lat="45.08654" lon="5.10218">
        <ele>192.22784423828</ele>
        <time>2011-08-10T17:34:06Z</time>
      </trkpt>
      <trkpt lat="45.08632" lon="5.1011">
        <ele>193.74156188965</ele>
        <time>2011-08-10T17:34:16Z</time>
      </trkpt>
      <trkpt lat="45.08603" lon="5.09996">
        <ele>195.80020141602</ele>
        <time>2011-08-10T17:34:26Z</time>
      </trkpt>
      <trkpt lat="45.08577" lon="5.09904">
        <ele>196.66870117188</ele>
        <time>2011-08-10T17:34:34Z</time>
      </trkpt>
      <trkpt lat="45.08555" lon="5.0982">
        <ele>197.46853637695</ele>
        <time>2011-08-10T17:34:42Z</time>
      </trkpt>
      <trkpt lat="45.08533" lon="5.09748">
        <ele>198.42932128906</ele>
        <time>2011-08-10T17:34:49Z</time>
      </trkpt>
      <trkpt lat="45.08499" lon="5.09661">
        <ele>199.13536071777</ele>
        <time>2011-08-10T17:34:57Z</time>
      </trkpt>
      <trkpt lat="45.08466" lon="5.09573">
        <ele>196.521484375</ele>
        <time>2011-08-10T17:35:05Z</time>
      </trkpt>
      <trkpt lat="45.08459" lon="5.09514">
        <ele>196.02709960938</ele>
        <time>2011-08-10T17:35:10Z</time>
      </trkpt>
      <trkpt lat="45.08464" lon="5.09443">
        <ele>194.67179870606</ele>
        <time>2011-08-10T17:35:16Z</time>
      </trkpt>
      <trkpt lat="45.08478" lon="5.09339">
        <ele>193.400390625</ele>
        <time>2011-08-10T17:35:25Z</time>
      </trkpt>
      <trkpt lat="45.0848" lon="5.09329">
        <ele>193.42239379883</ele>
        <time>2011-08-10T17:35:26Z</time>
      </trkpt>
      <trkpt lat="45.08507" lon="5.09276">
        <ele>193.46530151367</ele>
        <time>2011-08-10T17:35:32Z</time>
      </trkpt>
      <trkpt lat="45.08548" lon="5.09219">
        <ele>193.59312438965</ele>
        <time>2011-08-10T17:35:40Z</time>
      </trkpt>
      <trkpt lat="45.08565" lon="5.09176">
        <ele>192.68161010742</ele>
        <time>2011-08-10T17:35:45Z</time>
      </trkpt>
      <trkpt lat="45.08585" lon="5.09091">
        <ele>191.42846679688</ele>
        <time>2011-08-10T17:35:54Z</time>
      </trkpt>
      <trkpt lat="45.08605" lon="5.09028">
        <ele>191.54650878906</ele>
        <time>2011-08-10T17:36:01Z</time>
      </trkpt>
      <trkpt lat="45.08632" lon="5.08972">
        <ele>191.9967956543</ele>
        <time>2011-08-10T17:36:08Z</time>
      </trkpt>
      <trkpt lat="45.08669" lon="5.08898">
        <ele>194.13323974609</ele>
        <time>2011-08-10T17:36:18Z</time>
      </trkpt>
      <trkpt lat="45.08685" lon="5.08848">
        <ele>196.15664672852</ele>
        <time>2011-08-10T17:36:24Z</time>
      </trkpt>
      <trkpt lat="45.08707" lon="5.08761">
        <ele>199.28591918945</ele>
        <time>2011-08-10T17:36:34Z</time>
      </trkpt>
      <trkpt lat="45.08724" lon="5.08695">
        <ele>202.09646606445</ele>
        <time>2011-08-10T17:36:42Z</time>
      </trkpt>
      <trkpt lat="45.08735" lon="5.08639">
        <ele>205.91857910156</ele>
        <time>2011-08-10T17:36:49Z</time>
      </trkpt>
      <trkpt lat="45.08739" lon="5.08624">
        <ele>207.03672790527</ele>
        <time>2011-08-10T17:36:51Z</time>
      </trkpt>
      <trkpt lat="45.08751" lon="5.08599">
        <ele>209.47943115234</ele>
        <time>2011-08-10T17:36:55Z</time>
      </trkpt>
      <trkpt lat="45.08755" lon="5.08571">
        <ele>211.03733825684</ele>
        <time>2011-08-10T17:36:59Z</time>
      </trkpt>
      <trkpt lat="45.08749" lon="5.08539">
        <ele>212.53231811523</ele>
        <time>2011-08-10T17:37:03Z</time>
      </trkpt>
      <trkpt lat="45.08754" lon="5.08477">
        <ele>215.80079650879</ele>
        <time>2011-08-10T17:37:11Z</time>
      </trkpt>
      <trkpt lat="45.0876" lon="5.08421">
        <ele>219.03739929199</ele>
        <time>2011-08-10T17:37:19Z</time>
      </trkpt>
      <trkpt lat="45.08767" lon="5.08366">
        <ele>221.44358825684</ele>
        <time>2011-08-10T17:37:28Z</time>
      </trkpt>
      <trkpt lat="45.08768" lon="5.08354">
        <ele>221.92424011231</ele>
        <time>2011-08-10T17:37:30Z</time>
      </trkpt>
      <trkpt lat="45.08775" lon="5.08299">
        <ele>225.1335144043</ele>
        <time>2011-08-10T17:37:39Z</time>
      </trkpt>
      <trkpt lat="45.08781" lon="5.08263">
        <ele>226.63212585449</ele>
        <time>2011-08-10T17:37:45Z</time>
      </trkpt>
      <trkpt lat="45.08791" lon="5.08202">
        <ele>229.32614135742</ele>
        <time>2011-08-10T17:37:54Z</time>
      </trkpt>
      <trkpt lat="45.08804" lon="5.08138">
        <ele>232.91793823242</ele>
        <time>2011-08-10T17:38:03Z</time>
      </trkpt>
      <trkpt lat="45.08818" lon="5.08065">
        <ele>237.60835266113</ele>
        <time>2011-08-10T17:38:13Z</time>
      </trkpt>
      <trkpt lat="45.08831" lon="5.08004">
        <ele>241.56661987305</ele>
        <time>2011-08-10T17:38:22Z</time>
      </trkpt>
      <trkpt lat="45.08841" lon="5.07946">
        <ele>242.13702392578</ele>
        <time>2011-08-10T17:38:31Z</time>
      </trkpt>
      <trkpt lat="45.08852" lon="5.07905">
        <ele>241.50723266602</ele>
        <time>2011-08-10T17:38:38Z</time>
      </trkpt>
      <trkpt lat="45.08865" lon="5.07881">
        <ele>240</ele>
        <time>2011-08-10T17:38:43Z</time>
      </trkpt>
      <trkpt lat="45.08895" lon="5.07846">
        <ele>239.52453613281</ele>
        <time>2011-08-10T17:38:52Z</time>
      </trkpt>
      <trkpt lat="45.08918" lon="5.07832">
        <ele>237.90411376953</ele>
        <time>2011-08-10T17:38:58Z</time>
      </trkpt>
      <trkpt lat="45.08948" lon="5.07815">
        <ele>236.21496582031</ele>
        <time>2011-08-10T17:39:06Z</time>
      </trkpt>
      <trkpt lat="45.08979" lon="5.07796">
        <ele>234.41767883301</ele>
        <time>2011-08-10T17:39:14Z</time>
      </trkpt>
      <trkpt lat="45.09015" lon="5.07771">
        <ele>232.25131225586</ele>
        <time>2011-08-10T17:39:23Z</time>
      </trkpt>
      <trkpt lat="45.09023" lon="5.07766">
        <ele>231.76550292969</ele>
        <time>2011-08-10T17:39:25Z</time>
      </trkpt>
      <trkpt lat="45.0906" lon="5.0773">
        <ele>227.40390014648</ele>
        <time>2011-08-10T17:39:35Z</time>
      </trkpt>
      <trkpt lat="45.09094" lon="5.07698">
        <ele>224.35012817383</ele>
        <time>2011-08-10T17:39:43Z</time>
      </trkpt>
      <trkpt lat="45.09118" lon="5.07674">
        <ele>221.29618835449</ele>
        <time>2011-08-10T17:39:48Z</time>
      </trkpt>
      <trkpt lat="45.0913" lon="5.07657">
        <ele>219.94805908203</ele>
        <time>2011-08-10T17:39:51Z</time>
      </trkpt>
      <trkpt lat="45.09155" lon="5.0761">
        <ele>219</ele>
        <time>2011-08-10T17:39:58Z</time>
      </trkpt>
      <trkpt lat="45.0918" lon="5.07555">
        <ele>219</ele>
        <time>2011-08-10T17:40:05Z</time>
      </trkpt>
      <trkpt lat="45.09217" lon="5.07479">
        <ele>218</ele>
        <time>2011-08-10T17:40:14Z</time>
      </trkpt>
      <trkpt lat="45.09251" lon="5.07407">
        <ele>218</ele>
        <time>2011-08-10T17:40:22Z</time>
      </trkpt>
      <trkpt lat="45.09294" lon="5.07316">
        <ele>217.58862304688</ele>
        <time>2011-08-10T17:40:32Z</time>
      </trkpt>
      <trkpt lat="45.09326" lon="5.07247">
        <ele>218.7421875</ele>
        <time>2011-08-10T17:40:40Z</time>
      </trkpt>
      <trkpt lat="45.09342" lon="5.07218">
        <ele>219.31896972656</ele>
        <time>2011-08-10T17:40:44Z</time>
      </trkpt>
      <trkpt lat="45.0937" lon="5.07195">
        <ele>220</ele>
        <time>2011-08-10T17:40:49Z</time>
      </trkpt>
      <trkpt lat="45.09388" lon="5.0717">
        <ele>220</ele>
        <time>2011-08-10T17:40:53Z</time>
      </trkpt>
      <trkpt lat="45.09392" lon="5.0714">
        <ele>220</ele>
        <time>2011-08-10T17:40:56Z</time>
      </trkpt>
      <trkpt lat="45.09392" lon="5.07129">
        <ele>220</ele>
        <time>2011-08-10T17:40:57Z</time>
      </trkpt>
      <trkpt lat="45.09386" lon="5.07033">
        <ele>219.91198730469</ele>
        <time>2011-08-10T17:41:05Z</time>
      </trkpt>
      <trkpt lat="45.0938" lon="5.06907">
        <ele>219.66479492188</ele>
        <time>2011-08-10T17:41:15Z</time>
      </trkpt>
      <trkpt lat="45.09373" lon="5.06792">
        <ele>219.44506835938</ele>
        <time>2011-08-10T17:41:24Z</time>
      </trkpt>
      <trkpt lat="45.09372" lon="5.06714">
        <ele>219.37640380859</ele>
        <time>2011-08-10T17:41:30Z</time>
      </trkpt>
      <trkpt lat="45.0938" lon="5.06624">
        <ele>219.66479492188</ele>
        <time>2011-08-10T17:41:37Z</time>
      </trkpt>
      <trkpt lat="45.09383" lon="5.06534">
        <ele>219.80212402344</ele>
        <time>2011-08-10T17:41:44Z</time>
      </trkpt>
      <trkpt lat="45.09378" lon="5.06429">
        <ele>219.59613037109</ele>
        <time>2011-08-10T17:41:52Z</time>
      </trkpt>
      <trkpt lat="45.09373" lon="5.06299">
        <ele>219.44506835938</ele>
        <time>2011-08-10T17:42:02Z</time>
      </trkpt>
      <trkpt lat="45.09371" lon="5.06193">
        <ele>219.36267089844</ele>
        <time>2011-08-10T17:42:10Z</time>
      </trkpt>
      <trkpt lat="45.09369" lon="5.06074">
        <ele>219.29400634766</ele>
        <time>2011-08-10T17:42:19Z</time>
      </trkpt>
      <trkpt lat="45.09377" lon="5.0597">
        <ele>219.56866455078</ele>
        <time>2011-08-10T17:42:27Z</time>
      </trkpt>
      <trkpt lat="45.0939" lon="5.05864">
        <ele>219</ele>
        <time>2011-08-10T17:42:36Z</time>
      </trkpt>
      <trkpt lat="45.0941" lon="5.05789">
        <ele>219</ele>
        <time>2011-08-10T17:42:43Z</time>
      </trkpt>
      <trkpt lat="45.09426" lon="5.05717">
        <ele>219.32647705078</ele>
        <time>2011-08-10T17:42:50Z</time>
      </trkpt>
      <trkpt lat="45.09432" lon="5.05657">
        <ele>219.55993652344</ele>
        <time>2011-08-10T17:42:56Z</time>
      </trkpt>
      <trkpt lat="45.09436" lon="5.05587">
        <ele>219.71099853516</ele>
        <time>2011-08-10T17:43:03Z</time>
      </trkpt>
      <trkpt lat="45.09432" lon="5.05527">
        <ele>219.55993652344</ele>
        <time>2011-08-10T17:43:09Z</time>
      </trkpt>
      <trkpt lat="45.09426" lon="5.05454">
        <ele>219.32647705078</ele>
        <time>2011-08-10T17:43:16Z</time>
      </trkpt>
      <trkpt lat="45.09417" lon="5.05396">
        <ele>219.01062011719</ele>
        <time>2011-08-10T17:43:22Z</time>
      </trkpt>
      <trkpt lat="45.09394" lon="5.0533">
        <ele>220.86883544922</ele>
        <time>2011-08-10T17:43:29Z</time>
      </trkpt>
      <trkpt lat="45.09365" lon="5.05277">
        <ele>224.51538085938</ele>
        <time>2011-08-10T17:43:35Z</time>
      </trkpt>
      <trkpt lat="45.09329" lon="5.05219">
        <ele>225.58308410644</ele>
        <time>2011-08-10T17:43:42Z</time>
      </trkpt>
      <trkpt lat="45.09291" lon="5.05156">
        <ele>219.76675415039</ele>
        <time>2011-08-10T17:43:50Z</time>
      </trkpt>
      <trkpt lat="45.09271" lon="5.05117">
        <ele>212.20169067383</ele>
        <time>2011-08-10T17:43:55Z</time>
      </trkpt>
      <trkpt lat="45.09243" lon="5.05046">
        <ele>202.41738891602</ele>
        <time>2011-08-10T17:44:03Z</time>
      </trkpt>
      <trkpt lat="45.09238" lon="5.05025">
        <ele>200.99746704102</ele>
        <time>2011-08-10T17:44:05Z</time>
      </trkpt>
      <trkpt lat="45.09237" lon="5.04991">
        <ele>200</ele>
        <time>2011-08-10T17:44:08Z</time>
      </trkpt>
      <trkpt lat="45.09256" lon="5.04953">
        <ele>200.21012878418</ele>
        <time>2011-08-10T17:44:12Z</time>
      </trkpt>
      <trkpt lat="45.09262" lon="5.04946">
        <ele>200.05934143066</ele>
        <time>2011-08-10T17:44:13Z</time>
      </trkpt>
      <trkpt lat="45.0929" lon="5.04906">
        <ele>201.75024414062</ele>
        <time>2011-08-10T17:44:18Z</time>
      </trkpt>
      <trkpt lat="45.09301" lon="5.04879">
        <ele>204.24801635742</ele>
        <time>2011-08-10T17:44:21Z</time>
      </trkpt>
      <trkpt lat="45.09307" lon="5.04818">
        <ele>209.34449768066</ele>
        <time>2011-08-10T17:44:27Z</time>
      </trkpt>
      <trkpt lat="45.09309" lon="5.04776">
        <ele>212.56924438477</ele>
        <time>2011-08-10T17:44:32Z</time>
      </trkpt>
      <trkpt lat="45.0931" lon="5.04763">
        <ele>213.58476257324</ele>
        <time>2011-08-10T17:44:36Z</time>
      </trkpt>
      <trkpt lat="45.09309" lon="5.04763">
        <ele>213.57545471191</ele>
        <time>2011-08-10T17:44:41Z</time>
      </trkpt>
      <trkpt lat="45.09311" lon="5.04757">
        <ele>214.11552429199</ele>
        <time>2011-08-10T17:44:50Z</time>
      </trkpt>
      <trkpt lat="45.09324" lon="5.04743">
        <ele>216.37287902832</ele>
        <time>2011-08-10T17:44:55Z</time>
      </trkpt>
      <trkpt lat="45.09332" lon="5.04734">
        <ele>217.48756408691</ele>
        <time>2011-08-10T17:44:57Z</time>
      </trkpt>
      <trkpt lat="45.09372" lon="5.04702">
        <ele>220</ele>
        <time>2011-08-10T17:45:05Z</time>
      </trkpt>
      <trkpt lat="45.09415" lon="5.04679">
        <ele>221.11798095703</ele>
        <time>2011-08-10T17:45:13Z</time>
      </trkpt>
      <trkpt lat="45.09447" lon="5.04664">
        <ele>220.15930175781</ele>
        <time>2011-08-10T17:45:19Z</time>
      </trkpt>
      <trkpt lat="45.0948" lon="5.0465">
        <ele>220</ele>
        <time>2011-08-10T17:45:25Z</time>
      </trkpt>
      <trkpt lat="45.09508" lon="5.04638">
        <ele>220.01800537109</ele>
        <time>2011-08-10T17:45:30Z</time>
      </trkpt>
      <trkpt lat="45.09546" lon="5.04616">
        <ele>220</ele>
        <time>2011-08-10T17:45:37Z</time>
      </trkpt>
      <trkpt lat="45.09571" lon="5.04597">
        <ele>220</ele>
        <time>2011-08-10T17:45:42Z</time>
      </trkpt>
      <trkpt lat="45.09594" lon="5.04559">
        <ele>220</ele>
        <time>2011-08-10T17:45:48Z</time>
      </trkpt>
      <trkpt lat="45.096" lon="5.04547">
        <ele>220</ele>
        <time>2011-08-10T17:45:50Z</time>
      </trkpt>
      <trkpt lat="45.09607" lon="5.04538">
        <ele>220</ele>
        <time>2011-08-10T17:45:52Z</time>
      </trkpt>
      <trkpt lat="45.09619" lon="5.04526">
        <ele>220</ele>
        <time>2011-08-10T17:45:55Z</time>
      </trkpt>
      <trkpt lat="45.09627" lon="5.04502">
        <ele>220</ele>
        <time>2011-08-10T17:45:59Z</time>
      </trkpt>
      <trkpt lat="45.09625" lon="5.04481">
        <ele>220</ele>
        <time>2011-08-10T17:46:02Z</time>
      </trkpt>
      <trkpt lat="45.09628" lon="5.04467">
        <ele>220</ele>
        <time>2011-08-10T17:46:04Z</time>
      </trkpt>
      <trkpt lat="45.09648" lon="5.04399">
        <ele>220</ele>
        <time>2011-08-10T17:46:14Z</time>
      </trkpt>
      <trkpt lat="45.09665" lon="5.04358">
        <ele>220</ele>
        <time>2011-08-10T17:46:20Z</time>
      </trkpt>
      <trkpt lat="45.09686" lon="5.04324">
        <ele>220</ele>
        <time>2011-08-10T17:46:25Z</time>
      </trkpt>
      <trkpt lat="45.09721" lon="5.04287">
        <ele>220</ele>
        <time>2011-08-10T17:46:31Z</time>
      </trkpt>
      <trkpt lat="45.0979" lon="5.04218">
        <ele>219.75491333008</ele>
        <time>2011-08-10T17:46:42Z</time>
      </trkpt>
      <trkpt lat="45.09838" lon="5.04168">
        <ele>218.27395629883</ele>
        <time>2011-08-10T17:46:50Z</time>
      </trkpt>
      <trkpt lat="45.09858" lon="5.04144">
        <ele>218.17823791504</ele>
        <time>2011-08-10T17:46:54Z</time>
      </trkpt>
      <trkpt lat="45.09874" lon="5.04101">
        <ele>216.63565063477</ele>
        <time>2011-08-10T17:46:59Z</time>
      </trkpt>
      <trkpt lat="45.0989" lon="5.04016">
        <ele>214.08317565918</ele>
        <time>2011-08-10T17:47:08Z</time>
      </trkpt>
      <trkpt lat="45.09883" lon="5.0397">
        <ele>214.86868286133</ele>
        <time>2011-08-10T17:47:13Z</time>
      </trkpt>
      <trkpt lat="45.09852" lon="5.03889">
        <ele>216.34680175781</ele>
        <time>2011-08-10T17:47:23Z</time>
      </trkpt>
      <trkpt lat="45.09823" lon="5.03817">
        <ele>216.84710693359</ele>
        <time>2011-08-10T17:47:32Z</time>
      </trkpt>
      <trkpt lat="45.0981" lon="5.03766">
        <ele>217.75004577637</ele>
        <time>2011-08-10T17:47:38Z</time>
      </trkpt>
      <trkpt lat="45.09798" lon="5.03697">
        <ele>219.10971069336</ele>
        <time>2011-08-10T17:47:46Z</time>
      </trkpt>
      <trkpt lat="45.09791" lon="5.03649">
        <ele>216.30847167969</ele>
        <time>2011-08-10T17:47:52Z</time>
      </trkpt>
      <trkpt lat="45.09789" lon="5.03625">
        <ele>215.34202575684</ele>
        <time>2011-08-10T17:47:55Z</time>
      </trkpt>
      <trkpt lat="45.09794" lon="5.03591">
        <ele>214.44766235352</ele>
        <time>2011-08-10T17:47:59Z</time>
      </trkpt>
      <trkpt lat="45.09811" lon="5.0355">
        <ele>214.57867431641</ele>
        <time>2011-08-10T17:48:04Z</time>
      </trkpt>
      <trkpt lat="45.0985" lon="5.03492">
        <ele>216.59747314453</ele>
        <time>2011-08-10T17:48:12Z</time>
      </trkpt>
      <trkpt lat="45.09892" lon="5.03427">
        <ele>219.10809326172</ele>
        <time>2011-08-10T17:48:21Z</time>
      </trkpt>
      <trkpt lat="45.09906" lon="5.03385">
        <ele>219.62994384766</ele>
        <time>2011-08-10T17:48:26Z</time>
      </trkpt>
      <trkpt lat="45.09922" lon="5.03332">
        <ele>220</ele>
        <time>2011-08-10T17:48:33Z</time>
      </trkpt>
      <trkpt lat="45.09936" lon="5.03276">
        <ele>220.09199523926</ele>
        <time>2011-08-10T17:48:41Z</time>
      </trkpt>
      <trkpt lat="45.09949" lon="5.03225">
        <ele>223.40916442871</ele>
        <time>2011-08-10T17:48:49Z</time>
      </trkpt>
      <trkpt lat="45.09963" lon="5.03181">
        <ele>226.1700592041</ele>
        <time>2011-08-10T17:48:56Z</time>
      </trkpt>
      <trkpt lat="45.09979" lon="5.03126">
        <ele>224.53675842285</ele>
        <time>2011-08-10T17:49:04Z</time>
      </trkpt>
      <trkpt lat="45.09998" lon="5.03055">
        <ele>220.92402648926</ele>
        <time>2011-08-10T17:49:14Z</time>
      </trkpt>
      <trkpt lat="45.10013" lon="5.03002">
        <ele>224.70758056641</ele>
        <time>2011-08-10T17:49:22Z</time>
      </trkpt>
      <trkpt lat="45.10021" lon="5.0297">
        <ele>227.71395874023</ele>
        <time>2011-08-10T17:49:27Z</time>
      </trkpt>
      <trkpt lat="45.10036" lon="5.02914">
        <ele>231.84912109375</ele>
        <time>2011-08-10T17:49:36Z</time>
      </trkpt>
      <trkpt lat="45.10048" lon="5.02874">
        <ele>233.19493103027</ele>
        <time>2011-08-10T17:49:43Z</time>
      </trkpt>
      <trkpt lat="45.10059" lon="5.02827">
        <ele>234.67572021484</ele>
        <time>2011-08-10T17:49:51Z</time>
      </trkpt>
      <trkpt lat="45.10062" lon="5.02815">
        <ele>235.64379882812</ele>
        <time>2011-08-10T17:49:53Z</time>
      </trkpt>
      <trkpt lat="45.1007" lon="5.02791">
        <ele>237.04623413086</ele>
        <time>2011-08-10T17:49:57Z</time>
      </trkpt>
      <trkpt lat="45.10068" lon="5.02758">
        <ele>238.49812316894</ele>
        <time>2011-08-10T17:50:02Z</time>
      </trkpt>
      <trkpt lat="45.10055" lon="5.0273">
        <ele>238.74159240723</ele>
        <time>2011-08-10T17:50:07Z</time>
      </trkpt>
      <trkpt lat="45.10051" lon="5.02725">
        <ele>238.92282104492</ele>
        <time>2011-08-10T17:50:08Z</time>
      </trkpt>
      <trkpt lat="45.10026" lon="5.02693">
        <ele>244.39434814453</ele>
        <time>2011-08-10T17:50:15Z</time>
      </trkpt>
      <trkpt lat="45.10003" lon="5.02668">
        <ele>249.66773986816</ele>
        <time>2011-08-10T17:50:21Z</time>
      </trkpt>
      <trkpt lat="45.0999" lon="5.02648">
        <ele>252.54939270019</ele>
        <time>2011-08-10T17:50:25Z</time>
      </trkpt>
      <trkpt lat="45.09984" lon="5.02636">
        <ele>254.03117370606</ele>
        <time>2011-08-10T17:50:27Z</time>
      </trkpt>
      <trkpt lat="45.09972" lon="5.02592">
        <ele>257.75198364258</ele>
        <time>2011-08-10T17:50:33Z</time>
      </trkpt>
      <trkpt lat="45.09962" lon="5.02569">
        <ele>259.56582641602</ele>
        <time>2011-08-10T17:50:36Z</time>
      </trkpt>
      <trkpt lat="45.09945" lon="5.02543">
        <ele>260.99044799805</ele>
        <time>2011-08-10T17:50:40Z</time>
      </trkpt>
      <trkpt lat="45.09923" lon="5.02514">
        <ele>261.50012207031</ele>
        <time>2011-08-10T17:50:44Z</time>
      </trkpt>
      <trkpt lat="45.09917" lon="5.02507">
        <ele>261.76275634766</ele>
        <time>2011-08-10T17:50:45Z</time>
      </trkpt>
      <trkpt lat="45.09903" lon="5.02481">
        <ele>262</ele>
        <time>2011-08-10T17:50:48Z</time>
      </trkpt>
      <trkpt lat="45.09898" lon="5.02462">
        <ele>262</ele>
        <time>2011-08-10T17:50:50Z</time>
      </trkpt>
      <trkpt lat="45.09888" lon="5.02435">
        <ele>262</ele>
        <time>2011-08-10T17:50:53Z</time>
      </trkpt>
      <trkpt lat="45.09878" lon="5.02406">
        <ele>261.47842407227</ele>
        <time>2011-08-10T17:50:57Z</time>
      </trkpt>
      <trkpt lat="45.09868" lon="5.02368">
        <ele>258.0544128418</ele>
        <time>2011-08-10T17:51:02Z</time>
      </trkpt>
      <trkpt lat="45.09855" lon="5.0231">
        <ele>254.08876037598</ele>
        <time>2011-08-10T17:51:09Z</time>
      </trkpt>
      <trkpt lat="45.0985" lon="5.02289">
        <ele>252.66209411621</ele>
        <time>2011-08-10T17:51:11Z</time>
      </trkpt>
      <trkpt lat="45.09847" lon="5.0224">
        <ele>249.28616333008</ele>
        <time>2011-08-10T17:51:15Z</time>
      </trkpt>
      <trkpt lat="45.09849" lon="5.02227">
        <ele>248.34545898438</ele>
        <time>2011-08-10T17:51:16Z</time>
      </trkpt>
      <trkpt lat="45.09853" lon="5.02214">
        <ele>247.42878723144</ele>
        <time>2011-08-10T17:51:17Z</time>
      </trkpt>
      <trkpt lat="45.0989" lon="5.0211">
        <ele>240.98374938965</ele>
        <time>2011-08-10T17:51:25Z</time>
      </trkpt>
      <trkpt lat="45.09931" lon="5.01998">
        <ele>238</ele>
        <time>2011-08-10T17:51:33Z</time>
      </trkpt>
      <trkpt lat="45.0997" lon="5.01891">
        <ele>237.07202148438</ele>
        <time>2011-08-10T17:51:41Z</time>
      </trkpt>
      <trkpt lat="45.10014" lon="5.01764">
        <ele>237.02076721191</ele>
        <time>2011-08-10T17:51:51Z</time>
      </trkpt>
      <trkpt lat="45.10042" lon="5.01681">
        <ele>236.27563476562</ele>
        <time>2011-08-10T17:51:58Z</time>
      </trkpt>
      <trkpt lat="45.10056" lon="5.01618">
        <ele>235.26138305664</ele>
        <time>2011-08-10T17:52:04Z</time>
      </trkpt>
      <trkpt lat="45.1006" lon="5.01569">
        <ele>235.08000183106</ele>
        <time>2011-08-10T17:52:09Z</time>
      </trkpt>
      <trkpt lat="45.10061" lon="5.0156">
        <ele>235.02861022949</ele>
        <time>2011-08-10T17:52:10Z</time>
      </trkpt>
      <trkpt lat="45.10062" lon="5.01534">
        <ele>234.42408752441</ele>
        <time>2011-08-10T17:52:13Z</time>
      </trkpt>
      <trkpt lat="45.10069" lon="5.01471">
        <ele>233.46699523926</ele>
        <time>2011-08-10T17:52:21Z</time>
      </trkpt>
      <trkpt lat="45.10076" lon="5.01379">
        <ele>231.90705871582</ele>
        <time>2011-08-10T17:52:32Z</time>
      </trkpt>
      <trkpt lat="45.10083" lon="5.01296">
        <ele>231</ele>
        <time>2011-08-10T17:52:42Z</time>
      </trkpt>
      <trkpt lat="45.10093" lon="5.01209">
        <ele>229.51272583008</ele>
        <time>2011-08-10T17:52:52Z</time>
      </trkpt>
      <trkpt lat="45.1011" lon="5.01146">
        <ele>228.25881958008</ele>
        <time>2011-08-10T17:52:59Z</time>
      </trkpt>
      <trkpt lat="45.10133" lon="5.01097">
        <ele>232.12223815918</ele>
        <time>2011-08-10T17:53:05Z</time>
      </trkpt>
      <trkpt lat="45.10172" lon="5.01035">
        <ele>234.69004821777</ele>
        <time>2011-08-10T17:53:13Z</time>
      </trkpt>
      <trkpt lat="45.10218" lon="5.00969">
        <ele>234.49028015137</ele>
        <time>2011-08-10T17:53:22Z</time>
      </trkpt>
      <trkpt lat="45.1026" lon="5.00927">
        <ele>233.99119567871</ele>
        <time>2011-08-10T17:53:29Z</time>
      </trkpt>
      <trkpt lat="45.10316" lon="5.0088">
        <ele>231.5399017334</ele>
        <time>2011-08-10T17:53:38Z</time>
      </trkpt>
      <trkpt lat="45.10375" lon="5.00834">
        <ele>229.03044128418</ele>
        <time>2011-08-10T17:53:47Z</time>
      </trkpt>
      <trkpt lat="45.1042" lon="5.00799">
        <ele>226.45820617676</ele>
        <time>2011-08-10T17:53:54Z</time>
      </trkpt>
      <trkpt lat="45.10484" lon="5.00748">
        <ele>224.43838500977</ele>
        <time>2011-08-10T17:54:04Z</time>
      </trkpt>
      <trkpt lat="45.10535" lon="5.00705">
        <ele>231.77264404297</ele>
        <time>2011-08-10T17:54:13Z</time>
      </trkpt>
      <trkpt lat="45.1057" lon="5.00676">
        <ele>237.40844726562</ele>
        <time>2011-08-10T17:54:20Z</time>
      </trkpt>
      <trkpt lat="45.10608" lon="5.00645">
        <ele>241.34838867188</ele>
        <time>2011-08-10T17:54:28Z</time>
      </trkpt>
      <trkpt lat="45.10648" lon="5.0062">
        <ele>250.52709960938</ele>
        <time>2011-08-10T17:54:36Z</time>
      </trkpt>
      <trkpt lat="45.10694" lon="5.006">
        <ele>255.54273986816</ele>
        <time>2011-08-10T17:54:45Z</time>
      </trkpt>
      <trkpt lat="45.10731" lon="5.00592">
        <ele>259.4938659668</ele>
        <time>2011-08-10T17:54:52Z</time>
      </trkpt>
      <trkpt lat="45.10775" lon="5.00588">
        <ele>263.17126464844</ele>
        <time>2011-08-10T17:55:00Z</time>
      </trkpt>
      <trkpt lat="45.10815" lon="5.00585">
        <ele>265.55670166016</ele>
        <time>2011-08-10T17:55:07Z</time>
      </trkpt>
      <trkpt lat="45.10856" lon="5.00579">
        <ele>269.05075073242</ele>
        <time>2011-08-10T17:55:14Z</time>
      </trkpt>
      <trkpt lat="45.10895" lon="5.00566">
        <ele>269.63436889648</ele>
        <time>2011-08-10T17:55:21Z</time>
      </trkpt>
      <trkpt lat="45.10908" lon="5.00561">
        <ele>268.75772094727</ele>
        <time>2011-08-10T17:55:24Z</time>
      </trkpt>
      <trkpt lat="45.10943" lon="5.00541">
        <ele>265.57626342773</ele>
        <time>2011-08-10T17:55:33Z</time>
      </trkpt>
      <trkpt lat="45.10975" lon="5.00518">
        <ele>262.98706054688</ele>
        <time>2011-08-10T17:55:40Z</time>
      </trkpt>
      <trkpt lat="45.11009" lon="5.00491">
        <ele>257.12658691406</ele>
        <time>2011-08-10T17:55:46Z</time>
      </trkpt>
      <trkpt lat="45.11051" lon="5.00461">
        <ele>251.52822875977</ele>
        <time>2011-08-10T17:55:52Z</time>
      </trkpt>
      <trkpt lat="45.111" lon="5.00431">
        <ele>245.81877136231</ele>
        <time>2011-08-10T17:55:58Z</time>
      </trkpt>
      <trkpt lat="45.11164" lon="5.00395">
        <ele>239.39036560059</ele>
        <time>2011-08-10T17:56:05Z</time>
      </trkpt>
      <trkpt lat="45.1123" lon="5.00362">
        <ele>238</ele>
        <time>2011-08-10T17:56:12Z</time>
      </trkpt>
      <trkpt lat="45.11301" lon="5.00317">
        <ele>237.42578125</ele>
        <time>2011-08-10T17:56:20Z</time>
      </trkpt>
      <trkpt lat="45.11382" lon="5.0025">
        <ele>237</ele>
        <time>2011-08-10T17:56:30Z</time>
      </trkpt>
      <trkpt lat="45.11453" lon="5.00184">
        <ele>237</ele>
        <time>2011-08-10T17:56:40Z</time>
      </trkpt>
      <trkpt lat="45.11498" lon="5.00141">
        <ele>237.07159423828</ele>
        <time>2011-08-10T17:56:47Z</time>
      </trkpt>
      <trkpt lat="45.11536" lon="5.00104">
        <ele>241.20146179199</ele>
        <time>2011-08-10T17:56:54Z</time>
      </trkpt>
      <trkpt lat="45.11575" lon="5.00064">
        <ele>242.0061340332</ele>
        <time>2011-08-10T17:57:02Z</time>
      </trkpt>
      <trkpt lat="45.116" lon="5.00032">
        <ele>242.5431060791</ele>
        <time>2011-08-10T17:57:08Z</time>
      </trkpt>
      <trkpt lat="45.11626" lon="4.99995">
        <ele>235.16316223144</ele>
        <time>2011-08-10T17:57:14Z</time>
      </trkpt>
      <trkpt lat="45.11657" lon="4.99957">
        <ele>235.39852905273</ele>
        <time>2011-08-10T17:57:20Z</time>
      </trkpt>
      <trkpt lat="45.11693" lon="4.99927">
        <ele>235.2766418457</ele>
        <time>2011-08-10T17:57:25Z</time>
      </trkpt>
      <trkpt lat="45.1173" lon="4.99909">
        <ele>234.97190856934</ele>
        <time>2011-08-10T17:57:29Z</time>
      </trkpt>
      <trkpt lat="45.1175" lon="4.99902">
        <ele>234.55990600586</ele>
        <time>2011-08-10T17:57:31Z</time>
      </trkpt>
      <trkpt lat="45.11822" lon="4.99871">
        <ele>228.00366210938</ele>
        <time>2011-08-10T17:57:38Z</time>
      </trkpt>
      <trkpt lat="45.11854" lon="4.99857">
        <ele>223.21096801758</ele>
        <time>2011-08-10T17:57:41Z</time>
      </trkpt>
      <trkpt lat="45.11905" lon="4.99818">
        <ele>214.06976318359</ele>
        <time>2011-08-10T17:57:46Z</time>
      </trkpt>
      <trkpt lat="45.11946" lon="4.99767">
        <ele>209.23872375488</ele>
        <time>2011-08-10T17:57:51Z</time>
      </trkpt>
      <trkpt lat="45.11984" lon="4.99702">
        <ele>207.75077819824</ele>
        <time>2011-08-10T17:57:57Z</time>
      </trkpt>
      <trkpt lat="45.12027" lon="4.99624">
        <ele>207.99372863769</ele>
        <time>2011-08-10T17:58:05Z</time>
      </trkpt>
      <trkpt lat="45.12067" lon="4.99553">
        <ele>207.05497741699</ele>
        <time>2011-08-10T17:58:13Z</time>
      </trkpt>
      <trkpt lat="45.12112" lon="4.99471">
        <ele>207.58436584473</ele>
        <time>2011-08-10T17:58:22Z</time>
      </trkpt>
      <trkpt lat="45.12134" lon="4.9942">
        <ele>208.78100585938</ele>
        <time>2011-08-10T17:58:27Z</time>
      </trkpt>
      <trkpt lat="45.12149" lon="4.99367">
        <ele>208.75253295898</ele>
        <time>2011-08-10T17:58:32Z</time>
      </trkpt>
      <trkpt lat="45.12168" lon="4.99293">
        <ele>208.5524597168</ele>
        <time>2011-08-10T17:58:39Z</time>
      </trkpt>
      <trkpt lat="45.1219" lon="4.9921">
        <ele>209.38284301758</ele>
        <time>2011-08-10T17:58:47Z</time>
      </trkpt>
      <trkpt lat="45.12213" lon="4.99119">
        <ele>211.47833251953</ele>
        <time>2011-08-10T17:58:56Z</time>
      </trkpt>
      <trkpt lat="45.12215" lon="4.99109">
        <ele>211.74685668945</ele>
        <time>2011-08-10T17:58:57Z</time>
      </trkpt>
      <trkpt lat="45.12235" lon="4.99069">
        <ele>214.7590637207</ele>
        <time>2011-08-10T17:59:02Z</time>
      </trkpt>
      <trkpt lat="45.12238" lon="4.99048">
        <ele>216.07179260254</ele>
        <time>2011-08-10T17:59:05Z</time>
      </trkpt>
      <trkpt lat="45.12229" lon="4.99037">
        <ele>215.29335021973</ele>
        <time>2011-08-10T17:59:07Z</time>
      </trkpt>
      <trkpt lat="45.12223" lon="4.99036">
        <ele>214.55564880371</ele>
        <time>2011-08-10T17:59:08Z</time>
      </trkpt>
      <trkpt lat="45.12189" lon="4.99017">
        <ele>210.0724029541</ele>
        <time>2011-08-10T17:59:13Z</time>
      </trkpt>
      <trkpt lat="45.12152" lon="4.98977">
        <ele>206.44271850586</ele>
        <time>2011-08-10T17:59:18Z</time>
      </trkpt>
      <trkpt lat="45.12123" lon="4.98935">
        <ele>205.02227783203</ele>
        <time>2011-08-10T17:59:22Z</time>
      </trkpt>
      <trkpt lat="45.12084" lon="4.98862">
        <ele>203.68524169922</ele>
        <time>2011-08-10T17:59:28Z</time>
      </trkpt>
      <trkpt lat="45.12054" lon="4.98783">
        <ele>203.83935546875</ele>
        <time>2011-08-10T17:59:34Z</time>
      </trkpt>
      <trkpt lat="45.1203" lon="4.98684">
        <ele>203.60084533691</ele>
        <time>2011-08-10T17:59:41Z</time>
      </trkpt>
      <trkpt lat="45.1202" lon="4.98597">
        <ele>203.91395568848</ele>
        <time>2011-08-10T17:59:47Z</time>
      </trkpt>
      <trkpt lat="45.1202" lon="4.98512">
        <ele>205.07389831543</ele>
        <time>2011-08-10T17:59:53Z</time>
      </trkpt>
      <trkpt lat="45.12029" lon="4.98459">
        <ele>205.34661865234</ele>
        <time>2011-08-10T17:59:57Z</time>
      </trkpt>
      <trkpt lat="45.12044" lon="4.98427">
        <ele>205.52514648438</ele>
        <time>2011-08-10T18:00:00Z</time>
      </trkpt>
      <trkpt lat="45.12052" lon="4.98378">
        <ele>204.69534301758</ele>
        <time>2011-08-10T18:00:04Z</time>
      </trkpt>
      <trkpt lat="45.12065" lon="4.98293">
        <ele>204.36302185059</ele>
        <time>2011-08-10T18:00:10Z</time>
      </trkpt>
      <trkpt lat="45.12072" lon="4.98205">
        <ele>205.60772705078</ele>
        <time>2011-08-10T18:00:16Z</time>
      </trkpt>
      <trkpt lat="45.12066" lon="4.98133">
        <ele>205.23384094238</ele>
        <time>2011-08-10T18:00:21Z</time>
      </trkpt>
      <trkpt lat="45.12048" lon="4.98048">
        <ele>202.95796203613</ele>
        <time>2011-08-10T18:00:27Z</time>
      </trkpt>
      <trkpt lat="45.12018" lon="4.97939">
        <ele>200.12596130371</ele>
        <time>2011-08-10T18:00:35Z</time>
      </trkpt>
      <trkpt lat="45.11999" lon="4.97846">
        <ele>198.15580749512</ele>
        <time>2011-08-10T18:00:42Z</time>
      </trkpt>
      <trkpt lat="45.11974" lon="4.97694">
        <ele>197.04586791992</ele>
        <time>2011-08-10T18:00:54Z</time>
      </trkpt>
      <trkpt lat="45.11955" lon="4.97584">
        <ele>197.28596496582</ele>
        <time>2011-08-10T18:01:03Z</time>
      </trkpt>
      <trkpt lat="45.11941" lon="4.97507">
        <ele>196.84899902344</ele>
        <time>2011-08-10T18:01:09Z</time>
      </trkpt>
      <trkpt lat="45.11921" lon="4.97396">
        <ele>196.12553405762</ele>
        <time>2011-08-10T18:01:17Z</time>
      </trkpt>
      <trkpt lat="45.11901" lon="4.97277">
        <ele>196.35905456543</ele>
        <time>2011-08-10T18:01:26Z</time>
      </trkpt>
      <trkpt lat="45.11886" lon="4.97194">
        <ele>196.69630432129</ele>
        <time>2011-08-10T18:01:33Z</time>
      </trkpt>
      <trkpt lat="45.1188" lon="4.97151">
        <ele>196.75137329102</ele>
        <time>2011-08-10T18:01:37Z</time>
      </trkpt>
      <trkpt lat="45.11885" lon="4.97104">
        <ele>197.1580657959</ele>
        <time>2011-08-10T18:01:42Z</time>
      </trkpt>
      <trkpt lat="45.119" lon="4.97086">
        <ele>197.58326721191</ele>
        <time>2011-08-10T18:01:45Z</time>
      </trkpt>
      <trkpt lat="45.11903" lon="4.97064">
        <ele>197.98683166504</ele>
        <time>2011-08-10T18:01:48Z</time>
      </trkpt>
      <trkpt lat="45.11891" lon="4.97051">
        <ele>198.01722717285</ele>
        <time>2011-08-10T18:01:51Z</time>
      </trkpt>
      <trkpt lat="45.1188" lon="4.97042">
        <ele>198.04731750488</ele>
        <time>2011-08-10T18:01:53Z</time>
      </trkpt>
      <trkpt lat="45.11837" lon="4.96986">
        <ele>198.69914245606</ele>
        <time>2011-08-10T18:02:01Z</time>
      </trkpt>
      <trkpt lat="45.11795" lon="4.96923">
        <ele>197.08485412598</ele>
        <time>2011-08-10T18:02:09Z</time>
      </trkpt>
      <trkpt lat="45.11774" lon="4.9689">
        <ele>196.6418762207</ele>
        <time>2011-08-10T18:02:13Z</time>
      </trkpt>
      <trkpt lat="45.11765" lon="4.96861">
        <ele>196.00454711914</ele>
        <time>2011-08-10T18:02:16Z</time>
      </trkpt>
      <trkpt lat="45.11764" lon="4.96849">
        <ele>195.79652404785</ele>
        <time>2011-08-10T18:02:17Z</time>
      </trkpt>
      <trkpt lat="45.11754" lon="4.96823">
        <ele>195.26896667481</ele>
        <time>2011-08-10T18:02:20Z</time>
      </trkpt>
      <trkpt lat="45.11747" lon="4.96818">
        <ele>195.20520019531</ele>
        <time>2011-08-10T18:02:21Z</time>
      </trkpt>
      <trkpt lat="45.11714" lon="4.96792">
        <ele>195.71279907227</ele>
        <time>2011-08-10T18:02:26Z</time>
      </trkpt>
      <trkpt lat="45.11671" lon="4.96721">
        <ele>195.3327331543</ele>
        <time>2011-08-10T18:02:34Z</time>
      </trkpt>
      <trkpt lat="45.11641" lon="4.96646">
        <ele>194.4189453125</ele>
        <time>2011-08-10T18:02:41Z</time>
      </trkpt>
      <trkpt lat="45.116" lon="4.9654">
        <ele>195.5118560791</ele>
        <time>2011-08-10T18:02:51Z</time>
      </trkpt>
      <trkpt lat="45.11586" lon="4.96504">
        <ele>195.12345886231</ele>
        <time>2011-08-10T18:02:55Z</time>
      </trkpt>
      <trkpt lat="45.11583" lon="4.9647">
        <ele>196.06747436523</ele>
        <time>2011-08-10T18:02:59Z</time>
      </trkpt>
      <trkpt lat="45.11583" lon="4.96451">
        <ele>196.74990844727</ele>
        <time>2011-08-10T18:03:02Z</time>
      </trkpt>
      <trkpt lat="45.11578" lon="4.96445">
        <ele>196.75039672852</ele>
        <time>2011-08-10T18:03:07Z</time>
      </trkpt>
      <trkpt lat="45.11578" lon="4.96449">
        <ele>196.63642883301</ele>
        <time>2011-08-10T18:03:23Z</time>
      </trkpt>
      <trkpt lat="45.11569" lon="4.96451">
        <ele>196.18603515625</ele>
        <time>2011-08-10T18:03:29Z</time>
      </trkpt>
      <trkpt lat="45.11566" lon="4.96446">
        <ele>196.24571228027</ele>
        <time>2011-08-10T18:03:31Z</time>
      </trkpt>
      <trkpt lat="45.11563" lon="4.96428">
        <ele>196.82675170898</ele>
        <time>2011-08-10T18:03:36Z</time>
      </trkpt>
      <trkpt lat="45.11568" lon="4.96426">
        <ele>197.10089111328</ele>
        <time>2011-08-10T18:03:41Z</time>
      </trkpt>
      <trkpt lat="45.1157" lon="4.96428">
        <ele>197.0924987793</ele>
        <time>2011-08-10T18:03:47Z</time>
      </trkpt>
      <trkpt lat="45.1157" lon="4.96428">
        <ele>197.08879089356</ele>
        <time>2011-08-10T18:03:51Z</time>
      </trkpt>
      <trkpt lat="45.11572" lon="4.96426">
        <ele>197.21463012695</ele>
        <time>2011-08-10T18:03:58Z</time>
      </trkpt>
      <trkpt lat="45.11573" lon="4.96426">
        <ele>197.28590393066</ele>
        <time>2011-08-10T18:04:03Z</time>
      </trkpt>
      <trkpt lat="45.11575" lon="4.96427">
        <ele>197.31446838379</ele>
        <time>2011-08-10T18:04:11Z</time>
      </trkpt>
    </trkseg>
  </trk>
</gpx>